<?xml version="1.0" encoding="UTF-8" standalone="no" ?>
<gpx xmlns="http://www.topografix.com/GPX/1/1" xmlns:xsi="http://www.w3.org/2001/XMLSchema-instance" xsi:schemaLocation="http://www.topografix.com/GPX/1/1 http://www.topografix.com/GPX/1/1/gpx.xsd" version="1.1" creator="VisuGPX - https://www.visugpx.com">
  <metadata>
    <name>[27/09/2015] Rando de Fains - 55 km</name>
    <desc><![CDATA[Randonnée VTT organisée à Fains (27) le dimanche 27 septembre 2015.]]></desc>
  </metadata>
  <trk>
    <name><![CDATA[[27/09/2015] Rando de Fains - 55 km_1]]></name>
    <trkseg>
      <trkpt lat="48.99501" lon="1.38403">
        <ele>42.766258</ele>
        <time>2015-09-27T06:13:52Z</time>
      </trkpt>
      <trkpt lat="48.99499" lon="1.38405">
        <ele>42.766258</ele>
        <time>2015-09-27T06:13:53Z</time>
      </trkpt>
      <trkpt lat="48.99491" lon="1.38415">
        <ele>42.748177</ele>
        <time>2015-09-27T06:13:59Z</time>
      </trkpt>
      <trkpt lat="48.99501" lon="1.38407">
        <ele>42.747482</ele>
        <time>2015-09-27T06:14:16Z</time>
      </trkpt>
      <trkpt lat="48.99507" lon="1.38397">
        <ele>42.747417</ele>
        <time>2015-09-27T06:14:19Z</time>
      </trkpt>
      <trkpt lat="48.99516" lon="1.38385">
        <ele>42.747364</ele>
        <time>2015-09-27T06:14:22Z</time>
      </trkpt>
      <trkpt lat="48.99525" lon="1.38371">
        <ele>42.747326</ele>
        <time>2015-09-27T06:14:25Z</time>
      </trkpt>
      <trkpt lat="48.99533" lon="1.38362">
        <ele>42.747292</ele>
        <time>2015-09-27T06:14:28Z</time>
      </trkpt>
      <trkpt lat="48.99525" lon="1.38373">
        <ele>42.7472</ele>
        <time>2015-09-27T06:14:54Z</time>
      </trkpt>
      <trkpt lat="48.99518" lon="1.38383">
        <ele>42.7</ele>
        <time>2015-09-27T06:14:57Z</time>
      </trkpt>
      <trkpt lat="48.99512" lon="1.38396">
        <ele>42.8</ele>
        <time>2015-09-27T06:15:01Z</time>
      </trkpt>
      <trkpt lat="48.99504" lon="1.38409">
        <ele>43</ele>
        <time>2015-09-27T06:15:05Z</time>
      </trkpt>
      <trkpt lat="48.99498" lon="1.3842">
        <ele>43</ele>
        <time>2015-09-27T06:15:09Z</time>
      </trkpt>
      <trkpt lat="48.99488" lon="1.38419">
        <ele>43.2</ele>
        <time>2015-09-27T06:15:22Z</time>
      </trkpt>
      <trkpt lat="48.9948" lon="1.38408">
        <ele>43.2</ele>
        <time>2015-09-27T06:15:27Z</time>
      </trkpt>
      <trkpt lat="48.99472" lon="1.38399">
        <ele>43.3</ele>
        <time>2015-09-27T06:15:30Z</time>
      </trkpt>
      <trkpt lat="48.99465" lon="1.3839">
        <ele>43.3</ele>
        <time>2015-09-27T06:15:33Z</time>
      </trkpt>
      <trkpt lat="48.99456" lon="1.3838">
        <ele>43.3</ele>
        <time>2015-09-27T06:15:37Z</time>
      </trkpt>
      <trkpt lat="48.99449" lon="1.38368">
        <ele>43.3</ele>
        <time>2015-09-27T06:15:41Z</time>
      </trkpt>
      <trkpt lat="48.99441" lon="1.38356">
        <ele>43.3</ele>
        <time>2015-09-27T06:15:45Z</time>
      </trkpt>
      <trkpt lat="48.99433" lon="1.38345">
        <ele>43.1</ele>
        <time>2015-09-27T06:15:49Z</time>
      </trkpt>
      <trkpt lat="48.99424" lon="1.38331">
        <ele>43.1</ele>
        <time>2015-09-27T06:15:53Z</time>
      </trkpt>
      <trkpt lat="48.99417" lon="1.38321">
        <ele>43.1</ele>
        <time>2015-09-27T06:15:56Z</time>
      </trkpt>
      <trkpt lat="48.9941" lon="1.38311">
        <ele>43.2</ele>
        <time>2015-09-27T06:15:59Z</time>
      </trkpt>
      <trkpt lat="48.99402" lon="1.38301">
        <ele>43.2</ele>
        <time>2015-09-27T06:16:02Z</time>
      </trkpt>
      <trkpt lat="48.99396" lon="1.3829">
        <ele>43.2</ele>
        <time>2015-09-27T06:16:05Z</time>
      </trkpt>
      <trkpt lat="48.99389" lon="1.38279">
        <ele>43.2</ele>
        <time>2015-09-27T06:16:08Z</time>
      </trkpt>
      <trkpt lat="48.99383" lon="1.38268">
        <ele>43.3</ele>
        <time>2015-09-27T06:16:11Z</time>
      </trkpt>
      <trkpt lat="48.99376" lon="1.38257">
        <ele>43.3</ele>
        <time>2015-09-27T06:16:14Z</time>
      </trkpt>
      <trkpt lat="48.99369" lon="1.38245">
        <ele>43.4</ele>
        <time>2015-09-27T06:16:17Z</time>
      </trkpt>
      <trkpt lat="48.99363" lon="1.38233">
        <ele>43.4</ele>
        <time>2015-09-27T06:16:20Z</time>
      </trkpt>
      <trkpt lat="48.99356" lon="1.38222">
        <ele>43.6</ele>
        <time>2015-09-27T06:16:23Z</time>
      </trkpt>
      <trkpt lat="48.9935" lon="1.38212">
        <ele>43.8</ele>
        <time>2015-09-27T06:16:26Z</time>
      </trkpt>
      <trkpt lat="48.99342" lon="1.38199">
        <ele>44</ele>
        <time>2015-09-27T06:16:30Z</time>
      </trkpt>
      <trkpt lat="48.99336" lon="1.38189">
        <ele>44.2</ele>
        <time>2015-09-27T06:16:33Z</time>
      </trkpt>
      <trkpt lat="48.99329" lon="1.38179">
        <ele>44.3</ele>
        <time>2015-09-27T06:16:36Z</time>
      </trkpt>
      <trkpt lat="48.99321" lon="1.38167">
        <ele>44.7</ele>
        <time>2015-09-27T06:16:40Z</time>
      </trkpt>
      <trkpt lat="48.99312" lon="1.38155">
        <ele>45</ele>
        <time>2015-09-27T06:16:44Z</time>
      </trkpt>
      <trkpt lat="48.99303" lon="1.38144">
        <ele>45.4</ele>
        <time>2015-09-27T06:16:48Z</time>
      </trkpt>
      <trkpt lat="48.99294" lon="1.38135">
        <ele>45.7</ele>
        <time>2015-09-27T06:16:52Z</time>
      </trkpt>
      <trkpt lat="48.99285" lon="1.38127">
        <ele>46.2</ele>
        <time>2015-09-27T06:16:56Z</time>
      </trkpt>
      <trkpt lat="48.99275" lon="1.3812">
        <ele>46.6</ele>
        <time>2015-09-27T06:17:00Z</time>
      </trkpt>
      <trkpt lat="48.99266" lon="1.38114">
        <ele>47.1</ele>
        <time>2015-09-27T06:17:04Z</time>
      </trkpt>
      <trkpt lat="48.99256" lon="1.38109">
        <ele>47.7</ele>
        <time>2015-09-27T06:17:08Z</time>
      </trkpt>
      <trkpt lat="48.99246" lon="1.38105">
        <ele>48.3</ele>
        <time>2015-09-27T06:17:12Z</time>
      </trkpt>
      <trkpt lat="48.99236" lon="1.38103">
        <ele>48.9</ele>
        <time>2015-09-27T06:17:16Z</time>
      </trkpt>
      <trkpt lat="48.99226" lon="1.38103">
        <ele>49.4</ele>
        <time>2015-09-27T06:17:20Z</time>
      </trkpt>
      <trkpt lat="48.99215" lon="1.38104">
        <ele>50</ele>
        <time>2015-09-27T06:17:24Z</time>
      </trkpt>
      <trkpt lat="48.99204" lon="1.38107">
        <ele>50.7</ele>
        <time>2015-09-27T06:17:28Z</time>
      </trkpt>
      <trkpt lat="48.99194" lon="1.38111">
        <ele>51.3</ele>
        <time>2015-09-27T06:17:32Z</time>
      </trkpt>
      <trkpt lat="48.99185" lon="1.38113">
        <ele>51.9</ele>
        <time>2015-09-27T06:17:36Z</time>
      </trkpt>
      <trkpt lat="48.99175" lon="1.38116">
        <ele>52.6</ele>
        <time>2015-09-27T06:17:40Z</time>
      </trkpt>
      <trkpt lat="48.99166" lon="1.38118">
        <ele>53.2</ele>
        <time>2015-09-27T06:17:44Z</time>
      </trkpt>
      <trkpt lat="48.99156" lon="1.38121">
        <ele>53.9</ele>
        <time>2015-09-27T06:17:48Z</time>
      </trkpt>
      <trkpt lat="48.99146" lon="1.38123">
        <ele>54.6</ele>
        <time>2015-09-27T06:17:52Z</time>
      </trkpt>
      <trkpt lat="48.99136" lon="1.38126">
        <ele>55.4</ele>
        <time>2015-09-27T06:17:56Z</time>
      </trkpt>
      <trkpt lat="48.99126" lon="1.3813">
        <ele>56.2</ele>
        <time>2015-09-27T06:18:01Z</time>
      </trkpt>
      <trkpt lat="48.99115" lon="1.38133">
        <ele>57.2</ele>
        <time>2015-09-27T06:18:06Z</time>
      </trkpt>
      <trkpt lat="48.99106" lon="1.38136">
        <ele>58.1</ele>
        <time>2015-09-27T06:18:11Z</time>
      </trkpt>
      <trkpt lat="48.99097" lon="1.38139">
        <ele>59</ele>
        <time>2015-09-27T06:18:16Z</time>
      </trkpt>
      <trkpt lat="48.99086" lon="1.38141">
        <ele>60</ele>
        <time>2015-09-27T06:18:22Z</time>
      </trkpt>
      <trkpt lat="48.99077" lon="1.38145">
        <ele>60.8</ele>
        <time>2015-09-27T06:18:27Z</time>
      </trkpt>
      <trkpt lat="48.99067" lon="1.3815">
        <ele>61.8</ele>
        <time>2015-09-27T06:18:33Z</time>
      </trkpt>
      <trkpt lat="48.99057" lon="1.38155">
        <ele>62.8</ele>
        <time>2015-09-27T06:18:39Z</time>
      </trkpt>
      <trkpt lat="48.99049" lon="1.38161">
        <ele>63.9</ele>
        <time>2015-09-27T06:18:45Z</time>
      </trkpt>
      <trkpt lat="48.99041" lon="1.38168">
        <ele>64.8</ele>
        <time>2015-09-27T06:18:50Z</time>
      </trkpt>
      <trkpt lat="48.99033" lon="1.38175">
        <ele>65.6</ele>
        <time>2015-09-27T06:18:55Z</time>
      </trkpt>
      <trkpt lat="48.99025" lon="1.38183">
        <ele>66.4</ele>
        <time>2015-09-27T06:19:00Z</time>
      </trkpt>
      <trkpt lat="48.99016" lon="1.38192">
        <ele>67.4</ele>
        <time>2015-09-27T06:19:06Z</time>
      </trkpt>
      <trkpt lat="48.99009" lon="1.38201">
        <ele>68.3</ele>
        <time>2015-09-27T06:19:11Z</time>
      </trkpt>
      <trkpt lat="48.99002" lon="1.38211">
        <ele>69.1</ele>
        <time>2015-09-27T06:19:16Z</time>
      </trkpt>
      <trkpt lat="48.98994" lon="1.3822">
        <ele>70</ele>
        <time>2015-09-27T06:19:21Z</time>
      </trkpt>
      <trkpt lat="48.98985" lon="1.38225">
        <ele>70.9</ele>
        <time>2015-09-27T06:19:26Z</time>
      </trkpt>
      <trkpt lat="48.98976" lon="1.38219">
        <ele>72.1</ele>
        <time>2015-09-27T06:19:32Z</time>
      </trkpt>
      <trkpt lat="48.98967" lon="1.3821">
        <ele>73.3</ele>
        <time>2015-09-27T06:19:38Z</time>
      </trkpt>
      <trkpt lat="48.98961" lon="1.38202">
        <ele>74.2</ele>
        <time>2015-09-27T06:19:43Z</time>
      </trkpt>
      <trkpt lat="48.98956" lon="1.38187">
        <ele>75.4</ele>
        <time>2015-09-27T06:19:49Z</time>
      </trkpt>
      <trkpt lat="48.98951" lon="1.38175">
        <ele>76.3</ele>
        <time>2015-09-27T06:19:54Z</time>
      </trkpt>
      <trkpt lat="48.98947" lon="1.38163">
        <ele>77.3</ele>
        <time>2015-09-27T06:19:59Z</time>
      </trkpt>
      <trkpt lat="48.98941" lon="1.38149">
        <ele>78.6</ele>
        <time>2015-09-27T06:20:05Z</time>
      </trkpt>
      <trkpt lat="48.98937" lon="1.38135">
        <ele>79.7</ele>
        <time>2015-09-27T06:20:11Z</time>
      </trkpt>
      <trkpt lat="48.98931" lon="1.38122">
        <ele>80.9</ele>
        <time>2015-09-27T06:20:17Z</time>
      </trkpt>
      <trkpt lat="48.98925" lon="1.38109">
        <ele>82</ele>
        <time>2015-09-27T06:20:23Z</time>
      </trkpt>
      <trkpt lat="48.98921" lon="1.38095">
        <ele>83.2</ele>
        <time>2015-09-27T06:20:29Z</time>
      </trkpt>
      <trkpt lat="48.98917" lon="1.38082">
        <ele>84.6</ele>
        <time>2015-09-27T06:20:35Z</time>
      </trkpt>
      <trkpt lat="48.98914" lon="1.38068">
        <ele>86</ele>
        <time>2015-09-27T06:20:41Z</time>
      </trkpt>
      <trkpt lat="48.98912" lon="1.38053">
        <ele>87.3</ele>
        <time>2015-09-27T06:20:47Z</time>
      </trkpt>
      <trkpt lat="48.98908" lon="1.38038">
        <ele>88.6</ele>
        <time>2015-09-27T06:20:53Z</time>
      </trkpt>
      <trkpt lat="48.98904" lon="1.38024">
        <ele>90</ele>
        <time>2015-09-27T06:21:00Z</time>
      </trkpt>
      <trkpt lat="48.989" lon="1.3801">
        <ele>91.3</ele>
        <time>2015-09-27T06:21:06Z</time>
      </trkpt>
      <trkpt lat="48.98894" lon="1.37999">
        <ele>92.3</ele>
        <time>2015-09-27T06:21:12Z</time>
      </trkpt>
      <trkpt lat="48.98888" lon="1.37988">
        <ele>93.5</ele>
        <time>2015-09-27T06:21:18Z</time>
      </trkpt>
      <trkpt lat="48.9888" lon="1.37978">
        <ele>94.8</ele>
        <time>2015-09-27T06:21:24Z</time>
      </trkpt>
      <trkpt lat="48.98872" lon="1.37967">
        <ele>96.1</ele>
        <time>2015-09-27T06:21:30Z</time>
      </trkpt>
      <trkpt lat="48.98865" lon="1.37958">
        <ele>97.5</ele>
        <time>2015-09-27T06:21:36Z</time>
      </trkpt>
      <trkpt lat="48.98858" lon="1.37948">
        <ele>98.6</ele>
        <time>2015-09-27T06:21:41Z</time>
      </trkpt>
      <trkpt lat="48.98851" lon="1.37938">
        <ele>99.6</ele>
        <time>2015-09-27T06:21:46Z</time>
      </trkpt>
      <trkpt lat="48.98844" lon="1.3793">
        <ele>100.6</ele>
        <time>2015-09-27T06:21:51Z</time>
      </trkpt>
      <trkpt lat="48.98836" lon="1.3792">
        <ele>101.6</ele>
        <time>2015-09-27T06:21:56Z</time>
      </trkpt>
      <trkpt lat="48.98829" lon="1.37911">
        <ele>102.6</ele>
        <time>2015-09-27T06:22:01Z</time>
      </trkpt>
      <trkpt lat="48.98821" lon="1.37901">
        <ele>103.6</ele>
        <time>2015-09-27T06:22:06Z</time>
      </trkpt>
      <trkpt lat="48.98812" lon="1.37892">
        <ele>104.4</ele>
        <time>2015-09-27T06:22:11Z</time>
      </trkpt>
      <trkpt lat="48.98805" lon="1.37883">
        <ele>105</ele>
        <time>2015-09-27T06:22:15Z</time>
      </trkpt>
      <trkpt lat="48.98797" lon="1.37875">
        <ele>105.6</ele>
        <time>2015-09-27T06:22:19Z</time>
      </trkpt>
      <trkpt lat="48.98789" lon="1.3787">
        <ele>106.2</ele>
        <time>2015-09-27T06:22:23Z</time>
      </trkpt>
      <trkpt lat="48.9878" lon="1.37866">
        <ele>106.7</ele>
        <time>2015-09-27T06:22:27Z</time>
      </trkpt>
      <trkpt lat="48.9877" lon="1.37862">
        <ele>107.3</ele>
        <time>2015-09-27T06:22:31Z</time>
      </trkpt>
      <trkpt lat="48.98761" lon="1.37858">
        <ele>107.8</ele>
        <time>2015-09-27T06:22:35Z</time>
      </trkpt>
      <trkpt lat="48.98753" lon="1.37866">
        <ele>108.3</ele>
        <time>2015-09-27T06:22:39Z</time>
      </trkpt>
      <trkpt lat="48.9875" lon="1.3785">
        <ele>110.1</ele>
        <time>2015-09-27T06:23:46Z</time>
      </trkpt>
      <trkpt lat="48.98738" lon="1.37846">
        <ele>110.3</ele>
        <time>2015-09-27T06:23:50Z</time>
      </trkpt>
      <trkpt lat="48.98727" lon="1.37843">
        <ele>110.6</ele>
        <time>2015-09-27T06:23:54Z</time>
      </trkpt>
      <trkpt lat="48.98716" lon="1.37841">
        <ele>111.3</ele>
        <time>2015-09-27T06:23:58Z</time>
      </trkpt>
      <trkpt lat="48.98706" lon="1.37839">
        <ele>112</ele>
        <time>2015-09-27T06:24:02Z</time>
      </trkpt>
      <trkpt lat="48.98695" lon="1.37837">
        <ele>112.8</ele>
        <time>2015-09-27T06:24:07Z</time>
      </trkpt>
      <trkpt lat="48.98685" lon="1.37833">
        <ele>113.7</ele>
        <time>2015-09-27T06:24:12Z</time>
      </trkpt>
      <trkpt lat="48.98676" lon="1.3783">
        <ele>114.5</ele>
        <time>2015-09-27T06:24:16Z</time>
      </trkpt>
      <trkpt lat="48.98666" lon="1.37827">
        <ele>115.3</ele>
        <time>2015-09-27T06:24:20Z</time>
      </trkpt>
      <trkpt lat="48.98655" lon="1.37823">
        <ele>116</ele>
        <time>2015-09-27T06:24:24Z</time>
      </trkpt>
      <trkpt lat="48.98645" lon="1.3782">
        <ele>116.9</ele>
        <time>2015-09-27T06:24:28Z</time>
      </trkpt>
      <trkpt lat="48.98635" lon="1.37816">
        <ele>117.8</ele>
        <time>2015-09-27T06:24:32Z</time>
      </trkpt>
      <trkpt lat="48.98624" lon="1.37813">
        <ele>118.6</ele>
        <time>2015-09-27T06:24:36Z</time>
      </trkpt>
      <trkpt lat="48.98613" lon="1.37808">
        <ele>119.5</ele>
        <time>2015-09-27T06:24:40Z</time>
      </trkpt>
      <trkpt lat="48.98602" lon="1.37804">
        <ele>120.4</ele>
        <time>2015-09-27T06:24:44Z</time>
      </trkpt>
      <trkpt lat="48.9859" lon="1.37799">
        <ele>121.3</ele>
        <time>2015-09-27T06:24:48Z</time>
      </trkpt>
      <trkpt lat="48.98579" lon="1.37796">
        <ele>122</ele>
        <time>2015-09-27T06:24:52Z</time>
      </trkpt>
      <trkpt lat="48.98569" lon="1.37793">
        <ele>122.6</ele>
        <time>2015-09-27T06:24:55Z</time>
      </trkpt>
      <trkpt lat="48.98558" lon="1.37789">
        <ele>123.1</ele>
        <time>2015-09-27T06:24:58Z</time>
      </trkpt>
      <trkpt lat="48.98545" lon="1.37785">
        <ele>123.7</ele>
        <time>2015-09-27T06:25:01Z</time>
      </trkpt>
      <trkpt lat="48.98534" lon="1.37782">
        <ele>124.1</ele>
        <time>2015-09-27T06:25:03Z</time>
      </trkpt>
      <trkpt lat="48.98523" lon="1.37779">
        <ele>124.5</ele>
        <time>2015-09-27T06:25:05Z</time>
      </trkpt>
      <trkpt lat="48.98513" lon="1.37775">
        <ele>124.8</ele>
        <time>2015-09-27T06:25:07Z</time>
      </trkpt>
      <trkpt lat="48.98503" lon="1.37772">
        <ele>125.1</ele>
        <time>2015-09-27T06:25:09Z</time>
      </trkpt>
      <trkpt lat="48.98493" lon="1.37767">
        <ele>125.4</ele>
        <time>2015-09-27T06:25:11Z</time>
      </trkpt>
      <trkpt lat="48.98484" lon="1.37763">
        <ele>125.7</ele>
        <time>2015-09-27T06:25:13Z</time>
      </trkpt>
      <trkpt lat="48.98475" lon="1.37759">
        <ele>125.9</ele>
        <time>2015-09-27T06:25:15Z</time>
      </trkpt>
      <trkpt lat="48.98466" lon="1.37755">
        <ele>126.2</ele>
        <time>2015-09-27T06:25:17Z</time>
      </trkpt>
      <trkpt lat="48.98453" lon="1.37756">
        <ele>126.8</ele>
        <time>2015-09-27T06:25:20Z</time>
      </trkpt>
      <trkpt lat="48.98444" lon="1.37769">
        <ele>127.3</ele>
        <time>2015-09-27T06:25:23Z</time>
      </trkpt>
      <trkpt lat="48.98436" lon="1.37785">
        <ele>127.6</ele>
        <time>2015-09-27T06:25:26Z</time>
      </trkpt>
      <trkpt lat="48.98428" lon="1.378">
        <ele>128</ele>
        <time>2015-09-27T06:25:29Z</time>
      </trkpt>
      <trkpt lat="48.9842" lon="1.37815">
        <ele>128.2</ele>
        <time>2015-09-27T06:25:32Z</time>
      </trkpt>
      <trkpt lat="48.98412" lon="1.37829">
        <ele>128.5</ele>
        <time>2015-09-27T06:25:35Z</time>
      </trkpt>
      <trkpt lat="48.98403" lon="1.37843">
        <ele>128.7</ele>
        <time>2015-09-27T06:25:38Z</time>
      </trkpt>
      <trkpt lat="48.98396" lon="1.37857">
        <ele>128.8</ele>
        <time>2015-09-27T06:25:41Z</time>
      </trkpt>
      <trkpt lat="48.98387" lon="1.37873">
        <ele>128.9</ele>
        <time>2015-09-27T06:25:44Z</time>
      </trkpt>
      <trkpt lat="48.9838" lon="1.37886">
        <ele>129</ele>
        <time>2015-09-27T06:25:47Z</time>
      </trkpt>
      <trkpt lat="48.98373" lon="1.37899">
        <ele>129.1</ele>
        <time>2015-09-27T06:25:50Z</time>
      </trkpt>
      <trkpt lat="48.98365" lon="1.37913">
        <ele>129.2</ele>
        <time>2015-09-27T06:25:54Z</time>
      </trkpt>
      <trkpt lat="48.98358" lon="1.37925">
        <ele>129.3</ele>
        <time>2015-09-27T06:25:57Z</time>
      </trkpt>
      <trkpt lat="48.98351" lon="1.37936">
        <ele>129.3</ele>
        <time>2015-09-27T06:26:00Z</time>
      </trkpt>
      <trkpt lat="48.98343" lon="1.3795">
        <ele>129.4</ele>
        <time>2015-09-27T06:26:03Z</time>
      </trkpt>
      <trkpt lat="48.98337" lon="1.37963">
        <ele>129.4</ele>
        <time>2015-09-27T06:26:06Z</time>
      </trkpt>
      <trkpt lat="48.98329" lon="1.37977">
        <ele>129.4</ele>
        <time>2015-09-27T06:26:09Z</time>
      </trkpt>
      <trkpt lat="48.98321" lon="1.37992">
        <ele>129.4</ele>
        <time>2015-09-27T06:26:12Z</time>
      </trkpt>
      <trkpt lat="48.98313" lon="1.38005">
        <ele>129.5</ele>
        <time>2015-09-27T06:26:15Z</time>
      </trkpt>
      <trkpt lat="48.98306" lon="1.38019">
        <ele>129.5</ele>
        <time>2015-09-27T06:26:18Z</time>
      </trkpt>
      <trkpt lat="48.98299" lon="1.38033">
        <ele>129.5</ele>
        <time>2015-09-27T06:26:21Z</time>
      </trkpt>
      <trkpt lat="48.98293" lon="1.38044">
        <ele>129.6</ele>
        <time>2015-09-27T06:26:23Z</time>
      </trkpt>
      <trkpt lat="48.98285" lon="1.38059">
        <ele>129.6</ele>
        <time>2015-09-27T06:26:26Z</time>
      </trkpt>
      <trkpt lat="48.98279" lon="1.3807">
        <ele>129.6</ele>
        <time>2015-09-27T06:26:28Z</time>
      </trkpt>
      <trkpt lat="48.98273" lon="1.38081">
        <ele>129.6</ele>
        <time>2015-09-27T06:26:30Z</time>
      </trkpt>
      <trkpt lat="48.98265" lon="1.38095">
        <ele>129.6</ele>
        <time>2015-09-27T06:26:33Z</time>
      </trkpt>
      <trkpt lat="48.98258" lon="1.38109">
        <ele>129.6</ele>
        <time>2015-09-27T06:26:36Z</time>
      </trkpt>
      <trkpt lat="48.9825" lon="1.38124">
        <ele>129.7</ele>
        <time>2015-09-27T06:26:39Z</time>
      </trkpt>
      <trkpt lat="48.98244" lon="1.38135">
        <ele>129.7</ele>
        <time>2015-09-27T06:26:41Z</time>
      </trkpt>
      <trkpt lat="48.98235" lon="1.3815">
        <ele>129.8</ele>
        <time>2015-09-27T06:26:44Z</time>
      </trkpt>
      <trkpt lat="48.98229" lon="1.38161">
        <ele>130</ele>
        <time>2015-09-27T06:26:46Z</time>
      </trkpt>
      <trkpt lat="48.9822" lon="1.38177">
        <ele>130.2</ele>
        <time>2015-09-27T06:26:49Z</time>
      </trkpt>
      <trkpt lat="48.98214" lon="1.38187">
        <ele>130.2</ele>
        <time>2015-09-27T06:26:51Z</time>
      </trkpt>
      <trkpt lat="48.98208" lon="1.38198">
        <ele>130.3</ele>
        <time>2015-09-27T06:26:53Z</time>
      </trkpt>
      <trkpt lat="48.98202" lon="1.38209">
        <ele>130.4</ele>
        <time>2015-09-27T06:26:55Z</time>
      </trkpt>
      <trkpt lat="48.98197" lon="1.3822">
        <ele>130.5</ele>
        <time>2015-09-27T06:26:57Z</time>
      </trkpt>
      <trkpt lat="48.98191" lon="1.38232">
        <ele>130.5</ele>
        <time>2015-09-27T06:26:59Z</time>
      </trkpt>
      <trkpt lat="48.98185" lon="1.38243">
        <ele>130.6</ele>
        <time>2015-09-27T06:27:01Z</time>
      </trkpt>
      <trkpt lat="48.98179" lon="1.38254">
        <ele>130.6</ele>
        <time>2015-09-27T06:27:03Z</time>
      </trkpt>
      <trkpt lat="48.98171" lon="1.3827">
        <ele>130.7</ele>
        <time>2015-09-27T06:27:06Z</time>
      </trkpt>
      <trkpt lat="48.98165" lon="1.38281">
        <ele>130.7</ele>
        <time>2015-09-27T06:27:08Z</time>
      </trkpt>
      <trkpt lat="48.98158" lon="1.38292">
        <ele>130.7</ele>
        <time>2015-09-27T06:27:10Z</time>
      </trkpt>
      <trkpt lat="48.98152" lon="1.38304">
        <ele>130.7</ele>
        <time>2015-09-27T06:27:12Z</time>
      </trkpt>
      <trkpt lat="48.98149" lon="1.38318">
        <ele>130.7</ele>
        <time>2015-09-27T06:27:14Z</time>
      </trkpt>
      <trkpt lat="48.98148" lon="1.38335">
        <ele>130.7</ele>
        <time>2015-09-27T06:27:16Z</time>
      </trkpt>
      <trkpt lat="48.98147" lon="1.38351">
        <ele>130.6</ele>
        <time>2015-09-27T06:27:18Z</time>
      </trkpt>
      <trkpt lat="48.98145" lon="1.38367">
        <ele>130.6</ele>
        <time>2015-09-27T06:27:20Z</time>
      </trkpt>
      <trkpt lat="48.98143" lon="1.38383">
        <ele>130.6</ele>
        <time>2015-09-27T06:27:22Z</time>
      </trkpt>
      <trkpt lat="48.98142" lon="1.38399">
        <ele>130.5</ele>
        <time>2015-09-27T06:27:24Z</time>
      </trkpt>
      <trkpt lat="48.9814" lon="1.38415">
        <ele>130.5</ele>
        <time>2015-09-27T06:27:26Z</time>
      </trkpt>
      <trkpt lat="48.98138" lon="1.38431">
        <ele>130.5</ele>
        <time>2015-09-27T06:27:28Z</time>
      </trkpt>
      <trkpt lat="48.98135" lon="1.38447">
        <ele>130.4</ele>
        <time>2015-09-27T06:27:30Z</time>
      </trkpt>
      <trkpt lat="48.98134" lon="1.38463">
        <ele>130.4</ele>
        <time>2015-09-27T06:27:32Z</time>
      </trkpt>
      <trkpt lat="48.98132" lon="1.3848">
        <ele>130.3</ele>
        <time>2015-09-27T06:27:34Z</time>
      </trkpt>
      <trkpt lat="48.9813" lon="1.38497">
        <ele>130.2</ele>
        <time>2015-09-27T06:27:36Z</time>
      </trkpt>
      <trkpt lat="48.98128" lon="1.38514">
        <ele>130.1</ele>
        <time>2015-09-27T06:27:38Z</time>
      </trkpt>
      <trkpt lat="48.98127" lon="1.38531">
        <ele>129.9</ele>
        <time>2015-09-27T06:27:40Z</time>
      </trkpt>
      <trkpt lat="48.98125" lon="1.38546">
        <ele>129.8</ele>
        <time>2015-09-27T06:27:42Z</time>
      </trkpt>
      <trkpt lat="48.98124" lon="1.38563">
        <ele>129.6</ele>
        <time>2015-09-27T06:27:44Z</time>
      </trkpt>
      <trkpt lat="48.98122" lon="1.3858">
        <ele>129.4</ele>
        <time>2015-09-27T06:27:46Z</time>
      </trkpt>
      <trkpt lat="48.98121" lon="1.38597">
        <ele>129.2</ele>
        <time>2015-09-27T06:27:48Z</time>
      </trkpt>
      <trkpt lat="48.98119" lon="1.38615">
        <ele>129</ele>
        <time>2015-09-27T06:27:50Z</time>
      </trkpt>
      <trkpt lat="48.98116" lon="1.38633">
        <ele>128.7</ele>
        <time>2015-09-27T06:27:52Z</time>
      </trkpt>
      <trkpt lat="48.98114" lon="1.38651">
        <ele>128.4</ele>
        <time>2015-09-27T06:27:54Z</time>
      </trkpt>
      <trkpt lat="48.9811" lon="1.38669">
        <ele>128.2</ele>
        <time>2015-09-27T06:27:56Z</time>
      </trkpt>
      <trkpt lat="48.98106" lon="1.38687">
        <ele>127.9</ele>
        <time>2015-09-27T06:27:58Z</time>
      </trkpt>
      <trkpt lat="48.981" lon="1.38703">
        <ele>127.6</ele>
        <time>2015-09-27T06:28:00Z</time>
      </trkpt>
      <trkpt lat="48.98092" lon="1.38718">
        <ele>127.4</ele>
        <time>2015-09-27T06:28:02Z</time>
      </trkpt>
      <trkpt lat="48.98083" lon="1.38732">
        <ele>127.1</ele>
        <time>2015-09-27T06:28:04Z</time>
      </trkpt>
      <trkpt lat="48.98074" lon="1.38745">
        <ele>126.8</ele>
        <time>2015-09-27T06:28:06Z</time>
      </trkpt>
      <trkpt lat="48.98064" lon="1.38758">
        <ele>126.6</ele>
        <time>2015-09-27T06:28:08Z</time>
      </trkpt>
      <trkpt lat="48.98055" lon="1.38772">
        <ele>126.3</ele>
        <time>2015-09-27T06:28:10Z</time>
      </trkpt>
      <trkpt lat="48.98044" lon="1.38786">
        <ele>125.9</ele>
        <time>2015-09-27T06:28:12Z</time>
      </trkpt>
      <trkpt lat="48.98034" lon="1.388">
        <ele>125.6</ele>
        <time>2015-09-27T06:28:14Z</time>
      </trkpt>
      <trkpt lat="48.98024" lon="1.38815">
        <ele>125.3</ele>
        <time>2015-09-27T06:28:16Z</time>
      </trkpt>
      <trkpt lat="48.98013" lon="1.3883">
        <ele>124.9</ele>
        <time>2015-09-27T06:28:18Z</time>
      </trkpt>
      <trkpt lat="48.98002" lon="1.38845">
        <ele>124.5</ele>
        <time>2015-09-27T06:28:20Z</time>
      </trkpt>
      <trkpt lat="48.97991" lon="1.3886">
        <ele>124.1</ele>
        <time>2015-09-27T06:28:22Z</time>
      </trkpt>
      <trkpt lat="48.97979" lon="1.38875">
        <ele>123.7</ele>
        <time>2015-09-27T06:28:24Z</time>
      </trkpt>
      <trkpt lat="48.97968" lon="1.38889">
        <ele>123.3</ele>
        <time>2015-09-27T06:28:26Z</time>
      </trkpt>
      <trkpt lat="48.97958" lon="1.38904">
        <ele>122.9</ele>
        <time>2015-09-27T06:28:28Z</time>
      </trkpt>
      <trkpt lat="48.97947" lon="1.38919">
        <ele>122.4</ele>
        <time>2015-09-27T06:28:30Z</time>
      </trkpt>
      <trkpt lat="48.97936" lon="1.38934">
        <ele>122</ele>
        <time>2015-09-27T06:28:32Z</time>
      </trkpt>
      <trkpt lat="48.97925" lon="1.38949">
        <ele>121.5</ele>
        <time>2015-09-27T06:28:34Z</time>
      </trkpt>
      <trkpt lat="48.97914" lon="1.38964">
        <ele>121</ele>
        <time>2015-09-27T06:28:36Z</time>
      </trkpt>
      <trkpt lat="48.97904" lon="1.38979">
        <ele>120.5</ele>
        <time>2015-09-27T06:28:38Z</time>
      </trkpt>
      <trkpt lat="48.97894" lon="1.38994">
        <ele>120</ele>
        <time>2015-09-27T06:28:40Z</time>
      </trkpt>
      <trkpt lat="48.97885" lon="1.39007">
        <ele>119.6</ele>
        <time>2015-09-27T06:28:42Z</time>
      </trkpt>
      <trkpt lat="48.97875" lon="1.39017">
        <ele>119.1</ele>
        <time>2015-09-27T06:28:45Z</time>
      </trkpt>
      <trkpt lat="48.97869" lon="1.39002">
        <ele>118.4</ele>
        <time>2015-09-27T06:28:49Z</time>
      </trkpt>
      <trkpt lat="48.97863" lon="1.38983">
        <ele>118</ele>
        <time>2015-09-27T06:28:52Z</time>
      </trkpt>
      <trkpt lat="48.97858" lon="1.3897">
        <ele>117.8</ele>
        <time>2015-09-27T06:28:54Z</time>
      </trkpt>
      <trkpt lat="48.97853" lon="1.38958">
        <ele>117.7</ele>
        <time>2015-09-27T06:28:56Z</time>
      </trkpt>
      <trkpt lat="48.97849" lon="1.38945">
        <ele>117.5</ele>
        <time>2015-09-27T06:28:58Z</time>
      </trkpt>
      <trkpt lat="48.97843" lon="1.38928">
        <ele>117.4</ele>
        <time>2015-09-27T06:29:01Z</time>
      </trkpt>
      <trkpt lat="48.97836" lon="1.38911">
        <ele>117.3</ele>
        <time>2015-09-27T06:29:04Z</time>
      </trkpt>
      <trkpt lat="48.97832" lon="1.38898">
        <ele>117.3</ele>
        <time>2015-09-27T06:29:06Z</time>
      </trkpt>
      <trkpt lat="48.97827" lon="1.38886">
        <ele>117.2</ele>
        <time>2015-09-27T06:29:08Z</time>
      </trkpt>
      <trkpt lat="48.97823" lon="1.38873">
        <ele>117.2</ele>
        <time>2015-09-27T06:29:10Z</time>
      </trkpt>
      <trkpt lat="48.97818" lon="1.3886">
        <ele>117.2</ele>
        <time>2015-09-27T06:29:12Z</time>
      </trkpt>
      <trkpt lat="48.97814" lon="1.38846">
        <ele>117.2</ele>
        <time>2015-09-27T06:29:14Z</time>
      </trkpt>
      <trkpt lat="48.9781" lon="1.38833">
        <ele>117.2</ele>
        <time>2015-09-27T06:29:16Z</time>
      </trkpt>
      <trkpt lat="48.97805" lon="1.38821">
        <ele>117.2</ele>
        <time>2015-09-27T06:29:18Z</time>
      </trkpt>
      <trkpt lat="48.97801" lon="1.38809">
        <ele>117.2</ele>
        <time>2015-09-27T06:29:20Z</time>
      </trkpt>
      <trkpt lat="48.97797" lon="1.38795">
        <ele>117.2</ele>
        <time>2015-09-27T06:29:22Z</time>
      </trkpt>
      <trkpt lat="48.97792" lon="1.38782">
        <ele>117.2</ele>
        <time>2015-09-27T06:29:24Z</time>
      </trkpt>
      <trkpt lat="48.97789" lon="1.38769">
        <ele>117.3</ele>
        <time>2015-09-27T06:29:26Z</time>
      </trkpt>
      <trkpt lat="48.97785" lon="1.38755">
        <ele>117.4</ele>
        <time>2015-09-27T06:29:28Z</time>
      </trkpt>
      <trkpt lat="48.97782" lon="1.38741">
        <ele>117.5</ele>
        <time>2015-09-27T06:29:30Z</time>
      </trkpt>
      <trkpt lat="48.97779" lon="1.38728">
        <ele>117.6</ele>
        <time>2015-09-27T06:29:32Z</time>
      </trkpt>
      <trkpt lat="48.97776" lon="1.38714">
        <ele>117.7</ele>
        <time>2015-09-27T06:29:34Z</time>
      </trkpt>
      <trkpt lat="48.97773" lon="1.387">
        <ele>117.7</ele>
        <time>2015-09-27T06:29:36Z</time>
      </trkpt>
      <trkpt lat="48.9777" lon="1.38686">
        <ele>117.8</ele>
        <time>2015-09-27T06:29:38Z</time>
      </trkpt>
      <trkpt lat="48.97768" lon="1.38672">
        <ele>117.8</ele>
        <time>2015-09-27T06:29:40Z</time>
      </trkpt>
      <trkpt lat="48.97765" lon="1.38658">
        <ele>117.9</ele>
        <time>2015-09-27T06:29:42Z</time>
      </trkpt>
      <trkpt lat="48.97762" lon="1.38644">
        <ele>118</ele>
        <time>2015-09-27T06:29:44Z</time>
      </trkpt>
      <trkpt lat="48.9776" lon="1.38629">
        <ele>118.1</ele>
        <time>2015-09-27T06:29:46Z</time>
      </trkpt>
      <trkpt lat="48.97757" lon="1.38615">
        <ele>118.2</ele>
        <time>2015-09-27T06:29:48Z</time>
      </trkpt>
      <trkpt lat="48.97754" lon="1.386">
        <ele>118.4</ele>
        <time>2015-09-27T06:29:50Z</time>
      </trkpt>
      <trkpt lat="48.97751" lon="1.38586">
        <ele>118.5</ele>
        <time>2015-09-27T06:29:52Z</time>
      </trkpt>
      <trkpt lat="48.97748" lon="1.38572">
        <ele>118.6</ele>
        <time>2015-09-27T06:29:54Z</time>
      </trkpt>
      <trkpt lat="48.97745" lon="1.38558">
        <ele>118.8</ele>
        <time>2015-09-27T06:29:56Z</time>
      </trkpt>
      <trkpt lat="48.9774" lon="1.38545">
        <ele>118.9</ele>
        <time>2015-09-27T06:29:58Z</time>
      </trkpt>
      <trkpt lat="48.97735" lon="1.38531">
        <ele>119.1</ele>
        <time>2015-09-27T06:30:00Z</time>
      </trkpt>
      <trkpt lat="48.97729" lon="1.38519">
        <ele>119.2</ele>
        <time>2015-09-27T06:30:02Z</time>
      </trkpt>
      <trkpt lat="48.97723" lon="1.38506">
        <ele>119.4</ele>
        <time>2015-09-27T06:30:04Z</time>
      </trkpt>
      <trkpt lat="48.97716" lon="1.38493">
        <ele>119.6</ele>
        <time>2015-09-27T06:30:06Z</time>
      </trkpt>
      <trkpt lat="48.97709" lon="1.38482">
        <ele>119.8</ele>
        <time>2015-09-27T06:30:08Z</time>
      </trkpt>
      <trkpt lat="48.97702" lon="1.3847">
        <ele>119.9</ele>
        <time>2015-09-27T06:30:10Z</time>
      </trkpt>
      <trkpt lat="48.97695" lon="1.38459">
        <ele>120.1</ele>
        <time>2015-09-27T06:30:12Z</time>
      </trkpt>
      <trkpt lat="48.97688" lon="1.38448">
        <ele>120.3</ele>
        <time>2015-09-27T06:30:14Z</time>
      </trkpt>
      <trkpt lat="48.9768" lon="1.38438">
        <ele>120.5</ele>
        <time>2015-09-27T06:30:16Z</time>
      </trkpt>
      <trkpt lat="48.97673" lon="1.38428">
        <ele>120.6</ele>
        <time>2015-09-27T06:30:18Z</time>
      </trkpt>
      <trkpt lat="48.97665" lon="1.38419">
        <ele>120.8</ele>
        <time>2015-09-27T06:30:20Z</time>
      </trkpt>
      <trkpt lat="48.97657" lon="1.38411">
        <ele>121</ele>
        <time>2015-09-27T06:30:22Z</time>
      </trkpt>
      <trkpt lat="48.97645" lon="1.38401">
        <ele>121.2</ele>
        <time>2015-09-27T06:30:25Z</time>
      </trkpt>
      <trkpt lat="48.97638" lon="1.38393">
        <ele>121.4</ele>
        <time>2015-09-27T06:30:27Z</time>
      </trkpt>
      <trkpt lat="48.97628" lon="1.3838">
        <ele>121.7</ele>
        <time>2015-09-27T06:30:30Z</time>
      </trkpt>
      <trkpt lat="48.97619" lon="1.38367">
        <ele>122.1</ele>
        <time>2015-09-27T06:30:33Z</time>
      </trkpt>
      <trkpt lat="48.97608" lon="1.38356">
        <ele>122.4</ele>
        <time>2015-09-27T06:30:36Z</time>
      </trkpt>
      <trkpt lat="48.97597" lon="1.38344">
        <ele>122.6</ele>
        <time>2015-09-27T06:30:39Z</time>
      </trkpt>
      <trkpt lat="48.9759" lon="1.38335">
        <ele>122.8</ele>
        <time>2015-09-27T06:30:41Z</time>
      </trkpt>
      <trkpt lat="48.97582" lon="1.38327">
        <ele>122.9</ele>
        <time>2015-09-27T06:30:43Z</time>
      </trkpt>
      <trkpt lat="48.97572" lon="1.38314">
        <ele>123.1</ele>
        <time>2015-09-27T06:30:46Z</time>
      </trkpt>
      <trkpt lat="48.97562" lon="1.38301">
        <ele>123.3</ele>
        <time>2015-09-27T06:30:49Z</time>
      </trkpt>
      <trkpt lat="48.97551" lon="1.38289">
        <ele>123.5</ele>
        <time>2015-09-27T06:30:52Z</time>
      </trkpt>
      <trkpt lat="48.97541" lon="1.38276">
        <ele>123.6</ele>
        <time>2015-09-27T06:30:55Z</time>
      </trkpt>
      <trkpt lat="48.97534" lon="1.38266">
        <ele>123.8</ele>
        <time>2015-09-27T06:30:57Z</time>
      </trkpt>
      <trkpt lat="48.97528" lon="1.38255">
        <ele>123.9</ele>
        <time>2015-09-27T06:30:59Z</time>
      </trkpt>
      <trkpt lat="48.97523" lon="1.38244">
        <ele>123.9</ele>
        <time>2015-09-27T06:31:01Z</time>
      </trkpt>
      <trkpt lat="48.97518" lon="1.38232">
        <ele>124.1</ele>
        <time>2015-09-27T06:31:03Z</time>
      </trkpt>
      <trkpt lat="48.97512" lon="1.3822">
        <ele>124.2</ele>
        <time>2015-09-27T06:31:05Z</time>
      </trkpt>
      <trkpt lat="48.97507" lon="1.38208">
        <ele>124.3</ele>
        <time>2015-09-27T06:31:07Z</time>
      </trkpt>
      <trkpt lat="48.97503" lon="1.38196">
        <ele>124.4</ele>
        <time>2015-09-27T06:31:09Z</time>
      </trkpt>
      <trkpt lat="48.97498" lon="1.38184">
        <ele>124.5</ele>
        <time>2015-09-27T06:31:11Z</time>
      </trkpt>
      <trkpt lat="48.97493" lon="1.38171">
        <ele>124.6</ele>
        <time>2015-09-27T06:31:13Z</time>
      </trkpt>
      <trkpt lat="48.97489" lon="1.38159">
        <ele>124.7</ele>
        <time>2015-09-27T06:31:15Z</time>
      </trkpt>
      <trkpt lat="48.97483" lon="1.38147">
        <ele>124.9</ele>
        <time>2015-09-27T06:31:17Z</time>
      </trkpt>
      <trkpt lat="48.97478" lon="1.38135">
        <ele>125</ele>
        <time>2015-09-27T06:31:19Z</time>
      </trkpt>
      <trkpt lat="48.97474" lon="1.38123">
        <ele>125.1</ele>
        <time>2015-09-27T06:31:21Z</time>
      </trkpt>
      <trkpt lat="48.97469" lon="1.38111">
        <ele>125.2</ele>
        <time>2015-09-27T06:31:23Z</time>
      </trkpt>
      <trkpt lat="48.97463" lon="1.38099">
        <ele>125.3</ele>
        <time>2015-09-27T06:31:25Z</time>
      </trkpt>
      <trkpt lat="48.97457" lon="1.38087">
        <ele>125.3</ele>
        <time>2015-09-27T06:31:27Z</time>
      </trkpt>
      <trkpt lat="48.9745" lon="1.38076">
        <ele>125.4</ele>
        <time>2015-09-27T06:31:29Z</time>
      </trkpt>
      <trkpt lat="48.97443" lon="1.38065">
        <ele>125.5</ele>
        <time>2015-09-27T06:31:31Z</time>
      </trkpt>
      <trkpt lat="48.97436" lon="1.38054">
        <ele>125.5</ele>
        <time>2015-09-27T06:31:33Z</time>
      </trkpt>
      <trkpt lat="48.97429" lon="1.38044">
        <ele>125.6</ele>
        <time>2015-09-27T06:31:35Z</time>
      </trkpt>
      <trkpt lat="48.97421" lon="1.38034">
        <ele>125.6</ele>
        <time>2015-09-27T06:31:37Z</time>
      </trkpt>
      <trkpt lat="48.97414" lon="1.38025">
        <ele>125.6</ele>
        <time>2015-09-27T06:31:39Z</time>
      </trkpt>
      <trkpt lat="48.97406" lon="1.38015">
        <ele>125.7</ele>
        <time>2015-09-27T06:31:41Z</time>
      </trkpt>
      <trkpt lat="48.97398" lon="1.38005">
        <ele>125.6</ele>
        <time>2015-09-27T06:31:43Z</time>
      </trkpt>
      <trkpt lat="48.97391" lon="1.37996">
        <ele>125.6</ele>
        <time>2015-09-27T06:31:45Z</time>
      </trkpt>
      <trkpt lat="48.97383" lon="1.37987">
        <ele>125.6</ele>
        <time>2015-09-27T06:31:47Z</time>
      </trkpt>
      <trkpt lat="48.97375" lon="1.37977">
        <ele>125.6</ele>
        <time>2015-09-27T06:31:49Z</time>
      </trkpt>
      <trkpt lat="48.97366" lon="1.37969">
        <ele>125.6</ele>
        <time>2015-09-27T06:31:51Z</time>
      </trkpt>
      <trkpt lat="48.97357" lon="1.3796">
        <ele>125.6</ele>
        <time>2015-09-27T06:31:53Z</time>
      </trkpt>
      <trkpt lat="48.97348" lon="1.37952">
        <ele>125.6</ele>
        <time>2015-09-27T06:31:55Z</time>
      </trkpt>
      <trkpt lat="48.97339" lon="1.37943">
        <ele>125.6</ele>
        <time>2015-09-27T06:31:57Z</time>
      </trkpt>
      <trkpt lat="48.97328" lon="1.37937">
        <ele>125.5</ele>
        <time>2015-09-27T06:31:59Z</time>
      </trkpt>
      <trkpt lat="48.97316" lon="1.37934">
        <ele>125.5</ele>
        <time>2015-09-27T06:32:01Z</time>
      </trkpt>
      <trkpt lat="48.97304" lon="1.37936">
        <ele>125.4</ele>
        <time>2015-09-27T06:32:03Z</time>
      </trkpt>
      <trkpt lat="48.97293" lon="1.3794">
        <ele>125.3</ele>
        <time>2015-09-27T06:32:05Z</time>
      </trkpt>
      <trkpt lat="48.97286" lon="1.37951">
        <ele>125</ele>
        <time>2015-09-27T06:32:07Z</time>
      </trkpt>
      <trkpt lat="48.97285" lon="1.37966">
        <ele>124.6</ele>
        <time>2015-09-27T06:32:09Z</time>
      </trkpt>
      <trkpt lat="48.97286" lon="1.37981">
        <ele>124.2</ele>
        <time>2015-09-27T06:32:11Z</time>
      </trkpt>
      <trkpt lat="48.97285" lon="1.37997">
        <ele>123.9</ele>
        <time>2015-09-27T06:32:13Z</time>
      </trkpt>
      <trkpt lat="48.97285" lon="1.38015">
        <ele>123.5</ele>
        <time>2015-09-27T06:32:15Z</time>
      </trkpt>
      <trkpt lat="48.97284" lon="1.38033">
        <ele>123.2</ele>
        <time>2015-09-27T06:32:17Z</time>
      </trkpt>
      <trkpt lat="48.97284" lon="1.38052">
        <ele>123</ele>
        <time>2015-09-27T06:32:19Z</time>
      </trkpt>
      <trkpt lat="48.97282" lon="1.38072">
        <ele>122.8</ele>
        <time>2015-09-27T06:32:21Z</time>
      </trkpt>
      <trkpt lat="48.9728" lon="1.38092">
        <ele>122.6</ele>
        <time>2015-09-27T06:32:23Z</time>
      </trkpt>
      <trkpt lat="48.97279" lon="1.3811">
        <ele>122.4</ele>
        <time>2015-09-27T06:32:25Z</time>
      </trkpt>
      <trkpt lat="48.97279" lon="1.38126">
        <ele>122.2</ele>
        <time>2015-09-27T06:32:27Z</time>
      </trkpt>
      <trkpt lat="48.97269" lon="1.38138">
        <ele>122</ele>
        <time>2015-09-27T06:32:30Z</time>
      </trkpt>
      <trkpt lat="48.9726" lon="1.38143">
        <ele>121.7</ele>
        <time>2015-09-27T06:32:32Z</time>
      </trkpt>
      <trkpt lat="48.97257" lon="1.38162">
        <ele>121.2</ele>
        <time>2015-09-27T06:32:35Z</time>
      </trkpt>
      <trkpt lat="48.97255" lon="1.38178">
        <ele>120.8</ele>
        <time>2015-09-27T06:32:37Z</time>
      </trkpt>
      <trkpt lat="48.97254" lon="1.38193">
        <ele>120.5</ele>
        <time>2015-09-27T06:32:39Z</time>
      </trkpt>
      <trkpt lat="48.97253" lon="1.38209">
        <ele>120.2</ele>
        <time>2015-09-27T06:32:41Z</time>
      </trkpt>
      <trkpt lat="48.9725" lon="1.38221">
        <ele>119.9</ele>
        <time>2015-09-27T06:32:43Z</time>
      </trkpt>
      <trkpt lat="48.97246" lon="1.38238">
        <ele>119.5</ele>
        <time>2015-09-27T06:32:45Z</time>
      </trkpt>
      <trkpt lat="48.97245" lon="1.38253">
        <ele>119.1</ele>
        <time>2015-09-27T06:32:47Z</time>
      </trkpt>
      <trkpt lat="48.97243" lon="1.3827">
        <ele>118.7</ele>
        <time>2015-09-27T06:32:49Z</time>
      </trkpt>
      <trkpt lat="48.97239" lon="1.38288">
        <ele>118</ele>
        <time>2015-09-27T06:32:51Z</time>
      </trkpt>
      <trkpt lat="48.97233" lon="1.38307">
        <ele>117.5</ele>
        <time>2015-09-27T06:32:53Z</time>
      </trkpt>
      <trkpt lat="48.97225" lon="1.38326">
        <ele>116.8</ele>
        <time>2015-09-27T06:32:55Z</time>
      </trkpt>
      <trkpt lat="48.97215" lon="1.38345">
        <ele>116</ele>
        <time>2015-09-27T06:32:57Z</time>
      </trkpt>
      <trkpt lat="48.97206" lon="1.38362">
        <ele>115.2</ele>
        <time>2015-09-27T06:32:59Z</time>
      </trkpt>
      <trkpt lat="48.97196" lon="1.38374">
        <ele>114.5</ele>
        <time>2015-09-27T06:33:01Z</time>
      </trkpt>
      <trkpt lat="48.97183" lon="1.38384">
        <ele>113.7</ele>
        <time>2015-09-27T06:33:03Z</time>
      </trkpt>
      <trkpt lat="48.97169" lon="1.3839">
        <ele>113</ele>
        <time>2015-09-27T06:33:05Z</time>
      </trkpt>
      <trkpt lat="48.97156" lon="1.38397">
        <ele>112.2</ele>
        <time>2015-09-27T06:33:07Z</time>
      </trkpt>
      <trkpt lat="48.97144" lon="1.38399">
        <ele>111.4</ele>
        <time>2015-09-27T06:33:09Z</time>
      </trkpt>
      <trkpt lat="48.97134" lon="1.38403">
        <ele>110.4</ele>
        <time>2015-09-27T06:33:11Z</time>
      </trkpt>
      <trkpt lat="48.97124" lon="1.38402">
        <ele>109.4</ele>
        <time>2015-09-27T06:33:13Z</time>
      </trkpt>
      <trkpt lat="48.97113" lon="1.38403">
        <ele>108.4</ele>
        <time>2015-09-27T06:33:15Z</time>
      </trkpt>
      <trkpt lat="48.97106" lon="1.38418">
        <ele>106.9</ele>
        <time>2015-09-27T06:33:18Z</time>
      </trkpt>
      <trkpt lat="48.971" lon="1.38429">
        <ele>105.9</ele>
        <time>2015-09-27T06:33:20Z</time>
      </trkpt>
      <trkpt lat="48.97095" lon="1.38441">
        <ele>104.7</ele>
        <time>2015-09-27T06:33:23Z</time>
      </trkpt>
      <trkpt lat="48.97088" lon="1.38451">
        <ele>104</ele>
        <time>2015-09-27T06:33:25Z</time>
      </trkpt>
      <trkpt lat="48.9708" lon="1.38463">
        <ele>103.1</ele>
        <time>2015-09-27T06:33:28Z</time>
      </trkpt>
      <trkpt lat="48.97073" lon="1.38475">
        <ele>102.5</ele>
        <time>2015-09-27T06:33:30Z</time>
      </trkpt>
      <trkpt lat="48.97069" lon="1.3849">
        <ele>101.9</ele>
        <time>2015-09-27T06:33:33Z</time>
      </trkpt>
      <trkpt lat="48.97066" lon="1.38503">
        <ele>101.5</ele>
        <time>2015-09-27T06:33:35Z</time>
      </trkpt>
      <trkpt lat="48.97061" lon="1.38524">
        <ele>101.1</ele>
        <time>2015-09-27T06:33:37Z</time>
      </trkpt>
      <trkpt lat="48.97057" lon="1.38536">
        <ele>100.9</ele>
        <time>2015-09-27T06:33:39Z</time>
      </trkpt>
      <trkpt lat="48.97048" lon="1.38551">
        <ele>100.6</ele>
        <time>2015-09-27T06:33:42Z</time>
      </trkpt>
      <trkpt lat="48.97041" lon="1.38565">
        <ele>100.4</ele>
        <time>2015-09-27T06:33:45Z</time>
      </trkpt>
      <trkpt lat="48.97031" lon="1.38576">
        <ele>100</ele>
        <time>2015-09-27T06:33:48Z</time>
      </trkpt>
      <trkpt lat="48.97022" lon="1.38585">
        <ele>99.6</ele>
        <time>2015-09-27T06:33:51Z</time>
      </trkpt>
      <trkpt lat="48.97011" lon="1.38592">
        <ele>99.2</ele>
        <time>2015-09-27T06:33:54Z</time>
      </trkpt>
      <trkpt lat="48.97001" lon="1.38593">
        <ele>98.8</ele>
        <time>2015-09-27T06:33:57Z</time>
      </trkpt>
      <trkpt lat="48.96991" lon="1.38596">
        <ele>98.6</ele>
        <time>2015-09-27T06:33:59Z</time>
      </trkpt>
      <trkpt lat="48.96982" lon="1.38598">
        <ele>98.4</ele>
        <time>2015-09-27T06:34:01Z</time>
      </trkpt>
      <trkpt lat="48.96967" lon="1.38591">
        <ele>98.2</ele>
        <time>2015-09-27T06:34:04Z</time>
      </trkpt>
      <trkpt lat="48.9696" lon="1.38579">
        <ele>98</ele>
        <time>2015-09-27T06:34:06Z</time>
      </trkpt>
      <trkpt lat="48.96952" lon="1.38568">
        <ele>97.7</ele>
        <time>2015-09-27T06:34:08Z</time>
      </trkpt>
      <trkpt lat="48.96944" lon="1.38561">
        <ele>97.3</ele>
        <time>2015-09-27T06:34:10Z</time>
      </trkpt>
      <trkpt lat="48.96933" lon="1.38553">
        <ele>96.8</ele>
        <time>2015-09-27T06:34:12Z</time>
      </trkpt>
      <trkpt lat="48.96921" lon="1.38547">
        <ele>96.2</ele>
        <time>2015-09-27T06:34:14Z</time>
      </trkpt>
      <trkpt lat="48.96908" lon="1.38541">
        <ele>95.6</ele>
        <time>2015-09-27T06:34:16Z</time>
      </trkpt>
      <trkpt lat="48.96892" lon="1.38536">
        <ele>94.7</ele>
        <time>2015-09-27T06:34:18Z</time>
      </trkpt>
      <trkpt lat="48.96877" lon="1.38531">
        <ele>93.9</ele>
        <time>2015-09-27T06:34:20Z</time>
      </trkpt>
      <trkpt lat="48.96861" lon="1.38526">
        <ele>92.7</ele>
        <time>2015-09-27T06:34:22Z</time>
      </trkpt>
      <trkpt lat="48.96845" lon="1.38521">
        <ele>91.4</ele>
        <time>2015-09-27T06:34:24Z</time>
      </trkpt>
      <trkpt lat="48.96829" lon="1.38516">
        <ele>90.3</ele>
        <time>2015-09-27T06:34:26Z</time>
      </trkpt>
      <trkpt lat="48.96812" lon="1.38513">
        <ele>88.9</ele>
        <time>2015-09-27T06:34:28Z</time>
      </trkpt>
      <trkpt lat="48.96796" lon="1.38514">
        <ele>87.4</ele>
        <time>2015-09-27T06:34:30Z</time>
      </trkpt>
      <trkpt lat="48.96779" lon="1.38519">
        <ele>85.9</ele>
        <time>2015-09-27T06:34:32Z</time>
      </trkpt>
      <trkpt lat="48.96763" lon="1.38527">
        <ele>84.4</ele>
        <time>2015-09-27T06:34:34Z</time>
      </trkpt>
      <trkpt lat="48.96746" lon="1.38537">
        <ele>83</ele>
        <time>2015-09-27T06:34:36Z</time>
      </trkpt>
      <trkpt lat="48.9673" lon="1.38546">
        <ele>81.6</ele>
        <time>2015-09-27T06:34:38Z</time>
      </trkpt>
      <trkpt lat="48.96721" lon="1.38551">
        <ele>80.8</ele>
        <time>2015-09-27T06:34:39Z</time>
      </trkpt>
      <trkpt lat="48.96704" lon="1.38557">
        <ele>79.4</ele>
        <time>2015-09-27T06:34:41Z</time>
      </trkpt>
      <trkpt lat="48.96688" lon="1.38559">
        <ele>77.9</ele>
        <time>2015-09-27T06:34:43Z</time>
      </trkpt>
      <trkpt lat="48.9667" lon="1.38556">
        <ele>76.4</ele>
        <time>2015-09-27T06:34:45Z</time>
      </trkpt>
      <trkpt lat="48.96653" lon="1.38548">
        <ele>74.8</ele>
        <time>2015-09-27T06:34:47Z</time>
      </trkpt>
      <trkpt lat="48.96637" lon="1.38538">
        <ele>73.3</ele>
        <time>2015-09-27T06:34:49Z</time>
      </trkpt>
      <trkpt lat="48.96629" lon="1.38532">
        <ele>72.6</ele>
        <time>2015-09-27T06:34:50Z</time>
      </trkpt>
      <trkpt lat="48.96614" lon="1.3852">
        <ele>71</ele>
        <time>2015-09-27T06:34:52Z</time>
      </trkpt>
      <trkpt lat="48.96605" lon="1.38505">
        <ele>69.4</ele>
        <time>2015-09-27T06:34:54Z</time>
      </trkpt>
      <trkpt lat="48.96603" lon="1.38488">
        <ele>67.8</ele>
        <time>2015-09-27T06:34:56Z</time>
      </trkpt>
      <trkpt lat="48.96608" lon="1.38471">
        <ele>66.3</ele>
        <time>2015-09-27T06:34:58Z</time>
      </trkpt>
      <trkpt lat="48.96614" lon="1.38454">
        <ele>65</ele>
        <time>2015-09-27T06:35:00Z</time>
      </trkpt>
      <trkpt lat="48.96621" lon="1.38438">
        <ele>63.8</ele>
        <time>2015-09-27T06:35:02Z</time>
      </trkpt>
      <trkpt lat="48.96627" lon="1.38421">
        <ele>62.7</ele>
        <time>2015-09-27T06:35:04Z</time>
      </trkpt>
      <trkpt lat="48.9663" lon="1.38405">
        <ele>61.7</ele>
        <time>2015-09-27T06:35:06Z</time>
      </trkpt>
      <trkpt lat="48.96631" lon="1.3839">
        <ele>60.7</ele>
        <time>2015-09-27T06:35:08Z</time>
      </trkpt>
      <trkpt lat="48.96626" lon="1.38378">
        <ele>59.9</ele>
        <time>2015-09-27T06:35:10Z</time>
      </trkpt>
      <trkpt lat="48.96617" lon="1.38371">
        <ele>59.1</ele>
        <time>2015-09-27T06:35:12Z</time>
      </trkpt>
      <trkpt lat="48.96605" lon="1.38377">
        <ele>58.1</ele>
        <time>2015-09-27T06:35:15Z</time>
      </trkpt>
      <trkpt lat="48.96599" lon="1.38389">
        <ele>57.6</ele>
        <time>2015-09-27T06:35:17Z</time>
      </trkpt>
      <trkpt lat="48.96593" lon="1.38399">
        <ele>57.1</ele>
        <time>2015-09-27T06:35:19Z</time>
      </trkpt>
      <trkpt lat="48.96584" lon="1.3841">
        <ele>56.7</ele>
        <time>2015-09-27T06:35:21Z</time>
      </trkpt>
      <trkpt lat="48.96576" lon="1.38418">
        <ele>56.3</ele>
        <time>2015-09-27T06:35:23Z</time>
      </trkpt>
      <trkpt lat="48.96567" lon="1.38426">
        <ele>56</ele>
        <time>2015-09-27T06:35:25Z</time>
      </trkpt>
      <trkpt lat="48.96558" lon="1.38435">
        <ele>55.7</ele>
        <time>2015-09-27T06:35:27Z</time>
      </trkpt>
      <trkpt lat="48.96549" lon="1.38444">
        <ele>55.4</ele>
        <time>2015-09-27T06:35:29Z</time>
      </trkpt>
      <trkpt lat="48.96541" lon="1.38453">
        <ele>55.2</ele>
        <time>2015-09-27T06:35:31Z</time>
      </trkpt>
      <trkpt lat="48.96533" lon="1.38464">
        <ele>55</ele>
        <time>2015-09-27T06:35:33Z</time>
      </trkpt>
      <trkpt lat="48.96526" lon="1.38476">
        <ele>54.9</ele>
        <time>2015-09-27T06:35:35Z</time>
      </trkpt>
      <trkpt lat="48.96519" lon="1.38488">
        <ele>54.7</ele>
        <time>2015-09-27T06:35:37Z</time>
      </trkpt>
      <trkpt lat="48.96512" lon="1.385">
        <ele>54.6</ele>
        <time>2015-09-27T06:35:39Z</time>
      </trkpt>
      <trkpt lat="48.96505" lon="1.38513">
        <ele>54.5</ele>
        <time>2015-09-27T06:35:41Z</time>
      </trkpt>
      <trkpt lat="48.96498" lon="1.38527">
        <ele>54.4</ele>
        <time>2015-09-27T06:35:43Z</time>
      </trkpt>
      <trkpt lat="48.96491" lon="1.3854">
        <ele>54.3</ele>
        <time>2015-09-27T06:35:45Z</time>
      </trkpt>
      <trkpt lat="48.96484" lon="1.38554">
        <ele>54.2</ele>
        <time>2015-09-27T06:35:47Z</time>
      </trkpt>
      <trkpt lat="48.96478" lon="1.38567">
        <ele>54.1</ele>
        <time>2015-09-27T06:35:49Z</time>
      </trkpt>
      <trkpt lat="48.9647" lon="1.38581">
        <ele>54.1</ele>
        <time>2015-09-27T06:35:51Z</time>
      </trkpt>
      <trkpt lat="48.96463" lon="1.38593">
        <ele>54</ele>
        <time>2015-09-27T06:35:53Z</time>
      </trkpt>
      <trkpt lat="48.96456" lon="1.38605">
        <ele>54</ele>
        <time>2015-09-27T06:35:55Z</time>
      </trkpt>
      <trkpt lat="48.9645" lon="1.38616">
        <ele>53.9</ele>
        <time>2015-09-27T06:35:57Z</time>
      </trkpt>
      <trkpt lat="48.96444" lon="1.38628">
        <ele>53.9</ele>
        <time>2015-09-27T06:35:59Z</time>
      </trkpt>
      <trkpt lat="48.96439" lon="1.3864">
        <ele>53.9</ele>
        <time>2015-09-27T06:36:01Z</time>
      </trkpt>
      <trkpt lat="48.96434" lon="1.38652">
        <ele>54</ele>
        <time>2015-09-27T06:36:03Z</time>
      </trkpt>
      <trkpt lat="48.96429" lon="1.38669">
        <ele>54.1</ele>
        <time>2015-09-27T06:36:06Z</time>
      </trkpt>
      <trkpt lat="48.96424" lon="1.38687">
        <ele>54.3</ele>
        <time>2015-09-27T06:36:09Z</time>
      </trkpt>
      <trkpt lat="48.9642" lon="1.38706">
        <ele>54.4</ele>
        <time>2015-09-27T06:36:12Z</time>
      </trkpt>
      <trkpt lat="48.96416" lon="1.38724">
        <ele>54.8</ele>
        <time>2015-09-27T06:36:15Z</time>
      </trkpt>
      <trkpt lat="48.96414" lon="1.38741">
        <ele>55.3</ele>
        <time>2015-09-27T06:36:18Z</time>
      </trkpt>
      <trkpt lat="48.96412" lon="1.38762">
        <ele>55.7</ele>
        <time>2015-09-27T06:36:21Z</time>
      </trkpt>
      <trkpt lat="48.96412" lon="1.38777">
        <ele>56</ele>
        <time>2015-09-27T06:36:23Z</time>
      </trkpt>
      <trkpt lat="48.96412" lon="1.38793">
        <ele>56.3</ele>
        <time>2015-09-27T06:36:25Z</time>
      </trkpt>
      <trkpt lat="48.96412" lon="1.3881">
        <ele>56.5</ele>
        <time>2015-09-27T06:36:27Z</time>
      </trkpt>
      <trkpt lat="48.96413" lon="1.38827">
        <ele>56.7</ele>
        <time>2015-09-27T06:36:29Z</time>
      </trkpt>
      <trkpt lat="48.96413" lon="1.38845">
        <ele>56.9</ele>
        <time>2015-09-27T06:36:31Z</time>
      </trkpt>
      <trkpt lat="48.96413" lon="1.38865">
        <ele>57</ele>
        <time>2015-09-27T06:36:33Z</time>
      </trkpt>
      <trkpt lat="48.96415" lon="1.38887">
        <ele>57.1</ele>
        <time>2015-09-27T06:36:35Z</time>
      </trkpt>
      <trkpt lat="48.96419" lon="1.38908">
        <ele>57</ele>
        <time>2015-09-27T06:36:37Z</time>
      </trkpt>
      <trkpt lat="48.96427" lon="1.38929">
        <ele>56.8</ele>
        <time>2015-09-27T06:36:39Z</time>
      </trkpt>
      <trkpt lat="48.96437" lon="1.38947">
        <ele>56.6</ele>
        <time>2015-09-27T06:36:41Z</time>
      </trkpt>
      <trkpt lat="48.96448" lon="1.38964">
        <ele>56.3</ele>
        <time>2015-09-27T06:36:43Z</time>
      </trkpt>
      <trkpt lat="48.96458" lon="1.38982">
        <ele>55.9</ele>
        <time>2015-09-27T06:36:45Z</time>
      </trkpt>
      <trkpt lat="48.96466" lon="1.39">
        <ele>55.5</ele>
        <time>2015-09-27T06:36:47Z</time>
      </trkpt>
      <trkpt lat="48.96471" lon="1.39021">
        <ele>55</ele>
        <time>2015-09-27T06:36:49Z</time>
      </trkpt>
      <trkpt lat="48.96473" lon="1.39042">
        <ele>54.6</ele>
        <time>2015-09-27T06:36:51Z</time>
      </trkpt>
      <trkpt lat="48.96473" lon="1.39062">
        <ele>54.2</ele>
        <time>2015-09-27T06:36:53Z</time>
      </trkpt>
      <trkpt lat="48.96473" lon="1.39081">
        <ele>53.9</ele>
        <time>2015-09-27T06:36:55Z</time>
      </trkpt>
      <trkpt lat="48.96473" lon="1.391">
        <ele>53.7</ele>
        <time>2015-09-27T06:36:57Z</time>
      </trkpt>
      <trkpt lat="48.96473" lon="1.39118">
        <ele>53.4</ele>
        <time>2015-09-27T06:36:59Z</time>
      </trkpt>
      <trkpt lat="48.96473" lon="1.39135">
        <ele>53.2</ele>
        <time>2015-09-27T06:37:01Z</time>
      </trkpt>
      <trkpt lat="48.96471" lon="1.3915">
        <ele>53</ele>
        <time>2015-09-27T06:37:03Z</time>
      </trkpt>
      <trkpt lat="48.9647" lon="1.39165">
        <ele>52.8</ele>
        <time>2015-09-27T06:37:05Z</time>
      </trkpt>
      <trkpt lat="48.96468" lon="1.39184">
        <ele>52.6</ele>
        <time>2015-09-27T06:37:08Z</time>
      </trkpt>
      <trkpt lat="48.96467" lon="1.39201">
        <ele>52.7</ele>
        <time>2015-09-27T06:37:12Z</time>
      </trkpt>
      <trkpt lat="48.96471" lon="1.39216">
        <ele>53.1</ele>
        <time>2015-09-27T06:37:16Z</time>
      </trkpt>
      <trkpt lat="48.96479" lon="1.39226">
        <ele>53.6</ele>
        <time>2015-09-27T06:37:20Z</time>
      </trkpt>
      <trkpt lat="48.96483" lon="1.3924">
        <ele>54.2</ele>
        <time>2015-09-27T06:37:24Z</time>
      </trkpt>
      <trkpt lat="48.96485" lon="1.39256">
        <ele>55</ele>
        <time>2015-09-27T06:37:28Z</time>
      </trkpt>
      <trkpt lat="48.96484" lon="1.39272">
        <ele>55.7</ele>
        <time>2015-09-27T06:37:32Z</time>
      </trkpt>
      <trkpt lat="48.96484" lon="1.39286">
        <ele>56.3</ele>
        <time>2015-09-27T06:37:35Z</time>
      </trkpt>
      <trkpt lat="48.96483" lon="1.39304">
        <ele>57.1</ele>
        <time>2015-09-27T06:37:39Z</time>
      </trkpt>
      <trkpt lat="48.96483" lon="1.39321">
        <ele>57.9</ele>
        <time>2015-09-27T06:37:43Z</time>
      </trkpt>
      <trkpt lat="48.96483" lon="1.39338">
        <ele>58.8</ele>
        <time>2015-09-27T06:37:47Z</time>
      </trkpt>
      <trkpt lat="48.96483" lon="1.39355">
        <ele>59.6</ele>
        <time>2015-09-27T06:37:51Z</time>
      </trkpt>
      <trkpt lat="48.96473" lon="1.39363">
        <ele>60.5</ele>
        <time>2015-09-27T06:37:55Z</time>
      </trkpt>
      <trkpt lat="48.96464" lon="1.39358">
        <ele>61.6</ele>
        <time>2015-09-27T06:38:00Z</time>
      </trkpt>
      <trkpt lat="48.96454" lon="1.39354">
        <ele>62.9</ele>
        <time>2015-09-27T06:38:05Z</time>
      </trkpt>
      <trkpt lat="48.96444" lon="1.39346">
        <ele>64.1</ele>
        <time>2015-09-27T06:38:10Z</time>
      </trkpt>
      <trkpt lat="48.96433" lon="1.39341">
        <ele>65.7</ele>
        <time>2015-09-27T06:38:16Z</time>
      </trkpt>
      <trkpt lat="48.96422" lon="1.39342">
        <ele>67.1</ele>
        <time>2015-09-27T06:38:21Z</time>
      </trkpt>
      <trkpt lat="48.96412" lon="1.39347">
        <ele>68.5</ele>
        <time>2015-09-27T06:38:26Z</time>
      </trkpt>
      <trkpt lat="48.96404" lon="1.39355">
        <ele>69.8</ele>
        <time>2015-09-27T06:38:31Z</time>
      </trkpt>
      <trkpt lat="48.96397" lon="1.39367">
        <ele>71.7</ele>
        <time>2015-09-27T06:38:38Z</time>
      </trkpt>
      <trkpt lat="48.96389" lon="1.39378">
        <ele>73</ele>
        <time>2015-09-27T06:38:44Z</time>
      </trkpt>
      <trkpt lat="48.96382" lon="1.39388">
        <ele>74.4</ele>
        <time>2015-09-27T06:38:50Z</time>
      </trkpt>
      <trkpt lat="48.96373" lon="1.394">
        <ele>75.4</ele>
        <time>2015-09-27T06:38:55Z</time>
      </trkpt>
      <trkpt lat="48.96364" lon="1.3941">
        <ele>76.2</ele>
        <time>2015-09-27T06:38:59Z</time>
      </trkpt>
      <trkpt lat="48.96357" lon="1.39419">
        <ele>77.2</ele>
        <time>2015-09-27T06:39:04Z</time>
      </trkpt>
      <trkpt lat="48.96351" lon="1.39431">
        <ele>78.3</ele>
        <time>2015-09-27T06:39:10Z</time>
      </trkpt>
      <trkpt lat="48.96344" lon="1.39442">
        <ele>79.6</ele>
        <time>2015-09-27T06:39:17Z</time>
      </trkpt>
      <trkpt lat="48.96339" lon="1.39453">
        <ele>83.5</ele>
        <time>2015-09-27T06:40:14Z</time>
      </trkpt>
      <trkpt lat="48.96344" lon="1.3944">
        <ele>83.4</ele>
        <time>2015-09-27T06:41:46Z</time>
      </trkpt>
      <trkpt lat="48.9635" lon="1.39431">
        <ele>81.9</ele>
        <time>2015-09-27T06:42:31Z</time>
      </trkpt>
      <trkpt lat="48.96342" lon="1.39437">
        <ele>81.6</ele>
        <time>2015-09-27T06:47:13Z</time>
      </trkpt>
      <trkpt lat="48.96335" lon="1.39451">
        <ele>81.7</ele>
        <time>2015-09-27T06:47:19Z</time>
      </trkpt>
      <trkpt lat="48.9633" lon="1.39461">
        <ele>82.1</ele>
        <time>2015-09-27T06:47:24Z</time>
      </trkpt>
      <trkpt lat="48.96324" lon="1.39473">
        <ele>82.6</ele>
        <time>2015-09-27T06:47:29Z</time>
      </trkpt>
      <trkpt lat="48.96315" lon="1.39487">
        <ele>83.3</ele>
        <time>2015-09-27T06:47:34Z</time>
      </trkpt>
      <trkpt lat="48.96309" lon="1.39498">
        <ele>84.1</ele>
        <time>2015-09-27T06:47:38Z</time>
      </trkpt>
      <trkpt lat="48.96303" lon="1.39509">
        <ele>85.1</ele>
        <time>2015-09-27T06:47:43Z</time>
      </trkpt>
      <trkpt lat="48.96296" lon="1.39521">
        <ele>86.3</ele>
        <time>2015-09-27T06:47:48Z</time>
      </trkpt>
      <trkpt lat="48.96289" lon="1.39532">
        <ele>87.2</ele>
        <time>2015-09-27T06:47:52Z</time>
      </trkpt>
      <trkpt lat="48.96283" lon="1.39543">
        <ele>88.1</ele>
        <time>2015-09-27T06:47:56Z</time>
      </trkpt>
      <trkpt lat="48.96275" lon="1.39554">
        <ele>89.2</ele>
        <time>2015-09-27T06:48:01Z</time>
      </trkpt>
      <trkpt lat="48.96268" lon="1.39566">
        <ele>90.2</ele>
        <time>2015-09-27T06:48:05Z</time>
      </trkpt>
      <trkpt lat="48.96263" lon="1.39579">
        <ele>91</ele>
        <time>2015-09-27T06:48:09Z</time>
      </trkpt>
      <trkpt lat="48.96259" lon="1.39594">
        <ele>92.2</ele>
        <time>2015-09-27T06:48:14Z</time>
      </trkpt>
      <trkpt lat="48.96256" lon="1.3961">
        <ele>93.4</ele>
        <time>2015-09-27T06:48:19Z</time>
      </trkpt>
      <trkpt lat="48.96251" lon="1.39622">
        <ele>94.1</ele>
        <time>2015-09-27T06:48:22Z</time>
      </trkpt>
      <trkpt lat="48.96246" lon="1.39636">
        <ele>95</ele>
        <time>2015-09-27T06:48:26Z</time>
      </trkpt>
      <trkpt lat="48.96238" lon="1.39646">
        <ele>96</ele>
        <time>2015-09-27T06:48:31Z</time>
      </trkpt>
      <trkpt lat="48.96229" lon="1.39655">
        <ele>96.6</ele>
        <time>2015-09-27T06:48:35Z</time>
      </trkpt>
      <trkpt lat="48.96221" lon="1.39663">
        <ele>97</ele>
        <time>2015-09-27T06:48:38Z</time>
      </trkpt>
      <trkpt lat="48.96213" lon="1.39673">
        <ele>97.5</ele>
        <time>2015-09-27T06:48:42Z</time>
      </trkpt>
      <trkpt lat="48.96204" lon="1.39682">
        <ele>97.8</ele>
        <time>2015-09-27T06:48:46Z</time>
      </trkpt>
      <trkpt lat="48.96194" lon="1.39687">
        <ele>97.9</ele>
        <time>2015-09-27T06:48:49Z</time>
      </trkpt>
      <trkpt lat="48.96185" lon="1.39694">
        <ele>98.2</ele>
        <time>2015-09-27T06:48:53Z</time>
      </trkpt>
      <trkpt lat="48.96175" lon="1.397">
        <ele>98.4</ele>
        <time>2015-09-27T06:48:55Z</time>
      </trkpt>
      <trkpt lat="48.96165" lon="1.39708">
        <ele>99</ele>
        <time>2015-09-27T06:48:59Z</time>
      </trkpt>
      <trkpt lat="48.96156" lon="1.39714">
        <ele>99.8</ele>
        <time>2015-09-27T06:49:03Z</time>
      </trkpt>
      <trkpt lat="48.96147" lon="1.39723">
        <ele>100.9</ele>
        <time>2015-09-27T06:49:08Z</time>
      </trkpt>
      <trkpt lat="48.96137" lon="1.39729">
        <ele>101.9</ele>
        <time>2015-09-27T06:49:12Z</time>
      </trkpt>
      <trkpt lat="48.96129" lon="1.39736">
        <ele>103.6</ele>
        <time>2015-09-27T06:49:18Z</time>
      </trkpt>
      <trkpt lat="48.96121" lon="1.39743">
        <ele>104.7</ele>
        <time>2015-09-27T06:49:22Z</time>
      </trkpt>
      <trkpt lat="48.96114" lon="1.39753">
        <ele>106.1</ele>
        <time>2015-09-27T06:49:28Z</time>
      </trkpt>
      <trkpt lat="48.96106" lon="1.39759">
        <ele>107.1</ele>
        <time>2015-09-27T06:49:32Z</time>
      </trkpt>
      <trkpt lat="48.96098" lon="1.39768">
        <ele>108.2</ele>
        <time>2015-09-27T06:49:37Z</time>
      </trkpt>
      <trkpt lat="48.9609" lon="1.39774">
        <ele>109.2</ele>
        <time>2015-09-27T06:49:42Z</time>
      </trkpt>
      <trkpt lat="48.96078" lon="1.39781">
        <ele>110.1</ele>
        <time>2015-09-27T06:49:46Z</time>
      </trkpt>
      <trkpt lat="48.96068" lon="1.39788">
        <ele>111.2</ele>
        <time>2015-09-27T06:49:51Z</time>
      </trkpt>
      <trkpt lat="48.96058" lon="1.39795">
        <ele>112.5</ele>
        <time>2015-09-27T06:49:56Z</time>
      </trkpt>
      <trkpt lat="48.9605" lon="1.39802">
        <ele>113.8</ele>
        <time>2015-09-27T06:50:01Z</time>
      </trkpt>
      <trkpt lat="48.9604" lon="1.3981">
        <ele>114.9</ele>
        <time>2015-09-27T06:50:05Z</time>
      </trkpt>
      <trkpt lat="48.96031" lon="1.39817">
        <ele>115.7</ele>
        <time>2015-09-27T06:50:08Z</time>
      </trkpt>
      <trkpt lat="48.96021" lon="1.39823">
        <ele>117</ele>
        <time>2015-09-27T06:50:13Z</time>
      </trkpt>
      <trkpt lat="48.96011" lon="1.39828">
        <ele>118</ele>
        <time>2015-09-27T06:50:18Z</time>
      </trkpt>
      <trkpt lat="48.96002" lon="1.39834">
        <ele>118.7</ele>
        <time>2015-09-27T06:50:23Z</time>
      </trkpt>
      <trkpt lat="48.95992" lon="1.39841">
        <ele>119.5</ele>
        <time>2015-09-27T06:50:28Z</time>
      </trkpt>
      <trkpt lat="48.95982" lon="1.3985">
        <ele>120.3</ele>
        <time>2015-09-27T06:50:33Z</time>
      </trkpt>
      <trkpt lat="48.95974" lon="1.39857">
        <ele>120.9</ele>
        <time>2015-09-27T06:50:37Z</time>
      </trkpt>
      <trkpt lat="48.95963" lon="1.39865">
        <ele>121.4</ele>
        <time>2015-09-27T06:50:40Z</time>
      </trkpt>
      <trkpt lat="48.95952" lon="1.39873">
        <ele>122.1</ele>
        <time>2015-09-27T06:50:44Z</time>
      </trkpt>
      <trkpt lat="48.95942" lon="1.39881">
        <ele>122.5</ele>
        <time>2015-09-27T06:50:47Z</time>
      </trkpt>
      <trkpt lat="48.95934" lon="1.39888">
        <ele>122.8</ele>
        <time>2015-09-27T06:50:49Z</time>
      </trkpt>
      <trkpt lat="48.95925" lon="1.39895">
        <ele>123.1</ele>
        <time>2015-09-27T06:50:52Z</time>
      </trkpt>
      <trkpt lat="48.95917" lon="1.39901">
        <ele>123.4</ele>
        <time>2015-09-27T06:50:54Z</time>
      </trkpt>
      <trkpt lat="48.95908" lon="1.39907">
        <ele>123.7</ele>
        <time>2015-09-27T06:50:56Z</time>
      </trkpt>
      <trkpt lat="48.95896" lon="1.39915">
        <ele>124.1</ele>
        <time>2015-09-27T06:50:59Z</time>
      </trkpt>
      <trkpt lat="48.95886" lon="1.39923">
        <ele>124.5</ele>
        <time>2015-09-27T06:51:02Z</time>
      </trkpt>
      <trkpt lat="48.95875" lon="1.39933">
        <ele>124.8</ele>
        <time>2015-09-27T06:51:05Z</time>
      </trkpt>
      <trkpt lat="48.95865" lon="1.39941">
        <ele>125.1</ele>
        <time>2015-09-27T06:51:08Z</time>
      </trkpt>
      <trkpt lat="48.95856" lon="1.39946">
        <ele>125.3</ele>
        <time>2015-09-27T06:51:10Z</time>
      </trkpt>
      <trkpt lat="48.95846" lon="1.39954">
        <ele>125.5</ele>
        <time>2015-09-27T06:51:13Z</time>
      </trkpt>
      <trkpt lat="48.95837" lon="1.39965">
        <ele>125.9</ele>
        <time>2015-09-27T06:51:17Z</time>
      </trkpt>
      <trkpt lat="48.95828" lon="1.39971">
        <ele>126</ele>
        <time>2015-09-27T06:51:19Z</time>
      </trkpt>
      <trkpt lat="48.95815" lon="1.39982">
        <ele>126.2</ele>
        <time>2015-09-27T06:51:22Z</time>
      </trkpt>
      <trkpt lat="48.95803" lon="1.3999">
        <ele>126.3</ele>
        <time>2015-09-27T06:51:24Z</time>
      </trkpt>
      <trkpt lat="48.95795" lon="1.39996">
        <ele>126.4</ele>
        <time>2015-09-27T06:51:26Z</time>
      </trkpt>
      <trkpt lat="48.95783" lon="1.40002">
        <ele>126.6</ele>
        <time>2015-09-27T06:51:28Z</time>
      </trkpt>
      <trkpt lat="48.95773" lon="1.40007">
        <ele>126.7</ele>
        <time>2015-09-27T06:51:30Z</time>
      </trkpt>
      <trkpt lat="48.95765" lon="1.40015">
        <ele>126.8</ele>
        <time>2015-09-27T06:51:32Z</time>
      </trkpt>
      <trkpt lat="48.95749" lon="1.40027">
        <ele>126.9</ele>
        <time>2015-09-27T06:51:35Z</time>
      </trkpt>
      <trkpt lat="48.95739" lon="1.40035">
        <ele>127</ele>
        <time>2015-09-27T06:51:37Z</time>
      </trkpt>
      <trkpt lat="48.9573" lon="1.40041">
        <ele>127</ele>
        <time>2015-09-27T06:51:39Z</time>
      </trkpt>
      <trkpt lat="48.95721" lon="1.40047">
        <ele>127.1</ele>
        <time>2015-09-27T06:51:40Z</time>
      </trkpt>
      <trkpt lat="48.95711" lon="1.40052">
        <ele>127.1</ele>
        <time>2015-09-27T06:51:41Z</time>
      </trkpt>
      <trkpt lat="48.95698" lon="1.4006">
        <ele>127.1</ele>
        <time>2015-09-27T06:51:43Z</time>
      </trkpt>
      <trkpt lat="48.95687" lon="1.40069">
        <ele>127</ele>
        <time>2015-09-27T06:51:45Z</time>
      </trkpt>
      <trkpt lat="48.95677" lon="1.40075">
        <ele>127</ele>
        <time>2015-09-27T06:51:47Z</time>
      </trkpt>
      <trkpt lat="48.95667" lon="1.40081">
        <ele>126.9</ele>
        <time>2015-09-27T06:51:49Z</time>
      </trkpt>
      <trkpt lat="48.95658" lon="1.40089">
        <ele>126.8</ele>
        <time>2015-09-27T06:51:51Z</time>
      </trkpt>
      <trkpt lat="48.95647" lon="1.40099">
        <ele>126.6</ele>
        <time>2015-09-27T06:51:53Z</time>
      </trkpt>
      <trkpt lat="48.95639" lon="1.40106">
        <ele>126.4</ele>
        <time>2015-09-27T06:51:55Z</time>
      </trkpt>
      <trkpt lat="48.95629" lon="1.40115">
        <ele>126.4</ele>
        <time>2015-09-27T06:51:57Z</time>
      </trkpt>
      <trkpt lat="48.95618" lon="1.40127">
        <ele>126.3</ele>
        <time>2015-09-27T06:51:59Z</time>
      </trkpt>
      <trkpt lat="48.95608" lon="1.40138">
        <ele>126.3</ele>
        <time>2015-09-27T06:52:01Z</time>
      </trkpt>
      <trkpt lat="48.95599" lon="1.40144">
        <ele>126.4</ele>
        <time>2015-09-27T06:52:03Z</time>
      </trkpt>
      <trkpt lat="48.9559" lon="1.40152">
        <ele>126.5</ele>
        <time>2015-09-27T06:52:05Z</time>
      </trkpt>
      <trkpt lat="48.9558" lon="1.4016">
        <ele>126.5</ele>
        <time>2015-09-27T06:52:07Z</time>
      </trkpt>
      <trkpt lat="48.95569" lon="1.40167">
        <ele>126.6</ele>
        <time>2015-09-27T06:52:09Z</time>
      </trkpt>
      <trkpt lat="48.95555" lon="1.40178">
        <ele>126.6</ele>
        <time>2015-09-27T06:52:11Z</time>
      </trkpt>
      <trkpt lat="48.95541" lon="1.40189">
        <ele>126.7</ele>
        <time>2015-09-27T06:52:13Z</time>
      </trkpt>
      <trkpt lat="48.9553" lon="1.40199">
        <ele>126.7</ele>
        <time>2015-09-27T06:52:15Z</time>
      </trkpt>
      <trkpt lat="48.9552" lon="1.40209">
        <ele>126.8</ele>
        <time>2015-09-27T06:52:17Z</time>
      </trkpt>
      <trkpt lat="48.95509" lon="1.40218">
        <ele>126.8</ele>
        <time>2015-09-27T06:52:19Z</time>
      </trkpt>
      <trkpt lat="48.95497" lon="1.40228">
        <ele>126.8</ele>
        <time>2015-09-27T06:52:21Z</time>
      </trkpt>
      <trkpt lat="48.95484" lon="1.40238">
        <ele>126.8</ele>
        <time>2015-09-27T06:52:23Z</time>
      </trkpt>
      <trkpt lat="48.9547" lon="1.40247">
        <ele>126.9</ele>
        <time>2015-09-27T06:52:25Z</time>
      </trkpt>
      <trkpt lat="48.9546" lon="1.40255">
        <ele>126.9</ele>
        <time>2015-09-27T06:52:27Z</time>
      </trkpt>
      <trkpt lat="48.95446" lon="1.40264">
        <ele>126.9</ele>
        <time>2015-09-27T06:52:29Z</time>
      </trkpt>
      <trkpt lat="48.95434" lon="1.40274">
        <ele>126.9</ele>
        <time>2015-09-27T06:52:31Z</time>
      </trkpt>
      <trkpt lat="48.95421" lon="1.40283">
        <ele>126.9</ele>
        <time>2015-09-27T06:52:33Z</time>
      </trkpt>
      <trkpt lat="48.95411" lon="1.40293">
        <ele>126.8</ele>
        <time>2015-09-27T06:52:35Z</time>
      </trkpt>
      <trkpt lat="48.95399" lon="1.40301">
        <ele>126.7</ele>
        <time>2015-09-27T06:52:37Z</time>
      </trkpt>
      <trkpt lat="48.95387" lon="1.40308">
        <ele>126.6</ele>
        <time>2015-09-27T06:52:39Z</time>
      </trkpt>
      <trkpt lat="48.95378" lon="1.40312">
        <ele>126.6</ele>
        <time>2015-09-27T06:52:40Z</time>
      </trkpt>
      <trkpt lat="48.95366" lon="1.40324">
        <ele>126.4</ele>
        <time>2015-09-27T06:52:42Z</time>
      </trkpt>
      <trkpt lat="48.95356" lon="1.40332">
        <ele>126.2</ele>
        <time>2015-09-27T06:52:44Z</time>
      </trkpt>
      <trkpt lat="48.9534" lon="1.40345">
        <ele>126.1</ele>
        <time>2015-09-27T06:52:46Z</time>
      </trkpt>
      <trkpt lat="48.95323" lon="1.40355">
        <ele>126</ele>
        <time>2015-09-27T06:52:48Z</time>
      </trkpt>
      <trkpt lat="48.95311" lon="1.40364">
        <ele>125.8</ele>
        <time>2015-09-27T06:52:50Z</time>
      </trkpt>
      <trkpt lat="48.95299" lon="1.40371">
        <ele>125.8</ele>
        <time>2015-09-27T06:52:52Z</time>
      </trkpt>
      <trkpt lat="48.95287" lon="1.40381">
        <ele>125.7</ele>
        <time>2015-09-27T06:52:54Z</time>
      </trkpt>
      <trkpt lat="48.95276" lon="1.40391">
        <ele>125.6</ele>
        <time>2015-09-27T06:52:56Z</time>
      </trkpt>
      <trkpt lat="48.95264" lon="1.40402">
        <ele>125.7</ele>
        <time>2015-09-27T06:52:58Z</time>
      </trkpt>
      <trkpt lat="48.95252" lon="1.4041">
        <ele>125.8</ele>
        <time>2015-09-27T06:53:00Z</time>
      </trkpt>
      <trkpt lat="48.95239" lon="1.40419">
        <ele>125.8</ele>
        <time>2015-09-27T06:53:02Z</time>
      </trkpt>
      <trkpt lat="48.9523" lon="1.40427">
        <ele>125.8</ele>
        <time>2015-09-27T06:53:04Z</time>
      </trkpt>
      <trkpt lat="48.95219" lon="1.40435">
        <ele>125.9</ele>
        <time>2015-09-27T06:53:06Z</time>
      </trkpt>
      <trkpt lat="48.95207" lon="1.40445">
        <ele>125.9</ele>
        <time>2015-09-27T06:53:08Z</time>
      </trkpt>
      <trkpt lat="48.95196" lon="1.40454">
        <ele>125.9</ele>
        <time>2015-09-27T06:53:10Z</time>
      </trkpt>
      <trkpt lat="48.95188" lon="1.40461">
        <ele>125.9</ele>
        <time>2015-09-27T06:53:12Z</time>
      </trkpt>
      <trkpt lat="48.95177" lon="1.4047">
        <ele>125.9</ele>
        <time>2015-09-27T06:53:14Z</time>
      </trkpt>
      <trkpt lat="48.95167" lon="1.40478">
        <ele>125.9</ele>
        <time>2015-09-27T06:53:16Z</time>
      </trkpt>
      <trkpt lat="48.95156" lon="1.40487">
        <ele>126</ele>
        <time>2015-09-27T06:53:18Z</time>
      </trkpt>
      <trkpt lat="48.95146" lon="1.40496">
        <ele>126.1</ele>
        <time>2015-09-27T06:53:20Z</time>
      </trkpt>
      <trkpt lat="48.95138" lon="1.40505">
        <ele>126.2</ele>
        <time>2015-09-27T06:53:22Z</time>
      </trkpt>
      <trkpt lat="48.95127" lon="1.40516">
        <ele>126.3</ele>
        <time>2015-09-27T06:53:24Z</time>
      </trkpt>
      <trkpt lat="48.95116" lon="1.40523">
        <ele>126.3</ele>
        <time>2015-09-27T06:53:26Z</time>
      </trkpt>
      <trkpt lat="48.95108" lon="1.40531">
        <ele>126.4</ele>
        <time>2015-09-27T06:53:28Z</time>
      </trkpt>
      <trkpt lat="48.95098" lon="1.4054">
        <ele>126.4</ele>
        <time>2015-09-27T06:53:30Z</time>
      </trkpt>
      <trkpt lat="48.95084" lon="1.40551">
        <ele>126.5</ele>
        <time>2015-09-27T06:53:32Z</time>
      </trkpt>
      <trkpt lat="48.95069" lon="1.40562">
        <ele>126.5</ele>
        <time>2015-09-27T06:53:34Z</time>
      </trkpt>
      <trkpt lat="48.95056" lon="1.40571">
        <ele>126.6</ele>
        <time>2015-09-27T06:53:36Z</time>
      </trkpt>
      <trkpt lat="48.95043" lon="1.4058">
        <ele>126.6</ele>
        <time>2015-09-27T06:53:38Z</time>
      </trkpt>
      <trkpt lat="48.95031" lon="1.4059">
        <ele>126.6</ele>
        <time>2015-09-27T06:53:40Z</time>
      </trkpt>
      <trkpt lat="48.95017" lon="1.40598">
        <ele>126.7</ele>
        <time>2015-09-27T06:53:42Z</time>
      </trkpt>
      <trkpt lat="48.95004" lon="1.40608">
        <ele>126.7</ele>
        <time>2015-09-27T06:53:44Z</time>
      </trkpt>
      <trkpt lat="48.94995" lon="1.40615">
        <ele>126.9</ele>
        <time>2015-09-27T06:53:46Z</time>
      </trkpt>
      <trkpt lat="48.94982" lon="1.40623">
        <ele>127</ele>
        <time>2015-09-27T06:53:48Z</time>
      </trkpt>
      <trkpt lat="48.94971" lon="1.40631">
        <ele>127.1</ele>
        <time>2015-09-27T06:53:50Z</time>
      </trkpt>
      <trkpt lat="48.94958" lon="1.4064">
        <ele>127.2</ele>
        <time>2015-09-27T06:53:52Z</time>
      </trkpt>
      <trkpt lat="48.94948" lon="1.40646">
        <ele>127.4</ele>
        <time>2015-09-27T06:53:54Z</time>
      </trkpt>
      <trkpt lat="48.94936" lon="1.40652">
        <ele>127.5</ele>
        <time>2015-09-27T06:53:56Z</time>
      </trkpt>
      <trkpt lat="48.94927" lon="1.4066">
        <ele>127.5</ele>
        <time>2015-09-27T06:53:58Z</time>
      </trkpt>
      <trkpt lat="48.94918" lon="1.40667">
        <ele>127.6</ele>
        <time>2015-09-27T06:54:00Z</time>
      </trkpt>
      <trkpt lat="48.94907" lon="1.40675">
        <ele>127.7</ele>
        <time>2015-09-27T06:54:02Z</time>
      </trkpt>
      <trkpt lat="48.94897" lon="1.40684">
        <ele>127.7</ele>
        <time>2015-09-27T06:54:04Z</time>
      </trkpt>
      <trkpt lat="48.94883" lon="1.40692">
        <ele>127.8</ele>
        <time>2015-09-27T06:54:06Z</time>
      </trkpt>
      <trkpt lat="48.94872" lon="1.407">
        <ele>127.8</ele>
        <time>2015-09-27T06:54:08Z</time>
      </trkpt>
      <trkpt lat="48.94859" lon="1.4071">
        <ele>127.9</ele>
        <time>2015-09-27T06:54:10Z</time>
      </trkpt>
      <trkpt lat="48.94848" lon="1.40719">
        <ele>127.9</ele>
        <time>2015-09-27T06:54:12Z</time>
      </trkpt>
      <trkpt lat="48.94834" lon="1.4073">
        <ele>127.8</ele>
        <time>2015-09-27T06:54:14Z</time>
      </trkpt>
      <trkpt lat="48.94823" lon="1.4074">
        <ele>127.7</ele>
        <time>2015-09-27T06:54:16Z</time>
      </trkpt>
      <trkpt lat="48.94814" lon="1.40746">
        <ele>127.7</ele>
        <time>2015-09-27T06:54:17Z</time>
      </trkpt>
      <trkpt lat="48.948" lon="1.40756">
        <ele>127.6</ele>
        <time>2015-09-27T06:54:19Z</time>
      </trkpt>
      <trkpt lat="48.9479" lon="1.40766">
        <ele>127.5</ele>
        <time>2015-09-27T06:54:21Z</time>
      </trkpt>
      <trkpt lat="48.94778" lon="1.40775">
        <ele>127.4</ele>
        <time>2015-09-27T06:54:23Z</time>
      </trkpt>
      <trkpt lat="48.94768" lon="1.40781">
        <ele>127.1</ele>
        <time>2015-09-27T06:54:25Z</time>
      </trkpt>
      <trkpt lat="48.94762" lon="1.40793">
        <ele>126.9</ele>
        <time>2015-09-27T06:54:27Z</time>
      </trkpt>
      <trkpt lat="48.94758" lon="1.40806">
        <ele>126.7</ele>
        <time>2015-09-27T06:54:29Z</time>
      </trkpt>
      <trkpt lat="48.94754" lon="1.40824">
        <ele>126.3</ele>
        <time>2015-09-27T06:54:31Z</time>
      </trkpt>
      <trkpt lat="48.94754" lon="1.40841">
        <ele>125.9</ele>
        <time>2015-09-27T06:54:33Z</time>
      </trkpt>
      <trkpt lat="48.94754" lon="1.40856">
        <ele>125.6</ele>
        <time>2015-09-27T06:54:35Z</time>
      </trkpt>
      <trkpt lat="48.94756" lon="1.40872">
        <ele>125.3</ele>
        <time>2015-09-27T06:54:37Z</time>
      </trkpt>
      <trkpt lat="48.94759" lon="1.40889">
        <ele>125.1</ele>
        <time>2015-09-27T06:54:39Z</time>
      </trkpt>
      <trkpt lat="48.94763" lon="1.40902">
        <ele>124.9</ele>
        <time>2015-09-27T06:54:41Z</time>
      </trkpt>
      <trkpt lat="48.94768" lon="1.40919">
        <ele>124.6</ele>
        <time>2015-09-27T06:54:44Z</time>
      </trkpt>
      <trkpt lat="48.94772" lon="1.40937">
        <ele>124.3</ele>
        <time>2015-09-27T06:54:47Z</time>
      </trkpt>
      <trkpt lat="48.94776" lon="1.4095">
        <ele>124</ele>
        <time>2015-09-27T06:54:49Z</time>
      </trkpt>
      <trkpt lat="48.94781" lon="1.40962">
        <ele>123.6</ele>
        <time>2015-09-27T06:54:51Z</time>
      </trkpt>
      <trkpt lat="48.94785" lon="1.40977">
        <ele>123.2</ele>
        <time>2015-09-27T06:54:53Z</time>
      </trkpt>
      <trkpt lat="48.94788" lon="1.40992">
        <ele>122.7</ele>
        <time>2015-09-27T06:54:55Z</time>
      </trkpt>
      <trkpt lat="48.94793" lon="1.41007">
        <ele>122.2</ele>
        <time>2015-09-27T06:54:57Z</time>
      </trkpt>
      <trkpt lat="48.94797" lon="1.4102">
        <ele>121.7</ele>
        <time>2015-09-27T06:54:59Z</time>
      </trkpt>
      <trkpt lat="48.94804" lon="1.41031">
        <ele>120.9</ele>
        <time>2015-09-27T06:55:01Z</time>
      </trkpt>
      <trkpt lat="48.94811" lon="1.41048">
        <ele>119.4</ele>
        <time>2015-09-27T06:55:04Z</time>
      </trkpt>
      <trkpt lat="48.94813" lon="1.41065">
        <ele>118.4</ele>
        <time>2015-09-27T06:55:06Z</time>
      </trkpt>
      <trkpt lat="48.94813" lon="1.41084">
        <ele>117.4</ele>
        <time>2015-09-27T06:55:08Z</time>
      </trkpt>
      <trkpt lat="48.94812" lon="1.41106">
        <ele>116.1</ele>
        <time>2015-09-27T06:55:10Z</time>
      </trkpt>
      <trkpt lat="48.94815" lon="1.41124">
        <ele>114.7</ele>
        <time>2015-09-27T06:55:12Z</time>
      </trkpt>
      <trkpt lat="48.94816" lon="1.4114">
        <ele>113</ele>
        <time>2015-09-27T06:55:14Z</time>
      </trkpt>
      <trkpt lat="48.94819" lon="1.41155">
        <ele>111.3</ele>
        <time>2015-09-27T06:55:16Z</time>
      </trkpt>
      <trkpt lat="48.94818" lon="1.41174">
        <ele>109.6</ele>
        <time>2015-09-27T06:55:18Z</time>
      </trkpt>
      <trkpt lat="48.94809" lon="1.41202">
        <ele>107.9</ele>
        <time>2015-09-27T06:55:20Z</time>
      </trkpt>
      <trkpt lat="48.94805" lon="1.41215">
        <ele>107</ele>
        <time>2015-09-27T06:55:21Z</time>
      </trkpt>
      <trkpt lat="48.94801" lon="1.41228">
        <ele>105.9</ele>
        <time>2015-09-27T06:55:22Z</time>
      </trkpt>
      <trkpt lat="48.94796" lon="1.41241">
        <ele>104.7</ele>
        <time>2015-09-27T06:55:23Z</time>
      </trkpt>
      <trkpt lat="48.9479" lon="1.41263">
        <ele>102.4</ele>
        <time>2015-09-27T06:55:25Z</time>
      </trkpt>
      <trkpt lat="48.94781" lon="1.41281">
        <ele>99.8</ele>
        <time>2015-09-27T06:55:27Z</time>
      </trkpt>
      <trkpt lat="48.94773" lon="1.41297">
        <ele>97.5</ele>
        <time>2015-09-27T06:55:29Z</time>
      </trkpt>
      <trkpt lat="48.94763" lon="1.41311">
        <ele>95.2</ele>
        <time>2015-09-27T06:55:31Z</time>
      </trkpt>
      <trkpt lat="48.94757" lon="1.41329">
        <ele>92.9</ele>
        <time>2015-09-27T06:55:33Z</time>
      </trkpt>
      <trkpt lat="48.94751" lon="1.41348">
        <ele>90.7</ele>
        <time>2015-09-27T06:55:35Z</time>
      </trkpt>
      <trkpt lat="48.94753" lon="1.41366">
        <ele>88.5</ele>
        <time>2015-09-27T06:55:37Z</time>
      </trkpt>
      <trkpt lat="48.94759" lon="1.41378">
        <ele>86.4</ele>
        <time>2015-09-27T06:55:39Z</time>
      </trkpt>
      <trkpt lat="48.94768" lon="1.41381">
        <ele>84.3</ele>
        <time>2015-09-27T06:55:41Z</time>
      </trkpt>
      <trkpt lat="48.94778" lon="1.41383">
        <ele>81.2</ele>
        <time>2015-09-27T06:55:44Z</time>
      </trkpt>
      <trkpt lat="48.94792" lon="1.41383">
        <ele>79.2</ele>
        <time>2015-09-27T06:55:46Z</time>
      </trkpt>
      <trkpt lat="48.94804" lon="1.41382">
        <ele>77</ele>
        <time>2015-09-27T06:55:48Z</time>
      </trkpt>
      <trkpt lat="48.94818" lon="1.41379">
        <ele>74.8</ele>
        <time>2015-09-27T06:55:50Z</time>
      </trkpt>
      <trkpt lat="48.94833" lon="1.41372">
        <ele>72.7</ele>
        <time>2015-09-27T06:55:52Z</time>
      </trkpt>
      <trkpt lat="48.94848" lon="1.41366">
        <ele>70.6</ele>
        <time>2015-09-27T06:55:54Z</time>
      </trkpt>
      <trkpt lat="48.94863" lon="1.41365">
        <ele>68.7</ele>
        <time>2015-09-27T06:55:56Z</time>
      </trkpt>
      <trkpt lat="48.94877" lon="1.41365">
        <ele>66.6</ele>
        <time>2015-09-27T06:55:58Z</time>
      </trkpt>
      <trkpt lat="48.94893" lon="1.41366">
        <ele>64.7</ele>
        <time>2015-09-27T06:56:00Z</time>
      </trkpt>
      <trkpt lat="48.94908" lon="1.41363">
        <ele>62.9</ele>
        <time>2015-09-27T06:56:02Z</time>
      </trkpt>
      <trkpt lat="48.94924" lon="1.41357">
        <ele>61.2</ele>
        <time>2015-09-27T06:56:04Z</time>
      </trkpt>
      <trkpt lat="48.94939" lon="1.41348">
        <ele>59.7</ele>
        <time>2015-09-27T06:56:06Z</time>
      </trkpt>
      <trkpt lat="48.94954" lon="1.41341">
        <ele>58.3</ele>
        <time>2015-09-27T06:56:08Z</time>
      </trkpt>
      <trkpt lat="48.94964" lon="1.41334">
        <ele>56.9</ele>
        <time>2015-09-27T06:56:10Z</time>
      </trkpt>
      <trkpt lat="48.94976" lon="1.41329">
        <ele>55.6</ele>
        <time>2015-09-27T06:56:12Z</time>
      </trkpt>
      <trkpt lat="48.94989" lon="1.41337">
        <ele>54</ele>
        <time>2015-09-27T06:56:15Z</time>
      </trkpt>
      <trkpt lat="48.94996" lon="1.41349">
        <ele>53.1</ele>
        <time>2015-09-27T06:56:17Z</time>
      </trkpt>
      <trkpt lat="48.95002" lon="1.4136">
        <ele>52.3</ele>
        <time>2015-09-27T06:56:19Z</time>
      </trkpt>
      <trkpt lat="48.95009" lon="1.41374">
        <ele>51.6</ele>
        <time>2015-09-27T06:56:21Z</time>
      </trkpt>
      <trkpt lat="48.95014" lon="1.41388">
        <ele>51</ele>
        <time>2015-09-27T06:56:23Z</time>
      </trkpt>
      <trkpt lat="48.9502" lon="1.41404">
        <ele>50.5</ele>
        <time>2015-09-27T06:56:25Z</time>
      </trkpt>
      <trkpt lat="48.95024" lon="1.41421">
        <ele>50</ele>
        <time>2015-09-27T06:56:27Z</time>
      </trkpt>
      <trkpt lat="48.95024" lon="1.41438">
        <ele>49.4</ele>
        <time>2015-09-27T06:56:30Z</time>
      </trkpt>
      <trkpt lat="48.95023" lon="1.41453">
        <ele>48.6</ele>
        <time>2015-09-27T06:56:34Z</time>
      </trkpt>
      <trkpt lat="48.95023" lon="1.41474">
        <ele>48.1</ele>
        <time>2015-09-27T06:56:37Z</time>
      </trkpt>
      <trkpt lat="48.95026" lon="1.41489">
        <ele>47.8</ele>
        <time>2015-09-27T06:56:39Z</time>
      </trkpt>
      <trkpt lat="48.95032" lon="1.41504">
        <ele>47.5</ele>
        <time>2015-09-27T06:56:41Z</time>
      </trkpt>
      <trkpt lat="48.95039" lon="1.41517">
        <ele>47.3</ele>
        <time>2015-09-27T06:56:43Z</time>
      </trkpt>
      <trkpt lat="48.95046" lon="1.4153">
        <ele>47</ele>
        <time>2015-09-27T06:56:45Z</time>
      </trkpt>
      <trkpt lat="48.9505" lon="1.41547">
        <ele>46.8</ele>
        <time>2015-09-27T06:56:48Z</time>
      </trkpt>
      <trkpt lat="48.95044" lon="1.4156">
        <ele>46.6</ele>
        <time>2015-09-27T06:56:51Z</time>
      </trkpt>
      <trkpt lat="48.95038" lon="1.41569">
        <ele>46.4</ele>
        <time>2015-09-27T06:56:53Z</time>
      </trkpt>
      <trkpt lat="48.95031" lon="1.41581">
        <ele>46.3</ele>
        <time>2015-09-27T06:56:55Z</time>
      </trkpt>
      <trkpt lat="48.95025" lon="1.41596">
        <ele>46.2</ele>
        <time>2015-09-27T06:56:57Z</time>
      </trkpt>
      <trkpt lat="48.95023" lon="1.41615">
        <ele>46.2</ele>
        <time>2015-09-27T06:56:59Z</time>
      </trkpt>
      <trkpt lat="48.95023" lon="1.41635">
        <ele>46.1</ele>
        <time>2015-09-27T06:57:01Z</time>
      </trkpt>
      <trkpt lat="48.9502" lon="1.41654">
        <ele>46</ele>
        <time>2015-09-27T06:57:03Z</time>
      </trkpt>
      <trkpt lat="48.95021" lon="1.41674">
        <ele>46</ele>
        <time>2015-09-27T06:57:05Z</time>
      </trkpt>
      <trkpt lat="48.9502" lon="1.41693">
        <ele>46</ele>
        <time>2015-09-27T06:57:07Z</time>
      </trkpt>
      <trkpt lat="48.95012" lon="1.4171">
        <ele>45.9</ele>
        <time>2015-09-27T06:57:09Z</time>
      </trkpt>
      <trkpt lat="48.95004" lon="1.41726">
        <ele>45.9</ele>
        <time>2015-09-27T06:57:11Z</time>
      </trkpt>
      <trkpt lat="48.94994" lon="1.4174">
        <ele>45.9</ele>
        <time>2015-09-27T06:57:13Z</time>
      </trkpt>
      <trkpt lat="48.9498" lon="1.41763">
        <ele>45</ele>
        <time>2015-09-27T06:57:16Z</time>
      </trkpt>
      <trkpt lat="48.94968" lon="1.41786">
        <ele>45.9</ele>
        <time>2015-09-27T06:57:19Z</time>
      </trkpt>
      <trkpt lat="48.94962" lon="1.41802">
        <ele>45.9</ele>
        <time>2015-09-27T06:57:21Z</time>
      </trkpt>
      <trkpt lat="48.94955" lon="1.4182">
        <ele>46</ele>
        <time>2015-09-27T06:57:23Z</time>
      </trkpt>
      <trkpt lat="48.94948" lon="1.41837">
        <ele>46</ele>
        <time>2015-09-27T06:57:25Z</time>
      </trkpt>
      <trkpt lat="48.94943" lon="1.41856">
        <ele>46</ele>
        <time>2015-09-27T06:57:27Z</time>
      </trkpt>
      <trkpt lat="48.94939" lon="1.41874">
        <ele>46</ele>
        <time>2015-09-27T06:57:29Z</time>
      </trkpt>
      <trkpt lat="48.94934" lon="1.41893">
        <ele>46</ele>
        <time>2015-09-27T06:57:31Z</time>
      </trkpt>
      <trkpt lat="48.94931" lon="1.41912">
        <ele>46</ele>
        <time>2015-09-27T06:57:33Z</time>
      </trkpt>
      <trkpt lat="48.94927" lon="1.41931">
        <ele>46</ele>
        <time>2015-09-27T06:57:35Z</time>
      </trkpt>
      <trkpt lat="48.94922" lon="1.4195">
        <ele>46</ele>
        <time>2015-09-27T06:57:37Z</time>
      </trkpt>
      <trkpt lat="48.94919" lon="1.4197">
        <ele>46</ele>
        <time>2015-09-27T06:57:39Z</time>
      </trkpt>
      <trkpt lat="48.94915" lon="1.41989">
        <ele>46</ele>
        <time>2015-09-27T06:57:41Z</time>
      </trkpt>
      <trkpt lat="48.9491" lon="1.42008">
        <ele>46</ele>
        <time>2015-09-27T06:57:43Z</time>
      </trkpt>
      <trkpt lat="48.94907" lon="1.42028">
        <ele>46</ele>
        <time>2015-09-27T06:57:45Z</time>
      </trkpt>
      <trkpt lat="48.94903" lon="1.42047">
        <ele>46.1</ele>
        <time>2015-09-27T06:57:47Z</time>
      </trkpt>
      <trkpt lat="48.94899" lon="1.42066">
        <ele>46.1</ele>
        <time>2015-09-27T06:57:49Z</time>
      </trkpt>
      <trkpt lat="48.94894" lon="1.42085">
        <ele>46.1</ele>
        <time>2015-09-27T06:57:51Z</time>
      </trkpt>
      <trkpt lat="48.94891" lon="1.42103">
        <ele>46.2</ele>
        <time>2015-09-27T06:57:53Z</time>
      </trkpt>
      <trkpt lat="48.94886" lon="1.42122">
        <ele>46.2</ele>
        <time>2015-09-27T06:57:55Z</time>
      </trkpt>
      <trkpt lat="48.94884" lon="1.4214">
        <ele>46.2</ele>
        <time>2015-09-27T06:57:57Z</time>
      </trkpt>
      <trkpt lat="48.94884" lon="1.4216">
        <ele>46.3</ele>
        <time>2015-09-27T06:57:59Z</time>
      </trkpt>
      <trkpt lat="48.94889" lon="1.42178">
        <ele>46.4</ele>
        <time>2015-09-27T06:58:01Z</time>
      </trkpt>
      <trkpt lat="48.94896" lon="1.42195">
        <ele>46.4</ele>
        <time>2015-09-27T06:58:03Z</time>
      </trkpt>
      <trkpt lat="48.94902" lon="1.42214">
        <ele>46.5</ele>
        <time>2015-09-27T06:58:05Z</time>
      </trkpt>
      <trkpt lat="48.94905" lon="1.42233">
        <ele>46.6</ele>
        <time>2015-09-27T06:58:07Z</time>
      </trkpt>
      <trkpt lat="48.94906" lon="1.42253">
        <ele>46.6</ele>
        <time>2015-09-27T06:58:09Z</time>
      </trkpt>
      <trkpt lat="48.94905" lon="1.42274">
        <ele>46.6</ele>
        <time>2015-09-27T06:58:11Z</time>
      </trkpt>
      <trkpt lat="48.94902" lon="1.42294">
        <ele>46.7</ele>
        <time>2015-09-27T06:58:13Z</time>
      </trkpt>
      <trkpt lat="48.94896" lon="1.42312">
        <ele>46.7</ele>
        <time>2015-09-27T06:58:15Z</time>
      </trkpt>
      <trkpt lat="48.94888" lon="1.42329">
        <ele>46.7</ele>
        <time>2015-09-27T06:58:17Z</time>
      </trkpt>
      <trkpt lat="48.94879" lon="1.42343">
        <ele>46.8</ele>
        <time>2015-09-27T06:58:19Z</time>
      </trkpt>
      <trkpt lat="48.94869" lon="1.42356">
        <ele>46.8</ele>
        <time>2015-09-27T06:58:21Z</time>
      </trkpt>
      <trkpt lat="48.94858" lon="1.42369">
        <ele>46.8</ele>
        <time>2015-09-27T06:58:23Z</time>
      </trkpt>
      <trkpt lat="48.94847" lon="1.42381">
        <ele>46.8</ele>
        <time>2015-09-27T06:58:25Z</time>
      </trkpt>
      <trkpt lat="48.94835" lon="1.42391">
        <ele>46.8</ele>
        <time>2015-09-27T06:58:27Z</time>
      </trkpt>
      <trkpt lat="48.94823" lon="1.42401">
        <ele>46.9</ele>
        <time>2015-09-27T06:58:29Z</time>
      </trkpt>
      <trkpt lat="48.9481" lon="1.42409">
        <ele>46.9</ele>
        <time>2015-09-27T06:58:31Z</time>
      </trkpt>
      <trkpt lat="48.94798" lon="1.42416">
        <ele>46.9</ele>
        <time>2015-09-27T06:58:33Z</time>
      </trkpt>
      <trkpt lat="48.94786" lon="1.42422">
        <ele>46.9</ele>
        <time>2015-09-27T06:58:35Z</time>
      </trkpt>
      <trkpt lat="48.94773" lon="1.42427">
        <ele>46.9</ele>
        <time>2015-09-27T06:58:37Z</time>
      </trkpt>
      <trkpt lat="48.9476" lon="1.42431">
        <ele>46.9</ele>
        <time>2015-09-27T06:58:39Z</time>
      </trkpt>
      <trkpt lat="48.94747" lon="1.42433">
        <ele>46.9</ele>
        <time>2015-09-27T06:58:41Z</time>
      </trkpt>
      <trkpt lat="48.94734" lon="1.42434">
        <ele>46.9</ele>
        <time>2015-09-27T06:58:43Z</time>
      </trkpt>
      <trkpt lat="48.94721" lon="1.42435">
        <ele>46.9</ele>
        <time>2015-09-27T06:58:45Z</time>
      </trkpt>
      <trkpt lat="48.94708" lon="1.42443">
        <ele>46.9</ele>
        <time>2015-09-27T06:58:47Z</time>
      </trkpt>
      <trkpt lat="48.94697" lon="1.42457">
        <ele>46.9</ele>
        <time>2015-09-27T06:58:49Z</time>
      </trkpt>
      <trkpt lat="48.94688" lon="1.42473">
        <ele>47</ele>
        <time>2015-09-27T06:58:51Z</time>
      </trkpt>
      <trkpt lat="48.94678" lon="1.42488">
        <ele>47</ele>
        <time>2015-09-27T06:58:53Z</time>
      </trkpt>
      <trkpt lat="48.9467" lon="1.42503">
        <ele>47</ele>
        <time>2015-09-27T06:58:55Z</time>
      </trkpt>
      <trkpt lat="48.94661" lon="1.42518">
        <ele>46</ele>
        <time>2015-09-27T06:58:57Z</time>
      </trkpt>
      <trkpt lat="48.94646" lon="1.4254">
        <ele>47</ele>
        <time>2015-09-27T06:59:00Z</time>
      </trkpt>
      <trkpt lat="48.94637" lon="1.42556">
        <ele>47</ele>
        <time>2015-09-27T06:59:02Z</time>
      </trkpt>
      <trkpt lat="48.94627" lon="1.42571">
        <ele>47</ele>
        <time>2015-09-27T06:59:04Z</time>
      </trkpt>
      <trkpt lat="48.94617" lon="1.42586">
        <ele>47</ele>
        <time>2015-09-27T06:59:06Z</time>
      </trkpt>
      <trkpt lat="48.94608" lon="1.42601">
        <ele>47</ele>
        <time>2015-09-27T06:59:08Z</time>
      </trkpt>
      <trkpt lat="48.94597" lon="1.42616">
        <ele>47</ele>
        <time>2015-09-27T06:59:10Z</time>
      </trkpt>
      <trkpt lat="48.94587" lon="1.42631">
        <ele>47</ele>
        <time>2015-09-27T06:59:12Z</time>
      </trkpt>
      <trkpt lat="48.94576" lon="1.42645">
        <ele>47.1</ele>
        <time>2015-09-27T06:59:14Z</time>
      </trkpt>
      <trkpt lat="48.94564" lon="1.4266">
        <ele>47.1</ele>
        <time>2015-09-27T06:59:16Z</time>
      </trkpt>
      <trkpt lat="48.94553" lon="1.42674">
        <ele>47.1</ele>
        <time>2015-09-27T06:59:18Z</time>
      </trkpt>
      <trkpt lat="48.94543" lon="1.42688">
        <ele>47.2</ele>
        <time>2015-09-27T06:59:20Z</time>
      </trkpt>
      <trkpt lat="48.94533" lon="1.42702">
        <ele>47.2</ele>
        <time>2015-09-27T06:59:22Z</time>
      </trkpt>
      <trkpt lat="48.94523" lon="1.42718">
        <ele>47.2</ele>
        <time>2015-09-27T06:59:24Z</time>
      </trkpt>
      <trkpt lat="48.94512" lon="1.42733">
        <ele>47.2</ele>
        <time>2015-09-27T06:59:26Z</time>
      </trkpt>
      <trkpt lat="48.94501" lon="1.42746">
        <ele>47.2</ele>
        <time>2015-09-27T06:59:28Z</time>
      </trkpt>
      <trkpt lat="48.94488" lon="1.4276">
        <ele>47.3</ele>
        <time>2015-09-27T06:59:30Z</time>
      </trkpt>
      <trkpt lat="48.94476" lon="1.42773">
        <ele>47.4</ele>
        <time>2015-09-27T06:59:32Z</time>
      </trkpt>
      <trkpt lat="48.94466" lon="1.42787">
        <ele>47.4</ele>
        <time>2015-09-27T06:59:34Z</time>
      </trkpt>
      <trkpt lat="48.94455" lon="1.42801">
        <ele>47.5</ele>
        <time>2015-09-27T06:59:36Z</time>
      </trkpt>
      <trkpt lat="48.94445" lon="1.42815">
        <ele>47.5</ele>
        <time>2015-09-27T06:59:38Z</time>
      </trkpt>
      <trkpt lat="48.94436" lon="1.42831">
        <ele>47.5</ele>
        <time>2015-09-27T06:59:40Z</time>
      </trkpt>
      <trkpt lat="48.9443" lon="1.42848">
        <ele>47.5</ele>
        <time>2015-09-27T06:59:42Z</time>
      </trkpt>
      <trkpt lat="48.94425" lon="1.42861">
        <ele>47.5</ele>
        <time>2015-09-27T06:59:44Z</time>
      </trkpt>
      <trkpt lat="48.94414" lon="1.42856">
        <ele>47.5</ele>
        <time>2015-09-27T06:59:48Z</time>
      </trkpt>
      <trkpt lat="48.94401" lon="1.42857">
        <ele>47.4</ele>
        <time>2015-09-27T06:59:51Z</time>
      </trkpt>
      <trkpt lat="48.94392" lon="1.42859">
        <ele>47.4</ele>
        <time>2015-09-27T06:59:53Z</time>
      </trkpt>
      <trkpt lat="48.94383" lon="1.42867">
        <ele>47.4</ele>
        <time>2015-09-27T06:59:56Z</time>
      </trkpt>
      <trkpt lat="48.94373" lon="1.4288">
        <ele>47.4</ele>
        <time>2015-09-27T06:59:59Z</time>
      </trkpt>
      <trkpt lat="48.94364" lon="1.42889">
        <ele>47.3</ele>
        <time>2015-09-27T07:00:01Z</time>
      </trkpt>
      <trkpt lat="48.94354" lon="1.42892">
        <ele>47.3</ele>
        <time>2015-09-27T07:00:04Z</time>
      </trkpt>
      <trkpt lat="48.94342" lon="1.42889">
        <ele>47.2</ele>
        <time>2015-09-27T07:00:07Z</time>
      </trkpt>
      <trkpt lat="48.94335" lon="1.42902">
        <ele>47.2</ele>
        <time>2015-09-27T07:00:12Z</time>
      </trkpt>
      <trkpt lat="48.9433" lon="1.42917">
        <ele>47.1</ele>
        <time>2015-09-27T07:00:16Z</time>
      </trkpt>
      <trkpt lat="48.94326" lon="1.42931">
        <ele>47.1</ele>
        <time>2015-09-27T07:00:20Z</time>
      </trkpt>
      <trkpt lat="48.94314" lon="1.42938">
        <ele>47.2</ele>
        <time>2015-09-27T07:00:23Z</time>
      </trkpt>
      <trkpt lat="48.94304" lon="1.42946">
        <ele>47.2</ele>
        <time>2015-09-27T07:00:25Z</time>
      </trkpt>
      <trkpt lat="48.94292" lon="1.42954">
        <ele>47.3</ele>
        <time>2015-09-27T07:00:27Z</time>
      </trkpt>
      <trkpt lat="48.9428" lon="1.42965">
        <ele>47.3</ele>
        <time>2015-09-27T07:00:29Z</time>
      </trkpt>
      <trkpt lat="48.94267" lon="1.42972">
        <ele>47.4</ele>
        <time>2015-09-27T07:00:31Z</time>
      </trkpt>
      <trkpt lat="48.94255" lon="1.4298">
        <ele>47.4</ele>
        <time>2015-09-27T07:00:33Z</time>
      </trkpt>
      <trkpt lat="48.94242" lon="1.42989">
        <ele>47.4</ele>
        <time>2015-09-27T07:00:35Z</time>
      </trkpt>
      <trkpt lat="48.94232" lon="1.42996">
        <ele>47.5</ele>
        <time>2015-09-27T07:00:37Z</time>
      </trkpt>
      <trkpt lat="48.94221" lon="1.43006">
        <ele>47.5</ele>
        <time>2015-09-27T07:00:39Z</time>
      </trkpt>
      <trkpt lat="48.94211" lon="1.43014">
        <ele>47.5</ele>
        <time>2015-09-27T07:00:41Z</time>
      </trkpt>
      <trkpt lat="48.94201" lon="1.43022">
        <ele>47.5</ele>
        <time>2015-09-27T07:00:43Z</time>
      </trkpt>
      <trkpt lat="48.9419" lon="1.4303">
        <ele>47.6</ele>
        <time>2015-09-27T07:00:45Z</time>
      </trkpt>
      <trkpt lat="48.94179" lon="1.43037">
        <ele>47.6</ele>
        <time>2015-09-27T07:00:47Z</time>
      </trkpt>
      <trkpt lat="48.94167" lon="1.43045">
        <ele>47.6</ele>
        <time>2015-09-27T07:00:49Z</time>
      </trkpt>
      <trkpt lat="48.94156" lon="1.43051">
        <ele>47.6</ele>
        <time>2015-09-27T07:00:51Z</time>
      </trkpt>
      <trkpt lat="48.94147" lon="1.43059">
        <ele>47.6</ele>
        <time>2015-09-27T07:00:53Z</time>
      </trkpt>
      <trkpt lat="48.94138" lon="1.43063">
        <ele>47.7</ele>
        <time>2015-09-27T07:00:55Z</time>
      </trkpt>
      <trkpt lat="48.94128" lon="1.43065">
        <ele>47.7</ele>
        <time>2015-09-27T07:00:57Z</time>
      </trkpt>
      <trkpt lat="48.94118" lon="1.43069">
        <ele>47.8</ele>
        <time>2015-09-27T07:00:59Z</time>
      </trkpt>
      <trkpt lat="48.9411" lon="1.43074">
        <ele>47.9</ele>
        <time>2015-09-27T07:01:00Z</time>
      </trkpt>
      <trkpt lat="48.94099" lon="1.43079">
        <ele>47.9</ele>
        <time>2015-09-27T07:01:02Z</time>
      </trkpt>
      <trkpt lat="48.94086" lon="1.43083">
        <ele>48</ele>
        <time>2015-09-27T07:01:04Z</time>
      </trkpt>
      <trkpt lat="48.94073" lon="1.43089">
        <ele>48</ele>
        <time>2015-09-27T07:01:06Z</time>
      </trkpt>
      <trkpt lat="48.94061" lon="1.43095">
        <ele>48.1</ele>
        <time>2015-09-27T07:01:08Z</time>
      </trkpt>
      <trkpt lat="48.94046" lon="1.43101">
        <ele>48.1</ele>
        <time>2015-09-27T07:01:10Z</time>
      </trkpt>
      <trkpt lat="48.94037" lon="1.43108">
        <ele>48.2</ele>
        <time>2015-09-27T07:01:12Z</time>
      </trkpt>
      <trkpt lat="48.94023" lon="1.43113">
        <ele>48.2</ele>
        <time>2015-09-27T07:01:14Z</time>
      </trkpt>
      <trkpt lat="48.94011" lon="1.43119">
        <ele>48.2</ele>
        <time>2015-09-27T07:01:16Z</time>
      </trkpt>
      <trkpt lat="48.93997" lon="1.43126">
        <ele>48.2</ele>
        <time>2015-09-27T07:01:18Z</time>
      </trkpt>
      <trkpt lat="48.93983" lon="1.43134">
        <ele>48.3</ele>
        <time>2015-09-27T07:01:20Z</time>
      </trkpt>
      <trkpt lat="48.9397" lon="1.43141">
        <ele>48.3</ele>
        <time>2015-09-27T07:01:22Z</time>
      </trkpt>
      <trkpt lat="48.93962" lon="1.43145">
        <ele>48.3</ele>
        <time>2015-09-27T07:01:23Z</time>
      </trkpt>
      <trkpt lat="48.93949" lon="1.43154">
        <ele>48.3</ele>
        <time>2015-09-27T07:01:25Z</time>
      </trkpt>
      <trkpt lat="48.93938" lon="1.43165">
        <ele>48.3</ele>
        <time>2015-09-27T07:01:27Z</time>
      </trkpt>
      <trkpt lat="48.93927" lon="1.43171">
        <ele>48.3</ele>
        <time>2015-09-27T07:01:28Z</time>
      </trkpt>
      <trkpt lat="48.93919" lon="1.43175">
        <ele>48.3</ele>
        <time>2015-09-27T07:01:29Z</time>
      </trkpt>
      <trkpt lat="48.93906" lon="1.43185">
        <ele>48.3</ele>
        <time>2015-09-27T07:01:31Z</time>
      </trkpt>
      <trkpt lat="48.93894" lon="1.43197">
        <ele>48.3</ele>
        <time>2015-09-27T07:01:33Z</time>
      </trkpt>
      <trkpt lat="48.93882" lon="1.43208">
        <ele>48.3</ele>
        <time>2015-09-27T07:01:35Z</time>
      </trkpt>
      <trkpt lat="48.93871" lon="1.4322">
        <ele>48.3</ele>
        <time>2015-09-27T07:01:37Z</time>
      </trkpt>
      <trkpt lat="48.93861" lon="1.43234">
        <ele>48.2</ele>
        <time>2015-09-27T07:01:39Z</time>
      </trkpt>
      <trkpt lat="48.93853" lon="1.43248">
        <ele>48.2</ele>
        <time>2015-09-27T07:01:41Z</time>
      </trkpt>
      <trkpt lat="48.93845" lon="1.43263">
        <ele>48.2</ele>
        <time>2015-09-27T07:01:43Z</time>
      </trkpt>
      <trkpt lat="48.93837" lon="1.43277">
        <ele>48.2</ele>
        <time>2015-09-27T07:01:45Z</time>
      </trkpt>
      <trkpt lat="48.93828" lon="1.43292">
        <ele>48.2</ele>
        <time>2015-09-27T07:01:47Z</time>
      </trkpt>
      <trkpt lat="48.93816" lon="1.43305">
        <ele>48.2</ele>
        <time>2015-09-27T07:01:49Z</time>
      </trkpt>
      <trkpt lat="48.93806" lon="1.43315">
        <ele>48</ele>
        <time>2015-09-27T07:01:51Z</time>
      </trkpt>
      <trkpt lat="48.93795" lon="1.43323">
        <ele>48</ele>
        <time>2015-09-27T07:01:53Z</time>
      </trkpt>
      <trkpt lat="48.93781" lon="1.43331">
        <ele>48</ele>
        <time>2015-09-27T07:01:55Z</time>
      </trkpt>
      <trkpt lat="48.93769" lon="1.4334">
        <ele>48</ele>
        <time>2015-09-27T07:01:57Z</time>
      </trkpt>
      <trkpt lat="48.93757" lon="1.4335">
        <ele>48</ele>
        <time>2015-09-27T07:01:59Z</time>
      </trkpt>
      <trkpt lat="48.93745" lon="1.43359">
        <ele>48</ele>
        <time>2015-09-27T07:02:01Z</time>
      </trkpt>
      <trkpt lat="48.93733" lon="1.43366">
        <ele>48</ele>
        <time>2015-09-27T07:02:03Z</time>
      </trkpt>
      <trkpt lat="48.9372" lon="1.43375">
        <ele>48</ele>
        <time>2015-09-27T07:02:05Z</time>
      </trkpt>
      <trkpt lat="48.93708" lon="1.43384">
        <ele>48</ele>
        <time>2015-09-27T07:02:07Z</time>
      </trkpt>
      <trkpt lat="48.93696" lon="1.43392">
        <ele>48</ele>
        <time>2015-09-27T07:02:09Z</time>
      </trkpt>
      <trkpt lat="48.93685" lon="1.43399">
        <ele>48.1</ele>
        <time>2015-09-27T07:02:11Z</time>
      </trkpt>
      <trkpt lat="48.93673" lon="1.43408">
        <ele>48.1</ele>
        <time>2015-09-27T07:02:13Z</time>
      </trkpt>
      <trkpt lat="48.93661" lon="1.43416">
        <ele>48.2</ele>
        <time>2015-09-27T07:02:15Z</time>
      </trkpt>
      <trkpt lat="48.9365" lon="1.43424">
        <ele>48.2</ele>
        <time>2015-09-27T07:02:17Z</time>
      </trkpt>
      <trkpt lat="48.93638" lon="1.43433">
        <ele>48.2</ele>
        <time>2015-09-27T07:02:19Z</time>
      </trkpt>
      <trkpt lat="48.93626" lon="1.43442">
        <ele>48.2</ele>
        <time>2015-09-27T07:02:21Z</time>
      </trkpt>
      <trkpt lat="48.93615" lon="1.4345">
        <ele>48.2</ele>
        <time>2015-09-27T07:02:23Z</time>
      </trkpt>
      <trkpt lat="48.93604" lon="1.43459">
        <ele>48.2</ele>
        <time>2015-09-27T07:02:25Z</time>
      </trkpt>
      <trkpt lat="48.93593" lon="1.43468">
        <ele>48.2</ele>
        <time>2015-09-27T07:02:27Z</time>
      </trkpt>
      <trkpt lat="48.93581" lon="1.43477">
        <ele>48.2</ele>
        <time>2015-09-27T07:02:29Z</time>
      </trkpt>
      <trkpt lat="48.9357" lon="1.43487">
        <ele>48.2</ele>
        <time>2015-09-27T07:02:31Z</time>
      </trkpt>
      <trkpt lat="48.93558" lon="1.43496">
        <ele>48.2</ele>
        <time>2015-09-27T07:02:33Z</time>
      </trkpt>
      <trkpt lat="48.93547" lon="1.43504">
        <ele>48.2</ele>
        <time>2015-09-27T07:02:35Z</time>
      </trkpt>
      <trkpt lat="48.93535" lon="1.43513">
        <ele>48.2</ele>
        <time>2015-09-27T07:02:37Z</time>
      </trkpt>
      <trkpt lat="48.93525" lon="1.43521">
        <ele>48.2</ele>
        <time>2015-09-27T07:02:39Z</time>
      </trkpt>
      <trkpt lat="48.93514" lon="1.4353">
        <ele>48.3</ele>
        <time>2015-09-27T07:02:41Z</time>
      </trkpt>
      <trkpt lat="48.93504" lon="1.43538">
        <ele>48.3</ele>
        <time>2015-09-27T07:02:43Z</time>
      </trkpt>
      <trkpt lat="48.93493" lon="1.43546">
        <ele>48.4</ele>
        <time>2015-09-27T07:02:45Z</time>
      </trkpt>
      <trkpt lat="48.93483" lon="1.43552">
        <ele>48.6</ele>
        <time>2015-09-27T07:02:47Z</time>
      </trkpt>
      <trkpt lat="48.93473" lon="1.43557">
        <ele>48.8</ele>
        <time>2015-09-27T07:02:49Z</time>
      </trkpt>
      <trkpt lat="48.93462" lon="1.43557">
        <ele>49</ele>
        <time>2015-09-27T07:02:51Z</time>
      </trkpt>
      <trkpt lat="48.93452" lon="1.43555">
        <ele>49.2</ele>
        <time>2015-09-27T07:02:53Z</time>
      </trkpt>
      <trkpt lat="48.93442" lon="1.43553">
        <ele>49.3</ele>
        <time>2015-09-27T07:02:55Z</time>
      </trkpt>
      <trkpt lat="48.93432" lon="1.43549">
        <ele>49.5</ele>
        <time>2015-09-27T07:02:57Z</time>
      </trkpt>
      <trkpt lat="48.93422" lon="1.43547">
        <ele>49.6</ele>
        <time>2015-09-27T07:02:59Z</time>
      </trkpt>
      <trkpt lat="48.93414" lon="1.43559">
        <ele>49.6</ele>
        <time>2015-09-27T07:03:02Z</time>
      </trkpt>
      <trkpt lat="48.93412" lon="1.43578">
        <ele>49.7</ele>
        <time>2015-09-27T07:03:05Z</time>
      </trkpt>
      <trkpt lat="48.93409" lon="1.43595">
        <ele>49.7</ele>
        <time>2015-09-27T07:03:08Z</time>
      </trkpt>
      <trkpt lat="48.93398" lon="1.43606">
        <ele>49.7</ele>
        <time>2015-09-27T07:03:11Z</time>
      </trkpt>
      <trkpt lat="48.9339" lon="1.43616">
        <ele>49.7</ele>
        <time>2015-09-27T07:03:14Z</time>
      </trkpt>
      <trkpt lat="48.93379" lon="1.43625">
        <ele>49.9</ele>
        <time>2015-09-27T07:03:17Z</time>
      </trkpt>
      <trkpt lat="48.93368" lon="1.43633">
        <ele>50.1</ele>
        <time>2015-09-27T07:03:20Z</time>
      </trkpt>
      <trkpt lat="48.93359" lon="1.43638">
        <ele>50.3</ele>
        <time>2015-09-27T07:03:22Z</time>
      </trkpt>
      <trkpt lat="48.9335" lon="1.43645">
        <ele>50.5</ele>
        <time>2015-09-27T07:03:24Z</time>
      </trkpt>
      <trkpt lat="48.93339" lon="1.43653">
        <ele>50.7</ele>
        <time>2015-09-27T07:03:26Z</time>
      </trkpt>
      <trkpt lat="48.93328" lon="1.43662">
        <ele>50.9</ele>
        <time>2015-09-27T07:03:28Z</time>
      </trkpt>
      <trkpt lat="48.93319" lon="1.43668">
        <ele>51.1</ele>
        <time>2015-09-27T07:03:30Z</time>
      </trkpt>
      <trkpt lat="48.9331" lon="1.43675">
        <ele>51.4</ele>
        <time>2015-09-27T07:03:32Z</time>
      </trkpt>
      <trkpt lat="48.933" lon="1.43681">
        <ele>51.6</ele>
        <time>2015-09-27T07:03:34Z</time>
      </trkpt>
      <trkpt lat="48.9329" lon="1.43688">
        <ele>51.9</ele>
        <time>2015-09-27T07:03:36Z</time>
      </trkpt>
      <trkpt lat="48.93281" lon="1.43694">
        <ele>52.1</ele>
        <time>2015-09-27T07:03:38Z</time>
      </trkpt>
      <trkpt lat="48.93271" lon="1.43702">
        <ele>52.4</ele>
        <time>2015-09-27T07:03:40Z</time>
      </trkpt>
      <trkpt lat="48.93261" lon="1.43708">
        <ele>52.6</ele>
        <time>2015-09-27T07:03:42Z</time>
      </trkpt>
      <trkpt lat="48.93252" lon="1.43715">
        <ele>52.8</ele>
        <time>2015-09-27T07:03:44Z</time>
      </trkpt>
      <trkpt lat="48.93243" lon="1.43722">
        <ele>53</ele>
        <time>2015-09-27T07:03:46Z</time>
      </trkpt>
      <trkpt lat="48.93233" lon="1.43729">
        <ele>53.2</ele>
        <time>2015-09-27T07:03:48Z</time>
      </trkpt>
      <trkpt lat="48.93223" lon="1.43737">
        <ele>53.4</ele>
        <time>2015-09-27T07:03:50Z</time>
      </trkpt>
      <trkpt lat="48.93213" lon="1.43744">
        <ele>53.6</ele>
        <time>2015-09-27T07:03:52Z</time>
      </trkpt>
      <trkpt lat="48.93204" lon="1.43752">
        <ele>53.8</ele>
        <time>2015-09-27T07:03:54Z</time>
      </trkpt>
      <trkpt lat="48.93193" lon="1.4376">
        <ele>54</ele>
        <time>2015-09-27T07:03:56Z</time>
      </trkpt>
      <trkpt lat="48.93183" lon="1.43768">
        <ele>54.1</ele>
        <time>2015-09-27T07:03:58Z</time>
      </trkpt>
      <trkpt lat="48.93172" lon="1.43775">
        <ele>54.2</ele>
        <time>2015-09-27T07:04:00Z</time>
      </trkpt>
      <trkpt lat="48.9316" lon="1.43781">
        <ele>54.2</ele>
        <time>2015-09-27T07:04:02Z</time>
      </trkpt>
      <trkpt lat="48.93149" lon="1.43787">
        <ele>54.1</ele>
        <time>2015-09-27T07:04:04Z</time>
      </trkpt>
      <trkpt lat="48.93138" lon="1.43793">
        <ele>54.1</ele>
        <time>2015-09-27T07:04:06Z</time>
      </trkpt>
      <trkpt lat="48.9313" lon="1.43799">
        <ele>54.1</ele>
        <time>2015-09-27T07:04:08Z</time>
      </trkpt>
      <trkpt lat="48.9312" lon="1.43793">
        <ele>54.1</ele>
        <time>2015-09-27T07:04:11Z</time>
      </trkpt>
      <trkpt lat="48.93114" lon="1.43779">
        <ele>54</ele>
        <time>2015-09-27T07:04:13Z</time>
      </trkpt>
      <trkpt lat="48.93107" lon="1.43763">
        <ele>54</ele>
        <time>2015-09-27T07:04:15Z</time>
      </trkpt>
      <trkpt lat="48.93099" lon="1.43745">
        <ele>53.9</ele>
        <time>2015-09-27T07:04:17Z</time>
      </trkpt>
      <trkpt lat="48.9309" lon="1.43727">
        <ele>53.7</ele>
        <time>2015-09-27T07:04:19Z</time>
      </trkpt>
      <trkpt lat="48.93082" lon="1.43709">
        <ele>53.5</ele>
        <time>2015-09-27T07:04:21Z</time>
      </trkpt>
      <trkpt lat="48.93073" lon="1.4369">
        <ele>53.1</ele>
        <time>2015-09-27T07:04:23Z</time>
      </trkpt>
      <trkpt lat="48.93064" lon="1.43672">
        <ele>52.8</ele>
        <time>2015-09-27T07:04:25Z</time>
      </trkpt>
      <trkpt lat="48.93056" lon="1.43652">
        <ele>52.5</ele>
        <time>2015-09-27T07:04:27Z</time>
      </trkpt>
      <trkpt lat="48.9305" lon="1.43633">
        <ele>52.3</ele>
        <time>2015-09-27T07:04:29Z</time>
      </trkpt>
      <trkpt lat="48.93047" lon="1.43611">
        <ele>52</ele>
        <time>2015-09-27T07:04:31Z</time>
      </trkpt>
      <trkpt lat="48.93046" lon="1.43589">
        <ele>51.7</ele>
        <time>2015-09-27T07:04:33Z</time>
      </trkpt>
      <trkpt lat="48.93046" lon="1.43568">
        <ele>51.5</ele>
        <time>2015-09-27T07:04:35Z</time>
      </trkpt>
      <trkpt lat="48.93047" lon="1.43547">
        <ele>51.2</ele>
        <time>2015-09-27T07:04:37Z</time>
      </trkpt>
      <trkpt lat="48.93048" lon="1.43528">
        <ele>51</ele>
        <time>2015-09-27T07:04:39Z</time>
      </trkpt>
      <trkpt lat="48.93049" lon="1.43507">
        <ele>50.9</ele>
        <time>2015-09-27T07:04:41Z</time>
      </trkpt>
      <trkpt lat="48.93049" lon="1.43487">
        <ele>50.7</ele>
        <time>2015-09-27T07:04:43Z</time>
      </trkpt>
      <trkpt lat="48.9305" lon="1.43467">
        <ele>50.5</ele>
        <time>2015-09-27T07:04:45Z</time>
      </trkpt>
      <trkpt lat="48.93053" lon="1.43447">
        <ele>50.3</ele>
        <time>2015-09-27T07:04:47Z</time>
      </trkpt>
      <trkpt lat="48.93053" lon="1.43426">
        <ele>50.1</ele>
        <time>2015-09-27T07:04:49Z</time>
      </trkpt>
      <trkpt lat="48.93055" lon="1.43406">
        <ele>50</ele>
        <time>2015-09-27T07:04:51Z</time>
      </trkpt>
      <trkpt lat="48.93057" lon="1.43386">
        <ele>49.9</ele>
        <time>2015-09-27T07:04:53Z</time>
      </trkpt>
      <trkpt lat="48.93058" lon="1.43366">
        <ele>49.8</ele>
        <time>2015-09-27T07:04:55Z</time>
      </trkpt>
      <trkpt lat="48.93058" lon="1.43348">
        <ele>49.7</ele>
        <time>2015-09-27T07:04:57Z</time>
      </trkpt>
      <trkpt lat="48.93059" lon="1.4333">
        <ele>49.6</ele>
        <time>2015-09-27T07:04:59Z</time>
      </trkpt>
      <trkpt lat="48.93061" lon="1.43312">
        <ele>49.5</ele>
        <time>2015-09-27T07:05:01Z</time>
      </trkpt>
      <trkpt lat="48.93062" lon="1.43293">
        <ele>49.5</ele>
        <time>2015-09-27T07:05:03Z</time>
      </trkpt>
      <trkpt lat="48.93064" lon="1.43273">
        <ele>49.5</ele>
        <time>2015-09-27T07:05:05Z</time>
      </trkpt>
      <trkpt lat="48.93067" lon="1.43253">
        <ele>49.4</ele>
        <time>2015-09-27T07:05:07Z</time>
      </trkpt>
      <trkpt lat="48.93073" lon="1.43233">
        <ele>49.3</ele>
        <time>2015-09-27T07:05:09Z</time>
      </trkpt>
      <trkpt lat="48.9308" lon="1.43215">
        <ele>49.2</ele>
        <time>2015-09-27T07:05:11Z</time>
      </trkpt>
      <trkpt lat="48.93089" lon="1.43198">
        <ele>49.1</ele>
        <time>2015-09-27T07:05:13Z</time>
      </trkpt>
      <trkpt lat="48.93098" lon="1.4318">
        <ele>49</ele>
        <time>2015-09-27T07:05:15Z</time>
      </trkpt>
      <trkpt lat="48.93105" lon="1.43161">
        <ele>48.9</ele>
        <time>2015-09-27T07:05:17Z</time>
      </trkpt>
      <trkpt lat="48.93112" lon="1.43142">
        <ele>48.9</ele>
        <time>2015-09-27T07:05:19Z</time>
      </trkpt>
      <trkpt lat="48.93116" lon="1.43122">
        <ele>48.8</ele>
        <time>2015-09-27T07:05:21Z</time>
      </trkpt>
      <trkpt lat="48.93119" lon="1.43101">
        <ele>48.7</ele>
        <time>2015-09-27T07:05:23Z</time>
      </trkpt>
      <trkpt lat="48.93123" lon="1.43082">
        <ele>48.7</ele>
        <time>2015-09-27T07:05:25Z</time>
      </trkpt>
      <trkpt lat="48.93127" lon="1.43062">
        <ele>48.6</ele>
        <time>2015-09-27T07:05:27Z</time>
      </trkpt>
      <trkpt lat="48.9313" lon="1.43042">
        <ele>48.6</ele>
        <time>2015-09-27T07:05:29Z</time>
      </trkpt>
      <trkpt lat="48.93133" lon="1.43021">
        <ele>48.6</ele>
        <time>2015-09-27T07:05:31Z</time>
      </trkpt>
      <trkpt lat="48.93137" lon="1.43001">
        <ele>48.6</ele>
        <time>2015-09-27T07:05:33Z</time>
      </trkpt>
      <trkpt lat="48.9314" lon="1.4298">
        <ele>48.5</ele>
        <time>2015-09-27T07:05:35Z</time>
      </trkpt>
      <trkpt lat="48.93147" lon="1.42963">
        <ele>48.5</ele>
        <time>2015-09-27T07:05:37Z</time>
      </trkpt>
      <trkpt lat="48.93155" lon="1.42948">
        <ele>48.5</ele>
        <time>2015-09-27T07:05:39Z</time>
      </trkpt>
      <trkpt lat="48.93164" lon="1.42932">
        <ele>48.4</ele>
        <time>2015-09-27T07:05:41Z</time>
      </trkpt>
      <trkpt lat="48.93174" lon="1.42918">
        <ele>48.4</ele>
        <time>2015-09-27T07:05:43Z</time>
      </trkpt>
      <trkpt lat="48.93184" lon="1.42906">
        <ele>48.4</ele>
        <time>2015-09-27T07:05:45Z</time>
      </trkpt>
      <trkpt lat="48.93193" lon="1.4289">
        <ele>48.4</ele>
        <time>2015-09-27T07:05:47Z</time>
      </trkpt>
      <trkpt lat="48.93201" lon="1.42873">
        <ele>48.3</ele>
        <time>2015-09-27T07:05:49Z</time>
      </trkpt>
      <trkpt lat="48.93209" lon="1.42856">
        <ele>48.3</ele>
        <time>2015-09-27T07:05:51Z</time>
      </trkpt>
      <trkpt lat="48.93217" lon="1.42838">
        <ele>48.3</ele>
        <time>2015-09-27T07:05:53Z</time>
      </trkpt>
      <trkpt lat="48.93224" lon="1.42823">
        <ele>48.3</ele>
        <time>2015-09-27T07:05:55Z</time>
      </trkpt>
      <trkpt lat="48.9323" lon="1.42808">
        <ele>48.2</ele>
        <time>2015-09-27T07:05:57Z</time>
      </trkpt>
      <trkpt lat="48.93229" lon="1.4279">
        <ele>48.2</ele>
        <time>2015-09-27T07:05:59Z</time>
      </trkpt>
      <trkpt lat="48.93224" lon="1.42774">
        <ele>48.2</ele>
        <time>2015-09-27T07:06:01Z</time>
      </trkpt>
      <trkpt lat="48.9322" lon="1.42758">
        <ele>48.1</ele>
        <time>2015-09-27T07:06:03Z</time>
      </trkpt>
      <trkpt lat="48.93216" lon="1.42743">
        <ele>48.1</ele>
        <time>2015-09-27T07:06:05Z</time>
      </trkpt>
      <trkpt lat="48.93212" lon="1.42727">
        <ele>48</ele>
        <time>2015-09-27T07:06:07Z</time>
      </trkpt>
      <trkpt lat="48.93208" lon="1.42712">
        <ele>48</ele>
        <time>2015-09-27T07:06:09Z</time>
      </trkpt>
      <trkpt lat="48.93205" lon="1.42694">
        <ele>47.9</ele>
        <time>2015-09-27T07:06:11Z</time>
      </trkpt>
      <trkpt lat="48.93201" lon="1.42677">
        <ele>47.9</ele>
        <time>2015-09-27T07:06:13Z</time>
      </trkpt>
      <trkpt lat="48.93198" lon="1.42661">
        <ele>47.9</ele>
        <time>2015-09-27T07:06:15Z</time>
      </trkpt>
      <trkpt lat="48.93195" lon="1.42644">
        <ele>47.9</ele>
        <time>2015-09-27T07:06:17Z</time>
      </trkpt>
      <trkpt lat="48.93192" lon="1.42627">
        <ele>47.8</ele>
        <time>2015-09-27T07:06:19Z</time>
      </trkpt>
      <trkpt lat="48.93189" lon="1.4261">
        <ele>47.8</ele>
        <time>2015-09-27T07:06:21Z</time>
      </trkpt>
      <trkpt lat="48.93187" lon="1.42593">
        <ele>47.8</ele>
        <time>2015-09-27T07:06:23Z</time>
      </trkpt>
      <trkpt lat="48.93186" lon="1.42575">
        <ele>47.8</ele>
        <time>2015-09-27T07:06:25Z</time>
      </trkpt>
      <trkpt lat="48.93186" lon="1.42558">
        <ele>47.8</ele>
        <time>2015-09-27T07:06:27Z</time>
      </trkpt>
      <trkpt lat="48.93186" lon="1.42541">
        <ele>47.8</ele>
        <time>2015-09-27T07:06:29Z</time>
      </trkpt>
      <trkpt lat="48.93187" lon="1.42524">
        <ele>47.8</ele>
        <time>2015-09-27T07:06:31Z</time>
      </trkpt>
      <trkpt lat="48.93188" lon="1.42507">
        <ele>47.8</ele>
        <time>2015-09-27T07:06:33Z</time>
      </trkpt>
      <trkpt lat="48.93189" lon="1.4249">
        <ele>47.8</ele>
        <time>2015-09-27T07:06:35Z</time>
      </trkpt>
      <trkpt lat="48.9319" lon="1.42474">
        <ele>47.8</ele>
        <time>2015-09-27T07:06:37Z</time>
      </trkpt>
      <trkpt lat="48.9319" lon="1.42458">
        <ele>47.8</ele>
        <time>2015-09-27T07:06:39Z</time>
      </trkpt>
      <trkpt lat="48.93189" lon="1.42442">
        <ele>47.8</ele>
        <time>2015-09-27T07:06:41Z</time>
      </trkpt>
      <trkpt lat="48.93188" lon="1.42426">
        <ele>47.8</ele>
        <time>2015-09-27T07:06:43Z</time>
      </trkpt>
      <trkpt lat="48.93184" lon="1.42411">
        <ele>47.8</ele>
        <time>2015-09-27T07:06:45Z</time>
      </trkpt>
      <trkpt lat="48.9318" lon="1.42397">
        <ele>47.7</ele>
        <time>2015-09-27T07:06:47Z</time>
      </trkpt>
      <trkpt lat="48.93181" lon="1.4238">
        <ele>47.5</ele>
        <time>2015-09-27T07:06:50Z</time>
      </trkpt>
      <trkpt lat="48.93192" lon="1.42368">
        <ele>47.5</ele>
        <time>2015-09-27T07:06:53Z</time>
      </trkpt>
      <trkpt lat="48.93202" lon="1.42361">
        <ele>47.5</ele>
        <time>2015-09-27T07:06:55Z</time>
      </trkpt>
      <trkpt lat="48.93209" lon="1.42354">
        <ele>47.5</ele>
        <time>2015-09-27T07:06:58Z</time>
      </trkpt>
      <trkpt lat="48.93218" lon="1.42342">
        <ele>47.5</ele>
        <time>2015-09-27T07:07:00Z</time>
      </trkpt>
      <trkpt lat="48.93229" lon="1.42334">
        <ele>47.5</ele>
        <time>2015-09-27T07:07:02Z</time>
      </trkpt>
      <trkpt lat="48.93241" lon="1.42327">
        <ele>47.5</ele>
        <time>2015-09-27T07:07:04Z</time>
      </trkpt>
      <trkpt lat="48.93251" lon="1.42319">
        <ele>47.6</ele>
        <time>2015-09-27T07:07:06Z</time>
      </trkpt>
      <trkpt lat="48.93262" lon="1.4231">
        <ele>47.6</ele>
        <time>2015-09-27T07:07:08Z</time>
      </trkpt>
      <trkpt lat="48.93266" lon="1.42298">
        <ele>47.6</ele>
        <time>2015-09-27T07:07:10Z</time>
      </trkpt>
      <trkpt lat="48.93263" lon="1.42279">
        <ele>47.6</ele>
        <time>2015-09-27T07:07:13Z</time>
      </trkpt>
      <trkpt lat="48.93261" lon="1.42265">
        <ele>47.6</ele>
        <time>2015-09-27T07:07:15Z</time>
      </trkpt>
      <trkpt lat="48.93259" lon="1.4225">
        <ele>47.6</ele>
        <time>2015-09-27T07:07:17Z</time>
      </trkpt>
      <trkpt lat="48.93262" lon="1.42237">
        <ele>47.7</ele>
        <time>2015-09-27T07:07:19Z</time>
      </trkpt>
      <trkpt lat="48.93271" lon="1.42231">
        <ele>47.7</ele>
        <time>2015-09-27T07:07:21Z</time>
      </trkpt>
      <trkpt lat="48.9328" lon="1.42225">
        <ele>47.7</ele>
        <time>2015-09-27T07:07:23Z</time>
      </trkpt>
      <trkpt lat="48.9329" lon="1.4222">
        <ele>47.6</ele>
        <time>2015-09-27T07:07:25Z</time>
      </trkpt>
      <trkpt lat="48.933" lon="1.42219">
        <ele>47.6</ele>
        <time>2015-09-27T07:07:27Z</time>
      </trkpt>
      <trkpt lat="48.93309" lon="1.42224">
        <ele>47.6</ele>
        <time>2015-09-27T07:07:29Z</time>
      </trkpt>
      <trkpt lat="48.93319" lon="1.4223">
        <ele>47.5</ele>
        <time>2015-09-27T07:07:31Z</time>
      </trkpt>
      <trkpt lat="48.93329" lon="1.42237">
        <ele>47.5</ele>
        <time>2015-09-27T07:07:33Z</time>
      </trkpt>
      <trkpt lat="48.93337" lon="1.42243">
        <ele>47.5</ele>
        <time>2015-09-27T07:07:35Z</time>
      </trkpt>
      <trkpt lat="48.93348" lon="1.42251">
        <ele>47.4</ele>
        <time>2015-09-27T07:07:37Z</time>
      </trkpt>
      <trkpt lat="48.93358" lon="1.4226">
        <ele>47.4</ele>
        <time>2015-09-27T07:07:39Z</time>
      </trkpt>
      <trkpt lat="48.93367" lon="1.4227">
        <ele>47.4</ele>
        <time>2015-09-27T07:07:41Z</time>
      </trkpt>
      <trkpt lat="48.93374" lon="1.42283">
        <ele>47.5</ele>
        <time>2015-09-27T07:07:43Z</time>
      </trkpt>
      <trkpt lat="48.93382" lon="1.42296">
        <ele>47.5</ele>
        <time>2015-09-27T07:07:45Z</time>
      </trkpt>
      <trkpt lat="48.9339" lon="1.42308">
        <ele>47.5</ele>
        <time>2015-09-27T07:07:47Z</time>
      </trkpt>
      <trkpt lat="48.93399" lon="1.42318">
        <ele>47.5</ele>
        <time>2015-09-27T07:07:49Z</time>
      </trkpt>
      <trkpt lat="48.93408" lon="1.42327">
        <ele>47.5</ele>
        <time>2015-09-27T07:07:51Z</time>
      </trkpt>
      <trkpt lat="48.93418" lon="1.42323">
        <ele>47.5</ele>
        <time>2015-09-27T07:07:54Z</time>
      </trkpt>
      <trkpt lat="48.93415" lon="1.42307">
        <ele>47.5</ele>
        <time>2015-09-27T07:07:57Z</time>
      </trkpt>
      <trkpt lat="48.93412" lon="1.42294">
        <ele>47.5</ele>
        <time>2015-09-27T07:07:59Z</time>
      </trkpt>
      <trkpt lat="48.93409" lon="1.42278">
        <ele>47.5</ele>
        <time>2015-09-27T07:08:01Z</time>
      </trkpt>
      <trkpt lat="48.93407" lon="1.42262">
        <ele>47.5</ele>
        <time>2015-09-27T07:08:03Z</time>
      </trkpt>
      <trkpt lat="48.93404" lon="1.42245">
        <ele>47.5</ele>
        <time>2015-09-27T07:08:05Z</time>
      </trkpt>
      <trkpt lat="48.93402" lon="1.42228">
        <ele>47.5</ele>
        <time>2015-09-27T07:08:07Z</time>
      </trkpt>
      <trkpt lat="48.93401" lon="1.4221">
        <ele>47.5</ele>
        <time>2015-09-27T07:08:09Z</time>
      </trkpt>
      <trkpt lat="48.93404" lon="1.42191">
        <ele>47.5</ele>
        <time>2015-09-27T07:08:11Z</time>
      </trkpt>
      <trkpt lat="48.93406" lon="1.42172">
        <ele>47.5</ele>
        <time>2015-09-27T07:08:13Z</time>
      </trkpt>
      <trkpt lat="48.93407" lon="1.42155">
        <ele>47.5</ele>
        <time>2015-09-27T07:08:15Z</time>
      </trkpt>
      <trkpt lat="48.93406" lon="1.42137">
        <ele>47.6</ele>
        <time>2015-09-27T07:08:17Z</time>
      </trkpt>
      <trkpt lat="48.93406" lon="1.4212">
        <ele>47.6</ele>
        <time>2015-09-27T07:08:19Z</time>
      </trkpt>
      <trkpt lat="48.93404" lon="1.42103">
        <ele>47.6</ele>
        <time>2015-09-27T07:08:21Z</time>
      </trkpt>
      <trkpt lat="48.93402" lon="1.42087">
        <ele>47.6</ele>
        <time>2015-09-27T07:08:23Z</time>
      </trkpt>
      <trkpt lat="48.93404" lon="1.4207">
        <ele>47.6</ele>
        <time>2015-09-27T07:08:25Z</time>
      </trkpt>
      <trkpt lat="48.93407" lon="1.42053">
        <ele>47.6</ele>
        <time>2015-09-27T07:08:27Z</time>
      </trkpt>
      <trkpt lat="48.93408" lon="1.42035">
        <ele>47.6</ele>
        <time>2015-09-27T07:08:29Z</time>
      </trkpt>
      <trkpt lat="48.93405" lon="1.42018">
        <ele>47.6</ele>
        <time>2015-09-27T07:08:31Z</time>
      </trkpt>
      <trkpt lat="48.93399" lon="1.42002">
        <ele>47.6</ele>
        <time>2015-09-27T07:08:33Z</time>
      </trkpt>
      <trkpt lat="48.9339" lon="1.41989">
        <ele>47.6</ele>
        <time>2015-09-27T07:08:35Z</time>
      </trkpt>
      <trkpt lat="48.93381" lon="1.41977">
        <ele>47.6</ele>
        <time>2015-09-27T07:08:37Z</time>
      </trkpt>
      <trkpt lat="48.93371" lon="1.41967">
        <ele>47.7</ele>
        <time>2015-09-27T07:08:39Z</time>
      </trkpt>
      <trkpt lat="48.9336" lon="1.41958">
        <ele>47.7</ele>
        <time>2015-09-27T07:08:41Z</time>
      </trkpt>
      <trkpt lat="48.93353" lon="1.41944">
        <ele>47.7</ele>
        <time>2015-09-27T07:08:43Z</time>
      </trkpt>
      <trkpt lat="48.9335" lon="1.41927">
        <ele>47.7</ele>
        <time>2015-09-27T07:08:45Z</time>
      </trkpt>
      <trkpt lat="48.93349" lon="1.41912">
        <ele>47.8</ele>
        <time>2015-09-27T07:08:47Z</time>
      </trkpt>
      <trkpt lat="48.93348" lon="1.41898">
        <ele>47.9</ele>
        <time>2015-09-27T07:08:49Z</time>
      </trkpt>
      <trkpt lat="48.93347" lon="1.41881">
        <ele>48.2</ele>
        <time>2015-09-27T07:08:52Z</time>
      </trkpt>
      <trkpt lat="48.93356" lon="1.41871">
        <ele>48.5</ele>
        <time>2015-09-27T07:08:55Z</time>
      </trkpt>
      <trkpt lat="48.93369" lon="1.41866">
        <ele>49</ele>
        <time>2015-09-27T07:08:58Z</time>
      </trkpt>
      <trkpt lat="48.93378" lon="1.41863">
        <ele>49.2</ele>
        <time>2015-09-27T07:09:00Z</time>
      </trkpt>
      <trkpt lat="48.93387" lon="1.41859">
        <ele>49.5</ele>
        <time>2015-09-27T07:09:02Z</time>
      </trkpt>
      <trkpt lat="48.93397" lon="1.41853">
        <ele>49.7</ele>
        <time>2015-09-27T07:09:04Z</time>
      </trkpt>
      <trkpt lat="48.93406" lon="1.41847">
        <ele>49.9</ele>
        <time>2015-09-27T07:09:06Z</time>
      </trkpt>
      <trkpt lat="48.93416" lon="1.4184">
        <ele>50.2</ele>
        <time>2015-09-27T07:09:09Z</time>
      </trkpt>
      <trkpt lat="48.93424" lon="1.41832">
        <ele>50.7</ele>
        <time>2015-09-27T07:09:12Z</time>
      </trkpt>
      <trkpt lat="48.93433" lon="1.41822">
        <ele>51.5</ele>
        <time>2015-09-27T07:09:17Z</time>
      </trkpt>
      <trkpt lat="48.93441" lon="1.41813">
        <ele>52.2</ele>
        <time>2015-09-27T07:09:21Z</time>
      </trkpt>
      <trkpt lat="48.93448" lon="1.41802">
        <ele>53.6</ele>
        <time>2015-09-27T07:09:27Z</time>
      </trkpt>
      <trkpt lat="48.93457" lon="1.41792">
        <ele>55.2</ele>
        <time>2015-09-27T07:09:33Z</time>
      </trkpt>
      <trkpt lat="48.93465" lon="1.41783">
        <ele>56.9</ele>
        <time>2015-09-27T07:09:39Z</time>
      </trkpt>
      <trkpt lat="48.93472" lon="1.41772">
        <ele>58.6</ele>
        <time>2015-09-27T07:09:45Z</time>
      </trkpt>
      <trkpt lat="48.93481" lon="1.41765">
        <ele>60</ele>
        <time>2015-09-27T07:09:50Z</time>
      </trkpt>
      <trkpt lat="48.9349" lon="1.41759">
        <ele>61.9</ele>
        <time>2015-09-27T07:09:57Z</time>
      </trkpt>
      <trkpt lat="48.93498" lon="1.41752">
        <ele>63.7</ele>
        <time>2015-09-27T07:10:03Z</time>
      </trkpt>
      <trkpt lat="48.93507" lon="1.41744">
        <ele>65.4</ele>
        <time>2015-09-27T07:10:09Z</time>
      </trkpt>
      <trkpt lat="48.93514" lon="1.41733">
        <ele>67.2</ele>
        <time>2015-09-27T07:10:15Z</time>
      </trkpt>
      <trkpt lat="48.9352" lon="1.41723">
        <ele>69.2</ele>
        <time>2015-09-27T07:10:22Z</time>
      </trkpt>
      <trkpt lat="48.93529" lon="1.41714">
        <ele>70.6</ele>
        <time>2015-09-27T07:10:27Z</time>
      </trkpt>
      <trkpt lat="48.93533" lon="1.417">
        <ele>72.5</ele>
        <time>2015-09-27T07:10:34Z</time>
      </trkpt>
      <trkpt lat="48.93537" lon="1.41686">
        <ele>74.9</ele>
        <time>2015-09-27T07:10:42Z</time>
      </trkpt>
      <trkpt lat="48.93539" lon="1.41672">
        <ele>76.4</ele>
        <time>2015-09-27T07:10:48Z</time>
      </trkpt>
      <trkpt lat="48.93535" lon="1.41659">
        <ele>77.9</ele>
        <time>2015-09-27T07:10:54Z</time>
      </trkpt>
      <trkpt lat="48.93527" lon="1.41651">
        <ele>79.8</ele>
        <time>2015-09-27T07:11:01Z</time>
      </trkpt>
      <trkpt lat="48.93523" lon="1.41636">
        <ele>82</ele>
        <time>2015-09-27T07:11:09Z</time>
      </trkpt>
      <trkpt lat="48.93523" lon="1.41621">
        <ele>84.4</ele>
        <time>2015-09-27T07:11:17Z</time>
      </trkpt>
      <trkpt lat="48.93529" lon="1.41608">
        <ele>86.9</ele>
        <time>2015-09-27T07:11:26Z</time>
      </trkpt>
      <trkpt lat="48.93534" lon="1.41596">
        <ele>89.2</ele>
        <time>2015-09-27T07:11:35Z</time>
      </trkpt>
      <trkpt lat="48.93542" lon="1.41587">
        <ele>91.5</ele>
        <time>2015-09-27T07:11:44Z</time>
      </trkpt>
      <trkpt lat="48.93551" lon="1.41582">
        <ele>92.9</ele>
        <time>2015-09-27T07:11:50Z</time>
      </trkpt>
      <trkpt lat="48.9356" lon="1.41578">
        <ele>94.1</ele>
        <time>2015-09-27T07:11:55Z</time>
      </trkpt>
      <trkpt lat="48.93569" lon="1.41572">
        <ele>96.2</ele>
        <time>2015-09-27T07:12:04Z</time>
      </trkpt>
      <trkpt lat="48.93578" lon="1.41569">
        <ele>97.5</ele>
        <time>2015-09-27T07:12:09Z</time>
      </trkpt>
      <trkpt lat="48.93588" lon="1.41564">
        <ele>98.8</ele>
        <time>2015-09-27T07:12:15Z</time>
      </trkpt>
      <trkpt lat="48.93598" lon="1.41559">
        <ele>100.3</ele>
        <time>2015-09-27T07:12:21Z</time>
      </trkpt>
      <trkpt lat="48.93605" lon="1.41551">
        <ele>102</ele>
        <time>2015-09-27T07:12:27Z</time>
      </trkpt>
      <trkpt lat="48.93613" lon="1.41544">
        <ele>103.7</ele>
        <time>2015-09-27T07:12:33Z</time>
      </trkpt>
      <trkpt lat="48.93621" lon="1.41536">
        <ele>105.5</ele>
        <time>2015-09-27T07:12:40Z</time>
      </trkpt>
      <trkpt lat="48.93629" lon="1.41528">
        <ele>108.3</ele>
        <time>2015-09-27T07:12:50Z</time>
      </trkpt>
      <trkpt lat="48.93636" lon="1.41519">
        <ele>110.6</ele>
        <time>2015-09-27T07:12:58Z</time>
      </trkpt>
      <trkpt lat="48.93643" lon="1.41511">
        <ele>112.3</ele>
        <time>2015-09-27T07:13:04Z</time>
      </trkpt>
      <trkpt lat="48.93648" lon="1.415">
        <ele>114.2</ele>
        <time>2015-09-27T07:13:11Z</time>
      </trkpt>
      <trkpt lat="48.93656" lon="1.4149">
        <ele>115.8</ele>
        <time>2015-09-27T07:13:17Z</time>
      </trkpt>
      <trkpt lat="48.93662" lon="1.41478">
        <ele>117.3</ele>
        <time>2015-09-27T07:13:23Z</time>
      </trkpt>
      <trkpt lat="48.9366" lon="1.41465">
        <ele>118.6</ele>
        <time>2015-09-27T07:13:29Z</time>
      </trkpt>
      <trkpt lat="48.93654" lon="1.41452">
        <ele>119.6</ele>
        <time>2015-09-27T07:13:34Z</time>
      </trkpt>
      <trkpt lat="48.93648" lon="1.41439">
        <ele>120.5</ele>
        <time>2015-09-27T07:13:40Z</time>
      </trkpt>
      <trkpt lat="48.93641" lon="1.41429">
        <ele>121.1</ele>
        <time>2015-09-27T07:13:44Z</time>
      </trkpt>
      <trkpt lat="48.93634" lon="1.41419">
        <ele>121.4</ele>
        <time>2015-09-27T07:13:47Z</time>
      </trkpt>
      <trkpt lat="48.93628" lon="1.41406">
        <ele>121.8</ele>
        <time>2015-09-27T07:13:51Z</time>
      </trkpt>
      <trkpt lat="48.93621" lon="1.41394">
        <ele>122.4</ele>
        <time>2015-09-27T07:13:55Z</time>
      </trkpt>
      <trkpt lat="48.93615" lon="1.41381">
        <ele>122.8</ele>
        <time>2015-09-27T07:13:58Z</time>
      </trkpt>
      <trkpt lat="48.93609" lon="1.41366">
        <ele>123.5</ele>
        <time>2015-09-27T07:14:02Z</time>
      </trkpt>
      <trkpt lat="48.93602" lon="1.41355">
        <ele>124</ele>
        <time>2015-09-27T07:14:05Z</time>
      </trkpt>
      <trkpt lat="48.93596" lon="1.41342">
        <ele>124.4</ele>
        <time>2015-09-27T07:14:08Z</time>
      </trkpt>
      <trkpt lat="48.93591" lon="1.4133">
        <ele>124.7</ele>
        <time>2015-09-27T07:14:10Z</time>
      </trkpt>
      <trkpt lat="48.93588" lon="1.41314">
        <ele>125</ele>
        <time>2015-09-27T07:14:13Z</time>
      </trkpt>
      <trkpt lat="48.93585" lon="1.41297">
        <ele>125.2</ele>
        <time>2015-09-27T07:14:16Z</time>
      </trkpt>
      <trkpt lat="48.93582" lon="1.41279">
        <ele>125.4</ele>
        <time>2015-09-27T07:14:19Z</time>
      </trkpt>
      <trkpt lat="48.93576" lon="1.41262">
        <ele>125.6</ele>
        <time>2015-09-27T07:14:22Z</time>
      </trkpt>
      <trkpt lat="48.93573" lon="1.41249">
        <ele>125.8</ele>
        <time>2015-09-27T07:14:25Z</time>
      </trkpt>
      <trkpt lat="48.9357" lon="1.41234">
        <ele>126</ele>
        <time>2015-09-27T07:14:28Z</time>
      </trkpt>
      <trkpt lat="48.93565" lon="1.41222">
        <ele>126.1</ele>
        <time>2015-09-27T07:14:30Z</time>
      </trkpt>
      <trkpt lat="48.93558" lon="1.41211">
        <ele>126.4</ele>
        <time>2015-09-27T07:14:32Z</time>
      </trkpt>
      <trkpt lat="48.9355" lon="1.41201">
        <ele>126.6</ele>
        <time>2015-09-27T07:14:34Z</time>
      </trkpt>
      <trkpt lat="48.93543" lon="1.41183">
        <ele>127</ele>
        <time>2015-09-27T07:14:37Z</time>
      </trkpt>
      <trkpt lat="48.93536" lon="1.41167">
        <ele>127.3</ele>
        <time>2015-09-27T07:14:40Z</time>
      </trkpt>
      <trkpt lat="48.93528" lon="1.41149">
        <ele>127.6</ele>
        <time>2015-09-27T07:14:43Z</time>
      </trkpt>
      <trkpt lat="48.93521" lon="1.41139">
        <ele>127.8</ele>
        <time>2015-09-27T07:14:45Z</time>
      </trkpt>
      <trkpt lat="48.93513" lon="1.41132">
        <ele>128</ele>
        <time>2015-09-27T07:14:48Z</time>
      </trkpt>
      <trkpt lat="48.935" lon="1.41136">
        <ele>128.2</ele>
        <time>2015-09-27T07:14:51Z</time>
      </trkpt>
      <trkpt lat="48.93489" lon="1.41137">
        <ele>128.4</ele>
        <time>2015-09-27T07:14:53Z</time>
      </trkpt>
      <trkpt lat="48.93478" lon="1.41138">
        <ele>128.6</ele>
        <time>2015-09-27T07:14:55Z</time>
      </trkpt>
      <trkpt lat="48.93468" lon="1.41138">
        <ele>128.8</ele>
        <time>2015-09-27T07:14:57Z</time>
      </trkpt>
      <trkpt lat="48.93458" lon="1.41137">
        <ele>128.9</ele>
        <time>2015-09-27T07:14:59Z</time>
      </trkpt>
      <trkpt lat="48.93448" lon="1.41138">
        <ele>129</ele>
        <time>2015-09-27T07:15:01Z</time>
      </trkpt>
      <trkpt lat="48.93437" lon="1.41139">
        <ele>129.1</ele>
        <time>2015-09-27T07:15:03Z</time>
      </trkpt>
      <trkpt lat="48.93427" lon="1.41141">
        <ele>129.1</ele>
        <time>2015-09-27T07:15:05Z</time>
      </trkpt>
      <trkpt lat="48.93417" lon="1.41143">
        <ele>129.1</ele>
        <time>2015-09-27T07:15:07Z</time>
      </trkpt>
      <trkpt lat="48.93406" lon="1.41144">
        <ele>129.1</ele>
        <time>2015-09-27T07:15:09Z</time>
      </trkpt>
      <trkpt lat="48.93396" lon="1.41147">
        <ele>129.2</ele>
        <time>2015-09-27T07:15:11Z</time>
      </trkpt>
      <trkpt lat="48.93386" lon="1.41149">
        <ele>129.2</ele>
        <time>2015-09-27T07:15:13Z</time>
      </trkpt>
      <trkpt lat="48.93376" lon="1.41151">
        <ele>129.1</ele>
        <time>2015-09-27T07:15:15Z</time>
      </trkpt>
      <trkpt lat="48.93365" lon="1.41152">
        <ele>129.1</ele>
        <time>2015-09-27T07:15:17Z</time>
      </trkpt>
      <trkpt lat="48.93353" lon="1.41153">
        <ele>129</ele>
        <time>2015-09-27T07:15:19Z</time>
      </trkpt>
      <trkpt lat="48.93343" lon="1.41155">
        <ele>129</ele>
        <time>2015-09-27T07:15:21Z</time>
      </trkpt>
      <trkpt lat="48.93333" lon="1.41158">
        <ele>128.9</ele>
        <time>2015-09-27T07:15:23Z</time>
      </trkpt>
      <trkpt lat="48.9332" lon="1.4116">
        <ele>128.9</ele>
        <time>2015-09-27T07:15:27Z</time>
      </trkpt>
      <trkpt lat="48.93311" lon="1.41163">
        <ele>128.9</ele>
        <time>2015-09-27T07:15:29Z</time>
      </trkpt>
      <trkpt lat="48.93299" lon="1.41166">
        <ele>128.8</ele>
        <time>2015-09-27T07:15:31Z</time>
      </trkpt>
      <trkpt lat="48.93289" lon="1.41171">
        <ele>128.7</ele>
        <time>2015-09-27T07:15:33Z</time>
      </trkpt>
      <trkpt lat="48.93289" lon="1.41189">
        <ele>128.5</ele>
        <time>2015-09-27T07:15:36Z</time>
      </trkpt>
      <trkpt lat="48.93292" lon="1.41204">
        <ele>128.3</ele>
        <time>2015-09-27T07:15:38Z</time>
      </trkpt>
      <trkpt lat="48.9329" lon="1.41221">
        <ele>128.2</ele>
        <time>2015-09-27T07:15:40Z</time>
      </trkpt>
      <trkpt lat="48.93294" lon="1.41238">
        <ele>128.1</ele>
        <time>2015-09-27T07:15:42Z</time>
      </trkpt>
      <trkpt lat="48.93299" lon="1.41255">
        <ele>128</ele>
        <time>2015-09-27T07:15:44Z</time>
      </trkpt>
      <trkpt lat="48.93303" lon="1.41273">
        <ele>127.8</ele>
        <time>2015-09-27T07:15:46Z</time>
      </trkpt>
      <trkpt lat="48.93306" lon="1.41291">
        <ele>127.7</ele>
        <time>2015-09-27T07:15:48Z</time>
      </trkpt>
      <trkpt lat="48.93308" lon="1.4131">
        <ele>127.6</ele>
        <time>2015-09-27T07:15:50Z</time>
      </trkpt>
      <trkpt lat="48.93307" lon="1.4133">
        <ele>127.5</ele>
        <time>2015-09-27T07:15:52Z</time>
      </trkpt>
      <trkpt lat="48.9331" lon="1.41349">
        <ele>127.4</ele>
        <time>2015-09-27T07:15:54Z</time>
      </trkpt>
      <trkpt lat="48.93311" lon="1.41369">
        <ele>127.4</ele>
        <time>2015-09-27T07:15:56Z</time>
      </trkpt>
      <trkpt lat="48.93312" lon="1.41388">
        <ele>127.3</ele>
        <time>2015-09-27T07:15:58Z</time>
      </trkpt>
      <trkpt lat="48.93314" lon="1.41406">
        <ele>127.3</ele>
        <time>2015-09-27T07:16:00Z</time>
      </trkpt>
      <trkpt lat="48.93317" lon="1.41424">
        <ele>127.2</ele>
        <time>2015-09-27T07:16:02Z</time>
      </trkpt>
      <trkpt lat="48.93319" lon="1.41442">
        <ele>127.2</ele>
        <time>2015-09-27T07:16:04Z</time>
      </trkpt>
      <trkpt lat="48.93322" lon="1.41461">
        <ele>127.2</ele>
        <time>2015-09-27T07:16:06Z</time>
      </trkpt>
      <trkpt lat="48.93323" lon="1.4148">
        <ele>127.1</ele>
        <time>2015-09-27T07:16:08Z</time>
      </trkpt>
      <trkpt lat="48.93323" lon="1.41499">
        <ele>127.1</ele>
        <time>2015-09-27T07:16:10Z</time>
      </trkpt>
      <trkpt lat="48.93318" lon="1.41518">
        <ele>127.1</ele>
        <time>2015-09-27T07:16:12Z</time>
      </trkpt>
      <trkpt lat="48.93308" lon="1.41533">
        <ele>127.1</ele>
        <time>2015-09-27T07:16:14Z</time>
      </trkpt>
      <trkpt lat="48.93296" lon="1.41543">
        <ele>127.1</ele>
        <time>2015-09-27T07:16:16Z</time>
      </trkpt>
      <trkpt lat="48.93283" lon="1.41546">
        <ele>127.1</ele>
        <time>2015-09-27T07:16:18Z</time>
      </trkpt>
      <trkpt lat="48.93269" lon="1.41548">
        <ele>127</ele>
        <time>2015-09-27T07:16:20Z</time>
      </trkpt>
      <trkpt lat="48.93255" lon="1.4155">
        <ele>126.9</ele>
        <time>2015-09-27T07:16:22Z</time>
      </trkpt>
      <trkpt lat="48.9324" lon="1.41553">
        <ele>126.7</ele>
        <time>2015-09-27T07:16:24Z</time>
      </trkpt>
      <trkpt lat="48.93226" lon="1.41556">
        <ele>126.5</ele>
        <time>2015-09-27T07:16:26Z</time>
      </trkpt>
      <trkpt lat="48.93212" lon="1.41559">
        <ele>126.3</ele>
        <time>2015-09-27T07:16:28Z</time>
      </trkpt>
      <trkpt lat="48.932" lon="1.41561">
        <ele>126.2</ele>
        <time>2015-09-27T07:16:30Z</time>
      </trkpt>
      <trkpt lat="48.93187" lon="1.41563">
        <ele>126</ele>
        <time>2015-09-27T07:16:32Z</time>
      </trkpt>
      <trkpt lat="48.93174" lon="1.41564">
        <ele>125.9</ele>
        <time>2015-09-27T07:16:34Z</time>
      </trkpt>
      <trkpt lat="48.93161" lon="1.41565">
        <ele>125.7</ele>
        <time>2015-09-27T07:16:36Z</time>
      </trkpt>
      <trkpt lat="48.93148" lon="1.41567">
        <ele>125.6</ele>
        <time>2015-09-27T07:16:38Z</time>
      </trkpt>
      <trkpt lat="48.93135" lon="1.41572">
        <ele>125.5</ele>
        <time>2015-09-27T07:16:40Z</time>
      </trkpt>
      <trkpt lat="48.93124" lon="1.41579">
        <ele>125.4</ele>
        <time>2015-09-27T07:16:42Z</time>
      </trkpt>
      <trkpt lat="48.93112" lon="1.41587">
        <ele>125.2</ele>
        <time>2015-09-27T07:16:44Z</time>
      </trkpt>
      <trkpt lat="48.93101" lon="1.41596">
        <ele>125.1</ele>
        <time>2015-09-27T07:16:46Z</time>
      </trkpt>
      <trkpt lat="48.9309" lon="1.41605">
        <ele>125</ele>
        <time>2015-09-27T07:16:48Z</time>
      </trkpt>
      <trkpt lat="48.9308" lon="1.41615">
        <ele>124.9</ele>
        <time>2015-09-27T07:16:50Z</time>
      </trkpt>
      <trkpt lat="48.93069" lon="1.41626">
        <ele>124.8</ele>
        <time>2015-09-27T07:16:52Z</time>
      </trkpt>
      <trkpt lat="48.9306" lon="1.41638">
        <ele>124.7</ele>
        <time>2015-09-27T07:16:54Z</time>
      </trkpt>
      <trkpt lat="48.93049" lon="1.4165">
        <ele>124.7</ele>
        <time>2015-09-27T07:16:56Z</time>
      </trkpt>
      <trkpt lat="48.93037" lon="1.4166">
        <ele>124.6</ele>
        <time>2015-09-27T07:16:58Z</time>
      </trkpt>
      <trkpt lat="48.93026" lon="1.41669">
        <ele>124.5</ele>
        <time>2015-09-27T07:17:00Z</time>
      </trkpt>
      <trkpt lat="48.93014" lon="1.41678">
        <ele>124.4</ele>
        <time>2015-09-27T07:17:02Z</time>
      </trkpt>
      <trkpt lat="48.93005" lon="1.41687">
        <ele>124.3</ele>
        <time>2015-09-27T07:17:04Z</time>
      </trkpt>
      <trkpt lat="48.92995" lon="1.41695">
        <ele>124.2</ele>
        <time>2015-09-27T07:17:06Z</time>
      </trkpt>
      <trkpt lat="48.92984" lon="1.41704">
        <ele>124</ele>
        <time>2015-09-27T07:17:08Z</time>
      </trkpt>
      <trkpt lat="48.92974" lon="1.41714">
        <ele>123.8</ele>
        <time>2015-09-27T07:17:10Z</time>
      </trkpt>
      <trkpt lat="48.92964" lon="1.41724">
        <ele>123.5</ele>
        <time>2015-09-27T07:17:12Z</time>
      </trkpt>
      <trkpt lat="48.92954" lon="1.41736">
        <ele>123.2</ele>
        <time>2015-09-27T07:17:14Z</time>
      </trkpt>
      <trkpt lat="48.92942" lon="1.41748">
        <ele>122.7</ele>
        <time>2015-09-27T07:17:16Z</time>
      </trkpt>
      <trkpt lat="48.9293" lon="1.4176">
        <ele>122.1</ele>
        <time>2015-09-27T07:17:18Z</time>
      </trkpt>
      <trkpt lat="48.92916" lon="1.41767">
        <ele>121.4</ele>
        <time>2015-09-27T07:17:20Z</time>
      </trkpt>
      <trkpt lat="48.92902" lon="1.4177">
        <ele>120.7</ele>
        <time>2015-09-27T07:17:22Z</time>
      </trkpt>
      <trkpt lat="48.9289" lon="1.41774">
        <ele>120</ele>
        <time>2015-09-27T07:17:24Z</time>
      </trkpt>
      <trkpt lat="48.9288" lon="1.41782">
        <ele>119.2</ele>
        <time>2015-09-27T07:17:26Z</time>
      </trkpt>
      <trkpt lat="48.92868" lon="1.41795">
        <ele>118.2</ele>
        <time>2015-09-27T07:17:28Z</time>
      </trkpt>
      <trkpt lat="48.92853" lon="1.41807">
        <ele>117</ele>
        <time>2015-09-27T07:17:30Z</time>
      </trkpt>
      <trkpt lat="48.92838" lon="1.41817">
        <ele>115.9</ele>
        <time>2015-09-27T07:17:32Z</time>
      </trkpt>
      <trkpt lat="48.92823" lon="1.41827">
        <ele>114.7</ele>
        <time>2015-09-27T07:17:34Z</time>
      </trkpt>
      <trkpt lat="48.92806" lon="1.41839">
        <ele>113.5</ele>
        <time>2015-09-27T07:17:36Z</time>
      </trkpt>
      <trkpt lat="48.92797" lon="1.41846">
        <ele>112.9</ele>
        <time>2015-09-27T07:17:37Z</time>
      </trkpt>
      <trkpt lat="48.92788" lon="1.41853">
        <ele>112.1</ele>
        <time>2015-09-27T07:17:38Z</time>
      </trkpt>
      <trkpt lat="48.92778" lon="1.41861">
        <ele>111.4</ele>
        <time>2015-09-27T07:17:39Z</time>
      </trkpt>
      <trkpt lat="48.92769" lon="1.41868">
        <ele>110.6</ele>
        <time>2015-09-27T07:17:40Z</time>
      </trkpt>
      <trkpt lat="48.92759" lon="1.41876">
        <ele>109.8</ele>
        <time>2015-09-27T07:17:41Z</time>
      </trkpt>
      <trkpt lat="48.9275" lon="1.41885">
        <ele>109</ele>
        <time>2015-09-27T07:17:42Z</time>
      </trkpt>
      <trkpt lat="48.9274" lon="1.41893">
        <ele>108.2</ele>
        <time>2015-09-27T07:17:43Z</time>
      </trkpt>
      <trkpt lat="48.9273" lon="1.41901">
        <ele>107.3</ele>
        <time>2015-09-27T07:17:44Z</time>
      </trkpt>
      <trkpt lat="48.9272" lon="1.41909">
        <ele>106.4</ele>
        <time>2015-09-27T07:17:45Z</time>
      </trkpt>
      <trkpt lat="48.9271" lon="1.41917">
        <ele>105.5</ele>
        <time>2015-09-27T07:17:46Z</time>
      </trkpt>
      <trkpt lat="48.927" lon="1.41925">
        <ele>104.7</ele>
        <time>2015-09-27T07:17:47Z</time>
      </trkpt>
      <trkpt lat="48.9269" lon="1.41932">
        <ele>103.9</ele>
        <time>2015-09-27T07:17:48Z</time>
      </trkpt>
      <trkpt lat="48.9268" lon="1.41939">
        <ele>102.9</ele>
        <time>2015-09-27T07:17:49Z</time>
      </trkpt>
      <trkpt lat="48.92669" lon="1.41946">
        <ele>102</ele>
        <time>2015-09-27T07:17:50Z</time>
      </trkpt>
      <trkpt lat="48.92659" lon="1.41952">
        <ele>101.1</ele>
        <time>2015-09-27T07:17:51Z</time>
      </trkpt>
      <trkpt lat="48.92648" lon="1.41958">
        <ele>100.3</ele>
        <time>2015-09-27T07:17:52Z</time>
      </trkpt>
      <trkpt lat="48.92638" lon="1.41964">
        <ele>99.4</ele>
        <time>2015-09-27T07:17:53Z</time>
      </trkpt>
      <trkpt lat="48.92628" lon="1.4197">
        <ele>98.5</ele>
        <time>2015-09-27T07:17:54Z</time>
      </trkpt>
      <trkpt lat="48.92618" lon="1.41976">
        <ele>97.6</ele>
        <time>2015-09-27T07:17:55Z</time>
      </trkpt>
      <trkpt lat="48.92609" lon="1.41983">
        <ele>96.8</ele>
        <time>2015-09-27T07:17:56Z</time>
      </trkpt>
      <trkpt lat="48.926" lon="1.41989">
        <ele>96</ele>
        <time>2015-09-27T07:17:57Z</time>
      </trkpt>
      <trkpt lat="48.92591" lon="1.41996">
        <ele>95.3</ele>
        <time>2015-09-27T07:17:58Z</time>
      </trkpt>
      <trkpt lat="48.92582" lon="1.42003">
        <ele>94.5</ele>
        <time>2015-09-27T07:17:59Z</time>
      </trkpt>
      <trkpt lat="48.92572" lon="1.4201">
        <ele>93.7</ele>
        <time>2015-09-27T07:18:00Z</time>
      </trkpt>
      <trkpt lat="48.92563" lon="1.42017">
        <ele>92.8</ele>
        <time>2015-09-27T07:18:01Z</time>
      </trkpt>
      <trkpt lat="48.92547" lon="1.42026">
        <ele>91</ele>
        <time>2015-09-27T07:18:03Z</time>
      </trkpt>
      <trkpt lat="48.92534" lon="1.42029">
        <ele>89.2</ele>
        <time>2015-09-27T07:18:05Z</time>
      </trkpt>
      <trkpt lat="48.92524" lon="1.42026">
        <ele>87.3</ele>
        <time>2015-09-27T07:18:07Z</time>
      </trkpt>
      <trkpt lat="48.92516" lon="1.42015">
        <ele>85.5</ele>
        <time>2015-09-27T07:18:09Z</time>
      </trkpt>
      <trkpt lat="48.92509" lon="1.42">
        <ele>83.8</ele>
        <time>2015-09-27T07:18:11Z</time>
      </trkpt>
      <trkpt lat="48.92506" lon="1.41984">
        <ele>82</ele>
        <time>2015-09-27T07:18:13Z</time>
      </trkpt>
      <trkpt lat="48.92501" lon="1.41969">
        <ele>80.4</ele>
        <time>2015-09-27T07:18:15Z</time>
      </trkpt>
      <trkpt lat="48.92491" lon="1.41966">
        <ele>78.6</ele>
        <time>2015-09-27T07:18:17Z</time>
      </trkpt>
      <trkpt lat="48.92478" lon="1.41973">
        <ele>76.8</ele>
        <time>2015-09-27T07:18:19Z</time>
      </trkpt>
      <trkpt lat="48.92466" lon="1.41988">
        <ele>75.1</ele>
        <time>2015-09-27T07:18:21Z</time>
      </trkpt>
      <trkpt lat="48.92454" lon="1.42005">
        <ele>73.3</ele>
        <time>2015-09-27T07:18:23Z</time>
      </trkpt>
      <trkpt lat="48.92443" lon="1.42026">
        <ele>71.6</ele>
        <time>2015-09-27T07:18:25Z</time>
      </trkpt>
      <trkpt lat="48.92434" lon="1.42049">
        <ele>70</ele>
        <time>2015-09-27T07:18:27Z</time>
      </trkpt>
      <trkpt lat="48.92427" lon="1.42073">
        <ele>68.5</ele>
        <time>2015-09-27T07:18:29Z</time>
      </trkpt>
      <trkpt lat="48.92422" lon="1.42085">
        <ele>67.8</ele>
        <time>2015-09-27T07:18:30Z</time>
      </trkpt>
      <trkpt lat="48.92411" lon="1.42104">
        <ele>66.5</ele>
        <time>2015-09-27T07:18:32Z</time>
      </trkpt>
      <trkpt lat="48.92398" lon="1.42118">
        <ele>65.2</ele>
        <time>2015-09-27T07:18:34Z</time>
      </trkpt>
      <trkpt lat="48.92386" lon="1.42132">
        <ele>64.1</ele>
        <time>2015-09-27T07:18:36Z</time>
      </trkpt>
      <trkpt lat="48.92374" lon="1.42146">
        <ele>63</ele>
        <time>2015-09-27T07:18:38Z</time>
      </trkpt>
      <trkpt lat="48.92366" lon="1.4216">
        <ele>62.1</ele>
        <time>2015-09-27T07:18:40Z</time>
      </trkpt>
      <trkpt lat="48.92358" lon="1.42168">
        <ele>60.4</ele>
        <time>2015-09-27T07:18:44Z</time>
      </trkpt>
      <trkpt lat="48.92352" lon="1.42154">
        <ele>58.5</ele>
        <time>2015-09-27T07:18:49Z</time>
      </trkpt>
      <trkpt lat="48.92348" lon="1.42139">
        <ele>57.7</ele>
        <time>2015-09-27T07:18:52Z</time>
      </trkpt>
      <trkpt lat="48.92346" lon="1.42122">
        <ele>57</ele>
        <time>2015-09-27T07:18:55Z</time>
      </trkpt>
      <trkpt lat="48.92341" lon="1.42105">
        <ele>56.5</ele>
        <time>2015-09-27T07:18:58Z</time>
      </trkpt>
      <trkpt lat="48.92336" lon="1.42091">
        <ele>56</ele>
        <time>2015-09-27T07:19:01Z</time>
      </trkpt>
      <trkpt lat="48.92333" lon="1.42076">
        <ele>55.7</ele>
        <time>2015-09-27T07:19:04Z</time>
      </trkpt>
      <trkpt lat="48.92334" lon="1.42058">
        <ele>55.4</ele>
        <time>2015-09-27T07:19:07Z</time>
      </trkpt>
      <trkpt lat="48.92334" lon="1.42042">
        <ele>55.4</ele>
        <time>2015-09-27T07:19:10Z</time>
      </trkpt>
      <trkpt lat="48.92334" lon="1.42028">
        <ele>55.4</ele>
        <time>2015-09-27T07:19:12Z</time>
      </trkpt>
      <trkpt lat="48.9233" lon="1.42013">
        <ele>55.4</ele>
        <time>2015-09-27T07:19:15Z</time>
      </trkpt>
      <trkpt lat="48.92329" lon="1.41996">
        <ele>55.5</ele>
        <time>2015-09-27T07:19:18Z</time>
      </trkpt>
      <trkpt lat="48.92328" lon="1.41979">
        <ele>55.7</ele>
        <time>2015-09-27T07:19:22Z</time>
      </trkpt>
      <trkpt lat="48.92323" lon="1.41966">
        <ele>55.9</ele>
        <time>2015-09-27T07:19:26Z</time>
      </trkpt>
      <trkpt lat="48.92314" lon="1.41956">
        <ele>56.2</ele>
        <time>2015-09-27T07:19:31Z</time>
      </trkpt>
      <trkpt lat="48.92304" lon="1.41947">
        <ele>56.7</ele>
        <time>2015-09-27T07:19:36Z</time>
      </trkpt>
      <trkpt lat="48.92296" lon="1.41939">
        <ele>57.2</ele>
        <time>2015-09-27T07:19:40Z</time>
      </trkpt>
      <trkpt lat="48.92288" lon="1.41932">
        <ele>57.6</ele>
        <time>2015-09-27T07:19:44Z</time>
      </trkpt>
      <trkpt lat="48.92279" lon="1.41927">
        <ele>58.2</ele>
        <time>2015-09-27T07:19:49Z</time>
      </trkpt>
      <trkpt lat="48.92271" lon="1.41923">
        <ele>58.7</ele>
        <time>2015-09-27T07:19:53Z</time>
      </trkpt>
      <trkpt lat="48.92259" lon="1.41919">
        <ele>59.3</ele>
        <time>2015-09-27T07:19:57Z</time>
      </trkpt>
      <trkpt lat="48.9225" lon="1.41916">
        <ele>59.7</ele>
        <time>2015-09-27T07:20:00Z</time>
      </trkpt>
      <trkpt lat="48.9224" lon="1.41913">
        <ele>60.1</ele>
        <time>2015-09-27T07:20:04Z</time>
      </trkpt>
      <trkpt lat="48.9223" lon="1.41909">
        <ele>60.5</ele>
        <time>2015-09-27T07:20:08Z</time>
      </trkpt>
      <trkpt lat="48.92221" lon="1.41903">
        <ele>60.8</ele>
        <time>2015-09-27T07:20:12Z</time>
      </trkpt>
      <trkpt lat="48.9221" lon="1.41897">
        <ele>61.1</ele>
        <time>2015-09-27T07:20:17Z</time>
      </trkpt>
      <trkpt lat="48.92198" lon="1.41895">
        <ele>61.4</ele>
        <time>2015-09-27T07:20:21Z</time>
      </trkpt>
      <trkpt lat="48.92188" lon="1.41893">
        <ele>61.6</ele>
        <time>2015-09-27T07:20:24Z</time>
      </trkpt>
      <trkpt lat="48.92179" lon="1.41892">
        <ele>61.9</ele>
        <time>2015-09-27T07:20:27Z</time>
      </trkpt>
      <trkpt lat="48.92169" lon="1.41891">
        <ele>62.3</ele>
        <time>2015-09-27T07:20:30Z</time>
      </trkpt>
      <trkpt lat="48.92157" lon="1.41891">
        <ele>62.8</ele>
        <time>2015-09-27T07:20:34Z</time>
      </trkpt>
      <trkpt lat="48.92146" lon="1.41886">
        <ele>63.3</ele>
        <time>2015-09-27T07:20:39Z</time>
      </trkpt>
      <trkpt lat="48.92136" lon="1.41882">
        <ele>63.8</ele>
        <time>2015-09-27T07:20:42Z</time>
      </trkpt>
      <trkpt lat="48.92125" lon="1.41878">
        <ele>64.3</ele>
        <time>2015-09-27T07:20:45Z</time>
      </trkpt>
      <trkpt lat="48.92115" lon="1.41877">
        <ele>64.6</ele>
        <time>2015-09-27T07:20:48Z</time>
      </trkpt>
      <trkpt lat="48.92105" lon="1.41874">
        <ele>65</ele>
        <time>2015-09-27T07:20:51Z</time>
      </trkpt>
      <trkpt lat="48.92096" lon="1.4187">
        <ele>65.3</ele>
        <time>2015-09-27T07:20:54Z</time>
      </trkpt>
      <trkpt lat="48.92088" lon="1.41865">
        <ele>65.7</ele>
        <time>2015-09-27T07:20:57Z</time>
      </trkpt>
      <trkpt lat="48.92079" lon="1.41859">
        <ele>66</ele>
        <time>2015-09-27T07:21:00Z</time>
      </trkpt>
      <trkpt lat="48.92068" lon="1.41855">
        <ele>66.4</ele>
        <time>2015-09-27T07:21:03Z</time>
      </trkpt>
      <trkpt lat="48.92057" lon="1.41851">
        <ele>66.7</ele>
        <time>2015-09-27T07:21:06Z</time>
      </trkpt>
      <trkpt lat="48.92046" lon="1.41851">
        <ele>67</ele>
        <time>2015-09-27T07:21:09Z</time>
      </trkpt>
      <trkpt lat="48.92034" lon="1.41847">
        <ele>67.5</ele>
        <time>2015-09-27T07:21:13Z</time>
      </trkpt>
      <trkpt lat="48.92025" lon="1.41845">
        <ele>67.9</ele>
        <time>2015-09-27T07:21:16Z</time>
      </trkpt>
      <trkpt lat="48.92016" lon="1.41839">
        <ele>68.2</ele>
        <time>2015-09-27T07:21:19Z</time>
      </trkpt>
      <trkpt lat="48.92004" lon="1.41836">
        <ele>68.5</ele>
        <time>2015-09-27T07:21:22Z</time>
      </trkpt>
      <trkpt lat="48.91993" lon="1.41832">
        <ele>68.8</ele>
        <time>2015-09-27T07:21:25Z</time>
      </trkpt>
      <trkpt lat="48.91982" lon="1.41829">
        <ele>69.1</ele>
        <time>2015-09-27T07:21:28Z</time>
      </trkpt>
      <trkpt lat="48.9197" lon="1.41826">
        <ele>69.5</ele>
        <time>2015-09-27T07:21:32Z</time>
      </trkpt>
      <trkpt lat="48.91958" lon="1.41823">
        <ele>69.9</ele>
        <time>2015-09-27T07:21:36Z</time>
      </trkpt>
      <trkpt lat="48.91948" lon="1.41818">
        <ele>70.3</ele>
        <time>2015-09-27T07:21:40Z</time>
      </trkpt>
      <trkpt lat="48.91939" lon="1.4182">
        <ele>70.6</ele>
        <time>2015-09-27T07:21:42Z</time>
      </trkpt>
      <trkpt lat="48.91929" lon="1.4182">
        <ele>70.9</ele>
        <time>2015-09-27T07:21:45Z</time>
      </trkpt>
      <trkpt lat="48.91917" lon="1.41817">
        <ele>71.3</ele>
        <time>2015-09-27T07:21:48Z</time>
      </trkpt>
      <trkpt lat="48.91908" lon="1.4181">
        <ele>71.7</ele>
        <time>2015-09-27T07:21:52Z</time>
      </trkpt>
      <trkpt lat="48.91897" lon="1.41806">
        <ele>72.1</ele>
        <time>2015-09-27T07:21:56Z</time>
      </trkpt>
      <trkpt lat="48.91885" lon="1.41803">
        <ele>72.4</ele>
        <time>2015-09-27T07:21:59Z</time>
      </trkpt>
      <trkpt lat="48.91873" lon="1.41799">
        <ele>72.6</ele>
        <time>2015-09-27T07:22:02Z</time>
      </trkpt>
      <trkpt lat="48.9186" lon="1.41796">
        <ele>73</ele>
        <time>2015-09-27T07:22:05Z</time>
      </trkpt>
      <trkpt lat="48.9185" lon="1.41796">
        <ele>73.4</ele>
        <time>2015-09-27T07:22:08Z</time>
      </trkpt>
      <trkpt lat="48.9184" lon="1.41794">
        <ele>73.8</ele>
        <time>2015-09-27T07:22:11Z</time>
      </trkpt>
      <trkpt lat="48.91827" lon="1.41791">
        <ele>74.2</ele>
        <time>2015-09-27T07:22:14Z</time>
      </trkpt>
      <trkpt lat="48.91817" lon="1.41786">
        <ele>74.5</ele>
        <time>2015-09-27T07:22:17Z</time>
      </trkpt>
      <trkpt lat="48.91807" lon="1.41781">
        <ele>74.8</ele>
        <time>2015-09-27T07:22:20Z</time>
      </trkpt>
      <trkpt lat="48.91797" lon="1.41773">
        <ele>75.3</ele>
        <time>2015-09-27T07:22:23Z</time>
      </trkpt>
      <trkpt lat="48.91789" lon="1.41764">
        <ele>75.6</ele>
        <time>2015-09-27T07:22:26Z</time>
      </trkpt>
      <trkpt lat="48.9178" lon="1.41753">
        <ele>76.1</ele>
        <time>2015-09-27T07:22:30Z</time>
      </trkpt>
      <trkpt lat="48.91774" lon="1.41741">
        <ele>76.7</ele>
        <time>2015-09-27T07:22:33Z</time>
      </trkpt>
      <trkpt lat="48.91765" lon="1.4173">
        <ele>77.2</ele>
        <time>2015-09-27T07:22:36Z</time>
      </trkpt>
      <trkpt lat="48.91758" lon="1.4172">
        <ele>77.7</ele>
        <time>2015-09-27T07:22:39Z</time>
      </trkpt>
      <trkpt lat="48.9175" lon="1.41711">
        <ele>78.2</ele>
        <time>2015-09-27T07:22:42Z</time>
      </trkpt>
      <trkpt lat="48.91742" lon="1.41699">
        <ele>78.7</ele>
        <time>2015-09-27T07:22:45Z</time>
      </trkpt>
      <trkpt lat="48.91734" lon="1.41687">
        <ele>79.2</ele>
        <time>2015-09-27T07:22:48Z</time>
      </trkpt>
      <trkpt lat="48.91725" lon="1.41678">
        <ele>79.7</ele>
        <time>2015-09-27T07:22:51Z</time>
      </trkpt>
      <trkpt lat="48.91715" lon="1.41666">
        <ele>80.1</ele>
        <time>2015-09-27T07:22:54Z</time>
      </trkpt>
      <trkpt lat="48.91708" lon="1.41657">
        <ele>80.6</ele>
        <time>2015-09-27T07:22:57Z</time>
      </trkpt>
      <trkpt lat="48.91698" lon="1.41646">
        <ele>81</ele>
        <time>2015-09-27T07:23:00Z</time>
      </trkpt>
      <trkpt lat="48.91689" lon="1.41634">
        <ele>81.4</ele>
        <time>2015-09-27T07:23:03Z</time>
      </trkpt>
      <trkpt lat="48.91682" lon="1.41623">
        <ele>82.1</ele>
        <time>2015-09-27T07:23:07Z</time>
      </trkpt>
      <trkpt lat="48.91673" lon="1.41631">
        <ele>82.8</ele>
        <time>2015-09-27T07:23:11Z</time>
      </trkpt>
      <trkpt lat="48.91665" lon="1.41639">
        <ele>83.3</ele>
        <time>2015-09-27T07:23:15Z</time>
      </trkpt>
      <trkpt lat="48.91655" lon="1.41643">
        <ele>83.5</ele>
        <time>2015-09-27T07:23:18Z</time>
      </trkpt>
      <trkpt lat="48.91644" lon="1.41646">
        <ele>84.1</ele>
        <time>2015-09-27T07:23:22Z</time>
      </trkpt>
      <trkpt lat="48.91633" lon="1.41644">
        <ele>84.6</ele>
        <time>2015-09-27T07:23:25Z</time>
      </trkpt>
      <trkpt lat="48.91623" lon="1.41641">
        <ele>85.4</ele>
        <time>2015-09-27T07:23:29Z</time>
      </trkpt>
      <trkpt lat="48.91614" lon="1.41634">
        <ele>86.3</ele>
        <time>2015-09-27T07:23:34Z</time>
      </trkpt>
      <trkpt lat="48.91605" lon="1.4163">
        <ele>87.4</ele>
        <time>2015-09-27T07:23:39Z</time>
      </trkpt>
      <trkpt lat="48.91595" lon="1.41624">
        <ele>88.5</ele>
        <time>2015-09-27T07:23:45Z</time>
      </trkpt>
      <trkpt lat="48.91587" lon="1.41615">
        <ele>89</ele>
        <time>2015-09-27T07:23:48Z</time>
      </trkpt>
      <trkpt lat="48.91578" lon="1.41611">
        <ele>89.3</ele>
        <time>2015-09-27T07:23:50Z</time>
      </trkpt>
      <trkpt lat="48.91569" lon="1.41603">
        <ele>89.6</ele>
        <time>2015-09-27T07:23:53Z</time>
      </trkpt>
      <trkpt lat="48.91562" lon="1.41594">
        <ele>89.9</ele>
        <time>2015-09-27T07:23:56Z</time>
      </trkpt>
      <trkpt lat="48.91552" lon="1.41581">
        <ele>90.1</ele>
        <time>2015-09-27T07:23:59Z</time>
      </trkpt>
      <trkpt lat="48.91541" lon="1.41573">
        <ele>90.3</ele>
        <time>2015-09-27T07:24:02Z</time>
      </trkpt>
      <trkpt lat="48.9153" lon="1.41568">
        <ele>90.6</ele>
        <time>2015-09-27T07:24:06Z</time>
      </trkpt>
      <trkpt lat="48.91521" lon="1.41564">
        <ele>90.8</ele>
        <time>2015-09-27T07:24:09Z</time>
      </trkpt>
      <trkpt lat="48.91511" lon="1.41557">
        <ele>91.1</ele>
        <time>2015-09-27T07:24:12Z</time>
      </trkpt>
      <trkpt lat="48.91501" lon="1.4155">
        <ele>91.4</ele>
        <time>2015-09-27T07:24:15Z</time>
      </trkpt>
      <trkpt lat="48.91494" lon="1.41541">
        <ele>91.7</ele>
        <time>2015-09-27T07:24:18Z</time>
      </trkpt>
      <trkpt lat="48.91484" lon="1.41535">
        <ele>92</ele>
        <time>2015-09-27T07:24:21Z</time>
      </trkpt>
      <trkpt lat="48.91473" lon="1.41528">
        <ele>92.3</ele>
        <time>2015-09-27T07:24:24Z</time>
      </trkpt>
      <trkpt lat="48.91462" lon="1.41517">
        <ele>92.6</ele>
        <time>2015-09-27T07:24:27Z</time>
      </trkpt>
      <trkpt lat="48.91452" lon="1.41508">
        <ele>93</ele>
        <time>2015-09-27T07:24:30Z</time>
      </trkpt>
      <trkpt lat="48.91443" lon="1.415">
        <ele>93.4</ele>
        <time>2015-09-27T07:24:33Z</time>
      </trkpt>
      <trkpt lat="48.91431" lon="1.41491">
        <ele>93.8</ele>
        <time>2015-09-27T07:24:36Z</time>
      </trkpt>
      <trkpt lat="48.91422" lon="1.41484">
        <ele>94</ele>
        <time>2015-09-27T07:24:38Z</time>
      </trkpt>
      <trkpt lat="48.91413" lon="1.41478">
        <ele>94.4</ele>
        <time>2015-09-27T07:24:41Z</time>
      </trkpt>
      <trkpt lat="48.91402" lon="1.41473">
        <ele>95</ele>
        <time>2015-09-27T07:24:44Z</time>
      </trkpt>
      <trkpt lat="48.91392" lon="1.41466">
        <ele>95.6</ele>
        <time>2015-09-27T07:24:47Z</time>
      </trkpt>
      <trkpt lat="48.9138" lon="1.41459">
        <ele>96.2</ele>
        <time>2015-09-27T07:24:50Z</time>
      </trkpt>
      <trkpt lat="48.91369" lon="1.41451">
        <ele>96.9</ele>
        <time>2015-09-27T07:24:53Z</time>
      </trkpt>
      <trkpt lat="48.9136" lon="1.41446">
        <ele>97.5</ele>
        <time>2015-09-27T07:24:56Z</time>
      </trkpt>
      <trkpt lat="48.9135" lon="1.41437">
        <ele>98</ele>
        <time>2015-09-27T07:24:59Z</time>
      </trkpt>
      <trkpt lat="48.9134" lon="1.41428">
        <ele>98.5</ele>
        <time>2015-09-27T07:25:02Z</time>
      </trkpt>
      <trkpt lat="48.9133" lon="1.41422">
        <ele>99.1</ele>
        <time>2015-09-27T07:25:05Z</time>
      </trkpt>
      <trkpt lat="48.91322" lon="1.41412">
        <ele>99.7</ele>
        <time>2015-09-27T07:25:08Z</time>
      </trkpt>
      <trkpt lat="48.91313" lon="1.41402">
        <ele>100.3</ele>
        <time>2015-09-27T07:25:11Z</time>
      </trkpt>
      <trkpt lat="48.91304" lon="1.41391">
        <ele>100.7</ele>
        <time>2015-09-27T07:25:14Z</time>
      </trkpt>
      <trkpt lat="48.91295" lon="1.4138">
        <ele>101.1</ele>
        <time>2015-09-27T07:25:17Z</time>
      </trkpt>
      <trkpt lat="48.91285" lon="1.41369">
        <ele>101.5</ele>
        <time>2015-09-27T07:25:20Z</time>
      </trkpt>
      <trkpt lat="48.91274" lon="1.41359">
        <ele>101.9</ele>
        <time>2015-09-27T07:25:23Z</time>
      </trkpt>
      <trkpt lat="48.91265" lon="1.4135">
        <ele>102.3</ele>
        <time>2015-09-27T07:25:26Z</time>
      </trkpt>
      <trkpt lat="48.91254" lon="1.41344">
        <ele>102.7</ele>
        <time>2015-09-27T07:25:29Z</time>
      </trkpt>
      <trkpt lat="48.91244" lon="1.41335">
        <ele>103</ele>
        <time>2015-09-27T07:25:31Z</time>
      </trkpt>
      <trkpt lat="48.91236" lon="1.41327">
        <ele>103.3</ele>
        <time>2015-09-27T07:25:33Z</time>
      </trkpt>
      <trkpt lat="48.91228" lon="1.41318">
        <ele>103.5</ele>
        <time>2015-09-27T07:25:35Z</time>
      </trkpt>
      <trkpt lat="48.91219" lon="1.4131">
        <ele>103.7</ele>
        <time>2015-09-27T07:25:37Z</time>
      </trkpt>
      <trkpt lat="48.9121" lon="1.41299">
        <ele>104</ele>
        <time>2015-09-27T07:25:40Z</time>
      </trkpt>
      <trkpt lat="48.91199" lon="1.41287">
        <ele>104.2</ele>
        <time>2015-09-27T07:25:43Z</time>
      </trkpt>
      <trkpt lat="48.91189" lon="1.41277">
        <ele>104.3</ele>
        <time>2015-09-27T07:25:45Z</time>
      </trkpt>
      <trkpt lat="48.91177" lon="1.41272">
        <ele>104.4</ele>
        <time>2015-09-27T07:25:47Z</time>
      </trkpt>
      <trkpt lat="48.91168" lon="1.41274">
        <ele>104.6</ele>
        <time>2015-09-27T07:25:50Z</time>
      </trkpt>
      <trkpt lat="48.91159" lon="1.41279">
        <ele>104.9</ele>
        <time>2015-09-27T07:25:56Z</time>
      </trkpt>
      <trkpt lat="48.91149" lon="1.41288">
        <ele>105.9</ele>
        <time>2015-09-27T07:26:02Z</time>
      </trkpt>
      <trkpt lat="48.91153" lon="1.413">
        <ele>107.5</ele>
        <time>2015-09-27T07:26:09Z</time>
      </trkpt>
      <trkpt lat="48.91158" lon="1.41313">
        <ele>109.2</ele>
        <time>2015-09-27T07:26:17Z</time>
      </trkpt>
      <trkpt lat="48.91164" lon="1.41323">
        <ele>110.2</ele>
        <time>2015-09-27T07:26:22Z</time>
      </trkpt>
      <trkpt lat="48.91168" lon="1.41336">
        <ele>111.1</ele>
        <time>2015-09-27T07:26:26Z</time>
      </trkpt>
      <trkpt lat="48.91173" lon="1.41349">
        <ele>112</ele>
        <time>2015-09-27T07:26:30Z</time>
      </trkpt>
      <trkpt lat="48.91176" lon="1.41367">
        <ele>113</ele>
        <time>2015-09-27T07:26:34Z</time>
      </trkpt>
      <trkpt lat="48.91179" lon="1.4138">
        <ele>113.6</ele>
        <time>2015-09-27T07:26:37Z</time>
      </trkpt>
      <trkpt lat="48.91184" lon="1.41397">
        <ele>114.4</ele>
        <time>2015-09-27T07:26:41Z</time>
      </trkpt>
      <trkpt lat="48.91187" lon="1.41414">
        <ele>115.3</ele>
        <time>2015-09-27T07:26:45Z</time>
      </trkpt>
      <trkpt lat="48.91192" lon="1.41426">
        <ele>115.8</ele>
        <time>2015-09-27T07:26:48Z</time>
      </trkpt>
      <trkpt lat="48.91197" lon="1.41438">
        <ele>116.4</ele>
        <time>2015-09-27T07:26:51Z</time>
      </trkpt>
      <trkpt lat="48.91202" lon="1.41451">
        <ele>116.9</ele>
        <time>2015-09-27T07:26:54Z</time>
      </trkpt>
      <trkpt lat="48.91206" lon="1.41468">
        <ele>117.4</ele>
        <time>2015-09-27T07:26:57Z</time>
      </trkpt>
      <trkpt lat="48.91213" lon="1.41483">
        <ele>117.8</ele>
        <time>2015-09-27T07:27:00Z</time>
      </trkpt>
      <trkpt lat="48.91212" lon="1.41497">
        <ele>118.2</ele>
        <time>2015-09-27T07:27:03Z</time>
      </trkpt>
      <trkpt lat="48.91212" lon="1.41516">
        <ele>118.5</ele>
        <time>2015-09-27T07:27:06Z</time>
      </trkpt>
      <trkpt lat="48.91214" lon="1.4153">
        <ele>118.7</ele>
        <time>2015-09-27T07:27:08Z</time>
      </trkpt>
      <trkpt lat="48.91215" lon="1.41544">
        <ele>118.9</ele>
        <time>2015-09-27T07:27:10Z</time>
      </trkpt>
      <trkpt lat="48.91218" lon="1.41559">
        <ele>119.2</ele>
        <time>2015-09-27T07:27:12Z</time>
      </trkpt>
      <trkpt lat="48.91219" lon="1.41573">
        <ele>119.4</ele>
        <time>2015-09-27T07:27:14Z</time>
      </trkpt>
      <trkpt lat="48.91216" lon="1.41592">
        <ele>119.8</ele>
        <time>2015-09-27T07:27:17Z</time>
      </trkpt>
      <trkpt lat="48.91213" lon="1.41607">
        <ele>120</ele>
        <time>2015-09-27T07:27:19Z</time>
      </trkpt>
      <trkpt lat="48.91212" lon="1.41621">
        <ele>120.2</ele>
        <time>2015-09-27T07:27:21Z</time>
      </trkpt>
      <trkpt lat="48.91208" lon="1.4164">
        <ele>120.5</ele>
        <time>2015-09-27T07:27:24Z</time>
      </trkpt>
      <trkpt lat="48.91204" lon="1.41652">
        <ele>120.6</ele>
        <time>2015-09-27T07:27:26Z</time>
      </trkpt>
      <trkpt lat="48.912" lon="1.41667">
        <ele>120.7</ele>
        <time>2015-09-27T07:27:28Z</time>
      </trkpt>
      <trkpt lat="48.912" lon="1.41683">
        <ele>120.8</ele>
        <time>2015-09-27T07:27:30Z</time>
      </trkpt>
      <trkpt lat="48.912" lon="1.41698">
        <ele>121</ele>
        <time>2015-09-27T07:27:32Z</time>
      </trkpt>
      <trkpt lat="48.91199" lon="1.41717">
        <ele>121.1</ele>
        <time>2015-09-27T07:27:34Z</time>
      </trkpt>
      <trkpt lat="48.91198" lon="1.41738">
        <ele>121.2</ele>
        <time>2015-09-27T07:27:36Z</time>
      </trkpt>
      <trkpt lat="48.91197" lon="1.41754">
        <ele>121.3</ele>
        <time>2015-09-27T07:27:38Z</time>
      </trkpt>
      <trkpt lat="48.91195" lon="1.4177">
        <ele>121.4</ele>
        <time>2015-09-27T07:27:40Z</time>
      </trkpt>
      <trkpt lat="48.91193" lon="1.41785">
        <ele>121.5</ele>
        <time>2015-09-27T07:27:42Z</time>
      </trkpt>
      <trkpt lat="48.91192" lon="1.41804">
        <ele>121.6</ele>
        <time>2015-09-27T07:27:44Z</time>
      </trkpt>
      <trkpt lat="48.9119" lon="1.41822">
        <ele>121.6</ele>
        <time>2015-09-27T07:27:47Z</time>
      </trkpt>
      <trkpt lat="48.91194" lon="1.41837">
        <ele>121.7</ele>
        <time>2015-09-27T07:27:49Z</time>
      </trkpt>
      <trkpt lat="48.91198" lon="1.41858">
        <ele>121.8</ele>
        <time>2015-09-27T07:27:51Z</time>
      </trkpt>
      <trkpt lat="48.91201" lon="1.41876">
        <ele>121.9</ele>
        <time>2015-09-27T07:27:53Z</time>
      </trkpt>
      <trkpt lat="48.91205" lon="1.41894">
        <ele>121.9</ele>
        <time>2015-09-27T07:27:55Z</time>
      </trkpt>
      <trkpt lat="48.91211" lon="1.41912">
        <ele>122</ele>
        <time>2015-09-27T07:27:57Z</time>
      </trkpt>
      <trkpt lat="48.91222" lon="1.41924">
        <ele>122.1</ele>
        <time>2015-09-27T07:27:59Z</time>
      </trkpt>
      <trkpt lat="48.91232" lon="1.41932">
        <ele>122.3</ele>
        <time>2015-09-27T07:28:01Z</time>
      </trkpt>
      <trkpt lat="48.91241" lon="1.41943">
        <ele>122.3</ele>
        <time>2015-09-27T07:28:03Z</time>
      </trkpt>
      <trkpt lat="48.91247" lon="1.41959">
        <ele>122.3</ele>
        <time>2015-09-27T07:28:05Z</time>
      </trkpt>
      <trkpt lat="48.91251" lon="1.41974">
        <ele>122.3</ele>
        <time>2015-09-27T07:28:07Z</time>
      </trkpt>
      <trkpt lat="48.91255" lon="1.41989">
        <ele>122.3</ele>
        <time>2015-09-27T07:28:09Z</time>
      </trkpt>
      <trkpt lat="48.91256" lon="1.42007">
        <ele>122.3</ele>
        <time>2015-09-27T07:28:11Z</time>
      </trkpt>
      <trkpt lat="48.91258" lon="1.42028">
        <ele>122.5</ele>
        <time>2015-09-27T07:28:14Z</time>
      </trkpt>
      <trkpt lat="48.91259" lon="1.42043">
        <ele>122.5</ele>
        <time>2015-09-27T07:28:16Z</time>
      </trkpt>
      <trkpt lat="48.91263" lon="1.42058">
        <ele>122.6</ele>
        <time>2015-09-27T07:28:18Z</time>
      </trkpt>
      <trkpt lat="48.91269" lon="1.42072">
        <ele>122.7</ele>
        <time>2015-09-27T07:28:20Z</time>
      </trkpt>
      <trkpt lat="48.91273" lon="1.42086">
        <ele>122.7</ele>
        <time>2015-09-27T07:28:22Z</time>
      </trkpt>
      <trkpt lat="48.91275" lon="1.42102">
        <ele>122.8</ele>
        <time>2015-09-27T07:28:24Z</time>
      </trkpt>
      <trkpt lat="48.91281" lon="1.42117">
        <ele>122.8</ele>
        <time>2015-09-27T07:28:26Z</time>
      </trkpt>
      <trkpt lat="48.91287" lon="1.42133">
        <ele>122.9</ele>
        <time>2015-09-27T07:28:28Z</time>
      </trkpt>
      <trkpt lat="48.91296" lon="1.42146">
        <ele>122.9</ele>
        <time>2015-09-27T07:28:30Z</time>
      </trkpt>
      <trkpt lat="48.91301" lon="1.4216">
        <ele>122.9</ele>
        <time>2015-09-27T07:28:32Z</time>
      </trkpt>
      <trkpt lat="48.91307" lon="1.42176">
        <ele>122.9</ele>
        <time>2015-09-27T07:28:34Z</time>
      </trkpt>
      <trkpt lat="48.91312" lon="1.42196">
        <ele>123</ele>
        <time>2015-09-27T07:28:36Z</time>
      </trkpt>
      <trkpt lat="48.91318" lon="1.42212">
        <ele>123</ele>
        <time>2015-09-27T07:28:38Z</time>
      </trkpt>
      <trkpt lat="48.91324" lon="1.42227">
        <ele>123</ele>
        <time>2015-09-27T07:28:40Z</time>
      </trkpt>
      <trkpt lat="48.91331" lon="1.42245">
        <ele>123</ele>
        <time>2015-09-27T07:28:43Z</time>
      </trkpt>
      <trkpt lat="48.91338" lon="1.4226">
        <ele>123</ele>
        <time>2015-09-27T07:28:45Z</time>
      </trkpt>
      <trkpt lat="48.91346" lon="1.42274">
        <ele>123</ele>
        <time>2015-09-27T07:28:47Z</time>
      </trkpt>
      <trkpt lat="48.91349" lon="1.42288">
        <ele>123</ele>
        <time>2015-09-27T07:28:49Z</time>
      </trkpt>
      <trkpt lat="48.91353" lon="1.42305">
        <ele>123</ele>
        <time>2015-09-27T07:28:51Z</time>
      </trkpt>
      <trkpt lat="48.91356" lon="1.42324">
        <ele>122.9</ele>
        <time>2015-09-27T07:28:53Z</time>
      </trkpt>
      <trkpt lat="48.91361" lon="1.42343">
        <ele>122.9</ele>
        <time>2015-09-27T07:28:55Z</time>
      </trkpt>
      <trkpt lat="48.91365" lon="1.4236">
        <ele>122.9</ele>
        <time>2015-09-27T07:28:57Z</time>
      </trkpt>
      <trkpt lat="48.9137" lon="1.42376">
        <ele>122.8</ele>
        <time>2015-09-27T07:28:59Z</time>
      </trkpt>
      <trkpt lat="48.91374" lon="1.42396">
        <ele>122.8</ele>
        <time>2015-09-27T07:29:01Z</time>
      </trkpt>
      <trkpt lat="48.91378" lon="1.42413">
        <ele>122.8</ele>
        <time>2015-09-27T07:29:03Z</time>
      </trkpt>
      <trkpt lat="48.91382" lon="1.42431">
        <ele>122.8</ele>
        <time>2015-09-27T07:29:05Z</time>
      </trkpt>
      <trkpt lat="48.91384" lon="1.42445">
        <ele>122.7</ele>
        <time>2015-09-27T07:29:07Z</time>
      </trkpt>
      <trkpt lat="48.91386" lon="1.42461">
        <ele>122.7</ele>
        <time>2015-09-27T07:29:09Z</time>
      </trkpt>
      <trkpt lat="48.9139" lon="1.42479">
        <ele>122.7</ele>
        <time>2015-09-27T07:29:11Z</time>
      </trkpt>
      <trkpt lat="48.91393" lon="1.42495">
        <ele>122.7</ele>
        <time>2015-09-27T07:29:13Z</time>
      </trkpt>
      <trkpt lat="48.91397" lon="1.42509">
        <ele>122.6</ele>
        <time>2015-09-27T07:29:15Z</time>
      </trkpt>
      <trkpt lat="48.91407" lon="1.42522">
        <ele>122.6</ele>
        <time>2015-09-27T07:29:17Z</time>
      </trkpt>
      <trkpt lat="48.91415" lon="1.42539">
        <ele>122.6</ele>
        <time>2015-09-27T07:29:20Z</time>
      </trkpt>
      <trkpt lat="48.91417" lon="1.42553">
        <ele>122.5</ele>
        <time>2015-09-27T07:29:22Z</time>
      </trkpt>
      <trkpt lat="48.91419" lon="1.42567">
        <ele>122.4</ele>
        <time>2015-09-27T07:29:24Z</time>
      </trkpt>
      <trkpt lat="48.91425" lon="1.42582">
        <ele>122.3</ele>
        <time>2015-09-27T07:29:26Z</time>
      </trkpt>
      <trkpt lat="48.9143" lon="1.42596">
        <ele>122</ele>
        <time>2015-09-27T07:29:28Z</time>
      </trkpt>
      <trkpt lat="48.91436" lon="1.4261">
        <ele>121.7</ele>
        <time>2015-09-27T07:29:30Z</time>
      </trkpt>
      <trkpt lat="48.91438" lon="1.42627">
        <ele>121.1</ele>
        <time>2015-09-27T07:29:32Z</time>
      </trkpt>
      <trkpt lat="48.91438" lon="1.42642">
        <ele>120.2</ele>
        <time>2015-09-27T07:29:34Z</time>
      </trkpt>
      <trkpt lat="48.91437" lon="1.42661">
        <ele>118.3</ele>
        <time>2015-09-27T07:29:38Z</time>
      </trkpt>
      <trkpt lat="48.91439" lon="1.42675">
        <ele>117.3</ele>
        <time>2015-09-27T07:29:40Z</time>
      </trkpt>
      <trkpt lat="48.9143" lon="1.42688">
        <ele>114.9</ele>
        <time>2015-09-27T07:29:44Z</time>
      </trkpt>
      <trkpt lat="48.9142" lon="1.42703">
        <ele>112.8</ele>
        <time>2015-09-27T07:29:47Z</time>
      </trkpt>
      <trkpt lat="48.91412" lon="1.42712">
        <ele>111.2</ele>
        <time>2015-09-27T07:29:49Z</time>
      </trkpt>
      <trkpt lat="48.91405" lon="1.42723">
        <ele>109.5</ele>
        <time>2015-09-27T07:29:51Z</time>
      </trkpt>
      <trkpt lat="48.91399" lon="1.42735">
        <ele>107.7</ele>
        <time>2015-09-27T07:29:53Z</time>
      </trkpt>
      <trkpt lat="48.91392" lon="1.42746">
        <ele>105.8</ele>
        <time>2015-09-27T07:29:55Z</time>
      </trkpt>
      <trkpt lat="48.91386" lon="1.42759">
        <ele>103.9</ele>
        <time>2015-09-27T07:29:57Z</time>
      </trkpt>
      <trkpt lat="48.91378" lon="1.4277">
        <ele>102.1</ele>
        <time>2015-09-27T07:29:59Z</time>
      </trkpt>
      <trkpt lat="48.91371" lon="1.4278">
        <ele>100.3</ele>
        <time>2015-09-27T07:30:01Z</time>
      </trkpt>
      <trkpt lat="48.91363" lon="1.42788">
        <ele>98.5</ele>
        <time>2015-09-27T07:30:03Z</time>
      </trkpt>
      <trkpt lat="48.91355" lon="1.428">
        <ele>96.7</ele>
        <time>2015-09-27T07:30:05Z</time>
      </trkpt>
      <trkpt lat="48.91349" lon="1.42819">
        <ele>94.1</ele>
        <time>2015-09-27T07:30:08Z</time>
      </trkpt>
      <trkpt lat="48.91341" lon="1.42835">
        <ele>91.8</ele>
        <time>2015-09-27T07:30:11Z</time>
      </trkpt>
      <trkpt lat="48.91332" lon="1.42848">
        <ele>90.3</ele>
        <time>2015-09-27T07:30:13Z</time>
      </trkpt>
      <trkpt lat="48.91323" lon="1.42866">
        <ele>88.9</ele>
        <time>2015-09-27T07:30:15Z</time>
      </trkpt>
      <trkpt lat="48.91315" lon="1.42887">
        <ele>87.4</ele>
        <time>2015-09-27T07:30:17Z</time>
      </trkpt>
      <trkpt lat="48.91307" lon="1.42909">
        <ele>85.9</ele>
        <time>2015-09-27T07:30:19Z</time>
      </trkpt>
      <trkpt lat="48.91301" lon="1.42934">
        <ele>84.5</ele>
        <time>2015-09-27T07:30:21Z</time>
      </trkpt>
      <trkpt lat="48.91297" lon="1.42947">
        <ele>83.8</ele>
        <time>2015-09-27T07:30:22Z</time>
      </trkpt>
      <trkpt lat="48.91293" lon="1.4296">
        <ele>83</ele>
        <time>2015-09-27T07:30:23Z</time>
      </trkpt>
      <trkpt lat="48.91289" lon="1.42972">
        <ele>82.3</ele>
        <time>2015-09-27T07:30:24Z</time>
      </trkpt>
      <trkpt lat="48.91285" lon="1.42988">
        <ele>80.8</ele>
        <time>2015-09-27T07:30:26Z</time>
      </trkpt>
      <trkpt lat="48.91281" lon="1.43003">
        <ele>78.7</ele>
        <time>2015-09-27T07:30:29Z</time>
      </trkpt>
      <trkpt lat="48.91278" lon="1.43019">
        <ele>77.5</ele>
        <time>2015-09-27T07:30:31Z</time>
      </trkpt>
      <trkpt lat="48.91272" lon="1.43036">
        <ele>76.1</ele>
        <time>2015-09-27T07:30:33Z</time>
      </trkpt>
      <trkpt lat="48.91264" lon="1.43054">
        <ele>74.8</ele>
        <time>2015-09-27T07:30:35Z</time>
      </trkpt>
      <trkpt lat="48.91255" lon="1.43073">
        <ele>73.5</ele>
        <time>2015-09-27T07:30:37Z</time>
      </trkpt>
      <trkpt lat="48.91247" lon="1.43094">
        <ele>71.9</ele>
        <time>2015-09-27T07:30:39Z</time>
      </trkpt>
      <trkpt lat="48.91241" lon="1.43119">
        <ele>70.3</ele>
        <time>2015-09-27T07:30:41Z</time>
      </trkpt>
      <trkpt lat="48.91237" lon="1.43142">
        <ele>68.6</ele>
        <time>2015-09-27T07:30:43Z</time>
      </trkpt>
      <trkpt lat="48.91234" lon="1.43157">
        <ele>66.7</ele>
        <time>2015-09-27T07:30:45Z</time>
      </trkpt>
      <trkpt lat="48.91233" lon="1.43171">
        <ele>64.9</ele>
        <time>2015-09-27T07:30:47Z</time>
      </trkpt>
      <trkpt lat="48.91225" lon="1.43182">
        <ele>63.2</ele>
        <time>2015-09-27T07:30:49Z</time>
      </trkpt>
      <trkpt lat="48.91215" lon="1.43194">
        <ele>61.6</ele>
        <time>2015-09-27T07:30:51Z</time>
      </trkpt>
      <trkpt lat="48.91203" lon="1.43205">
        <ele>60.2</ele>
        <time>2015-09-27T07:30:53Z</time>
      </trkpt>
      <trkpt lat="48.91192" lon="1.43216">
        <ele>59</ele>
        <time>2015-09-27T07:30:55Z</time>
      </trkpt>
      <trkpt lat="48.91181" lon="1.43226">
        <ele>57.9</ele>
        <time>2015-09-27T07:30:57Z</time>
      </trkpt>
      <trkpt lat="48.91173" lon="1.43233">
        <ele>56.9</ele>
        <time>2015-09-27T07:30:59Z</time>
      </trkpt>
      <trkpt lat="48.91163" lon="1.43241">
        <ele>55.5</ele>
        <time>2015-09-27T07:31:02Z</time>
      </trkpt>
      <trkpt lat="48.91154" lon="1.43249">
        <ele>54</ele>
        <time>2015-09-27T07:31:06Z</time>
      </trkpt>
      <trkpt lat="48.91146" lon="1.43257">
        <ele>52.8</ele>
        <time>2015-09-27T07:31:10Z</time>
      </trkpt>
      <trkpt lat="48.91138" lon="1.43265">
        <ele>51.9</ele>
        <time>2015-09-27T07:31:14Z</time>
      </trkpt>
      <trkpt lat="48.9113" lon="1.43275">
        <ele>51.2</ele>
        <time>2015-09-27T07:31:18Z</time>
      </trkpt>
      <trkpt lat="48.91122" lon="1.43283">
        <ele>50.7</ele>
        <time>2015-09-27T07:31:22Z</time>
      </trkpt>
      <trkpt lat="48.91111" lon="1.43292">
        <ele>50.3</ele>
        <time>2015-09-27T07:31:26Z</time>
      </trkpt>
      <trkpt lat="48.91102" lon="1.43302">
        <ele>50</ele>
        <time>2015-09-27T07:31:29Z</time>
      </trkpt>
      <trkpt lat="48.91093" lon="1.43311">
        <ele>49.8</ele>
        <time>2015-09-27T07:31:32Z</time>
      </trkpt>
      <trkpt lat="48.91085" lon="1.43321">
        <ele>49.8</ele>
        <time>2015-09-27T07:31:35Z</time>
      </trkpt>
      <trkpt lat="48.91077" lon="1.4333">
        <ele>49.7</ele>
        <time>2015-09-27T07:31:38Z</time>
      </trkpt>
      <trkpt lat="48.91064" lon="1.4334">
        <ele>49.7</ele>
        <time>2015-09-27T07:31:41Z</time>
      </trkpt>
      <trkpt lat="48.91054" lon="1.43347">
        <ele>49.8</ele>
        <time>2015-09-27T07:31:44Z</time>
      </trkpt>
      <trkpt lat="48.91046" lon="1.43354">
        <ele>49.9</ele>
        <time>2015-09-27T07:31:48Z</time>
      </trkpt>
      <trkpt lat="48.91038" lon="1.43362">
        <ele>50</ele>
        <time>2015-09-27T07:31:53Z</time>
      </trkpt>
      <trkpt lat="48.91026" lon="1.43371">
        <ele>50.1</ele>
        <time>2015-09-27T07:31:58Z</time>
      </trkpt>
      <trkpt lat="48.91017" lon="1.4338">
        <ele>50.1</ele>
        <time>2015-09-27T07:32:01Z</time>
      </trkpt>
      <trkpt lat="48.91009" lon="1.43387">
        <ele>50.1</ele>
        <time>2015-09-27T07:32:04Z</time>
      </trkpt>
      <trkpt lat="48.91001" lon="1.43395">
        <ele>50.1</ele>
        <time>2015-09-27T07:32:08Z</time>
      </trkpt>
      <trkpt lat="48.90991" lon="1.43403">
        <ele>50.2</ele>
        <time>2015-09-27T07:32:16Z</time>
      </trkpt>
      <trkpt lat="48.90984" lon="1.43414">
        <ele>50.2</ele>
        <time>2015-09-27T07:32:20Z</time>
      </trkpt>
      <trkpt lat="48.90973" lon="1.43424">
        <ele>50.2</ele>
        <time>2015-09-27T07:32:23Z</time>
      </trkpt>
      <trkpt lat="48.90961" lon="1.43434">
        <ele>50.2</ele>
        <time>2015-09-27T07:32:26Z</time>
      </trkpt>
      <trkpt lat="48.90951" lon="1.43444">
        <ele>50.2</ele>
        <time>2015-09-27T07:32:29Z</time>
      </trkpt>
      <trkpt lat="48.90941" lon="1.4345">
        <ele>50.2</ele>
        <time>2015-09-27T07:32:31Z</time>
      </trkpt>
      <trkpt lat="48.90931" lon="1.43452">
        <ele>50.2</ele>
        <time>2015-09-27T07:32:33Z</time>
      </trkpt>
      <trkpt lat="48.90921" lon="1.43452">
        <ele>50.2</ele>
        <time>2015-09-27T07:32:35Z</time>
      </trkpt>
      <trkpt lat="48.90912" lon="1.43452">
        <ele>50.3</ele>
        <time>2015-09-27T07:32:37Z</time>
      </trkpt>
      <trkpt lat="48.90901" lon="1.43452">
        <ele>50.5</ele>
        <time>2015-09-27T07:32:40Z</time>
      </trkpt>
      <trkpt lat="48.90891" lon="1.43458">
        <ele>50.9</ele>
        <time>2015-09-27T07:32:44Z</time>
      </trkpt>
      <trkpt lat="48.90881" lon="1.43464">
        <ele>51.4</ele>
        <time>2015-09-27T07:32:48Z</time>
      </trkpt>
      <trkpt lat="48.90871" lon="1.43469">
        <ele>51.9</ele>
        <time>2015-09-27T07:32:52Z</time>
      </trkpt>
      <trkpt lat="48.90862" lon="1.43473">
        <ele>52.6</ele>
        <time>2015-09-27T07:32:57Z</time>
      </trkpt>
      <trkpt lat="48.90852" lon="1.43478">
        <ele>53.3</ele>
        <time>2015-09-27T07:33:01Z</time>
      </trkpt>
      <trkpt lat="48.90842" lon="1.43483">
        <ele>53.8</ele>
        <time>2015-09-27T07:33:05Z</time>
      </trkpt>
      <trkpt lat="48.90834" lon="1.43494">
        <ele>54.3</ele>
        <time>2015-09-27T07:33:08Z</time>
      </trkpt>
      <trkpt lat="48.90827" lon="1.43505">
        <ele>54.7</ele>
        <time>2015-09-27T07:33:11Z</time>
      </trkpt>
      <trkpt lat="48.90821" lon="1.43517">
        <ele>55.1</ele>
        <time>2015-09-27T07:33:15Z</time>
      </trkpt>
      <trkpt lat="48.9082" lon="1.43532">
        <ele>55.2</ele>
        <time>2015-09-27T07:33:18Z</time>
      </trkpt>
      <trkpt lat="48.90808" lon="1.43531">
        <ele>55.1</ele>
        <time>2015-09-27T07:33:22Z</time>
      </trkpt>
      <trkpt lat="48.90799" lon="1.43521">
        <ele>55.1</ele>
        <time>2015-09-27T07:33:25Z</time>
      </trkpt>
      <trkpt lat="48.90789" lon="1.43511">
        <ele>55.1</ele>
        <time>2015-09-27T07:33:28Z</time>
      </trkpt>
      <trkpt lat="48.90779" lon="1.43502">
        <ele>55.2</ele>
        <time>2015-09-27T07:33:31Z</time>
      </trkpt>
      <trkpt lat="48.90769" lon="1.43492">
        <ele>55.4</ele>
        <time>2015-09-27T07:33:34Z</time>
      </trkpt>
      <trkpt lat="48.90759" lon="1.43482">
        <ele>55.8</ele>
        <time>2015-09-27T07:33:37Z</time>
      </trkpt>
      <trkpt lat="48.90748" lon="1.43473">
        <ele>56.2</ele>
        <time>2015-09-27T07:33:40Z</time>
      </trkpt>
      <trkpt lat="48.90738" lon="1.43464">
        <ele>56.7</ele>
        <time>2015-09-27T07:33:43Z</time>
      </trkpt>
      <trkpt lat="48.90727" lon="1.43455">
        <ele>57.2</ele>
        <time>2015-09-27T07:33:46Z</time>
      </trkpt>
      <trkpt lat="48.90716" lon="1.43447">
        <ele>57.7</ele>
        <time>2015-09-27T07:33:49Z</time>
      </trkpt>
      <trkpt lat="48.90706" lon="1.4344">
        <ele>58.3</ele>
        <time>2015-09-27T07:33:52Z</time>
      </trkpt>
      <trkpt lat="48.90697" lon="1.43434">
        <ele>58.7</ele>
        <time>2015-09-27T07:33:55Z</time>
      </trkpt>
      <trkpt lat="48.90686" lon="1.43429">
        <ele>59.4</ele>
        <time>2015-09-27T07:33:59Z</time>
      </trkpt>
      <trkpt lat="48.90676" lon="1.43431">
        <ele>60</ele>
        <time>2015-09-27T07:34:02Z</time>
      </trkpt>
      <trkpt lat="48.90666" lon="1.43432">
        <ele>60.8</ele>
        <time>2015-09-27T07:34:06Z</time>
      </trkpt>
      <trkpt lat="48.90656" lon="1.43433">
        <ele>61.7</ele>
        <time>2015-09-27T07:34:10Z</time>
      </trkpt>
      <trkpt lat="48.90647" lon="1.43433">
        <ele>62.7</ele>
        <time>2015-09-27T07:34:14Z</time>
      </trkpt>
      <trkpt lat="48.90636" lon="1.43433">
        <ele>64.2</ele>
        <time>2015-09-27T07:34:19Z</time>
      </trkpt>
      <trkpt lat="48.90627" lon="1.43432">
        <ele>65.3</ele>
        <time>2015-09-27T07:34:23Z</time>
      </trkpt>
      <trkpt lat="48.90617" lon="1.43433">
        <ele>66.4</ele>
        <time>2015-09-27T07:34:27Z</time>
      </trkpt>
      <trkpt lat="48.90607" lon="1.43434">
        <ele>67.6</ele>
        <time>2015-09-27T07:34:31Z</time>
      </trkpt>
      <trkpt lat="48.90597" lon="1.43437">
        <ele>68.7</ele>
        <time>2015-09-27T07:34:35Z</time>
      </trkpt>
      <trkpt lat="48.90588" lon="1.43441">
        <ele>69.8</ele>
        <time>2015-09-27T07:34:39Z</time>
      </trkpt>
      <trkpt lat="48.90578" lon="1.43444">
        <ele>70.9</ele>
        <time>2015-09-27T07:34:43Z</time>
      </trkpt>
      <trkpt lat="48.90568" lon="1.43448">
        <ele>72</ele>
        <time>2015-09-27T07:34:47Z</time>
      </trkpt>
      <trkpt lat="48.90558" lon="1.43451">
        <ele>73.1</ele>
        <time>2015-09-27T07:34:51Z</time>
      </trkpt>
      <trkpt lat="48.90549" lon="1.43454">
        <ele>74.1</ele>
        <time>2015-09-27T07:34:55Z</time>
      </trkpt>
      <trkpt lat="48.90539" lon="1.43457">
        <ele>75.1</ele>
        <time>2015-09-27T07:34:59Z</time>
      </trkpt>
      <trkpt lat="48.90528" lon="1.4346">
        <ele>76.3</ele>
        <time>2015-09-27T07:35:04Z</time>
      </trkpt>
      <trkpt lat="48.90518" lon="1.4346">
        <ele>77.7</ele>
        <time>2015-09-27T07:35:09Z</time>
      </trkpt>
      <trkpt lat="48.90507" lon="1.43461">
        <ele>79.2</ele>
        <time>2015-09-27T07:35:14Z</time>
      </trkpt>
      <trkpt lat="48.90498" lon="1.43462">
        <ele>80.5</ele>
        <time>2015-09-27T07:35:19Z</time>
      </trkpt>
      <trkpt lat="48.90488" lon="1.43462">
        <ele>81.8</ele>
        <time>2015-09-27T07:35:24Z</time>
      </trkpt>
      <trkpt lat="48.90478" lon="1.4346">
        <ele>83.2</ele>
        <time>2015-09-27T07:35:29Z</time>
      </trkpt>
      <trkpt lat="48.90469" lon="1.43457">
        <ele>84.7</ele>
        <time>2015-09-27T07:35:34Z</time>
      </trkpt>
      <trkpt lat="48.90458" lon="1.43455">
        <ele>86.1</ele>
        <time>2015-09-27T07:35:39Z</time>
      </trkpt>
      <trkpt lat="48.90448" lon="1.43451">
        <ele>87.4</ele>
        <time>2015-09-27T07:35:44Z</time>
      </trkpt>
      <trkpt lat="48.90438" lon="1.43447">
        <ele>88.7</ele>
        <time>2015-09-27T07:35:49Z</time>
      </trkpt>
      <trkpt lat="48.90428" lon="1.43443">
        <ele>89.7</ele>
        <time>2015-09-27T07:35:54Z</time>
      </trkpt>
      <trkpt lat="48.90418" lon="1.43439">
        <ele>90.7</ele>
        <time>2015-09-27T07:35:58Z</time>
      </trkpt>
      <trkpt lat="48.90409" lon="1.43435">
        <ele>91.5</ele>
        <time>2015-09-27T07:36:02Z</time>
      </trkpt>
      <trkpt lat="48.90399" lon="1.43432">
        <ele>92.4</ele>
        <time>2015-09-27T07:36:06Z</time>
      </trkpt>
      <trkpt lat="48.9039" lon="1.43428">
        <ele>93.2</ele>
        <time>2015-09-27T07:36:10Z</time>
      </trkpt>
      <trkpt lat="48.9038" lon="1.43424">
        <ele>94</ele>
        <time>2015-09-27T07:36:14Z</time>
      </trkpt>
      <trkpt lat="48.90369" lon="1.43421">
        <ele>94.9</ele>
        <time>2015-09-27T07:36:18Z</time>
      </trkpt>
      <trkpt lat="48.90359" lon="1.43417">
        <ele>95.8</ele>
        <time>2015-09-27T07:36:22Z</time>
      </trkpt>
      <trkpt lat="48.90349" lon="1.43414">
        <ele>96.8</ele>
        <time>2015-09-27T07:36:26Z</time>
      </trkpt>
      <trkpt lat="48.90339" lon="1.4341">
        <ele>97.7</ele>
        <time>2015-09-27T07:36:30Z</time>
      </trkpt>
      <trkpt lat="48.9033" lon="1.43405">
        <ele>98.7</ele>
        <time>2015-09-27T07:36:34Z</time>
      </trkpt>
      <trkpt lat="48.9032" lon="1.434">
        <ele>99.6</ele>
        <time>2015-09-27T07:36:38Z</time>
      </trkpt>
      <trkpt lat="48.90311" lon="1.43394">
        <ele>100.6</ele>
        <time>2015-09-27T07:36:42Z</time>
      </trkpt>
      <trkpt lat="48.90302" lon="1.43388">
        <ele>101.5</ele>
        <time>2015-09-27T07:36:46Z</time>
      </trkpt>
      <trkpt lat="48.90293" lon="1.43382">
        <ele>102.6</ele>
        <time>2015-09-27T07:36:50Z</time>
      </trkpt>
      <trkpt lat="48.90284" lon="1.43376">
        <ele>103.5</ele>
        <time>2015-09-27T07:36:54Z</time>
      </trkpt>
      <trkpt lat="48.90274" lon="1.43371">
        <ele>104.5</ele>
        <time>2015-09-27T07:36:58Z</time>
      </trkpt>
      <trkpt lat="48.90264" lon="1.43367">
        <ele>105.5</ele>
        <time>2015-09-27T07:37:02Z</time>
      </trkpt>
      <trkpt lat="48.90254" lon="1.43365">
        <ele>106.5</ele>
        <time>2015-09-27T07:37:06Z</time>
      </trkpt>
      <trkpt lat="48.90243" lon="1.43361">
        <ele>107.8</ele>
        <time>2015-09-27T07:37:11Z</time>
      </trkpt>
      <trkpt lat="48.90234" lon="1.43358">
        <ele>108.9</ele>
        <time>2015-09-27T07:37:15Z</time>
      </trkpt>
      <trkpt lat="48.90224" lon="1.43355">
        <ele>110</ele>
        <time>2015-09-27T07:37:19Z</time>
      </trkpt>
      <trkpt lat="48.90215" lon="1.43353">
        <ele>111.2</ele>
        <time>2015-09-27T07:37:23Z</time>
      </trkpt>
      <trkpt lat="48.90206" lon="1.43353">
        <ele>112.3</ele>
        <time>2015-09-27T07:37:27Z</time>
      </trkpt>
      <trkpt lat="48.90197" lon="1.43356">
        <ele>113.5</ele>
        <time>2015-09-27T07:37:31Z</time>
      </trkpt>
      <trkpt lat="48.90187" lon="1.43353">
        <ele>114.6</ele>
        <time>2015-09-27T07:37:35Z</time>
      </trkpt>
      <trkpt lat="48.90178" lon="1.43347">
        <ele>115.3</ele>
        <time>2015-09-27T07:37:38Z</time>
      </trkpt>
      <trkpt lat="48.9017" lon="1.43339">
        <ele>115.9</ele>
        <time>2015-09-27T07:37:41Z</time>
      </trkpt>
      <trkpt lat="48.90161" lon="1.43333">
        <ele>116.4</ele>
        <time>2015-09-27T07:37:44Z</time>
      </trkpt>
      <trkpt lat="48.90153" lon="1.43327">
        <ele>117</ele>
        <time>2015-09-27T07:37:47Z</time>
      </trkpt>
      <trkpt lat="48.90143" lon="1.43323">
        <ele>117.5</ele>
        <time>2015-09-27T07:37:50Z</time>
      </trkpt>
      <trkpt lat="48.90134" lon="1.43319">
        <ele>118.3</ele>
        <time>2015-09-27T07:37:53Z</time>
      </trkpt>
      <trkpt lat="48.90125" lon="1.43316">
        <ele>118.9</ele>
        <time>2015-09-27T07:37:56Z</time>
      </trkpt>
      <trkpt lat="48.90116" lon="1.43313">
        <ele>119.4</ele>
        <time>2015-09-27T07:37:59Z</time>
      </trkpt>
      <trkpt lat="48.90105" lon="1.43311">
        <ele>119.9</ele>
        <time>2015-09-27T07:38:02Z</time>
      </trkpt>
      <trkpt lat="48.90094" lon="1.4331">
        <ele>120.5</ele>
        <time>2015-09-27T07:38:05Z</time>
      </trkpt>
      <trkpt lat="48.90081" lon="1.43309">
        <ele>121</ele>
        <time>2015-09-27T07:38:08Z</time>
      </trkpt>
      <trkpt lat="48.90069" lon="1.43308">
        <ele>121.4</ele>
        <time>2015-09-27T07:38:11Z</time>
      </trkpt>
      <trkpt lat="48.90057" lon="1.43307">
        <ele>121.9</ele>
        <time>2015-09-27T07:38:14Z</time>
      </trkpt>
      <trkpt lat="48.90044" lon="1.43307">
        <ele>122.3</ele>
        <time>2015-09-27T07:38:17Z</time>
      </trkpt>
      <trkpt lat="48.9003" lon="1.43308">
        <ele>122.6</ele>
        <time>2015-09-27T07:38:20Z</time>
      </trkpt>
      <trkpt lat="48.90017" lon="1.43309">
        <ele>123</ele>
        <time>2015-09-27T07:38:23Z</time>
      </trkpt>
      <trkpt lat="48.90008" lon="1.4331">
        <ele>123.3</ele>
        <time>2015-09-27T07:38:25Z</time>
      </trkpt>
      <trkpt lat="48.89999" lon="1.4331">
        <ele>123.6</ele>
        <time>2015-09-27T07:38:27Z</time>
      </trkpt>
      <trkpt lat="48.89989" lon="1.43311">
        <ele>123.8</ele>
        <time>2015-09-27T07:38:29Z</time>
      </trkpt>
      <trkpt lat="48.8998" lon="1.43311">
        <ele>124.1</ele>
        <time>2015-09-27T07:38:31Z</time>
      </trkpt>
      <trkpt lat="48.89971" lon="1.4331">
        <ele>124.3</ele>
        <time>2015-09-27T07:38:33Z</time>
      </trkpt>
      <trkpt lat="48.89962" lon="1.4331">
        <ele>124.5</ele>
        <time>2015-09-27T07:38:35Z</time>
      </trkpt>
      <trkpt lat="48.89952" lon="1.43309">
        <ele>124.7</ele>
        <time>2015-09-27T07:38:37Z</time>
      </trkpt>
      <trkpt lat="48.89942" lon="1.43308">
        <ele>124.9</ele>
        <time>2015-09-27T07:38:39Z</time>
      </trkpt>
      <trkpt lat="48.89933" lon="1.43306">
        <ele>125.1</ele>
        <time>2015-09-27T07:38:41Z</time>
      </trkpt>
      <trkpt lat="48.89922" lon="1.43305">
        <ele>125.2</ele>
        <time>2015-09-27T07:38:43Z</time>
      </trkpt>
      <trkpt lat="48.89912" lon="1.43304">
        <ele>125.3</ele>
        <time>2015-09-27T07:38:45Z</time>
      </trkpt>
      <trkpt lat="48.89902" lon="1.43302">
        <ele>125.4</ele>
        <time>2015-09-27T07:38:47Z</time>
      </trkpt>
      <trkpt lat="48.89892" lon="1.43299">
        <ele>125.7</ele>
        <time>2015-09-27T07:38:49Z</time>
      </trkpt>
      <trkpt lat="48.89882" lon="1.43297">
        <ele>125.8</ele>
        <time>2015-09-27T07:38:51Z</time>
      </trkpt>
      <trkpt lat="48.89872" lon="1.43294">
        <ele>126</ele>
        <time>2015-09-27T07:38:53Z</time>
      </trkpt>
      <trkpt lat="48.89862" lon="1.43291">
        <ele>126.1</ele>
        <time>2015-09-27T07:38:55Z</time>
      </trkpt>
      <trkpt lat="48.89852" lon="1.43287">
        <ele>126.3</ele>
        <time>2015-09-27T07:38:57Z</time>
      </trkpt>
      <trkpt lat="48.89841" lon="1.43283">
        <ele>126.5</ele>
        <time>2015-09-27T07:38:59Z</time>
      </trkpt>
      <trkpt lat="48.89831" lon="1.43279">
        <ele>126.6</ele>
        <time>2015-09-27T07:39:01Z</time>
      </trkpt>
      <trkpt lat="48.8982" lon="1.43274">
        <ele>126.8</ele>
        <time>2015-09-27T07:39:03Z</time>
      </trkpt>
      <trkpt lat="48.8981" lon="1.4327">
        <ele>127</ele>
        <time>2015-09-27T07:39:05Z</time>
      </trkpt>
      <trkpt lat="48.89799" lon="1.43266">
        <ele>127.2</ele>
        <time>2015-09-27T07:39:07Z</time>
      </trkpt>
      <trkpt lat="48.89789" lon="1.43261">
        <ele>127.3</ele>
        <time>2015-09-27T07:39:09Z</time>
      </trkpt>
      <trkpt lat="48.89779" lon="1.43257">
        <ele>127.5</ele>
        <time>2015-09-27T07:39:11Z</time>
      </trkpt>
      <trkpt lat="48.89768" lon="1.43252">
        <ele>127.7</ele>
        <time>2015-09-27T07:39:13Z</time>
      </trkpt>
      <trkpt lat="48.89758" lon="1.43248">
        <ele>127.8</ele>
        <time>2015-09-27T07:39:15Z</time>
      </trkpt>
      <trkpt lat="48.89747" lon="1.43243">
        <ele>128</ele>
        <time>2015-09-27T07:39:17Z</time>
      </trkpt>
      <trkpt lat="48.89736" lon="1.43238">
        <ele>128.1</ele>
        <time>2015-09-27T07:39:19Z</time>
      </trkpt>
      <trkpt lat="48.89725" lon="1.43233">
        <ele>128.3</ele>
        <time>2015-09-27T07:39:21Z</time>
      </trkpt>
      <trkpt lat="48.89714" lon="1.43227">
        <ele>128.4</ele>
        <time>2015-09-27T07:39:23Z</time>
      </trkpt>
      <trkpt lat="48.89702" lon="1.43222">
        <ele>128.5</ele>
        <time>2015-09-27T07:39:25Z</time>
      </trkpt>
      <trkpt lat="48.89691" lon="1.43216">
        <ele>128.7</ele>
        <time>2015-09-27T07:39:27Z</time>
      </trkpt>
      <trkpt lat="48.8968" lon="1.43211">
        <ele>128.8</ele>
        <time>2015-09-27T07:39:29Z</time>
      </trkpt>
      <trkpt lat="48.89669" lon="1.43206">
        <ele>128.9</ele>
        <time>2015-09-27T07:39:31Z</time>
      </trkpt>
      <trkpt lat="48.89658" lon="1.432">
        <ele>129</ele>
        <time>2015-09-27T07:39:33Z</time>
      </trkpt>
      <trkpt lat="48.89646" lon="1.43195">
        <ele>129.2</ele>
        <time>2015-09-27T07:39:35Z</time>
      </trkpt>
      <trkpt lat="48.89635" lon="1.43189">
        <ele>129.3</ele>
        <time>2015-09-27T07:39:37Z</time>
      </trkpt>
      <trkpt lat="48.89623" lon="1.43182">
        <ele>129.4</ele>
        <time>2015-09-27T07:39:39Z</time>
      </trkpt>
      <trkpt lat="48.89612" lon="1.43176">
        <ele>129.5</ele>
        <time>2015-09-27T07:39:41Z</time>
      </trkpt>
      <trkpt lat="48.896" lon="1.4317">
        <ele>129.5</ele>
        <time>2015-09-27T07:39:43Z</time>
      </trkpt>
      <trkpt lat="48.89588" lon="1.43164">
        <ele>129.6</ele>
        <time>2015-09-27T07:39:45Z</time>
      </trkpt>
      <trkpt lat="48.89577" lon="1.43158">
        <ele>129.7</ele>
        <time>2015-09-27T07:39:47Z</time>
      </trkpt>
      <trkpt lat="48.89566" lon="1.43152">
        <ele>129.7</ele>
        <time>2015-09-27T07:39:49Z</time>
      </trkpt>
      <trkpt lat="48.89555" lon="1.43146">
        <ele>129.8</ele>
        <time>2015-09-27T07:39:51Z</time>
      </trkpt>
      <trkpt lat="48.89543" lon="1.43139">
        <ele>129.8</ele>
        <time>2015-09-27T07:39:53Z</time>
      </trkpt>
      <trkpt lat="48.89532" lon="1.43132">
        <ele>129.9</ele>
        <time>2015-09-27T07:39:55Z</time>
      </trkpt>
      <trkpt lat="48.89522" lon="1.43126">
        <ele>130</ele>
        <time>2015-09-27T07:39:57Z</time>
      </trkpt>
      <trkpt lat="48.89513" lon="1.43118">
        <ele>130.2</ele>
        <time>2015-09-27T07:39:59Z</time>
      </trkpt>
      <trkpt lat="48.89509" lon="1.43102">
        <ele>130.5</ele>
        <time>2015-09-27T07:40:02Z</time>
      </trkpt>
      <trkpt lat="48.89513" lon="1.43083">
        <ele>130.7</ele>
        <time>2015-09-27T07:40:05Z</time>
      </trkpt>
      <trkpt lat="48.89517" lon="1.43069">
        <ele>130.7</ele>
        <time>2015-09-27T07:40:07Z</time>
      </trkpt>
      <trkpt lat="48.8952" lon="1.43054">
        <ele>130.7</ele>
        <time>2015-09-27T07:40:09Z</time>
      </trkpt>
      <trkpt lat="48.89525" lon="1.43038">
        <ele>130.7</ele>
        <time>2015-09-27T07:40:11Z</time>
      </trkpt>
      <trkpt lat="48.89529" lon="1.43023">
        <ele>130.6</ele>
        <time>2015-09-27T07:40:13Z</time>
      </trkpt>
      <trkpt lat="48.89533" lon="1.43006">
        <ele>130.6</ele>
        <time>2015-09-27T07:40:15Z</time>
      </trkpt>
      <trkpt lat="48.89537" lon="1.42989">
        <ele>130.5</ele>
        <time>2015-09-27T07:40:17Z</time>
      </trkpt>
      <trkpt lat="48.89542" lon="1.42971">
        <ele>130.4</ele>
        <time>2015-09-27T07:40:19Z</time>
      </trkpt>
      <trkpt lat="48.89546" lon="1.42953">
        <ele>130.3</ele>
        <time>2015-09-27T07:40:21Z</time>
      </trkpt>
      <trkpt lat="48.89551" lon="1.42934">
        <ele>130.2</ele>
        <time>2015-09-27T07:40:23Z</time>
      </trkpt>
      <trkpt lat="48.89555" lon="1.42916">
        <ele>129.9</ele>
        <time>2015-09-27T07:40:25Z</time>
      </trkpt>
      <trkpt lat="48.8956" lon="1.42897">
        <ele>129.6</ele>
        <time>2015-09-27T07:40:27Z</time>
      </trkpt>
      <trkpt lat="48.89564" lon="1.42879">
        <ele>129.3</ele>
        <time>2015-09-27T07:40:29Z</time>
      </trkpt>
      <trkpt lat="48.89569" lon="1.4286">
        <ele>129</ele>
        <time>2015-09-27T07:40:31Z</time>
      </trkpt>
      <trkpt lat="48.89574" lon="1.4284">
        <ele>128.8</ele>
        <time>2015-09-27T07:40:33Z</time>
      </trkpt>
      <trkpt lat="48.89578" lon="1.42821">
        <ele>128.4</ele>
        <time>2015-09-27T07:40:35Z</time>
      </trkpt>
      <trkpt lat="48.89582" lon="1.428">
        <ele>128.1</ele>
        <time>2015-09-27T07:40:37Z</time>
      </trkpt>
      <trkpt lat="48.89587" lon="1.42779">
        <ele>127.6</ele>
        <time>2015-09-27T07:40:39Z</time>
      </trkpt>
      <trkpt lat="48.89591" lon="1.42758">
        <ele>127.2</ele>
        <time>2015-09-27T07:40:41Z</time>
      </trkpt>
      <trkpt lat="48.89594" lon="1.42738">
        <ele>126.6</ele>
        <time>2015-09-27T07:40:43Z</time>
      </trkpt>
      <trkpt lat="48.89596" lon="1.42723">
        <ele>126</ele>
        <time>2015-09-27T07:40:45Z</time>
      </trkpt>
      <trkpt lat="48.89599" lon="1.42707">
        <ele>125.5</ele>
        <time>2015-09-27T07:40:47Z</time>
      </trkpt>
      <trkpt lat="48.89599" lon="1.42688">
        <ele>124.7</ele>
        <time>2015-09-27T07:40:49Z</time>
      </trkpt>
      <trkpt lat="48.89598" lon="1.42669">
        <ele>123.8</ele>
        <time>2015-09-27T07:40:51Z</time>
      </trkpt>
      <trkpt lat="48.89596" lon="1.42655">
        <ele>122.6</ele>
        <time>2015-09-27T07:40:54Z</time>
      </trkpt>
      <trkpt lat="48.89592" lon="1.42642">
        <ele>121.9</ele>
        <time>2015-09-27T07:40:56Z</time>
      </trkpt>
      <trkpt lat="48.89588" lon="1.4263">
        <ele>120.9</ele>
        <time>2015-09-27T07:40:59Z</time>
      </trkpt>
      <trkpt lat="48.89597" lon="1.42627">
        <ele>119.3</ele>
        <time>2015-09-27T07:41:04Z</time>
      </trkpt>
      <trkpt lat="48.89606" lon="1.42623">
        <ele>118.4</ele>
        <time>2015-09-27T07:41:07Z</time>
      </trkpt>
      <trkpt lat="48.8961" lon="1.42606">
        <ele>117.5</ele>
        <time>2015-09-27T07:41:11Z</time>
      </trkpt>
      <trkpt lat="48.89614" lon="1.42592">
        <ele>117.1</ele>
        <time>2015-09-27T07:41:14Z</time>
      </trkpt>
      <trkpt lat="48.89618" lon="1.42578">
        <ele>116.9</ele>
        <time>2015-09-27T07:41:17Z</time>
      </trkpt>
      <trkpt lat="48.89622" lon="1.42564">
        <ele>116.8</ele>
        <time>2015-09-27T07:41:20Z</time>
      </trkpt>
      <trkpt lat="48.89626" lon="1.42549">
        <ele>116.9</ele>
        <time>2015-09-27T07:41:23Z</time>
      </trkpt>
      <trkpt lat="48.8963" lon="1.42535">
        <ele>117</ele>
        <time>2015-09-27T07:41:26Z</time>
      </trkpt>
      <trkpt lat="48.89634" lon="1.42521">
        <ele>117.3</ele>
        <time>2015-09-27T07:41:29Z</time>
      </trkpt>
      <trkpt lat="48.89639" lon="1.42508">
        <ele>117.6</ele>
        <time>2015-09-27T07:41:32Z</time>
      </trkpt>
      <trkpt lat="48.89644" lon="1.42495">
        <ele>118</ele>
        <time>2015-09-27T07:41:35Z</time>
      </trkpt>
      <trkpt lat="48.89649" lon="1.42481">
        <ele>118.5</ele>
        <time>2015-09-27T07:41:38Z</time>
      </trkpt>
      <trkpt lat="48.89655" lon="1.42468">
        <ele>119</ele>
        <time>2015-09-27T07:41:41Z</time>
      </trkpt>
      <trkpt lat="48.89661" lon="1.42454">
        <ele>119.4</ele>
        <time>2015-09-27T07:41:44Z</time>
      </trkpt>
      <trkpt lat="48.89667" lon="1.42439">
        <ele>119.8</ele>
        <time>2015-09-27T07:41:47Z</time>
      </trkpt>
      <trkpt lat="48.89674" lon="1.42425">
        <ele>120.2</ele>
        <time>2015-09-27T07:41:50Z</time>
      </trkpt>
      <trkpt lat="48.89681" lon="1.42411">
        <ele>120.6</ele>
        <time>2015-09-27T07:41:53Z</time>
      </trkpt>
      <trkpt lat="48.89689" lon="1.42396">
        <ele>120.9</ele>
        <time>2015-09-27T07:41:56Z</time>
      </trkpt>
      <trkpt lat="48.89697" lon="1.42381">
        <ele>121.2</ele>
        <time>2015-09-27T07:41:59Z</time>
      </trkpt>
      <trkpt lat="48.89704" lon="1.42365">
        <ele>121.4</ele>
        <time>2015-09-27T07:42:02Z</time>
      </trkpt>
      <trkpt lat="48.89709" lon="1.42353">
        <ele>121.5</ele>
        <time>2015-09-27T07:42:04Z</time>
      </trkpt>
      <trkpt lat="48.89714" lon="1.42341">
        <ele>121.6</ele>
        <time>2015-09-27T07:42:06Z</time>
      </trkpt>
      <trkpt lat="48.89719" lon="1.42329">
        <ele>121.8</ele>
        <time>2015-09-27T07:42:08Z</time>
      </trkpt>
      <trkpt lat="48.89723" lon="1.42316">
        <ele>121.9</ele>
        <time>2015-09-27T07:42:10Z</time>
      </trkpt>
      <trkpt lat="48.89728" lon="1.42303">
        <ele>122</ele>
        <time>2015-09-27T07:42:12Z</time>
      </trkpt>
      <trkpt lat="48.89733" lon="1.42289">
        <ele>122.1</ele>
        <time>2015-09-27T07:42:14Z</time>
      </trkpt>
      <trkpt lat="48.89738" lon="1.42276">
        <ele>122.2</ele>
        <time>2015-09-27T07:42:16Z</time>
      </trkpt>
      <trkpt lat="48.89743" lon="1.42262">
        <ele>122.3</ele>
        <time>2015-09-27T07:42:18Z</time>
      </trkpt>
      <trkpt lat="48.89748" lon="1.42248">
        <ele>122.4</ele>
        <time>2015-09-27T07:42:20Z</time>
      </trkpt>
      <trkpt lat="48.89752" lon="1.42235">
        <ele>122.5</ele>
        <time>2015-09-27T07:42:22Z</time>
      </trkpt>
      <trkpt lat="48.89757" lon="1.42222">
        <ele>122.5</ele>
        <time>2015-09-27T07:42:24Z</time>
      </trkpt>
      <trkpt lat="48.89762" lon="1.42209">
        <ele>122.6</ele>
        <time>2015-09-27T07:42:26Z</time>
      </trkpt>
      <trkpt lat="48.89767" lon="1.42195">
        <ele>122.6</ele>
        <time>2015-09-27T07:42:28Z</time>
      </trkpt>
      <trkpt lat="48.89772" lon="1.42182">
        <ele>122.7</ele>
        <time>2015-09-27T07:42:30Z</time>
      </trkpt>
      <trkpt lat="48.89778" lon="1.42169">
        <ele>122.7</ele>
        <time>2015-09-27T07:42:32Z</time>
      </trkpt>
      <trkpt lat="48.89783" lon="1.42156">
        <ele>122.7</ele>
        <time>2015-09-27T07:42:34Z</time>
      </trkpt>
      <trkpt lat="48.89788" lon="1.42143">
        <ele>122.8</ele>
        <time>2015-09-27T07:42:36Z</time>
      </trkpt>
      <trkpt lat="48.89793" lon="1.4213">
        <ele>122.8</ele>
        <time>2015-09-27T07:42:38Z</time>
      </trkpt>
      <trkpt lat="48.89798" lon="1.42117">
        <ele>122.8</ele>
        <time>2015-09-27T07:42:40Z</time>
      </trkpt>
      <trkpt lat="48.89803" lon="1.42104">
        <ele>122.9</ele>
        <time>2015-09-27T07:42:42Z</time>
      </trkpt>
      <trkpt lat="48.89808" lon="1.42091">
        <ele>122.9</ele>
        <time>2015-09-27T07:42:44Z</time>
      </trkpt>
      <trkpt lat="48.89812" lon="1.42078">
        <ele>122.9</ele>
        <time>2015-09-27T07:42:46Z</time>
      </trkpt>
      <trkpt lat="48.89818" lon="1.42066">
        <ele>122.9</ele>
        <time>2015-09-27T07:42:48Z</time>
      </trkpt>
      <trkpt lat="48.89822" lon="1.42055">
        <ele>123</ele>
        <time>2015-09-27T07:42:50Z</time>
      </trkpt>
      <trkpt lat="48.89832" lon="1.42049">
        <ele>123</ele>
        <time>2015-09-27T07:42:53Z</time>
      </trkpt>
      <trkpt lat="48.89843" lon="1.4206">
        <ele>123</ele>
        <time>2015-09-27T07:42:56Z</time>
      </trkpt>
      <trkpt lat="48.89851" lon="1.42068">
        <ele>123</ele>
        <time>2015-09-27T07:42:58Z</time>
      </trkpt>
      <trkpt lat="48.8986" lon="1.42076">
        <ele>123.1</ele>
        <time>2015-09-27T07:43:00Z</time>
      </trkpt>
      <trkpt lat="48.8987" lon="1.42085">
        <ele>123.1</ele>
        <time>2015-09-27T07:43:02Z</time>
      </trkpt>
      <trkpt lat="48.8988" lon="1.42094">
        <ele>123.1</ele>
        <time>2015-09-27T07:43:04Z</time>
      </trkpt>
      <trkpt lat="48.8989" lon="1.42104">
        <ele>123.1</ele>
        <time>2015-09-27T07:43:06Z</time>
      </trkpt>
      <trkpt lat="48.899" lon="1.42113">
        <ele>123.1</ele>
        <time>2015-09-27T07:43:08Z</time>
      </trkpt>
      <trkpt lat="48.89909" lon="1.42122">
        <ele>123.1</ele>
        <time>2015-09-27T07:43:10Z</time>
      </trkpt>
      <trkpt lat="48.89919" lon="1.42131">
        <ele>123.2</ele>
        <time>2015-09-27T07:43:12Z</time>
      </trkpt>
      <trkpt lat="48.89928" lon="1.4214">
        <ele>123.2</ele>
        <time>2015-09-27T07:43:14Z</time>
      </trkpt>
      <trkpt lat="48.89938" lon="1.42149">
        <ele>123.2</ele>
        <time>2015-09-27T07:43:16Z</time>
      </trkpt>
      <trkpt lat="48.89948" lon="1.42158">
        <ele>123.1</ele>
        <time>2015-09-27T07:43:18Z</time>
      </trkpt>
      <trkpt lat="48.89958" lon="1.42167">
        <ele>123.1</ele>
        <time>2015-09-27T07:43:20Z</time>
      </trkpt>
      <trkpt lat="48.89969" lon="1.42177">
        <ele>123</ele>
        <time>2015-09-27T07:43:22Z</time>
      </trkpt>
      <trkpt lat="48.89979" lon="1.42186">
        <ele>123</ele>
        <time>2015-09-27T07:43:24Z</time>
      </trkpt>
      <trkpt lat="48.89989" lon="1.42196">
        <ele>122.9</ele>
        <time>2015-09-27T07:43:26Z</time>
      </trkpt>
      <trkpt lat="48.89999" lon="1.42206">
        <ele>122.8</ele>
        <time>2015-09-27T07:43:28Z</time>
      </trkpt>
      <trkpt lat="48.90009" lon="1.42215">
        <ele>122.7</ele>
        <time>2015-09-27T07:43:30Z</time>
      </trkpt>
      <trkpt lat="48.90019" lon="1.42225">
        <ele>122.6</ele>
        <time>2015-09-27T07:43:32Z</time>
      </trkpt>
      <trkpt lat="48.90029" lon="1.42234">
        <ele>122.5</ele>
        <time>2015-09-27T07:43:34Z</time>
      </trkpt>
      <trkpt lat="48.90039" lon="1.42244">
        <ele>122.3</ele>
        <time>2015-09-27T07:43:36Z</time>
      </trkpt>
      <trkpt lat="48.90049" lon="1.42253">
        <ele>122.2</ele>
        <time>2015-09-27T07:43:38Z</time>
      </trkpt>
      <trkpt lat="48.90059" lon="1.42262">
        <ele>122</ele>
        <time>2015-09-27T07:43:40Z</time>
      </trkpt>
      <trkpt lat="48.9007" lon="1.42271">
        <ele>121.8</ele>
        <time>2015-09-27T07:43:42Z</time>
      </trkpt>
      <trkpt lat="48.9008" lon="1.4228">
        <ele>121.6</ele>
        <time>2015-09-27T07:43:44Z</time>
      </trkpt>
      <trkpt lat="48.90091" lon="1.42289">
        <ele>121.4</ele>
        <time>2015-09-27T07:43:46Z</time>
      </trkpt>
      <trkpt lat="48.90102" lon="1.42299">
        <ele>121.2</ele>
        <time>2015-09-27T07:43:48Z</time>
      </trkpt>
      <trkpt lat="48.90114" lon="1.42308">
        <ele>121</ele>
        <time>2015-09-27T07:43:50Z</time>
      </trkpt>
      <trkpt lat="48.90125" lon="1.42317">
        <ele>120.8</ele>
        <time>2015-09-27T07:43:52Z</time>
      </trkpt>
      <trkpt lat="48.90134" lon="1.42326">
        <ele>120.3</ele>
        <time>2015-09-27T07:43:55Z</time>
      </trkpt>
      <trkpt lat="48.90141" lon="1.42336">
        <ele>119.8</ele>
        <time>2015-09-27T07:43:58Z</time>
      </trkpt>
      <trkpt lat="48.90148" lon="1.42353">
        <ele>119.4</ele>
        <time>2015-09-27T07:44:02Z</time>
      </trkpt>
      <trkpt lat="48.90154" lon="1.42369">
        <ele>119.1</ele>
        <time>2015-09-27T07:44:05Z</time>
      </trkpt>
      <trkpt lat="48.90162" lon="1.42383">
        <ele>119</ele>
        <time>2015-09-27T07:44:08Z</time>
      </trkpt>
      <trkpt lat="48.90171" lon="1.42395">
        <ele>119</ele>
        <time>2015-09-27T07:44:11Z</time>
      </trkpt>
      <trkpt lat="48.90178" lon="1.42403">
        <ele>119.1</ele>
        <time>2015-09-27T07:44:14Z</time>
      </trkpt>
      <trkpt lat="48.90186" lon="1.42414">
        <ele>119.3</ele>
        <time>2015-09-27T07:44:17Z</time>
      </trkpt>
      <trkpt lat="48.90195" lon="1.42422">
        <ele>119.5</ele>
        <time>2015-09-27T07:44:19Z</time>
      </trkpt>
      <trkpt lat="48.90204" lon="1.42432">
        <ele>119.7</ele>
        <time>2015-09-27T07:44:22Z</time>
      </trkpt>
      <trkpt lat="48.90214" lon="1.42445">
        <ele>119.9</ele>
        <time>2015-09-27T07:44:25Z</time>
      </trkpt>
      <trkpt lat="48.90225" lon="1.42458">
        <ele>120.1</ele>
        <time>2015-09-27T07:44:28Z</time>
      </trkpt>
      <trkpt lat="48.90235" lon="1.42472">
        <ele>120.3</ele>
        <time>2015-09-27T07:44:31Z</time>
      </trkpt>
      <trkpt lat="48.90242" lon="1.42482">
        <ele>120.4</ele>
        <time>2015-09-27T07:44:33Z</time>
      </trkpt>
      <trkpt lat="48.90249" lon="1.42491">
        <ele>120.5</ele>
        <time>2015-09-27T07:44:35Z</time>
      </trkpt>
      <trkpt lat="48.90259" lon="1.42503">
        <ele>120.7</ele>
        <time>2015-09-27T07:44:37Z</time>
      </trkpt>
      <trkpt lat="48.90268" lon="1.42514">
        <ele>120.8</ele>
        <time>2015-09-27T07:44:39Z</time>
      </trkpt>
      <trkpt lat="48.90275" lon="1.42525">
        <ele>120.9</ele>
        <time>2015-09-27T07:44:41Z</time>
      </trkpt>
      <trkpt lat="48.90282" lon="1.42535">
        <ele>121</ele>
        <time>2015-09-27T07:44:43Z</time>
      </trkpt>
      <trkpt lat="48.90294" lon="1.42541">
        <ele>121.1</ele>
        <time>2015-09-27T07:44:46Z</time>
      </trkpt>
      <trkpt lat="48.90303" lon="1.42551">
        <ele>121.2</ele>
        <time>2015-09-27T07:44:48Z</time>
      </trkpt>
      <trkpt lat="48.90312" lon="1.42558">
        <ele>121.3</ele>
        <time>2015-09-27T07:44:50Z</time>
      </trkpt>
      <trkpt lat="48.90323" lon="1.42569">
        <ele>121.3</ele>
        <time>2015-09-27T07:44:52Z</time>
      </trkpt>
      <trkpt lat="48.90334" lon="1.42582">
        <ele>121.4</ele>
        <time>2015-09-27T07:44:54Z</time>
      </trkpt>
      <trkpt lat="48.90345" lon="1.42594">
        <ele>121.4</ele>
        <time>2015-09-27T07:44:56Z</time>
      </trkpt>
      <trkpt lat="48.90356" lon="1.42606">
        <ele>121.4</ele>
        <time>2015-09-27T07:44:58Z</time>
      </trkpt>
      <trkpt lat="48.90367" lon="1.42619">
        <ele>121.5</ele>
        <time>2015-09-27T07:45:00Z</time>
      </trkpt>
      <trkpt lat="48.90378" lon="1.42632">
        <ele>121.4</ele>
        <time>2015-09-27T07:45:02Z</time>
      </trkpt>
      <trkpt lat="48.90386" lon="1.42642">
        <ele>121.4</ele>
        <time>2015-09-27T07:45:04Z</time>
      </trkpt>
      <trkpt lat="48.90395" lon="1.42655">
        <ele>121.1</ele>
        <time>2015-09-27T07:45:06Z</time>
      </trkpt>
      <trkpt lat="48.90403" lon="1.4267">
        <ele>120.8</ele>
        <time>2015-09-27T07:45:08Z</time>
      </trkpt>
      <trkpt lat="48.90412" lon="1.42686">
        <ele>120.7</ele>
        <time>2015-09-27T07:45:10Z</time>
      </trkpt>
      <trkpt lat="48.90421" lon="1.42699">
        <ele>120.5</ele>
        <time>2015-09-27T07:45:12Z</time>
      </trkpt>
      <trkpt lat="48.90428" lon="1.42718">
        <ele>120.3</ele>
        <time>2015-09-27T07:45:14Z</time>
      </trkpt>
      <trkpt lat="48.90438" lon="1.42739">
        <ele>120.1</ele>
        <time>2015-09-27T07:45:16Z</time>
      </trkpt>
      <trkpt lat="48.90448" lon="1.42759">
        <ele>119.7</ele>
        <time>2015-09-27T07:45:18Z</time>
      </trkpt>
      <trkpt lat="48.90458" lon="1.4278">
        <ele>119.4</ele>
        <time>2015-09-27T07:45:20Z</time>
      </trkpt>
      <trkpt lat="48.90468" lon="1.42803">
        <ele>119</ele>
        <time>2015-09-27T07:45:22Z</time>
      </trkpt>
      <trkpt lat="48.90475" lon="1.42824">
        <ele>118.7</ele>
        <time>2015-09-27T07:45:24Z</time>
      </trkpt>
      <trkpt lat="48.90483" lon="1.42844">
        <ele>118.2</ele>
        <time>2015-09-27T07:45:26Z</time>
      </trkpt>
      <trkpt lat="48.9049" lon="1.42864">
        <ele>117.6</ele>
        <time>2015-09-27T07:45:28Z</time>
      </trkpt>
      <trkpt lat="48.90497" lon="1.42877">
        <ele>116.9</ele>
        <time>2015-09-27T07:45:30Z</time>
      </trkpt>
      <trkpt lat="48.90507" lon="1.42882">
        <ele>115.9</ele>
        <time>2015-09-27T07:45:33Z</time>
      </trkpt>
      <trkpt lat="48.90519" lon="1.42875">
        <ele>115.1</ele>
        <time>2015-09-27T07:45:36Z</time>
      </trkpt>
      <trkpt lat="48.90532" lon="1.42871">
        <ele>114.5</ele>
        <time>2015-09-27T07:45:39Z</time>
      </trkpt>
      <trkpt lat="48.90542" lon="1.42864">
        <ele>114</ele>
        <time>2015-09-27T07:45:42Z</time>
      </trkpt>
      <trkpt lat="48.90538" lon="1.42849">
        <ele>114</ele>
        <time>2015-09-27T07:45:46Z</time>
      </trkpt>
      <trkpt lat="48.90532" lon="1.42838">
        <ele>114.1</ele>
        <time>2015-09-27T07:45:49Z</time>
      </trkpt>
      <trkpt lat="48.90527" lon="1.42824">
        <ele>114.3</ele>
        <time>2015-09-27T07:45:52Z</time>
      </trkpt>
      <trkpt lat="48.90523" lon="1.4281">
        <ele>114.5</ele>
        <time>2015-09-27T07:45:55Z</time>
      </trkpt>
      <trkpt lat="48.90519" lon="1.42796">
        <ele>114.7</ele>
        <time>2015-09-27T07:45:58Z</time>
      </trkpt>
      <trkpt lat="48.90516" lon="1.42781">
        <ele>115</ele>
        <time>2015-09-27T07:46:01Z</time>
      </trkpt>
      <trkpt lat="48.90513" lon="1.42766">
        <ele>115.5</ele>
        <time>2015-09-27T07:46:04Z</time>
      </trkpt>
      <trkpt lat="48.9051" lon="1.42751">
        <ele>115.9</ele>
        <time>2015-09-27T07:46:07Z</time>
      </trkpt>
      <trkpt lat="48.90507" lon="1.42735">
        <ele>116.2</ele>
        <time>2015-09-27T07:46:10Z</time>
      </trkpt>
      <trkpt lat="48.90504" lon="1.42719">
        <ele>116.6</ele>
        <time>2015-09-27T07:46:13Z</time>
      </trkpt>
      <trkpt lat="48.90502" lon="1.42703">
        <ele>116.8</ele>
        <time>2015-09-27T07:46:16Z</time>
      </trkpt>
      <trkpt lat="48.90502" lon="1.42687">
        <ele>117.1</ele>
        <time>2015-09-27T07:46:19Z</time>
      </trkpt>
      <trkpt lat="48.90503" lon="1.42671">
        <ele>117.6</ele>
        <time>2015-09-27T07:46:22Z</time>
      </trkpt>
      <trkpt lat="48.90504" lon="1.42655">
        <ele>117.9</ele>
        <time>2015-09-27T07:46:25Z</time>
      </trkpt>
      <trkpt lat="48.90504" lon="1.42637">
        <ele>118.2</ele>
        <time>2015-09-27T07:46:28Z</time>
      </trkpt>
      <trkpt lat="48.90503" lon="1.42619">
        <ele>118.5</ele>
        <time>2015-09-27T07:46:31Z</time>
      </trkpt>
      <trkpt lat="48.90503" lon="1.42601">
        <ele>118.9</ele>
        <time>2015-09-27T07:46:34Z</time>
      </trkpt>
      <trkpt lat="48.90501" lon="1.42582">
        <ele>119.4</ele>
        <time>2015-09-27T07:46:37Z</time>
      </trkpt>
      <trkpt lat="48.905" lon="1.42562">
        <ele>119.7</ele>
        <time>2015-09-27T07:46:40Z</time>
      </trkpt>
      <trkpt lat="48.90497" lon="1.42541">
        <ele>120</ele>
        <time>2015-09-27T07:46:43Z</time>
      </trkpt>
      <trkpt lat="48.90495" lon="1.42521">
        <ele>120.3</ele>
        <time>2015-09-27T07:46:46Z</time>
      </trkpt>
      <trkpt lat="48.90493" lon="1.42507">
        <ele>120.5</ele>
        <time>2015-09-27T07:46:48Z</time>
      </trkpt>
      <trkpt lat="48.9049" lon="1.42494">
        <ele>120.7</ele>
        <time>2015-09-27T07:46:50Z</time>
      </trkpt>
      <trkpt lat="48.90487" lon="1.4248">
        <ele>120.9</ele>
        <time>2015-09-27T07:46:52Z</time>
      </trkpt>
      <trkpt lat="48.90485" lon="1.42467">
        <ele>121.1</ele>
        <time>2015-09-27T07:46:54Z</time>
      </trkpt>
      <trkpt lat="48.90482" lon="1.42454">
        <ele>121.3</ele>
        <time>2015-09-27T07:46:56Z</time>
      </trkpt>
      <trkpt lat="48.90479" lon="1.42441">
        <ele>121.5</ele>
        <time>2015-09-27T07:46:58Z</time>
      </trkpt>
      <trkpt lat="48.90477" lon="1.42427">
        <ele>121.7</ele>
        <time>2015-09-27T07:47:00Z</time>
      </trkpt>
      <trkpt lat="48.90474" lon="1.42414">
        <ele>121.8</ele>
        <time>2015-09-27T07:47:02Z</time>
      </trkpt>
      <trkpt lat="48.90471" lon="1.424">
        <ele>122</ele>
        <time>2015-09-27T07:47:04Z</time>
      </trkpt>
      <trkpt lat="48.90468" lon="1.42387">
        <ele>122.2</ele>
        <time>2015-09-27T07:47:06Z</time>
      </trkpt>
      <trkpt lat="48.90465" lon="1.42374">
        <ele>122.4</ele>
        <time>2015-09-27T07:47:08Z</time>
      </trkpt>
      <trkpt lat="48.90462" lon="1.4236">
        <ele>122.6</ele>
        <time>2015-09-27T07:47:10Z</time>
      </trkpt>
      <trkpt lat="48.9046" lon="1.42346">
        <ele>122.8</ele>
        <time>2015-09-27T07:47:12Z</time>
      </trkpt>
      <trkpt lat="48.90457" lon="1.42331">
        <ele>122.9</ele>
        <time>2015-09-27T07:47:14Z</time>
      </trkpt>
      <trkpt lat="48.90454" lon="1.42317">
        <ele>123</ele>
        <time>2015-09-27T07:47:16Z</time>
      </trkpt>
      <trkpt lat="48.9045" lon="1.42302">
        <ele>123.1</ele>
        <time>2015-09-27T07:47:18Z</time>
      </trkpt>
      <trkpt lat="48.90447" lon="1.42287">
        <ele>123.3</ele>
        <time>2015-09-27T07:47:20Z</time>
      </trkpt>
      <trkpt lat="48.90445" lon="1.42271">
        <ele>123.4</ele>
        <time>2015-09-27T07:47:22Z</time>
      </trkpt>
      <trkpt lat="48.90441" lon="1.42255">
        <ele>123.6</ele>
        <time>2015-09-27T07:47:24Z</time>
      </trkpt>
      <trkpt lat="48.90438" lon="1.4224">
        <ele>123.7</ele>
        <time>2015-09-27T07:47:26Z</time>
      </trkpt>
      <trkpt lat="48.90436" lon="1.42224">
        <ele>123.9</ele>
        <time>2015-09-27T07:47:28Z</time>
      </trkpt>
      <trkpt lat="48.90433" lon="1.42208">
        <ele>124</ele>
        <time>2015-09-27T07:47:30Z</time>
      </trkpt>
      <trkpt lat="48.90431" lon="1.42192">
        <ele>124.1</ele>
        <time>2015-09-27T07:47:32Z</time>
      </trkpt>
      <trkpt lat="48.90429" lon="1.42177">
        <ele>124.2</ele>
        <time>2015-09-27T07:47:34Z</time>
      </trkpt>
      <trkpt lat="48.90427" lon="1.42162">
        <ele>124.3</ele>
        <time>2015-09-27T07:47:36Z</time>
      </trkpt>
      <trkpt lat="48.90424" lon="1.42147">
        <ele>124.4</ele>
        <time>2015-09-27T07:47:38Z</time>
      </trkpt>
      <trkpt lat="48.90422" lon="1.42131">
        <ele>124.4</ele>
        <time>2015-09-27T07:47:40Z</time>
      </trkpt>
      <trkpt lat="48.9042" lon="1.42116">
        <ele>124.5</ele>
        <time>2015-09-27T07:47:42Z</time>
      </trkpt>
      <trkpt lat="48.90417" lon="1.421">
        <ele>124.6</ele>
        <time>2015-09-27T07:47:44Z</time>
      </trkpt>
      <trkpt lat="48.90415" lon="1.42085">
        <ele>124.6</ele>
        <time>2015-09-27T07:47:46Z</time>
      </trkpt>
      <trkpt lat="48.90412" lon="1.42069">
        <ele>124.6</ele>
        <time>2015-09-27T07:47:48Z</time>
      </trkpt>
      <trkpt lat="48.9041" lon="1.42054">
        <ele>124.7</ele>
        <time>2015-09-27T07:47:50Z</time>
      </trkpt>
      <trkpt lat="48.90408" lon="1.42039">
        <ele>124.7</ele>
        <time>2015-09-27T07:47:52Z</time>
      </trkpt>
      <trkpt lat="48.90406" lon="1.42024">
        <ele>124.7</ele>
        <time>2015-09-27T07:47:54Z</time>
      </trkpt>
      <trkpt lat="48.90404" lon="1.42008">
        <ele>124.8</ele>
        <time>2015-09-27T07:47:56Z</time>
      </trkpt>
      <trkpt lat="48.90401" lon="1.41993">
        <ele>124.8</ele>
        <time>2015-09-27T07:47:58Z</time>
      </trkpt>
      <trkpt lat="48.90399" lon="1.41977">
        <ele>124.8</ele>
        <time>2015-09-27T07:48:00Z</time>
      </trkpt>
      <trkpt lat="48.90397" lon="1.41962">
        <ele>124.8</ele>
        <time>2015-09-27T07:48:02Z</time>
      </trkpt>
      <trkpt lat="48.90394" lon="1.41946">
        <ele>124.8</ele>
        <time>2015-09-27T07:48:04Z</time>
      </trkpt>
      <trkpt lat="48.90392" lon="1.4193">
        <ele>124.7</ele>
        <time>2015-09-27T07:48:06Z</time>
      </trkpt>
      <trkpt lat="48.90389" lon="1.41914">
        <ele>124.7</ele>
        <time>2015-09-27T07:48:08Z</time>
      </trkpt>
      <trkpt lat="48.90386" lon="1.41898">
        <ele>124.7</ele>
        <time>2015-09-27T07:48:10Z</time>
      </trkpt>
      <trkpt lat="48.90383" lon="1.41881">
        <ele>124.7</ele>
        <time>2015-09-27T07:48:12Z</time>
      </trkpt>
      <trkpt lat="48.9038" lon="1.41865">
        <ele>124.7</ele>
        <time>2015-09-27T07:48:14Z</time>
      </trkpt>
      <trkpt lat="48.90377" lon="1.41849">
        <ele>124.7</ele>
        <time>2015-09-27T07:48:16Z</time>
      </trkpt>
      <trkpt lat="48.90374" lon="1.41833">
        <ele>124.7</ele>
        <time>2015-09-27T07:48:18Z</time>
      </trkpt>
      <trkpt lat="48.9037" lon="1.41817">
        <ele>124.8</ele>
        <time>2015-09-27T07:48:20Z</time>
      </trkpt>
      <trkpt lat="48.90366" lon="1.41801">
        <ele>124.8</ele>
        <time>2015-09-27T07:48:22Z</time>
      </trkpt>
      <trkpt lat="48.90361" lon="1.41786">
        <ele>124.8</ele>
        <time>2015-09-27T07:48:24Z</time>
      </trkpt>
      <trkpt lat="48.90357" lon="1.4177">
        <ele>124.8</ele>
        <time>2015-09-27T07:48:26Z</time>
      </trkpt>
      <trkpt lat="48.90352" lon="1.41754">
        <ele>124.8</ele>
        <time>2015-09-27T07:48:28Z</time>
      </trkpt>
      <trkpt lat="48.90347" lon="1.41738">
        <ele>124.8</ele>
        <time>2015-09-27T07:48:30Z</time>
      </trkpt>
      <trkpt lat="48.90342" lon="1.41722">
        <ele>124.8</ele>
        <time>2015-09-27T07:48:32Z</time>
      </trkpt>
      <trkpt lat="48.90337" lon="1.41706">
        <ele>124.8</ele>
        <time>2015-09-27T07:48:34Z</time>
      </trkpt>
      <trkpt lat="48.90332" lon="1.41689">
        <ele>124.8</ele>
        <time>2015-09-27T07:48:36Z</time>
      </trkpt>
      <trkpt lat="48.90326" lon="1.41672">
        <ele>124.8</ele>
        <time>2015-09-27T07:48:38Z</time>
      </trkpt>
      <trkpt lat="48.90322" lon="1.41656">
        <ele>124.8</ele>
        <time>2015-09-27T07:48:40Z</time>
      </trkpt>
      <trkpt lat="48.90316" lon="1.4164">
        <ele>124.8</ele>
        <time>2015-09-27T07:48:42Z</time>
      </trkpt>
      <trkpt lat="48.9031" lon="1.41624">
        <ele>124.8</ele>
        <time>2015-09-27T07:48:44Z</time>
      </trkpt>
      <trkpt lat="48.90305" lon="1.41608">
        <ele>124.8</ele>
        <time>2015-09-27T07:48:46Z</time>
      </trkpt>
      <trkpt lat="48.90299" lon="1.41592">
        <ele>124.8</ele>
        <time>2015-09-27T07:48:48Z</time>
      </trkpt>
      <trkpt lat="48.90293" lon="1.41577">
        <ele>124.8</ele>
        <time>2015-09-27T07:48:50Z</time>
      </trkpt>
      <trkpt lat="48.90286" lon="1.41562">
        <ele>124.8</ele>
        <time>2015-09-27T07:48:52Z</time>
      </trkpt>
      <trkpt lat="48.90281" lon="1.41549">
        <ele>124.8</ele>
        <time>2015-09-27T07:48:54Z</time>
      </trkpt>
      <trkpt lat="48.90287" lon="1.41535">
        <ele>124.8</ele>
        <time>2015-09-27T07:48:57Z</time>
      </trkpt>
      <trkpt lat="48.90296" lon="1.41529">
        <ele>124.8</ele>
        <time>2015-09-27T07:48:59Z</time>
      </trkpt>
      <trkpt lat="48.90306" lon="1.41523">
        <ele>124.8</ele>
        <time>2015-09-27T07:49:01Z</time>
      </trkpt>
      <trkpt lat="48.90316" lon="1.41516">
        <ele>124.8</ele>
        <time>2015-09-27T07:49:03Z</time>
      </trkpt>
      <trkpt lat="48.90326" lon="1.41509">
        <ele>124.8</ele>
        <time>2015-09-27T07:49:05Z</time>
      </trkpt>
      <trkpt lat="48.90336" lon="1.41502">
        <ele>124.8</ele>
        <time>2015-09-27T07:49:07Z</time>
      </trkpt>
      <trkpt lat="48.90347" lon="1.41495">
        <ele>124.8</ele>
        <time>2015-09-27T07:49:09Z</time>
      </trkpt>
      <trkpt lat="48.90357" lon="1.41488">
        <ele>124.7</ele>
        <time>2015-09-27T07:49:11Z</time>
      </trkpt>
      <trkpt lat="48.90368" lon="1.41481">
        <ele>124.7</ele>
        <time>2015-09-27T07:49:13Z</time>
      </trkpt>
      <trkpt lat="48.90379" lon="1.41474">
        <ele>124.7</ele>
        <time>2015-09-27T07:49:15Z</time>
      </trkpt>
      <trkpt lat="48.90389" lon="1.41468">
        <ele>124.7</ele>
        <time>2015-09-27T07:49:17Z</time>
      </trkpt>
      <trkpt lat="48.904" lon="1.41463">
        <ele>124.6</ele>
        <time>2015-09-27T07:49:19Z</time>
      </trkpt>
      <trkpt lat="48.90411" lon="1.41459">
        <ele>124.5</ele>
        <time>2015-09-27T07:49:21Z</time>
      </trkpt>
      <trkpt lat="48.90421" lon="1.41456">
        <ele>124.5</ele>
        <time>2015-09-27T07:49:23Z</time>
      </trkpt>
      <trkpt lat="48.90433" lon="1.41455">
        <ele>124.4</ele>
        <time>2015-09-27T07:49:25Z</time>
      </trkpt>
      <trkpt lat="48.90444" lon="1.41454">
        <ele>124.2</ele>
        <time>2015-09-27T07:49:27Z</time>
      </trkpt>
      <trkpt lat="48.90456" lon="1.41454">
        <ele>124.1</ele>
        <time>2015-09-27T07:49:29Z</time>
      </trkpt>
      <trkpt lat="48.90468" lon="1.41456">
        <ele>124</ele>
        <time>2015-09-27T07:49:31Z</time>
      </trkpt>
      <trkpt lat="48.9048" lon="1.41457">
        <ele>123.9</ele>
        <time>2015-09-27T07:49:33Z</time>
      </trkpt>
      <trkpt lat="48.90492" lon="1.41459">
        <ele>123.8</ele>
        <time>2015-09-27T07:49:35Z</time>
      </trkpt>
      <trkpt lat="48.90504" lon="1.41461">
        <ele>123.7</ele>
        <time>2015-09-27T07:49:37Z</time>
      </trkpt>
      <trkpt lat="48.90516" lon="1.41464">
        <ele>123.7</ele>
        <time>2015-09-27T07:49:39Z</time>
      </trkpt>
      <trkpt lat="48.90528" lon="1.41467">
        <ele>123.6</ele>
        <time>2015-09-27T07:49:41Z</time>
      </trkpt>
      <trkpt lat="48.90541" lon="1.4147">
        <ele>123.5</ele>
        <time>2015-09-27T07:49:43Z</time>
      </trkpt>
      <trkpt lat="48.90553" lon="1.41473">
        <ele>123.4</ele>
        <time>2015-09-27T07:49:45Z</time>
      </trkpt>
      <trkpt lat="48.90564" lon="1.41475">
        <ele>123.3</ele>
        <time>2015-09-27T07:49:47Z</time>
      </trkpt>
      <trkpt lat="48.90577" lon="1.41477">
        <ele>123.1</ele>
        <time>2015-09-27T07:49:49Z</time>
      </trkpt>
      <trkpt lat="48.90589" lon="1.41477">
        <ele>122.9</ele>
        <time>2015-09-27T07:49:51Z</time>
      </trkpt>
      <trkpt lat="48.90602" lon="1.41475">
        <ele>122.8</ele>
        <time>2015-09-27T07:49:53Z</time>
      </trkpt>
      <trkpt lat="48.90614" lon="1.41473">
        <ele>122.6</ele>
        <time>2015-09-27T07:49:55Z</time>
      </trkpt>
      <trkpt lat="48.90627" lon="1.41471">
        <ele>122.5</ele>
        <time>2015-09-27T07:49:57Z</time>
      </trkpt>
      <trkpt lat="48.90639" lon="1.41468">
        <ele>122.3</ele>
        <time>2015-09-27T07:49:59Z</time>
      </trkpt>
      <trkpt lat="48.90652" lon="1.41466">
        <ele>122.1</ele>
        <time>2015-09-27T07:50:01Z</time>
      </trkpt>
      <trkpt lat="48.90665" lon="1.41462">
        <ele>122</ele>
        <time>2015-09-27T07:50:03Z</time>
      </trkpt>
      <trkpt lat="48.90677" lon="1.41456">
        <ele>121.7</ele>
        <time>2015-09-27T07:50:05Z</time>
      </trkpt>
      <trkpt lat="48.90689" lon="1.41447">
        <ele>121.5</ele>
        <time>2015-09-27T07:50:07Z</time>
      </trkpt>
      <trkpt lat="48.90699" lon="1.41433">
        <ele>121.2</ele>
        <time>2015-09-27T07:50:09Z</time>
      </trkpt>
      <trkpt lat="48.90708" lon="1.41417">
        <ele>121</ele>
        <time>2015-09-27T07:50:11Z</time>
      </trkpt>
      <trkpt lat="48.90717" lon="1.41402">
        <ele>120.7</ele>
        <time>2015-09-27T07:50:13Z</time>
      </trkpt>
      <trkpt lat="48.90726" lon="1.41387">
        <ele>120.4</ele>
        <time>2015-09-27T07:50:15Z</time>
      </trkpt>
      <trkpt lat="48.90736" lon="1.41372">
        <ele>120</ele>
        <time>2015-09-27T07:50:17Z</time>
      </trkpt>
      <trkpt lat="48.90744" lon="1.41358">
        <ele>119.8</ele>
        <time>2015-09-27T07:50:19Z</time>
      </trkpt>
      <trkpt lat="48.90754" lon="1.41345">
        <ele>119.5</ele>
        <time>2015-09-27T07:50:21Z</time>
      </trkpt>
      <trkpt lat="48.90762" lon="1.41332">
        <ele>119.3</ele>
        <time>2015-09-27T07:50:23Z</time>
      </trkpt>
      <trkpt lat="48.90771" lon="1.41319">
        <ele>119.1</ele>
        <time>2015-09-27T07:50:25Z</time>
      </trkpt>
      <trkpt lat="48.9078" lon="1.41307">
        <ele>118.9</ele>
        <time>2015-09-27T07:50:27Z</time>
      </trkpt>
      <trkpt lat="48.9079" lon="1.41294">
        <ele>118.7</ele>
        <time>2015-09-27T07:50:29Z</time>
      </trkpt>
      <trkpt lat="48.90799" lon="1.41282">
        <ele>118.6</ele>
        <time>2015-09-27T07:50:31Z</time>
      </trkpt>
      <trkpt lat="48.90809" lon="1.4127">
        <ele>118.4</ele>
        <time>2015-09-27T07:50:33Z</time>
      </trkpt>
      <trkpt lat="48.90818" lon="1.41259">
        <ele>118.3</ele>
        <time>2015-09-27T07:50:35Z</time>
      </trkpt>
      <trkpt lat="48.90827" lon="1.41249">
        <ele>118.2</ele>
        <time>2015-09-27T07:50:37Z</time>
      </trkpt>
      <trkpt lat="48.90837" lon="1.4124">
        <ele>118.1</ele>
        <time>2015-09-27T07:50:39Z</time>
      </trkpt>
      <trkpt lat="48.90847" lon="1.41231">
        <ele>118.1</ele>
        <time>2015-09-27T07:50:41Z</time>
      </trkpt>
      <trkpt lat="48.90857" lon="1.41223">
        <ele>117.9</ele>
        <time>2015-09-27T07:50:43Z</time>
      </trkpt>
      <trkpt lat="48.90867" lon="1.41214">
        <ele>117.7</ele>
        <time>2015-09-27T07:50:45Z</time>
      </trkpt>
      <trkpt lat="48.90877" lon="1.41206">
        <ele>117.6</ele>
        <time>2015-09-27T07:50:47Z</time>
      </trkpt>
      <trkpt lat="48.90887" lon="1.41198">
        <ele>117.5</ele>
        <time>2015-09-27T07:50:49Z</time>
      </trkpt>
      <trkpt lat="48.90898" lon="1.41202">
        <ele>117.2</ele>
        <time>2015-09-27T07:50:52Z</time>
      </trkpt>
      <trkpt lat="48.90901" lon="1.41222">
        <ele>116.8</ele>
        <time>2015-09-27T07:50:55Z</time>
      </trkpt>
      <trkpt lat="48.90901" lon="1.41238">
        <ele>116.6</ele>
        <time>2015-09-27T07:50:57Z</time>
      </trkpt>
      <trkpt lat="48.90902" lon="1.41254">
        <ele>116.4</ele>
        <time>2015-09-27T07:50:59Z</time>
      </trkpt>
      <trkpt lat="48.90904" lon="1.41271">
        <ele>116.1</ele>
        <time>2015-09-27T07:51:01Z</time>
      </trkpt>
      <trkpt lat="48.90906" lon="1.41288">
        <ele>116</ele>
        <time>2015-09-27T07:51:03Z</time>
      </trkpt>
      <trkpt lat="48.90908" lon="1.41305">
        <ele>115.8</ele>
        <time>2015-09-27T07:51:05Z</time>
      </trkpt>
      <trkpt lat="48.9091" lon="1.4132">
        <ele>115.6</ele>
        <time>2015-09-27T07:51:07Z</time>
      </trkpt>
      <trkpt lat="48.90919" lon="1.41327">
        <ele>115.4</ele>
        <time>2015-09-27T07:51:10Z</time>
      </trkpt>
      <trkpt lat="48.90931" lon="1.41317">
        <ele>115.2</ele>
        <time>2015-09-27T07:51:13Z</time>
      </trkpt>
      <trkpt lat="48.90942" lon="1.41305">
        <ele>115</ele>
        <time>2015-09-27T07:51:16Z</time>
      </trkpt>
      <trkpt lat="48.90951" lon="1.41299">
        <ele>114.8</ele>
        <time>2015-09-27T07:51:18Z</time>
      </trkpt>
      <trkpt lat="48.90961" lon="1.41293">
        <ele>114.7</ele>
        <time>2015-09-27T07:51:20Z</time>
      </trkpt>
      <trkpt lat="48.90972" lon="1.41287">
        <ele>114.5</ele>
        <time>2015-09-27T07:51:22Z</time>
      </trkpt>
      <trkpt lat="48.90983" lon="1.41281">
        <ele>114.4</ele>
        <time>2015-09-27T07:51:24Z</time>
      </trkpt>
      <trkpt lat="48.90995" lon="1.41276">
        <ele>114.1</ele>
        <time>2015-09-27T07:51:26Z</time>
      </trkpt>
      <trkpt lat="48.91008" lon="1.41271">
        <ele>113.8</ele>
        <time>2015-09-27T07:51:28Z</time>
      </trkpt>
      <trkpt lat="48.91021" lon="1.41267">
        <ele>113.5</ele>
        <time>2015-09-27T07:51:30Z</time>
      </trkpt>
      <trkpt lat="48.91035" lon="1.41263">
        <ele>113.1</ele>
        <time>2015-09-27T07:51:32Z</time>
      </trkpt>
      <trkpt lat="48.91048" lon="1.41261">
        <ele>112.6</ele>
        <time>2015-09-27T07:51:34Z</time>
      </trkpt>
      <trkpt lat="48.91063" lon="1.41259">
        <ele>112.1</ele>
        <time>2015-09-27T07:51:36Z</time>
      </trkpt>
      <trkpt lat="48.91077" lon="1.41257">
        <ele>111.6</ele>
        <time>2015-09-27T07:51:38Z</time>
      </trkpt>
      <trkpt lat="48.91092" lon="1.41255">
        <ele>111</ele>
        <time>2015-09-27T07:51:40Z</time>
      </trkpt>
      <trkpt lat="48.91106" lon="1.41254">
        <ele>110.5</ele>
        <time>2015-09-27T07:51:42Z</time>
      </trkpt>
      <trkpt lat="48.9112" lon="1.41254">
        <ele>109.8</ele>
        <time>2015-09-27T07:51:44Z</time>
      </trkpt>
      <trkpt lat="48.91133" lon="1.41253">
        <ele>109.2</ele>
        <time>2015-09-27T07:51:46Z</time>
      </trkpt>
      <trkpt lat="48.91145" lon="1.41248">
        <ele>108.7</ele>
        <time>2015-09-27T07:51:48Z</time>
      </trkpt>
      <trkpt lat="48.91155" lon="1.4124">
        <ele>108.2</ele>
        <time>2015-09-27T07:51:50Z</time>
      </trkpt>
      <trkpt lat="48.91165" lon="1.41233">
        <ele>107.7</ele>
        <time>2015-09-27T07:51:52Z</time>
      </trkpt>
      <trkpt lat="48.91174" lon="1.41226">
        <ele>107.3</ele>
        <time>2015-09-27T07:51:54Z</time>
      </trkpt>
      <trkpt lat="48.91186" lon="1.41217">
        <ele>106.7</ele>
        <time>2015-09-27T07:51:57Z</time>
      </trkpt>
      <trkpt lat="48.91195" lon="1.41211">
        <ele>106.3</ele>
        <time>2015-09-27T07:52:00Z</time>
      </trkpt>
      <trkpt lat="48.91204" lon="1.41204">
        <ele>106</ele>
        <time>2015-09-27T07:52:04Z</time>
      </trkpt>
      <trkpt lat="48.91213" lon="1.41199">
        <ele>106</ele>
        <time>2015-09-27T07:52:08Z</time>
      </trkpt>
      <trkpt lat="48.91223" lon="1.41191">
        <ele>106.7</ele>
        <time>2015-09-27T07:52:13Z</time>
      </trkpt>
      <trkpt lat="48.91232" lon="1.41185">
        <ele>107.7</ele>
        <time>2015-09-27T07:52:18Z</time>
      </trkpt>
      <trkpt lat="48.91241" lon="1.41177">
        <ele>108.7</ele>
        <time>2015-09-27T07:52:23Z</time>
      </trkpt>
      <trkpt lat="48.91249" lon="1.41172">
        <ele>109.9</ele>
        <time>2015-09-27T07:52:28Z</time>
      </trkpt>
      <trkpt lat="48.91259" lon="1.41172">
        <ele>110.9</ele>
        <time>2015-09-27T07:52:32Z</time>
      </trkpt>
      <trkpt lat="48.91268" lon="1.41177">
        <ele>111.8</ele>
        <time>2015-09-27T07:52:36Z</time>
      </trkpt>
      <trkpt lat="48.91276" lon="1.41182">
        <ele>112.7</ele>
        <time>2015-09-27T07:52:41Z</time>
      </trkpt>
      <trkpt lat="48.91287" lon="1.41183">
        <ele>113.2</ele>
        <time>2015-09-27T07:52:44Z</time>
      </trkpt>
      <trkpt lat="48.91298" lon="1.41175">
        <ele>113.6</ele>
        <time>2015-09-27T07:52:47Z</time>
      </trkpt>
      <trkpt lat="48.91309" lon="1.41167">
        <ele>114.4</ele>
        <time>2015-09-27T07:52:51Z</time>
      </trkpt>
      <trkpt lat="48.91319" lon="1.41157">
        <ele>115.1</ele>
        <time>2015-09-27T07:52:55Z</time>
      </trkpt>
      <trkpt lat="48.91327" lon="1.4115">
        <ele>115.7</ele>
        <time>2015-09-27T07:52:58Z</time>
      </trkpt>
      <trkpt lat="48.91335" lon="1.41141">
        <ele>116.2</ele>
        <time>2015-09-27T07:53:01Z</time>
      </trkpt>
      <trkpt lat="48.91344" lon="1.41133">
        <ele>116.7</ele>
        <time>2015-09-27T07:53:04Z</time>
      </trkpt>
      <trkpt lat="48.91353" lon="1.41124">
        <ele>117.1</ele>
        <time>2015-09-27T07:53:07Z</time>
      </trkpt>
      <trkpt lat="48.9136" lon="1.41113">
        <ele>117.6</ele>
        <time>2015-09-27T07:53:10Z</time>
      </trkpt>
      <trkpt lat="48.9136" lon="1.41096">
        <ele>118.1</ele>
        <time>2015-09-27T07:53:13Z</time>
      </trkpt>
      <trkpt lat="48.91358" lon="1.41079">
        <ele>118.6</ele>
        <time>2015-09-27T07:53:16Z</time>
      </trkpt>
      <trkpt lat="48.91357" lon="1.4106">
        <ele>119</ele>
        <time>2015-09-27T07:53:19Z</time>
      </trkpt>
      <trkpt lat="48.91355" lon="1.41041">
        <ele>119.4</ele>
        <time>2015-09-27T07:53:22Z</time>
      </trkpt>
      <trkpt lat="48.91354" lon="1.41027">
        <ele>119.7</ele>
        <time>2015-09-27T07:53:24Z</time>
      </trkpt>
      <trkpt lat="48.91351" lon="1.41014">
        <ele>119.9</ele>
        <time>2015-09-27T07:53:26Z</time>
      </trkpt>
      <trkpt lat="48.91346" lon="1.41001">
        <ele>120.2</ele>
        <time>2015-09-27T07:53:28Z</time>
      </trkpt>
      <trkpt lat="48.91341" lon="1.40988">
        <ele>120.4</ele>
        <time>2015-09-27T07:53:30Z</time>
      </trkpt>
      <trkpt lat="48.91336" lon="1.40975">
        <ele>120.5</ele>
        <time>2015-09-27T07:53:32Z</time>
      </trkpt>
      <trkpt lat="48.9133" lon="1.40961">
        <ele>120.7</ele>
        <time>2015-09-27T07:53:34Z</time>
      </trkpt>
      <trkpt lat="48.91324" lon="1.40948">
        <ele>120.8</ele>
        <time>2015-09-27T07:53:36Z</time>
      </trkpt>
      <trkpt lat="48.91318" lon="1.40934">
        <ele>120.9</ele>
        <time>2015-09-27T07:53:38Z</time>
      </trkpt>
      <trkpt lat="48.91311" lon="1.4092">
        <ele>121</ele>
        <time>2015-09-27T07:53:40Z</time>
      </trkpt>
      <trkpt lat="48.91304" lon="1.40905">
        <ele>121.1</ele>
        <time>2015-09-27T07:53:42Z</time>
      </trkpt>
      <trkpt lat="48.91297" lon="1.4089">
        <ele>121.2</ele>
        <time>2015-09-27T07:53:44Z</time>
      </trkpt>
      <trkpt lat="48.91292" lon="1.40874">
        <ele>121.3</ele>
        <time>2015-09-27T07:53:46Z</time>
      </trkpt>
      <trkpt lat="48.91289" lon="1.40856">
        <ele>121.3</ele>
        <time>2015-09-27T07:53:48Z</time>
      </trkpt>
      <trkpt lat="48.91289" lon="1.40839">
        <ele>121.4</ele>
        <time>2015-09-27T07:53:50Z</time>
      </trkpt>
      <trkpt lat="48.91292" lon="1.40822">
        <ele>121.4</ele>
        <time>2015-09-27T07:53:52Z</time>
      </trkpt>
      <trkpt lat="48.91296" lon="1.40808">
        <ele>121.5</ele>
        <time>2015-09-27T07:53:54Z</time>
      </trkpt>
      <trkpt lat="48.91302" lon="1.40796">
        <ele>121.5</ele>
        <time>2015-09-27T07:53:56Z</time>
      </trkpt>
      <trkpt lat="48.91308" lon="1.40785">
        <ele>121.7</ele>
        <time>2015-09-27T07:53:58Z</time>
      </trkpt>
      <trkpt lat="48.91314" lon="1.40774">
        <ele>121.8</ele>
        <time>2015-09-27T07:54:00Z</time>
      </trkpt>
      <trkpt lat="48.91319" lon="1.40762">
        <ele>122</ele>
        <time>2015-09-27T07:54:02Z</time>
      </trkpt>
      <trkpt lat="48.91324" lon="1.40748">
        <ele>122.1</ele>
        <time>2015-09-27T07:54:04Z</time>
      </trkpt>
      <trkpt lat="48.91329" lon="1.40735">
        <ele>122.3</ele>
        <time>2015-09-27T07:54:06Z</time>
      </trkpt>
      <trkpt lat="48.91333" lon="1.40722">
        <ele>122.5</ele>
        <time>2015-09-27T07:54:08Z</time>
      </trkpt>
      <trkpt lat="48.91337" lon="1.40709">
        <ele>122.6</ele>
        <time>2015-09-27T07:54:10Z</time>
      </trkpt>
      <trkpt lat="48.91342" lon="1.40691">
        <ele>122.9</ele>
        <time>2015-09-27T07:54:13Z</time>
      </trkpt>
      <trkpt lat="48.91347" lon="1.40676">
        <ele>123.2</ele>
        <time>2015-09-27T07:54:16Z</time>
      </trkpt>
      <trkpt lat="48.91357" lon="1.40671">
        <ele>123.5</ele>
        <time>2015-09-27T07:54:19Z</time>
      </trkpt>
      <trkpt lat="48.9137" lon="1.40668">
        <ele>123.8</ele>
        <time>2015-09-27T07:54:22Z</time>
      </trkpt>
      <trkpt lat="48.91379" lon="1.40665">
        <ele>124</ele>
        <time>2015-09-27T07:54:24Z</time>
      </trkpt>
      <trkpt lat="48.91388" lon="1.40662">
        <ele>124.3</ele>
        <time>2015-09-27T07:54:26Z</time>
      </trkpt>
      <trkpt lat="48.91397" lon="1.40659">
        <ele>124.5</ele>
        <time>2015-09-27T07:54:28Z</time>
      </trkpt>
      <trkpt lat="48.91407" lon="1.40656">
        <ele>124.7</ele>
        <time>2015-09-27T07:54:30Z</time>
      </trkpt>
      <trkpt lat="48.91418" lon="1.40653">
        <ele>124.9</ele>
        <time>2015-09-27T07:54:32Z</time>
      </trkpt>
      <trkpt lat="48.91428" lon="1.40649">
        <ele>125.1</ele>
        <time>2015-09-27T07:54:34Z</time>
      </trkpt>
      <trkpt lat="48.91439" lon="1.40645">
        <ele>125.3</ele>
        <time>2015-09-27T07:54:36Z</time>
      </trkpt>
      <trkpt lat="48.9145" lon="1.40641">
        <ele>125.5</ele>
        <time>2015-09-27T07:54:38Z</time>
      </trkpt>
      <trkpt lat="48.91462" lon="1.40637">
        <ele>125.8</ele>
        <time>2015-09-27T07:54:40Z</time>
      </trkpt>
      <trkpt lat="48.91473" lon="1.40632">
        <ele>126.1</ele>
        <time>2015-09-27T07:54:42Z</time>
      </trkpt>
      <trkpt lat="48.91484" lon="1.40628">
        <ele>126.3</ele>
        <time>2015-09-27T07:54:44Z</time>
      </trkpt>
      <trkpt lat="48.91495" lon="1.40622">
        <ele>126.5</ele>
        <time>2015-09-27T07:54:46Z</time>
      </trkpt>
      <trkpt lat="48.91506" lon="1.40616">
        <ele>126.7</ele>
        <time>2015-09-27T07:54:48Z</time>
      </trkpt>
      <trkpt lat="48.91518" lon="1.40609">
        <ele>126.8</ele>
        <time>2015-09-27T07:54:50Z</time>
      </trkpt>
      <trkpt lat="48.91529" lon="1.40602">
        <ele>127</ele>
        <time>2015-09-27T07:54:52Z</time>
      </trkpt>
      <trkpt lat="48.91541" lon="1.40593">
        <ele>127.1</ele>
        <time>2015-09-27T07:54:54Z</time>
      </trkpt>
      <trkpt lat="48.91553" lon="1.40585">
        <ele>127.3</ele>
        <time>2015-09-27T07:54:56Z</time>
      </trkpt>
      <trkpt lat="48.91564" lon="1.40577">
        <ele>127.5</ele>
        <time>2015-09-27T07:54:58Z</time>
      </trkpt>
      <trkpt lat="48.91576" lon="1.40569">
        <ele>127.7</ele>
        <time>2015-09-27T07:55:00Z</time>
      </trkpt>
      <trkpt lat="48.91588" lon="1.4056">
        <ele>127.9</ele>
        <time>2015-09-27T07:55:02Z</time>
      </trkpt>
      <trkpt lat="48.91599" lon="1.40551">
        <ele>128.1</ele>
        <time>2015-09-27T07:55:04Z</time>
      </trkpt>
      <trkpt lat="48.91611" lon="1.40542">
        <ele>128.2</ele>
        <time>2015-09-27T07:55:06Z</time>
      </trkpt>
      <trkpt lat="48.91623" lon="1.40533">
        <ele>128.3</ele>
        <time>2015-09-27T07:55:08Z</time>
      </trkpt>
      <trkpt lat="48.91635" lon="1.40523">
        <ele>128.4</ele>
        <time>2015-09-27T07:55:10Z</time>
      </trkpt>
      <trkpt lat="48.91646" lon="1.40514">
        <ele>128.5</ele>
        <time>2015-09-27T07:55:12Z</time>
      </trkpt>
      <trkpt lat="48.91658" lon="1.40505">
        <ele>128.5</ele>
        <time>2015-09-27T07:55:14Z</time>
      </trkpt>
      <trkpt lat="48.9167" lon="1.40495">
        <ele>128.6</ele>
        <time>2015-09-27T07:55:16Z</time>
      </trkpt>
      <trkpt lat="48.91683" lon="1.40487">
        <ele>128.6</ele>
        <time>2015-09-27T07:55:18Z</time>
      </trkpt>
      <trkpt lat="48.91695" lon="1.40478">
        <ele>128.6</ele>
        <time>2015-09-27T07:55:20Z</time>
      </trkpt>
      <trkpt lat="48.91708" lon="1.40471">
        <ele>128.6</ele>
        <time>2015-09-27T07:55:22Z</time>
      </trkpt>
      <trkpt lat="48.91721" lon="1.40463">
        <ele>128.6</ele>
        <time>2015-09-27T07:55:24Z</time>
      </trkpt>
      <trkpt lat="48.91734" lon="1.40456">
        <ele>128.6</ele>
        <time>2015-09-27T07:55:26Z</time>
      </trkpt>
      <trkpt lat="48.91747" lon="1.40449">
        <ele>128.5</ele>
        <time>2015-09-27T07:55:28Z</time>
      </trkpt>
      <trkpt lat="48.91759" lon="1.40442">
        <ele>128.5</ele>
        <time>2015-09-27T07:55:30Z</time>
      </trkpt>
      <trkpt lat="48.91771" lon="1.40435">
        <ele>128.4</ele>
        <time>2015-09-27T07:55:32Z</time>
      </trkpt>
      <trkpt lat="48.91783" lon="1.4043">
        <ele>128.3</ele>
        <time>2015-09-27T07:55:34Z</time>
      </trkpt>
      <trkpt lat="48.91794" lon="1.40424">
        <ele>128.2</ele>
        <time>2015-09-27T07:55:36Z</time>
      </trkpt>
      <trkpt lat="48.91805" lon="1.40425">
        <ele>128.1</ele>
        <time>2015-09-27T07:55:38Z</time>
      </trkpt>
      <trkpt lat="48.91812" lon="1.40438">
        <ele>128</ele>
        <time>2015-09-27T07:55:40Z</time>
      </trkpt>
      <trkpt lat="48.91817" lon="1.40456">
        <ele>127.9</ele>
        <time>2015-09-27T07:55:42Z</time>
      </trkpt>
      <trkpt lat="48.91822" lon="1.40474">
        <ele>127.8</ele>
        <time>2015-09-27T07:55:44Z</time>
      </trkpt>
      <trkpt lat="48.91826" lon="1.40492">
        <ele>127.8</ele>
        <time>2015-09-27T07:55:46Z</time>
      </trkpt>
      <trkpt lat="48.9183" lon="1.40511">
        <ele>127.7</ele>
        <time>2015-09-27T07:55:48Z</time>
      </trkpt>
      <trkpt lat="48.91834" lon="1.4053">
        <ele>127.7</ele>
        <time>2015-09-27T07:55:50Z</time>
      </trkpt>
      <trkpt lat="48.91839" lon="1.4055">
        <ele>127.6</ele>
        <time>2015-09-27T07:55:52Z</time>
      </trkpt>
      <trkpt lat="48.91843" lon="1.40569">
        <ele>127.5</ele>
        <time>2015-09-27T07:55:54Z</time>
      </trkpt>
      <trkpt lat="48.91848" lon="1.40589">
        <ele>127.4</ele>
        <time>2015-09-27T07:55:56Z</time>
      </trkpt>
      <trkpt lat="48.91853" lon="1.40607">
        <ele>127.3</ele>
        <time>2015-09-27T07:55:58Z</time>
      </trkpt>
      <trkpt lat="48.91859" lon="1.40625">
        <ele>127.2</ele>
        <time>2015-09-27T07:56:00Z</time>
      </trkpt>
      <trkpt lat="48.91866" lon="1.40643">
        <ele>127.1</ele>
        <time>2015-09-27T07:56:02Z</time>
      </trkpt>
      <trkpt lat="48.91874" lon="1.40662">
        <ele>127</ele>
        <time>2015-09-27T07:56:04Z</time>
      </trkpt>
      <trkpt lat="48.91881" lon="1.4068">
        <ele>126.8</ele>
        <time>2015-09-27T07:56:06Z</time>
      </trkpt>
      <trkpt lat="48.91889" lon="1.40698">
        <ele>126.5</ele>
        <time>2015-09-27T07:56:08Z</time>
      </trkpt>
      <trkpt lat="48.91897" lon="1.40716">
        <ele>126.3</ele>
        <time>2015-09-27T07:56:10Z</time>
      </trkpt>
      <trkpt lat="48.91905" lon="1.40733">
        <ele>126.1</ele>
        <time>2015-09-27T07:56:12Z</time>
      </trkpt>
      <trkpt lat="48.91913" lon="1.40751">
        <ele>125.9</ele>
        <time>2015-09-27T07:56:14Z</time>
      </trkpt>
      <trkpt lat="48.91922" lon="1.40768">
        <ele>125.6</ele>
        <time>2015-09-27T07:56:16Z</time>
      </trkpt>
      <trkpt lat="48.9193" lon="1.40784">
        <ele>125.4</ele>
        <time>2015-09-27T07:56:18Z</time>
      </trkpt>
      <trkpt lat="48.91939" lon="1.408">
        <ele>125.2</ele>
        <time>2015-09-27T07:56:20Z</time>
      </trkpt>
      <trkpt lat="48.91948" lon="1.40816">
        <ele>125.1</ele>
        <time>2015-09-27T07:56:22Z</time>
      </trkpt>
      <trkpt lat="48.91957" lon="1.40831">
        <ele>124.8</ele>
        <time>2015-09-27T07:56:24Z</time>
      </trkpt>
      <trkpt lat="48.91967" lon="1.40845">
        <ele>124.6</ele>
        <time>2015-09-27T07:56:26Z</time>
      </trkpt>
      <trkpt lat="48.91977" lon="1.40859">
        <ele>124.4</ele>
        <time>2015-09-27T07:56:28Z</time>
      </trkpt>
      <trkpt lat="48.91987" lon="1.40872">
        <ele>124.2</ele>
        <time>2015-09-27T07:56:30Z</time>
      </trkpt>
      <trkpt lat="48.91998" lon="1.40883">
        <ele>124</ele>
        <time>2015-09-27T07:56:32Z</time>
      </trkpt>
      <trkpt lat="48.92009" lon="1.40894">
        <ele>123.7</ele>
        <time>2015-09-27T07:56:34Z</time>
      </trkpt>
      <trkpt lat="48.92021" lon="1.40905">
        <ele>123.5</ele>
        <time>2015-09-27T07:56:36Z</time>
      </trkpt>
      <trkpt lat="48.92033" lon="1.40915">
        <ele>123.3</ele>
        <time>2015-09-27T07:56:38Z</time>
      </trkpt>
      <trkpt lat="48.92045" lon="1.40926">
        <ele>123.1</ele>
        <time>2015-09-27T07:56:40Z</time>
      </trkpt>
      <trkpt lat="48.92057" lon="1.40939">
        <ele>122.9</ele>
        <time>2015-09-27T07:56:42Z</time>
      </trkpt>
      <trkpt lat="48.92069" lon="1.40954">
        <ele>122.7</ele>
        <time>2015-09-27T07:56:44Z</time>
      </trkpt>
      <trkpt lat="48.92079" lon="1.4097">
        <ele>122.4</ele>
        <time>2015-09-27T07:56:46Z</time>
      </trkpt>
      <trkpt lat="48.92087" lon="1.40989">
        <ele>122.1</ele>
        <time>2015-09-27T07:56:48Z</time>
      </trkpt>
      <trkpt lat="48.92094" lon="1.41009">
        <ele>121.8</ele>
        <time>2015-09-27T07:56:50Z</time>
      </trkpt>
      <trkpt lat="48.92101" lon="1.41029">
        <ele>121.5</ele>
        <time>2015-09-27T07:56:52Z</time>
      </trkpt>
      <trkpt lat="48.92107" lon="1.41049">
        <ele>121.3</ele>
        <time>2015-09-27T07:56:54Z</time>
      </trkpt>
      <trkpt lat="48.92113" lon="1.41069">
        <ele>121</ele>
        <time>2015-09-27T07:56:56Z</time>
      </trkpt>
      <trkpt lat="48.92119" lon="1.4109">
        <ele>120.6</ele>
        <time>2015-09-27T07:56:58Z</time>
      </trkpt>
      <trkpt lat="48.92125" lon="1.41111">
        <ele>120.3</ele>
        <time>2015-09-27T07:57:00Z</time>
      </trkpt>
      <trkpt lat="48.92132" lon="1.41131">
        <ele>120</ele>
        <time>2015-09-27T07:57:02Z</time>
      </trkpt>
      <trkpt lat="48.92138" lon="1.41152">
        <ele>119.6</ele>
        <time>2015-09-27T07:57:04Z</time>
      </trkpt>
      <trkpt lat="48.92145" lon="1.41173">
        <ele>119.2</ele>
        <time>2015-09-27T07:57:06Z</time>
      </trkpt>
      <trkpt lat="48.92152" lon="1.41193">
        <ele>118.6</ele>
        <time>2015-09-27T07:57:08Z</time>
      </trkpt>
      <trkpt lat="48.92159" lon="1.41213">
        <ele>118.1</ele>
        <time>2015-09-27T07:57:10Z</time>
      </trkpt>
      <trkpt lat="48.92165" lon="1.4123">
        <ele>117.5</ele>
        <time>2015-09-27T07:57:12Z</time>
      </trkpt>
      <trkpt lat="48.92173" lon="1.41238">
        <ele>116.5</ele>
        <time>2015-09-27T07:57:15Z</time>
      </trkpt>
      <trkpt lat="48.92177" lon="1.41224">
        <ele>115.4</ele>
        <time>2015-09-27T07:57:18Z</time>
      </trkpt>
      <trkpt lat="48.92181" lon="1.41205">
        <ele>114.5</ele>
        <time>2015-09-27T07:57:21Z</time>
      </trkpt>
      <trkpt lat="48.92184" lon="1.41191">
        <ele>114</ele>
        <time>2015-09-27T07:57:23Z</time>
      </trkpt>
      <trkpt lat="48.92187" lon="1.41174">
        <ele>113.4</ele>
        <time>2015-09-27T07:57:26Z</time>
      </trkpt>
      <trkpt lat="48.9219" lon="1.41159">
        <ele>113</ele>
        <time>2015-09-27T07:57:29Z</time>
      </trkpt>
      <trkpt lat="48.92195" lon="1.41145">
        <ele>112.9</ele>
        <time>2015-09-27T07:57:32Z</time>
      </trkpt>
      <trkpt lat="48.922" lon="1.41133">
        <ele>113</ele>
        <time>2015-09-27T07:57:35Z</time>
      </trkpt>
      <trkpt lat="48.92205" lon="1.4112">
        <ele>113.1</ele>
        <time>2015-09-27T07:57:38Z</time>
      </trkpt>
      <trkpt lat="48.92211" lon="1.41106">
        <ele>113.3</ele>
        <time>2015-09-27T07:57:41Z</time>
      </trkpt>
      <trkpt lat="48.92216" lon="1.41092">
        <ele>113.6</ele>
        <time>2015-09-27T07:57:44Z</time>
      </trkpt>
      <trkpt lat="48.92221" lon="1.41077">
        <ele>113.9</ele>
        <time>2015-09-27T07:57:47Z</time>
      </trkpt>
      <trkpt lat="48.92227" lon="1.41063">
        <ele>114.3</ele>
        <time>2015-09-27T07:57:50Z</time>
      </trkpt>
      <trkpt lat="48.92232" lon="1.41048">
        <ele>114.7</ele>
        <time>2015-09-27T07:57:53Z</time>
      </trkpt>
      <trkpt lat="48.92237" lon="1.41032">
        <ele>115.1</ele>
        <time>2015-09-27T07:57:56Z</time>
      </trkpt>
      <trkpt lat="48.92241" lon="1.41016">
        <ele>115.6</ele>
        <time>2015-09-27T07:57:59Z</time>
      </trkpt>
      <trkpt lat="48.92246" lon="1.41">
        <ele>116</ele>
        <time>2015-09-27T07:58:02Z</time>
      </trkpt>
      <trkpt lat="48.9225" lon="1.40984">
        <ele>116.4</ele>
        <time>2015-09-27T07:58:05Z</time>
      </trkpt>
      <trkpt lat="48.92256" lon="1.40969">
        <ele>116.8</ele>
        <time>2015-09-27T07:58:08Z</time>
      </trkpt>
      <trkpt lat="48.92262" lon="1.40954">
        <ele>117.1</ele>
        <time>2015-09-27T07:58:11Z</time>
      </trkpt>
      <trkpt lat="48.92268" lon="1.4094">
        <ele>117.6</ele>
        <time>2015-09-27T07:58:14Z</time>
      </trkpt>
      <trkpt lat="48.92274" lon="1.40925">
        <ele>118</ele>
        <time>2015-09-27T07:58:17Z</time>
      </trkpt>
      <trkpt lat="48.92281" lon="1.40911">
        <ele>118.3</ele>
        <time>2015-09-27T07:58:20Z</time>
      </trkpt>
      <trkpt lat="48.92289" lon="1.40895">
        <ele>118.6</ele>
        <time>2015-09-27T07:58:23Z</time>
      </trkpt>
      <trkpt lat="48.92297" lon="1.40879">
        <ele>118.9</ele>
        <time>2015-09-27T07:58:26Z</time>
      </trkpt>
      <trkpt lat="48.92305" lon="1.40863">
        <ele>119.2</ele>
        <time>2015-09-27T07:58:29Z</time>
      </trkpt>
      <trkpt lat="48.92312" lon="1.40854">
        <ele>119.3</ele>
        <time>2015-09-27T07:58:31Z</time>
      </trkpt>
      <trkpt lat="48.92319" lon="1.40845">
        <ele>119.4</ele>
        <time>2015-09-27T07:58:33Z</time>
      </trkpt>
      <trkpt lat="48.92326" lon="1.40837">
        <ele>119.6</ele>
        <time>2015-09-27T07:58:35Z</time>
      </trkpt>
      <trkpt lat="48.92334" lon="1.40829">
        <ele>119.7</ele>
        <time>2015-09-27T07:58:37Z</time>
      </trkpt>
      <trkpt lat="48.92345" lon="1.40818">
        <ele>119.8</ele>
        <time>2015-09-27T07:58:40Z</time>
      </trkpt>
      <trkpt lat="48.92352" lon="1.4081">
        <ele>120</ele>
        <time>2015-09-27T07:58:42Z</time>
      </trkpt>
      <trkpt lat="48.9236" lon="1.40802">
        <ele>120.1</ele>
        <time>2015-09-27T07:58:44Z</time>
      </trkpt>
      <trkpt lat="48.92368" lon="1.40795">
        <ele>120.3</ele>
        <time>2015-09-27T07:58:46Z</time>
      </trkpt>
      <trkpt lat="48.92375" lon="1.40787">
        <ele>120.4</ele>
        <time>2015-09-27T07:58:48Z</time>
      </trkpt>
      <trkpt lat="48.92386" lon="1.40776">
        <ele>120.7</ele>
        <time>2015-09-27T07:58:51Z</time>
      </trkpt>
      <trkpt lat="48.92397" lon="1.40765">
        <ele>121</ele>
        <time>2015-09-27T07:58:54Z</time>
      </trkpt>
      <trkpt lat="48.92408" lon="1.40754">
        <ele>121.2</ele>
        <time>2015-09-27T07:58:57Z</time>
      </trkpt>
      <trkpt lat="48.92418" lon="1.40743">
        <ele>121.4</ele>
        <time>2015-09-27T07:59:00Z</time>
      </trkpt>
      <trkpt lat="48.92429" lon="1.40732">
        <ele>121.6</ele>
        <time>2015-09-27T07:59:03Z</time>
      </trkpt>
      <trkpt lat="48.9244" lon="1.40721">
        <ele>121.8</ele>
        <time>2015-09-27T07:59:06Z</time>
      </trkpt>
      <trkpt lat="48.92451" lon="1.4071">
        <ele>122</ele>
        <time>2015-09-27T07:59:09Z</time>
      </trkpt>
      <trkpt lat="48.92462" lon="1.40707">
        <ele>122.3</ele>
        <time>2015-09-27T07:59:12Z</time>
      </trkpt>
      <trkpt lat="48.92468" lon="1.40723">
        <ele>122.6</ele>
        <time>2015-09-27T07:59:15Z</time>
      </trkpt>
      <trkpt lat="48.92472" lon="1.40735">
        <ele>122.8</ele>
        <time>2015-09-27T07:59:17Z</time>
      </trkpt>
      <trkpt lat="48.92475" lon="1.40749">
        <ele>122.9</ele>
        <time>2015-09-27T07:59:19Z</time>
      </trkpt>
      <trkpt lat="48.92479" lon="1.40762">
        <ele>123.1</ele>
        <time>2015-09-27T07:59:21Z</time>
      </trkpt>
      <trkpt lat="48.92484" lon="1.40775">
        <ele>123.2</ele>
        <time>2015-09-27T07:59:23Z</time>
      </trkpt>
      <trkpt lat="48.92488" lon="1.40789">
        <ele>123.4</ele>
        <time>2015-09-27T07:59:25Z</time>
      </trkpt>
      <trkpt lat="48.92492" lon="1.40803">
        <ele>123.4</ele>
        <time>2015-09-27T07:59:27Z</time>
      </trkpt>
      <trkpt lat="48.92496" lon="1.40816">
        <ele>123.5</ele>
        <time>2015-09-27T07:59:29Z</time>
      </trkpt>
      <trkpt lat="48.92501" lon="1.40831">
        <ele>123.6</ele>
        <time>2015-09-27T07:59:31Z</time>
      </trkpt>
      <trkpt lat="48.92505" lon="1.40845">
        <ele>123.6</ele>
        <time>2015-09-27T07:59:33Z</time>
      </trkpt>
      <trkpt lat="48.9251" lon="1.4086">
        <ele>123.7</ele>
        <time>2015-09-27T07:59:35Z</time>
      </trkpt>
      <trkpt lat="48.92514" lon="1.40875">
        <ele>123.7</ele>
        <time>2015-09-27T07:59:37Z</time>
      </trkpt>
      <trkpt lat="48.92519" lon="1.4089">
        <ele>123.6</ele>
        <time>2015-09-27T07:59:39Z</time>
      </trkpt>
      <trkpt lat="48.92523" lon="1.40905">
        <ele>123.5</ele>
        <time>2015-09-27T07:59:41Z</time>
      </trkpt>
      <trkpt lat="48.92528" lon="1.4092">
        <ele>123.4</ele>
        <time>2015-09-27T07:59:43Z</time>
      </trkpt>
      <trkpt lat="48.92533" lon="1.40935">
        <ele>123.2</ele>
        <time>2015-09-27T07:59:45Z</time>
      </trkpt>
      <trkpt lat="48.92538" lon="1.4095">
        <ele>123</ele>
        <time>2015-09-27T07:59:47Z</time>
      </trkpt>
      <trkpt lat="48.92544" lon="1.40963">
        <ele>122.8</ele>
        <time>2015-09-27T07:59:49Z</time>
      </trkpt>
      <trkpt lat="48.92552" lon="1.40972">
        <ele>122.6</ele>
        <time>2015-09-27T07:59:51Z</time>
      </trkpt>
      <trkpt lat="48.92563" lon="1.40968">
        <ele>122.2</ele>
        <time>2015-09-27T07:59:54Z</time>
      </trkpt>
      <trkpt lat="48.92573" lon="1.4096">
        <ele>121.9</ele>
        <time>2015-09-27T07:59:57Z</time>
      </trkpt>
      <trkpt lat="48.92583" lon="1.40951">
        <ele>121.7</ele>
        <time>2015-09-27T08:00:00Z</time>
      </trkpt>
      <trkpt lat="48.92593" lon="1.40942">
        <ele>121.6</ele>
        <time>2015-09-27T08:00:03Z</time>
      </trkpt>
      <trkpt lat="48.92602" lon="1.40932">
        <ele>121.5</ele>
        <time>2015-09-27T08:00:06Z</time>
      </trkpt>
      <trkpt lat="48.92612" lon="1.40919">
        <ele>121.4</ele>
        <time>2015-09-27T08:00:09Z</time>
      </trkpt>
      <trkpt lat="48.9262" lon="1.40905">
        <ele>121.4</ele>
        <time>2015-09-27T08:00:12Z</time>
      </trkpt>
      <trkpt lat="48.92629" lon="1.40893">
        <ele>121.3</ele>
        <time>2015-09-27T08:00:15Z</time>
      </trkpt>
      <trkpt lat="48.92638" lon="1.4088">
        <ele>121.5</ele>
        <time>2015-09-27T08:00:18Z</time>
      </trkpt>
      <trkpt lat="48.92648" lon="1.40868">
        <ele>121.8</ele>
        <time>2015-09-27T08:00:21Z</time>
      </trkpt>
      <trkpt lat="48.92655" lon="1.40859">
        <ele>122</ele>
        <time>2015-09-27T08:00:23Z</time>
      </trkpt>
      <trkpt lat="48.92662" lon="1.4085">
        <ele>122.2</ele>
        <time>2015-09-27T08:00:25Z</time>
      </trkpt>
      <trkpt lat="48.92674" lon="1.40838">
        <ele>122.4</ele>
        <time>2015-09-27T08:00:28Z</time>
      </trkpt>
      <trkpt lat="48.92682" lon="1.40831">
        <ele>122.5</ele>
        <time>2015-09-27T08:00:30Z</time>
      </trkpt>
      <trkpt lat="48.92691" lon="1.40823">
        <ele>122.6</ele>
        <time>2015-09-27T08:00:32Z</time>
      </trkpt>
      <trkpt lat="48.92699" lon="1.40814">
        <ele>122.7</ele>
        <time>2015-09-27T08:00:34Z</time>
      </trkpt>
      <trkpt lat="48.92707" lon="1.40804">
        <ele>122.7</ele>
        <time>2015-09-27T08:00:36Z</time>
      </trkpt>
      <trkpt lat="48.92715" lon="1.40791">
        <ele>122.8</ele>
        <time>2015-09-27T08:00:38Z</time>
      </trkpt>
      <trkpt lat="48.9272" lon="1.40777">
        <ele>122.9</ele>
        <time>2015-09-27T08:00:40Z</time>
      </trkpt>
      <trkpt lat="48.92726" lon="1.40763">
        <ele>123</ele>
        <time>2015-09-27T08:00:42Z</time>
      </trkpt>
      <trkpt lat="48.92734" lon="1.4075">
        <ele>123.2</ele>
        <time>2015-09-27T08:00:44Z</time>
      </trkpt>
      <trkpt lat="48.92742" lon="1.40738">
        <ele>123.3</ele>
        <time>2015-09-27T08:00:46Z</time>
      </trkpt>
      <trkpt lat="48.9275" lon="1.40725">
        <ele>123.4</ele>
        <time>2015-09-27T08:00:48Z</time>
      </trkpt>
      <trkpt lat="48.92759" lon="1.40712">
        <ele>123.5</ele>
        <time>2015-09-27T08:00:50Z</time>
      </trkpt>
      <trkpt lat="48.92768" lon="1.40701">
        <ele>123.5</ele>
        <time>2015-09-27T08:00:52Z</time>
      </trkpt>
      <trkpt lat="48.92778" lon="1.4069">
        <ele>123.6</ele>
        <time>2015-09-27T08:00:54Z</time>
      </trkpt>
      <trkpt lat="48.92788" lon="1.40678">
        <ele>123.6</ele>
        <time>2015-09-27T08:00:56Z</time>
      </trkpt>
      <trkpt lat="48.92796" lon="1.40664">
        <ele>123.6</ele>
        <time>2015-09-27T08:00:58Z</time>
      </trkpt>
      <trkpt lat="48.92801" lon="1.40646">
        <ele>123.4</ele>
        <time>2015-09-27T08:01:00Z</time>
      </trkpt>
      <trkpt lat="48.92807" lon="1.40628">
        <ele>123.3</ele>
        <time>2015-09-27T08:01:02Z</time>
      </trkpt>
      <trkpt lat="48.92815" lon="1.4061">
        <ele>123.1</ele>
        <time>2015-09-27T08:01:04Z</time>
      </trkpt>
      <trkpt lat="48.92825" lon="1.40593">
        <ele>122.6</ele>
        <time>2015-09-27T08:01:06Z</time>
      </trkpt>
      <trkpt lat="48.92834" lon="1.40574">
        <ele>122.2</ele>
        <time>2015-09-27T08:01:08Z</time>
      </trkpt>
      <trkpt lat="48.92841" lon="1.40553">
        <ele>121.7</ele>
        <time>2015-09-27T08:01:10Z</time>
      </trkpt>
      <trkpt lat="48.92845" lon="1.40534">
        <ele>121.3</ele>
        <time>2015-09-27T08:01:12Z</time>
      </trkpt>
      <trkpt lat="48.92848" lon="1.40515">
        <ele>120.9</ele>
        <time>2015-09-27T08:01:14Z</time>
      </trkpt>
      <trkpt lat="48.9285" lon="1.40497">
        <ele>120.7</ele>
        <time>2015-09-27T08:01:16Z</time>
      </trkpt>
      <trkpt lat="48.92852" lon="1.40479">
        <ele>120.5</ele>
        <time>2015-09-27T08:01:18Z</time>
      </trkpt>
      <trkpt lat="48.92854" lon="1.40462">
        <ele>120.4</ele>
        <time>2015-09-27T08:01:20Z</time>
      </trkpt>
      <trkpt lat="48.92855" lon="1.40444">
        <ele>120.3</ele>
        <time>2015-09-27T08:01:22Z</time>
      </trkpt>
      <trkpt lat="48.92856" lon="1.40427">
        <ele>120.2</ele>
        <time>2015-09-27T08:01:24Z</time>
      </trkpt>
      <trkpt lat="48.92856" lon="1.40409">
        <ele>120.1</ele>
        <time>2015-09-27T08:01:26Z</time>
      </trkpt>
      <trkpt lat="48.92858" lon="1.40392">
        <ele>120.1</ele>
        <time>2015-09-27T08:01:28Z</time>
      </trkpt>
      <trkpt lat="48.92858" lon="1.40374">
        <ele>120.1</ele>
        <time>2015-09-27T08:01:30Z</time>
      </trkpt>
      <trkpt lat="48.92859" lon="1.40357">
        <ele>120.1</ele>
        <time>2015-09-27T08:01:32Z</time>
      </trkpt>
      <trkpt lat="48.92859" lon="1.4034">
        <ele>120.1</ele>
        <time>2015-09-27T08:01:34Z</time>
      </trkpt>
      <trkpt lat="48.92859" lon="1.40323">
        <ele>120.1</ele>
        <time>2015-09-27T08:01:36Z</time>
      </trkpt>
      <trkpt lat="48.92859" lon="1.40306">
        <ele>120.2</ele>
        <time>2015-09-27T08:01:38Z</time>
      </trkpt>
      <trkpt lat="48.92859" lon="1.40289">
        <ele>120.2</ele>
        <time>2015-09-27T08:01:40Z</time>
      </trkpt>
      <trkpt lat="48.9286" lon="1.40272">
        <ele>120.2</ele>
        <time>2015-09-27T08:01:42Z</time>
      </trkpt>
      <trkpt lat="48.9286" lon="1.40256">
        <ele>120.2</ele>
        <time>2015-09-27T08:01:44Z</time>
      </trkpt>
      <trkpt lat="48.9286" lon="1.40239">
        <ele>120.3</ele>
        <time>2015-09-27T08:01:46Z</time>
      </trkpt>
      <trkpt lat="48.9286" lon="1.40222">
        <ele>120.5</ele>
        <time>2015-09-27T08:01:48Z</time>
      </trkpt>
      <trkpt lat="48.9286" lon="1.40206">
        <ele>120.6</ele>
        <time>2015-09-27T08:01:50Z</time>
      </trkpt>
      <trkpt lat="48.92861" lon="1.40189">
        <ele>120.7</ele>
        <time>2015-09-27T08:01:52Z</time>
      </trkpt>
      <trkpt lat="48.92861" lon="1.40173">
        <ele>120.8</ele>
        <time>2015-09-27T08:01:54Z</time>
      </trkpt>
      <trkpt lat="48.92861" lon="1.40157">
        <ele>120.9</ele>
        <time>2015-09-27T08:01:56Z</time>
      </trkpt>
      <trkpt lat="48.92862" lon="1.40141">
        <ele>121</ele>
        <time>2015-09-27T08:01:58Z</time>
      </trkpt>
      <trkpt lat="48.92862" lon="1.40126">
        <ele>121.2</ele>
        <time>2015-09-27T08:02:00Z</time>
      </trkpt>
      <trkpt lat="48.92863" lon="1.40112">
        <ele>121.4</ele>
        <time>2015-09-27T08:02:02Z</time>
      </trkpt>
      <trkpt lat="48.92867" lon="1.40094">
        <ele>121.6</ele>
        <time>2015-09-27T08:02:05Z</time>
      </trkpt>
      <trkpt lat="48.92876" lon="1.4009">
        <ele>121.7</ele>
        <time>2015-09-27T08:02:07Z</time>
      </trkpt>
      <trkpt lat="48.92885" lon="1.4009">
        <ele>121.8</ele>
        <time>2015-09-27T08:02:09Z</time>
      </trkpt>
      <trkpt lat="48.92896" lon="1.4009">
        <ele>121.9</ele>
        <time>2015-09-27T08:02:11Z</time>
      </trkpt>
      <trkpt lat="48.92907" lon="1.40091">
        <ele>122</ele>
        <time>2015-09-27T08:02:13Z</time>
      </trkpt>
      <trkpt lat="48.92918" lon="1.40091">
        <ele>122.1</ele>
        <time>2015-09-27T08:02:15Z</time>
      </trkpt>
      <trkpt lat="48.92929" lon="1.4009">
        <ele>122.1</ele>
        <time>2015-09-27T08:02:17Z</time>
      </trkpt>
      <trkpt lat="48.92942" lon="1.40088">
        <ele>122.1</ele>
        <time>2015-09-27T08:02:19Z</time>
      </trkpt>
      <trkpt lat="48.92955" lon="1.40087">
        <ele>122</ele>
        <time>2015-09-27T08:02:21Z</time>
      </trkpt>
      <trkpt lat="48.92968" lon="1.40085">
        <ele>121.9</ele>
        <time>2015-09-27T08:02:23Z</time>
      </trkpt>
      <trkpt lat="48.9298" lon="1.40083">
        <ele>121.8</ele>
        <time>2015-09-27T08:02:25Z</time>
      </trkpt>
      <trkpt lat="48.92993" lon="1.40082">
        <ele>121.7</ele>
        <time>2015-09-27T08:02:27Z</time>
      </trkpt>
      <trkpt lat="48.93006" lon="1.40081">
        <ele>121.5</ele>
        <time>2015-09-27T08:02:29Z</time>
      </trkpt>
      <trkpt lat="48.93019" lon="1.4008">
        <ele>121.4</ele>
        <time>2015-09-27T08:02:31Z</time>
      </trkpt>
      <trkpt lat="48.93031" lon="1.4008">
        <ele>121.2</ele>
        <time>2015-09-27T08:02:33Z</time>
      </trkpt>
      <trkpt lat="48.93044" lon="1.4008">
        <ele>121.1</ele>
        <time>2015-09-27T08:02:35Z</time>
      </trkpt>
      <trkpt lat="48.93055" lon="1.40079">
        <ele>121</ele>
        <time>2015-09-27T08:02:37Z</time>
      </trkpt>
      <trkpt lat="48.93066" lon="1.4008">
        <ele>120.9</ele>
        <time>2015-09-27T08:02:39Z</time>
      </trkpt>
      <trkpt lat="48.93076" lon="1.4008">
        <ele>120.9</ele>
        <time>2015-09-27T08:02:41Z</time>
      </trkpt>
      <trkpt lat="48.93085" lon="1.40086">
        <ele>120.9</ele>
        <time>2015-09-27T08:02:43Z</time>
      </trkpt>
      <trkpt lat="48.93088" lon="1.40099">
        <ele>121</ele>
        <time>2015-09-27T08:02:45Z</time>
      </trkpt>
      <trkpt lat="48.93089" lon="1.40116">
        <ele>121.2</ele>
        <time>2015-09-27T08:02:47Z</time>
      </trkpt>
      <trkpt lat="48.93088" lon="1.40133">
        <ele>121.3</ele>
        <time>2015-09-27T08:02:49Z</time>
      </trkpt>
      <trkpt lat="48.9309" lon="1.40152">
        <ele>121.4</ele>
        <time>2015-09-27T08:02:51Z</time>
      </trkpt>
      <trkpt lat="48.93092" lon="1.4017">
        <ele>121.5</ele>
        <time>2015-09-27T08:02:53Z</time>
      </trkpt>
      <trkpt lat="48.93094" lon="1.40189">
        <ele>121.5</ele>
        <time>2015-09-27T08:02:55Z</time>
      </trkpt>
      <trkpt lat="48.93097" lon="1.40209">
        <ele>121.6</ele>
        <time>2015-09-27T08:02:57Z</time>
      </trkpt>
      <trkpt lat="48.93101" lon="1.40231">
        <ele>121.7</ele>
        <time>2015-09-27T08:02:59Z</time>
      </trkpt>
      <trkpt lat="48.93104" lon="1.40253">
        <ele>121.6</ele>
        <time>2015-09-27T08:03:01Z</time>
      </trkpt>
      <trkpt lat="48.93108" lon="1.40275">
        <ele>121.5</ele>
        <time>2015-09-27T08:03:03Z</time>
      </trkpt>
      <trkpt lat="48.93111" lon="1.40297">
        <ele>121.2</ele>
        <time>2015-09-27T08:03:05Z</time>
      </trkpt>
      <trkpt lat="48.93113" lon="1.4032">
        <ele>120.9</ele>
        <time>2015-09-27T08:03:07Z</time>
      </trkpt>
      <trkpt lat="48.93117" lon="1.40343">
        <ele>120.7</ele>
        <time>2015-09-27T08:03:09Z</time>
      </trkpt>
      <trkpt lat="48.9312" lon="1.40365">
        <ele>120.3</ele>
        <time>2015-09-27T08:03:11Z</time>
      </trkpt>
      <trkpt lat="48.93123" lon="1.40388">
        <ele>119.9</ele>
        <time>2015-09-27T08:03:13Z</time>
      </trkpt>
      <trkpt lat="48.93126" lon="1.40411">
        <ele>119.5</ele>
        <time>2015-09-27T08:03:15Z</time>
      </trkpt>
      <trkpt lat="48.93129" lon="1.40431">
        <ele>119</ele>
        <time>2015-09-27T08:03:17Z</time>
      </trkpt>
      <trkpt lat="48.9313" lon="1.4045">
        <ele>118.5</ele>
        <time>2015-09-27T08:03:19Z</time>
      </trkpt>
      <trkpt lat="48.93133" lon="1.40469">
        <ele>118.1</ele>
        <time>2015-09-27T08:03:21Z</time>
      </trkpt>
      <trkpt lat="48.93136" lon="1.40489">
        <ele>117.7</ele>
        <time>2015-09-27T08:03:23Z</time>
      </trkpt>
      <trkpt lat="48.93139" lon="1.4051">
        <ele>117.4</ele>
        <time>2015-09-27T08:03:25Z</time>
      </trkpt>
      <trkpt lat="48.93142" lon="1.4053">
        <ele>117</ele>
        <time>2015-09-27T08:03:27Z</time>
      </trkpt>
      <trkpt lat="48.93144" lon="1.40551">
        <ele>116.7</ele>
        <time>2015-09-27T08:03:29Z</time>
      </trkpt>
      <trkpt lat="48.93148" lon="1.40572">
        <ele>116.3</ele>
        <time>2015-09-27T08:03:31Z</time>
      </trkpt>
      <trkpt lat="48.93151" lon="1.40592">
        <ele>116</ele>
        <time>2015-09-27T08:03:33Z</time>
      </trkpt>
      <trkpt lat="48.93156" lon="1.4061">
        <ele>115.6</ele>
        <time>2015-09-27T08:03:35Z</time>
      </trkpt>
      <trkpt lat="48.93164" lon="1.40621">
        <ele>115.2</ele>
        <time>2015-09-27T08:03:37Z</time>
      </trkpt>
      <trkpt lat="48.93176" lon="1.40622">
        <ele>114.8</ele>
        <time>2015-09-27T08:03:40Z</time>
      </trkpt>
      <trkpt lat="48.93187" lon="1.40624">
        <ele>114.5</ele>
        <time>2015-09-27T08:03:43Z</time>
      </trkpt>
      <trkpt lat="48.93198" lon="1.40624">
        <ele>114.5</ele>
        <time>2015-09-27T08:03:46Z</time>
      </trkpt>
      <trkpt lat="48.93207" lon="1.40618">
        <ele>114.5</ele>
        <time>2015-09-27T08:03:49Z</time>
      </trkpt>
      <trkpt lat="48.93217" lon="1.40616">
        <ele>114.7</ele>
        <time>2015-09-27T08:03:52Z</time>
      </trkpt>
      <trkpt lat="48.93228" lon="1.40614">
        <ele>115</ele>
        <time>2015-09-27T08:03:55Z</time>
      </trkpt>
      <trkpt lat="48.93239" lon="1.40612">
        <ele>115.3</ele>
        <time>2015-09-27T08:03:58Z</time>
      </trkpt>
      <trkpt lat="48.93248" lon="1.4061">
        <ele>115.5</ele>
        <time>2015-09-27T08:04:01Z</time>
      </trkpt>
      <trkpt lat="48.93258" lon="1.40608">
        <ele>115.8</ele>
        <time>2015-09-27T08:04:04Z</time>
      </trkpt>
      <trkpt lat="48.9327" lon="1.40605">
        <ele>116.1</ele>
        <time>2015-09-27T08:04:07Z</time>
      </trkpt>
      <trkpt lat="48.93281" lon="1.40602">
        <ele>116.6</ele>
        <time>2015-09-27T08:04:10Z</time>
      </trkpt>
      <trkpt lat="48.93293" lon="1.40598">
        <ele>117</ele>
        <time>2015-09-27T08:04:13Z</time>
      </trkpt>
      <trkpt lat="48.93306" lon="1.40596">
        <ele>117.5</ele>
        <time>2015-09-27T08:04:16Z</time>
      </trkpt>
      <trkpt lat="48.93318" lon="1.40591">
        <ele>117.9</ele>
        <time>2015-09-27T08:04:19Z</time>
      </trkpt>
      <trkpt lat="48.9333" lon="1.40583">
        <ele>118.3</ele>
        <time>2015-09-27T08:04:22Z</time>
      </trkpt>
      <trkpt lat="48.93342" lon="1.40574">
        <ele>118.7</ele>
        <time>2015-09-27T08:04:25Z</time>
      </trkpt>
      <trkpt lat="48.93353" lon="1.40567">
        <ele>119.1</ele>
        <time>2015-09-27T08:04:28Z</time>
      </trkpt>
      <trkpt lat="48.93365" lon="1.4056">
        <ele>119.5</ele>
        <time>2015-09-27T08:04:31Z</time>
      </trkpt>
      <trkpt lat="48.93378" lon="1.40554">
        <ele>120</ele>
        <time>2015-09-27T08:04:34Z</time>
      </trkpt>
      <trkpt lat="48.93391" lon="1.4055">
        <ele>120.3</ele>
        <time>2015-09-27T08:04:37Z</time>
      </trkpt>
      <trkpt lat="48.93403" lon="1.40546">
        <ele>120.8</ele>
        <time>2015-09-27T08:04:40Z</time>
      </trkpt>
      <trkpt lat="48.93416" lon="1.40543">
        <ele>121.1</ele>
        <time>2015-09-27T08:04:43Z</time>
      </trkpt>
      <trkpt lat="48.93425" lon="1.4054">
        <ele>121.4</ele>
        <time>2015-09-27T08:04:45Z</time>
      </trkpt>
      <trkpt lat="48.93434" lon="1.40538">
        <ele>121.5</ele>
        <time>2015-09-27T08:04:47Z</time>
      </trkpt>
      <trkpt lat="48.93443" lon="1.40535">
        <ele>121.7</ele>
        <time>2015-09-27T08:04:49Z</time>
      </trkpt>
      <trkpt lat="48.93452" lon="1.40531">
        <ele>121.9</ele>
        <time>2015-09-27T08:04:51Z</time>
      </trkpt>
      <trkpt lat="48.93461" lon="1.40526">
        <ele>122.2</ele>
        <time>2015-09-27T08:04:53Z</time>
      </trkpt>
      <trkpt lat="48.9347" lon="1.40523">
        <ele>122.4</ele>
        <time>2015-09-27T08:04:55Z</time>
      </trkpt>
      <trkpt lat="48.93479" lon="1.40518">
        <ele>122.6</ele>
        <time>2015-09-27T08:04:57Z</time>
      </trkpt>
      <trkpt lat="48.93488" lon="1.40513">
        <ele>122.9</ele>
        <time>2015-09-27T08:04:59Z</time>
      </trkpt>
      <trkpt lat="48.93498" lon="1.40507">
        <ele>123.1</ele>
        <time>2015-09-27T08:05:01Z</time>
      </trkpt>
      <trkpt lat="48.93507" lon="1.405">
        <ele>123.3</ele>
        <time>2015-09-27T08:05:03Z</time>
      </trkpt>
      <trkpt lat="48.93515" lon="1.40492">
        <ele>123.4</ele>
        <time>2015-09-27T08:05:05Z</time>
      </trkpt>
      <trkpt lat="48.93524" lon="1.40483">
        <ele>123.6</ele>
        <time>2015-09-27T08:05:07Z</time>
      </trkpt>
      <trkpt lat="48.93532" lon="1.40473">
        <ele>123.8</ele>
        <time>2015-09-27T08:05:09Z</time>
      </trkpt>
      <trkpt lat="48.93539" lon="1.40462">
        <ele>124</ele>
        <time>2015-09-27T08:05:11Z</time>
      </trkpt>
      <trkpt lat="48.93547" lon="1.4045">
        <ele>124.3</ele>
        <time>2015-09-27T08:05:13Z</time>
      </trkpt>
      <trkpt lat="48.93553" lon="1.40437">
        <ele>124.5</ele>
        <time>2015-09-27T08:05:15Z</time>
      </trkpt>
      <trkpt lat="48.9356" lon="1.40425">
        <ele>124.7</ele>
        <time>2015-09-27T08:05:17Z</time>
      </trkpt>
      <trkpt lat="48.93566" lon="1.40411">
        <ele>124.8</ele>
        <time>2015-09-27T08:05:19Z</time>
      </trkpt>
      <trkpt lat="48.93571" lon="1.40398">
        <ele>125</ele>
        <time>2015-09-27T08:05:21Z</time>
      </trkpt>
      <trkpt lat="48.93577" lon="1.40386">
        <ele>125.3</ele>
        <time>2015-09-27T08:05:23Z</time>
      </trkpt>
      <trkpt lat="48.93583" lon="1.40372">
        <ele>125.5</ele>
        <time>2015-09-27T08:05:25Z</time>
      </trkpt>
      <trkpt lat="48.93588" lon="1.40358">
        <ele>125.7</ele>
        <time>2015-09-27T08:05:27Z</time>
      </trkpt>
      <trkpt lat="48.93593" lon="1.40343">
        <ele>125.8</ele>
        <time>2015-09-27T08:05:29Z</time>
      </trkpt>
      <trkpt lat="48.93598" lon="1.40328">
        <ele>126</ele>
        <time>2015-09-27T08:05:31Z</time>
      </trkpt>
      <trkpt lat="48.93603" lon="1.40313">
        <ele>126.1</ele>
        <time>2015-09-27T08:05:33Z</time>
      </trkpt>
      <trkpt lat="48.93608" lon="1.40298">
        <ele>126.2</ele>
        <time>2015-09-27T08:05:35Z</time>
      </trkpt>
      <trkpt lat="48.93612" lon="1.40282">
        <ele>126.3</ele>
        <time>2015-09-27T08:05:37Z</time>
      </trkpt>
      <trkpt lat="48.93616" lon="1.40265">
        <ele>126.4</ele>
        <time>2015-09-27T08:05:39Z</time>
      </trkpt>
      <trkpt lat="48.93618" lon="1.40248">
        <ele>126.5</ele>
        <time>2015-09-27T08:05:41Z</time>
      </trkpt>
      <trkpt lat="48.93621" lon="1.4023">
        <ele>126.6</ele>
        <time>2015-09-27T08:05:43Z</time>
      </trkpt>
      <trkpt lat="48.93623" lon="1.40212">
        <ele>126.7</ele>
        <time>2015-09-27T08:05:45Z</time>
      </trkpt>
      <trkpt lat="48.93626" lon="1.40194">
        <ele>126.7</ele>
        <time>2015-09-27T08:05:47Z</time>
      </trkpt>
      <trkpt lat="48.93629" lon="1.40176">
        <ele>126.8</ele>
        <time>2015-09-27T08:05:49Z</time>
      </trkpt>
      <trkpt lat="48.93632" lon="1.40158">
        <ele>126.8</ele>
        <time>2015-09-27T08:05:51Z</time>
      </trkpt>
      <trkpt lat="48.93635" lon="1.4014">
        <ele>126.9</ele>
        <time>2015-09-27T08:05:53Z</time>
      </trkpt>
      <trkpt lat="48.93636" lon="1.40122">
        <ele>126.9</ele>
        <time>2015-09-27T08:05:55Z</time>
      </trkpt>
      <trkpt lat="48.93636" lon="1.40103">
        <ele>126.9</ele>
        <time>2015-09-27T08:05:57Z</time>
      </trkpt>
      <trkpt lat="48.93637" lon="1.40083">
        <ele>126.9</ele>
        <time>2015-09-27T08:05:59Z</time>
      </trkpt>
      <trkpt lat="48.93637" lon="1.40063">
        <ele>126.9</ele>
        <time>2015-09-27T08:06:01Z</time>
      </trkpt>
      <trkpt lat="48.93636" lon="1.40041">
        <ele>126.9</ele>
        <time>2015-09-27T08:06:03Z</time>
      </trkpt>
      <trkpt lat="48.93636" lon="1.40019">
        <ele>126.8</ele>
        <time>2015-09-27T08:06:05Z</time>
      </trkpt>
      <trkpt lat="48.93636" lon="1.39996">
        <ele>126.8</ele>
        <time>2015-09-27T08:06:07Z</time>
      </trkpt>
      <trkpt lat="48.93636" lon="1.39974">
        <ele>126.7</ele>
        <time>2015-09-27T08:06:09Z</time>
      </trkpt>
      <trkpt lat="48.93635" lon="1.39952">
        <ele>126.5</ele>
        <time>2015-09-27T08:06:11Z</time>
      </trkpt>
      <trkpt lat="48.93633" lon="1.39931">
        <ele>126.4</ele>
        <time>2015-09-27T08:06:13Z</time>
      </trkpt>
      <trkpt lat="48.93637" lon="1.3991">
        <ele>126.3</ele>
        <time>2015-09-27T08:06:15Z</time>
      </trkpt>
      <trkpt lat="48.93645" lon="1.39897">
        <ele>126.2</ele>
        <time>2015-09-27T08:06:17Z</time>
      </trkpt>
      <trkpt lat="48.93654" lon="1.39884">
        <ele>126</ele>
        <time>2015-09-27T08:06:19Z</time>
      </trkpt>
      <trkpt lat="48.93659" lon="1.3987">
        <ele>125.7</ele>
        <time>2015-09-27T08:06:21Z</time>
      </trkpt>
      <trkpt lat="48.93658" lon="1.39852">
        <ele>125.3</ele>
        <time>2015-09-27T08:06:24Z</time>
      </trkpt>
      <trkpt lat="48.9365" lon="1.39841">
        <ele>124.9</ele>
        <time>2015-09-27T08:06:28Z</time>
      </trkpt>
      <trkpt lat="48.93641" lon="1.39844">
        <ele>124.6</ele>
        <time>2015-09-27T08:06:31Z</time>
      </trkpt>
      <trkpt lat="48.93631" lon="1.39843">
        <ele>124.4</ele>
        <time>2015-09-27T08:06:34Z</time>
      </trkpt>
      <trkpt lat="48.93622" lon="1.3984">
        <ele>124.1</ele>
        <time>2015-09-27T08:06:38Z</time>
      </trkpt>
      <trkpt lat="48.93622" lon="1.39857">
        <ele>123.9</ele>
        <time>2015-09-27T08:06:44Z</time>
      </trkpt>
      <trkpt lat="48.93627" lon="1.39874">
        <ele>123.8</ele>
        <time>2015-09-27T08:06:47Z</time>
      </trkpt>
      <trkpt lat="48.9363" lon="1.39893">
        <ele>123.7</ele>
        <time>2015-09-27T08:06:50Z</time>
      </trkpt>
      <trkpt lat="48.93634" lon="1.39912">
        <ele>123.6</ele>
        <time>2015-09-27T08:06:53Z</time>
      </trkpt>
      <trkpt lat="48.93641" lon="1.39921">
        <ele>123.6</ele>
        <time>2015-09-27T08:06:55Z</time>
      </trkpt>
      <trkpt lat="48.93651" lon="1.39929">
        <ele>123.5</ele>
        <time>2015-09-27T08:06:57Z</time>
      </trkpt>
      <trkpt lat="48.93661" lon="1.39938">
        <ele>123.5</ele>
        <time>2015-09-27T08:06:59Z</time>
      </trkpt>
      <trkpt lat="48.93673" lon="1.39944">
        <ele>123.5</ele>
        <time>2015-09-27T08:07:01Z</time>
      </trkpt>
      <trkpt lat="48.93683" lon="1.39949">
        <ele>123.5</ele>
        <time>2015-09-27T08:07:03Z</time>
      </trkpt>
      <trkpt lat="48.93696" lon="1.39953">
        <ele>123.4</ele>
        <time>2015-09-27T08:07:05Z</time>
      </trkpt>
      <trkpt lat="48.93708" lon="1.39957">
        <ele>123.4</ele>
        <time>2015-09-27T08:07:07Z</time>
      </trkpt>
      <trkpt lat="48.93721" lon="1.39962">
        <ele>123.4</ele>
        <time>2015-09-27T08:07:09Z</time>
      </trkpt>
      <trkpt lat="48.93732" lon="1.39969">
        <ele>123.4</ele>
        <time>2015-09-27T08:07:11Z</time>
      </trkpt>
      <trkpt lat="48.93743" lon="1.39978">
        <ele>123.4</ele>
        <time>2015-09-27T08:07:13Z</time>
      </trkpt>
      <trkpt lat="48.93754" lon="1.39989">
        <ele>123.4</ele>
        <time>2015-09-27T08:07:15Z</time>
      </trkpt>
      <trkpt lat="48.93763" lon="1.40003">
        <ele>123.4</ele>
        <time>2015-09-27T08:07:17Z</time>
      </trkpt>
      <trkpt lat="48.93771" lon="1.40019">
        <ele>123.3</ele>
        <time>2015-09-27T08:07:19Z</time>
      </trkpt>
      <trkpt lat="48.93779" lon="1.40034">
        <ele>123.2</ele>
        <time>2015-09-27T08:07:21Z</time>
      </trkpt>
      <trkpt lat="48.93787" lon="1.40049">
        <ele>123.1</ele>
        <time>2015-09-27T08:07:23Z</time>
      </trkpt>
      <trkpt lat="48.93795" lon="1.40063">
        <ele>123</ele>
        <time>2015-09-27T08:07:25Z</time>
      </trkpt>
      <trkpt lat="48.93804" lon="1.40077">
        <ele>122.9</ele>
        <time>2015-09-27T08:07:27Z</time>
      </trkpt>
      <trkpt lat="48.93814" lon="1.40088">
        <ele>122.8</ele>
        <time>2015-09-27T08:07:29Z</time>
      </trkpt>
      <trkpt lat="48.93824" lon="1.401">
        <ele>122.7</ele>
        <time>2015-09-27T08:07:31Z</time>
      </trkpt>
      <trkpt lat="48.93835" lon="1.4011">
        <ele>122.6</ele>
        <time>2015-09-27T08:07:33Z</time>
      </trkpt>
      <trkpt lat="48.93845" lon="1.40118">
        <ele>122.5</ele>
        <time>2015-09-27T08:07:35Z</time>
      </trkpt>
      <trkpt lat="48.93857" lon="1.40126">
        <ele>122.4</ele>
        <time>2015-09-27T08:07:37Z</time>
      </trkpt>
      <trkpt lat="48.93868" lon="1.4013">
        <ele>122.3</ele>
        <time>2015-09-27T08:07:39Z</time>
      </trkpt>
      <trkpt lat="48.93881" lon="1.40133">
        <ele>122.2</ele>
        <time>2015-09-27T08:07:41Z</time>
      </trkpt>
      <trkpt lat="48.93894" lon="1.40135">
        <ele>122</ele>
        <time>2015-09-27T08:07:43Z</time>
      </trkpt>
      <trkpt lat="48.93907" lon="1.40136">
        <ele>121.8</ele>
        <time>2015-09-27T08:07:45Z</time>
      </trkpt>
      <trkpt lat="48.9392" lon="1.40138">
        <ele>121.5</ele>
        <time>2015-09-27T08:07:47Z</time>
      </trkpt>
      <trkpt lat="48.93933" lon="1.40144">
        <ele>121.2</ele>
        <time>2015-09-27T08:07:49Z</time>
      </trkpt>
      <trkpt lat="48.93946" lon="1.40153">
        <ele>120.9</ele>
        <time>2015-09-27T08:07:51Z</time>
      </trkpt>
      <trkpt lat="48.93959" lon="1.40163">
        <ele>120.6</ele>
        <time>2015-09-27T08:07:53Z</time>
      </trkpt>
      <trkpt lat="48.9397" lon="1.40171">
        <ele>120.3</ele>
        <time>2015-09-27T08:07:55Z</time>
      </trkpt>
      <trkpt lat="48.93981" lon="1.4018">
        <ele>120</ele>
        <time>2015-09-27T08:07:57Z</time>
      </trkpt>
      <trkpt lat="48.93994" lon="1.40186">
        <ele>119.8</ele>
        <time>2015-09-27T08:07:59Z</time>
      </trkpt>
      <trkpt lat="48.94007" lon="1.40193">
        <ele>119.6</ele>
        <time>2015-09-27T08:08:01Z</time>
      </trkpt>
      <trkpt lat="48.94019" lon="1.40202">
        <ele>119.3</ele>
        <time>2015-09-27T08:08:03Z</time>
      </trkpt>
      <trkpt lat="48.94032" lon="1.40211">
        <ele>119.1</ele>
        <time>2015-09-27T08:08:05Z</time>
      </trkpt>
      <trkpt lat="48.94045" lon="1.4022">
        <ele>118.9</ele>
        <time>2015-09-27T08:08:07Z</time>
      </trkpt>
      <trkpt lat="48.94058" lon="1.40229">
        <ele>118.7</ele>
        <time>2015-09-27T08:08:09Z</time>
      </trkpt>
      <trkpt lat="48.94072" lon="1.40239">
        <ele>118.5</ele>
        <time>2015-09-27T08:08:11Z</time>
      </trkpt>
      <trkpt lat="48.94085" lon="1.40247">
        <ele>118.3</ele>
        <time>2015-09-27T08:08:13Z</time>
      </trkpt>
      <trkpt lat="48.94097" lon="1.40256">
        <ele>118</ele>
        <time>2015-09-27T08:08:15Z</time>
      </trkpt>
      <trkpt lat="48.9411" lon="1.40264">
        <ele>117.7</ele>
        <time>2015-09-27T08:08:17Z</time>
      </trkpt>
      <trkpt lat="48.94123" lon="1.40272">
        <ele>117.4</ele>
        <time>2015-09-27T08:08:19Z</time>
      </trkpt>
      <trkpt lat="48.94135" lon="1.40281">
        <ele>117.1</ele>
        <time>2015-09-27T08:08:21Z</time>
      </trkpt>
      <trkpt lat="48.94147" lon="1.4029">
        <ele>116.8</ele>
        <time>2015-09-27T08:08:23Z</time>
      </trkpt>
      <trkpt lat="48.9416" lon="1.40298">
        <ele>116.6</ele>
        <time>2015-09-27T08:08:25Z</time>
      </trkpt>
      <trkpt lat="48.94173" lon="1.40306">
        <ele>116.3</ele>
        <time>2015-09-27T08:08:27Z</time>
      </trkpt>
      <trkpt lat="48.94185" lon="1.40314">
        <ele>116.1</ele>
        <time>2015-09-27T08:08:29Z</time>
      </trkpt>
      <trkpt lat="48.94197" lon="1.40323">
        <ele>115.8</ele>
        <time>2015-09-27T08:08:31Z</time>
      </trkpt>
      <trkpt lat="48.9421" lon="1.40333">
        <ele>115.6</ele>
        <time>2015-09-27T08:08:33Z</time>
      </trkpt>
      <trkpt lat="48.94223" lon="1.40343">
        <ele>115.3</ele>
        <time>2015-09-27T08:08:35Z</time>
      </trkpt>
      <trkpt lat="48.94234" lon="1.40353">
        <ele>115</ele>
        <time>2015-09-27T08:08:37Z</time>
      </trkpt>
      <trkpt lat="48.94246" lon="1.40364">
        <ele>114.7</ele>
        <time>2015-09-27T08:08:39Z</time>
      </trkpt>
      <trkpt lat="48.94262" lon="1.4038">
        <ele>114</ele>
        <time>2015-09-27T08:08:42Z</time>
      </trkpt>
      <trkpt lat="48.94278" lon="1.40398">
        <ele>113.6</ele>
        <time>2015-09-27T08:08:45Z</time>
      </trkpt>
      <trkpt lat="48.94287" lon="1.40411">
        <ele>113</ele>
        <time>2015-09-27T08:08:47Z</time>
      </trkpt>
      <trkpt lat="48.94293" lon="1.40423">
        <ele>112.5</ele>
        <time>2015-09-27T08:08:49Z</time>
      </trkpt>
      <trkpt lat="48.94302" lon="1.40435">
        <ele>112.1</ele>
        <time>2015-09-27T08:08:51Z</time>
      </trkpt>
      <trkpt lat="48.94312" lon="1.40444">
        <ele>111.7</ele>
        <time>2015-09-27T08:08:53Z</time>
      </trkpt>
      <trkpt lat="48.94322" lon="1.40452">
        <ele>111.4</ele>
        <time>2015-09-27T08:08:55Z</time>
      </trkpt>
      <trkpt lat="48.94333" lon="1.40464">
        <ele>111</ele>
        <time>2015-09-27T08:08:58Z</time>
      </trkpt>
      <trkpt lat="48.94339" lon="1.40477">
        <ele>110.7</ele>
        <time>2015-09-27T08:09:00Z</time>
      </trkpt>
      <trkpt lat="48.94349" lon="1.40481">
        <ele>110.4</ele>
        <time>2015-09-27T08:09:02Z</time>
      </trkpt>
      <trkpt lat="48.94361" lon="1.4048">
        <ele>110.1</ele>
        <time>2015-09-27T08:09:04Z</time>
      </trkpt>
      <trkpt lat="48.94375" lon="1.40475">
        <ele>109.7</ele>
        <time>2015-09-27T08:09:06Z</time>
      </trkpt>
      <trkpt lat="48.94384" lon="1.40468">
        <ele>109.3</ele>
        <time>2015-09-27T08:09:08Z</time>
      </trkpt>
      <trkpt lat="48.94395" lon="1.4046">
        <ele>108.9</ele>
        <time>2015-09-27T08:09:10Z</time>
      </trkpt>
      <trkpt lat="48.94406" lon="1.40453">
        <ele>108.5</ele>
        <time>2015-09-27T08:09:12Z</time>
      </trkpt>
      <trkpt lat="48.94419" lon="1.40445">
        <ele>108.1</ele>
        <time>2015-09-27T08:09:14Z</time>
      </trkpt>
      <trkpt lat="48.9443" lon="1.40435">
        <ele>107.6</ele>
        <time>2015-09-27T08:09:16Z</time>
      </trkpt>
      <trkpt lat="48.94442" lon="1.40425">
        <ele>107</ele>
        <time>2015-09-27T08:09:18Z</time>
      </trkpt>
      <trkpt lat="48.94453" lon="1.40415">
        <ele>106.4</ele>
        <time>2015-09-27T08:09:20Z</time>
      </trkpt>
      <trkpt lat="48.94464" lon="1.40408">
        <ele>105.7</ele>
        <time>2015-09-27T08:09:22Z</time>
      </trkpt>
      <trkpt lat="48.94475" lon="1.4039">
        <ele>105</ele>
        <time>2015-09-27T08:09:24Z</time>
      </trkpt>
      <trkpt lat="48.94484" lon="1.40373">
        <ele>104.4</ele>
        <time>2015-09-27T08:09:26Z</time>
      </trkpt>
      <trkpt lat="48.94491" lon="1.40356">
        <ele>103.8</ele>
        <time>2015-09-27T08:09:28Z</time>
      </trkpt>
      <trkpt lat="48.945" lon="1.40335">
        <ele>102</ele>
        <time>2015-09-27T08:09:31Z</time>
      </trkpt>
      <trkpt lat="48.94506" lon="1.40312">
        <ele>102.4</ele>
        <time>2015-09-27T08:09:34Z</time>
      </trkpt>
      <trkpt lat="48.94508" lon="1.40285">
        <ele>101.9</ele>
        <time>2015-09-27T08:09:36Z</time>
      </trkpt>
      <trkpt lat="48.9451" lon="1.40264">
        <ele>101.5</ele>
        <time>2015-09-27T08:09:38Z</time>
      </trkpt>
      <trkpt lat="48.94512" lon="1.40247">
        <ele>101.2</ele>
        <time>2015-09-27T08:09:40Z</time>
      </trkpt>
      <trkpt lat="48.94513" lon="1.4023">
        <ele>100.9</ele>
        <time>2015-09-27T08:09:42Z</time>
      </trkpt>
      <trkpt lat="48.94514" lon="1.40215">
        <ele>100.6</ele>
        <time>2015-09-27T08:09:44Z</time>
      </trkpt>
      <trkpt lat="48.94515" lon="1.40199">
        <ele>100.3</ele>
        <time>2015-09-27T08:09:46Z</time>
      </trkpt>
      <trkpt lat="48.94514" lon="1.40181">
        <ele>100.1</ele>
        <time>2015-09-27T08:09:48Z</time>
      </trkpt>
      <trkpt lat="48.94515" lon="1.40167">
        <ele>99.9</ele>
        <time>2015-09-27T08:09:50Z</time>
      </trkpt>
      <trkpt lat="48.94518" lon="1.40151">
        <ele>99.7</ele>
        <time>2015-09-27T08:09:53Z</time>
      </trkpt>
      <trkpt lat="48.94524" lon="1.40137">
        <ele>99.4</ele>
        <time>2015-09-27T08:09:56Z</time>
      </trkpt>
      <trkpt lat="48.94533" lon="1.40121">
        <ele>99.2</ele>
        <time>2015-09-27T08:09:59Z</time>
      </trkpt>
      <trkpt lat="48.94541" lon="1.40112">
        <ele>99</ele>
        <time>2015-09-27T08:10:01Z</time>
      </trkpt>
      <trkpt lat="48.9455" lon="1.40103">
        <ele>98.7</ele>
        <time>2015-09-27T08:10:03Z</time>
      </trkpt>
      <trkpt lat="48.94558" lon="1.40093">
        <ele>98.5</ele>
        <time>2015-09-27T08:10:05Z</time>
      </trkpt>
      <trkpt lat="48.94568" lon="1.40081">
        <ele>98.2</ele>
        <time>2015-09-27T08:10:08Z</time>
      </trkpt>
      <trkpt lat="48.94577" lon="1.40076">
        <ele>98</ele>
        <time>2015-09-27T08:10:10Z</time>
      </trkpt>
      <trkpt lat="48.94586" lon="1.40072">
        <ele>97.7</ele>
        <time>2015-09-27T08:10:12Z</time>
      </trkpt>
      <trkpt lat="48.94595" lon="1.40071">
        <ele>97.3</ele>
        <time>2015-09-27T08:10:14Z</time>
      </trkpt>
      <trkpt lat="48.94609" lon="1.40063">
        <ele>96.8</ele>
        <time>2015-09-27T08:10:17Z</time>
      </trkpt>
      <trkpt lat="48.94622" lon="1.40058">
        <ele>96.5</ele>
        <time>2015-09-27T08:10:19Z</time>
      </trkpt>
      <trkpt lat="48.94634" lon="1.40054">
        <ele>96.2</ele>
        <time>2015-09-27T08:10:21Z</time>
      </trkpt>
      <trkpt lat="48.94648" lon="1.4005">
        <ele>95.9</ele>
        <time>2015-09-27T08:10:23Z</time>
      </trkpt>
      <trkpt lat="48.9466" lon="1.40044">
        <ele>95.6</ele>
        <time>2015-09-27T08:10:25Z</time>
      </trkpt>
      <trkpt lat="48.94671" lon="1.40038">
        <ele>95.2</ele>
        <time>2015-09-27T08:10:27Z</time>
      </trkpt>
      <trkpt lat="48.94682" lon="1.40032">
        <ele>94.7</ele>
        <time>2015-09-27T08:10:29Z</time>
      </trkpt>
      <trkpt lat="48.94693" lon="1.40023">
        <ele>94.3</ele>
        <time>2015-09-27T08:10:31Z</time>
      </trkpt>
      <trkpt lat="48.94705" lon="1.40011">
        <ele>93.9</ele>
        <time>2015-09-27T08:10:33Z</time>
      </trkpt>
      <trkpt lat="48.94717" lon="1.39996">
        <ele>93.4</ele>
        <time>2015-09-27T08:10:35Z</time>
      </trkpt>
      <trkpt lat="48.94727" lon="1.39979">
        <ele>93</ele>
        <time>2015-09-27T08:10:37Z</time>
      </trkpt>
      <trkpt lat="48.94736" lon="1.3996">
        <ele>92.4</ele>
        <time>2015-09-27T08:10:39Z</time>
      </trkpt>
      <trkpt lat="48.94745" lon="1.39942">
        <ele>91</ele>
        <time>2015-09-27T08:10:41Z</time>
      </trkpt>
      <trkpt lat="48.9476" lon="1.39918">
        <ele>91.1</ele>
        <time>2015-09-27T08:10:44Z</time>
      </trkpt>
      <trkpt lat="48.94771" lon="1.39905">
        <ele>90.6</ele>
        <time>2015-09-27T08:10:46Z</time>
      </trkpt>
      <trkpt lat="48.94784" lon="1.39896">
        <ele>90.1</ele>
        <time>2015-09-27T08:10:48Z</time>
      </trkpt>
      <trkpt lat="48.94797" lon="1.39893">
        <ele>89.7</ele>
        <time>2015-09-27T08:10:50Z</time>
      </trkpt>
      <trkpt lat="48.94811" lon="1.39892">
        <ele>89.3</ele>
        <time>2015-09-27T08:10:52Z</time>
      </trkpt>
      <trkpt lat="48.94822" lon="1.39892">
        <ele>88.8</ele>
        <time>2015-09-27T08:10:54Z</time>
      </trkpt>
      <trkpt lat="48.94836" lon="1.39892">
        <ele>88.4</ele>
        <time>2015-09-27T08:10:56Z</time>
      </trkpt>
      <trkpt lat="48.94847" lon="1.39892">
        <ele>87.9</ele>
        <time>2015-09-27T08:10:58Z</time>
      </trkpt>
      <trkpt lat="48.94859" lon="1.39895">
        <ele>87.5</ele>
        <time>2015-09-27T08:11:00Z</time>
      </trkpt>
      <trkpt lat="48.94874" lon="1.399">
        <ele>87.1</ele>
        <time>2015-09-27T08:11:02Z</time>
      </trkpt>
      <trkpt lat="48.94888" lon="1.39905">
        <ele>86.6</ele>
        <time>2015-09-27T08:11:04Z</time>
      </trkpt>
      <trkpt lat="48.94898" lon="1.39908">
        <ele>86.1</ele>
        <time>2015-09-27T08:11:06Z</time>
      </trkpt>
      <trkpt lat="48.94912" lon="1.39916">
        <ele>85.6</ele>
        <time>2015-09-27T08:11:08Z</time>
      </trkpt>
      <trkpt lat="48.94924" lon="1.39923">
        <ele>85.1</ele>
        <time>2015-09-27T08:11:10Z</time>
      </trkpt>
      <trkpt lat="48.94933" lon="1.39926">
        <ele>84.9</ele>
        <time>2015-09-27T08:11:11Z</time>
      </trkpt>
      <trkpt lat="48.94946" lon="1.3993">
        <ele>84.4</ele>
        <time>2015-09-27T08:11:13Z</time>
      </trkpt>
      <trkpt lat="48.94961" lon="1.39933">
        <ele>84.1</ele>
        <time>2015-09-27T08:11:14Z</time>
      </trkpt>
      <trkpt lat="48.94975" lon="1.39933">
        <ele>83.9</ele>
        <time>2015-09-27T08:11:15Z</time>
      </trkpt>
      <trkpt lat="48.94992" lon="1.39935">
        <ele>83.3</ele>
        <time>2015-09-27T08:11:17Z</time>
      </trkpt>
      <trkpt lat="48.95008" lon="1.39932">
        <ele>82.8</ele>
        <time>2015-09-27T08:11:19Z</time>
      </trkpt>
      <trkpt lat="48.95017" lon="1.39928">
        <ele>82.5</ele>
        <time>2015-09-27T08:11:20Z</time>
      </trkpt>
      <trkpt lat="48.95026" lon="1.39924">
        <ele>82.3</ele>
        <time>2015-09-27T08:11:21Z</time>
      </trkpt>
      <trkpt lat="48.95041" lon="1.39918">
        <ele>81.8</ele>
        <time>2015-09-27T08:11:23Z</time>
      </trkpt>
      <trkpt lat="48.95053" lon="1.39906">
        <ele>81.4</ele>
        <time>2015-09-27T08:11:25Z</time>
      </trkpt>
      <trkpt lat="48.95064" lon="1.39897">
        <ele>81</ele>
        <time>2015-09-27T08:11:27Z</time>
      </trkpt>
      <trkpt lat="48.95076" lon="1.39886">
        <ele>80.7</ele>
        <time>2015-09-27T08:11:29Z</time>
      </trkpt>
      <trkpt lat="48.95087" lon="1.39877">
        <ele>80.3</ele>
        <time>2015-09-27T08:11:31Z</time>
      </trkpt>
      <trkpt lat="48.95099" lon="1.39866">
        <ele>80</ele>
        <time>2015-09-27T08:11:33Z</time>
      </trkpt>
      <trkpt lat="48.95109" lon="1.39855">
        <ele>79.6</ele>
        <time>2015-09-27T08:11:35Z</time>
      </trkpt>
      <trkpt lat="48.95122" lon="1.39842">
        <ele>79.2</ele>
        <time>2015-09-27T08:11:37Z</time>
      </trkpt>
      <trkpt lat="48.95135" lon="1.39835">
        <ele>78.8</ele>
        <time>2015-09-27T08:11:39Z</time>
      </trkpt>
      <trkpt lat="48.95147" lon="1.39824">
        <ele>78.5</ele>
        <time>2015-09-27T08:11:41Z</time>
      </trkpt>
      <trkpt lat="48.95162" lon="1.39814">
        <ele>78.2</ele>
        <time>2015-09-27T08:11:43Z</time>
      </trkpt>
      <trkpt lat="48.95176" lon="1.39806">
        <ele>78</ele>
        <time>2015-09-27T08:11:45Z</time>
      </trkpt>
      <trkpt lat="48.95189" lon="1.39796">
        <ele>77.8</ele>
        <time>2015-09-27T08:11:47Z</time>
      </trkpt>
      <trkpt lat="48.95201" lon="1.39782">
        <ele>77.6</ele>
        <time>2015-09-27T08:11:49Z</time>
      </trkpt>
      <trkpt lat="48.95213" lon="1.39768">
        <ele>77.3</ele>
        <time>2015-09-27T08:11:51Z</time>
      </trkpt>
      <trkpt lat="48.95224" lon="1.39751">
        <ele>77</ele>
        <time>2015-09-27T08:11:53Z</time>
      </trkpt>
      <trkpt lat="48.95232" lon="1.39735">
        <ele>76.8</ele>
        <time>2015-09-27T08:11:55Z</time>
      </trkpt>
      <trkpt lat="48.9524" lon="1.39719">
        <ele>76.5</ele>
        <time>2015-09-27T08:11:57Z</time>
      </trkpt>
      <trkpt lat="48.9525" lon="1.39702">
        <ele>76.2</ele>
        <time>2015-09-27T08:11:59Z</time>
      </trkpt>
      <trkpt lat="48.95263" lon="1.39688">
        <ele>75.8</ele>
        <time>2015-09-27T08:12:01Z</time>
      </trkpt>
      <trkpt lat="48.95277" lon="1.39676">
        <ele>75.3</ele>
        <time>2015-09-27T08:12:03Z</time>
      </trkpt>
      <trkpt lat="48.95291" lon="1.39663">
        <ele>74.7</ele>
        <time>2015-09-27T08:12:05Z</time>
      </trkpt>
      <trkpt lat="48.95304" lon="1.39654">
        <ele>74.2</ele>
        <time>2015-09-27T08:12:07Z</time>
      </trkpt>
      <trkpt lat="48.95318" lon="1.39644">
        <ele>73.7</ele>
        <time>2015-09-27T08:12:09Z</time>
      </trkpt>
      <trkpt lat="48.9533" lon="1.39632">
        <ele>73.2</ele>
        <time>2015-09-27T08:12:11Z</time>
      </trkpt>
      <trkpt lat="48.95339" lon="1.39618">
        <ele>72.8</ele>
        <time>2015-09-27T08:12:13Z</time>
      </trkpt>
      <trkpt lat="48.95348" lon="1.39605">
        <ele>72.4</ele>
        <time>2015-09-27T08:12:15Z</time>
      </trkpt>
      <trkpt lat="48.95359" lon="1.39589">
        <ele>72</ele>
        <time>2015-09-27T08:12:17Z</time>
      </trkpt>
      <trkpt lat="48.95369" lon="1.39576">
        <ele>71.6</ele>
        <time>2015-09-27T08:12:19Z</time>
      </trkpt>
      <trkpt lat="48.95382" lon="1.39562">
        <ele>71.2</ele>
        <time>2015-09-27T08:12:21Z</time>
      </trkpt>
      <trkpt lat="48.95395" lon="1.39549">
        <ele>70.8</ele>
        <time>2015-09-27T08:12:23Z</time>
      </trkpt>
      <trkpt lat="48.9541" lon="1.39535">
        <ele>70.5</ele>
        <time>2015-09-27T08:12:25Z</time>
      </trkpt>
      <trkpt lat="48.95424" lon="1.39524">
        <ele>70</ele>
        <time>2015-09-27T08:12:27Z</time>
      </trkpt>
      <trkpt lat="48.95438" lon="1.39515">
        <ele>69.5</ele>
        <time>2015-09-27T08:12:29Z</time>
      </trkpt>
      <trkpt lat="48.95452" lon="1.39506">
        <ele>69.1</ele>
        <time>2015-09-27T08:12:31Z</time>
      </trkpt>
      <trkpt lat="48.95464" lon="1.39495">
        <ele>68.5</ele>
        <time>2015-09-27T08:12:33Z</time>
      </trkpt>
      <trkpt lat="48.95476" lon="1.39486">
        <ele>68</ele>
        <time>2015-09-27T08:12:35Z</time>
      </trkpt>
      <trkpt lat="48.95487" lon="1.39479">
        <ele>67.6</ele>
        <time>2015-09-27T08:12:37Z</time>
      </trkpt>
      <trkpt lat="48.95497" lon="1.39472">
        <ele>67.2</ele>
        <time>2015-09-27T08:12:39Z</time>
      </trkpt>
      <trkpt lat="48.95506" lon="1.39466">
        <ele>66.8</ele>
        <time>2015-09-27T08:12:41Z</time>
      </trkpt>
      <trkpt lat="48.95515" lon="1.39457">
        <ele>66.5</ele>
        <time>2015-09-27T08:12:43Z</time>
      </trkpt>
      <trkpt lat="48.95527" lon="1.39449">
        <ele>66.2</ele>
        <time>2015-09-27T08:12:45Z</time>
      </trkpt>
      <trkpt lat="48.95537" lon="1.39444">
        <ele>66</ele>
        <time>2015-09-27T08:12:47Z</time>
      </trkpt>
      <trkpt lat="48.95549" lon="1.39436">
        <ele>65.8</ele>
        <time>2015-09-27T08:12:49Z</time>
      </trkpt>
      <trkpt lat="48.95562" lon="1.39427">
        <ele>65.5</ele>
        <time>2015-09-27T08:12:51Z</time>
      </trkpt>
      <trkpt lat="48.95573" lon="1.3941">
        <ele>65.3</ele>
        <time>2015-09-27T08:12:53Z</time>
      </trkpt>
      <trkpt lat="48.95581" lon="1.39391">
        <ele>64.9</ele>
        <time>2015-09-27T08:12:55Z</time>
      </trkpt>
      <trkpt lat="48.95588" lon="1.39375">
        <ele>64.6</ele>
        <time>2015-09-27T08:12:57Z</time>
      </trkpt>
      <trkpt lat="48.95594" lon="1.39358">
        <ele>64.3</ele>
        <time>2015-09-27T08:12:59Z</time>
      </trkpt>
      <trkpt lat="48.95601" lon="1.39347">
        <ele>64</ele>
        <time>2015-09-27T08:13:01Z</time>
      </trkpt>
      <trkpt lat="48.95608" lon="1.39329">
        <ele>63.7</ele>
        <time>2015-09-27T08:13:03Z</time>
      </trkpt>
      <trkpt lat="48.95616" lon="1.39311">
        <ele>63.5</ele>
        <time>2015-09-27T08:13:05Z</time>
      </trkpt>
      <trkpt lat="48.95624" lon="1.39293">
        <ele>63.2</ele>
        <time>2015-09-27T08:13:07Z</time>
      </trkpt>
      <trkpt lat="48.95631" lon="1.39278">
        <ele>62.9</ele>
        <time>2015-09-27T08:13:09Z</time>
      </trkpt>
      <trkpt lat="48.95639" lon="1.39265">
        <ele>62.6</ele>
        <time>2015-09-27T08:13:11Z</time>
      </trkpt>
      <trkpt lat="48.95647" lon="1.39248">
        <ele>62.3</ele>
        <time>2015-09-27T08:13:13Z</time>
      </trkpt>
      <trkpt lat="48.95652" lon="1.39225">
        <ele>62</ele>
        <time>2015-09-27T08:13:15Z</time>
      </trkpt>
      <trkpt lat="48.95659" lon="1.39207">
        <ele>61.7</ele>
        <time>2015-09-27T08:13:17Z</time>
      </trkpt>
      <trkpt lat="48.95665" lon="1.39193">
        <ele>61.4</ele>
        <time>2015-09-27T08:13:19Z</time>
      </trkpt>
      <trkpt lat="48.95672" lon="1.39179">
        <ele>61.2</ele>
        <time>2015-09-27T08:13:21Z</time>
      </trkpt>
      <trkpt lat="48.9568" lon="1.39162">
        <ele>60.9</ele>
        <time>2015-09-27T08:13:23Z</time>
      </trkpt>
      <trkpt lat="48.95688" lon="1.39146">
        <ele>60.7</ele>
        <time>2015-09-27T08:13:25Z</time>
      </trkpt>
      <trkpt lat="48.95694" lon="1.39133">
        <ele>60.5</ele>
        <time>2015-09-27T08:13:27Z</time>
      </trkpt>
      <trkpt lat="48.95702" lon="1.39119">
        <ele>60.1</ele>
        <time>2015-09-27T08:13:29Z</time>
      </trkpt>
      <trkpt lat="48.95711" lon="1.3911">
        <ele>59.7</ele>
        <time>2015-09-27T08:13:31Z</time>
      </trkpt>
      <trkpt lat="48.95722" lon="1.39103">
        <ele>59.3</ele>
        <time>2015-09-27T08:13:33Z</time>
      </trkpt>
      <trkpt lat="48.95734" lon="1.39093">
        <ele>59</ele>
        <time>2015-09-27T08:13:35Z</time>
      </trkpt>
      <trkpt lat="48.95743" lon="1.39085">
        <ele>58.8</ele>
        <time>2015-09-27T08:13:37Z</time>
      </trkpt>
      <trkpt lat="48.95756" lon="1.39081">
        <ele>58.5</ele>
        <time>2015-09-27T08:13:40Z</time>
      </trkpt>
      <trkpt lat="48.95766" lon="1.3908">
        <ele>58.3</ele>
        <time>2015-09-27T08:13:42Z</time>
      </trkpt>
      <trkpt lat="48.95778" lon="1.39077">
        <ele>58.1</ele>
        <time>2015-09-27T08:13:44Z</time>
      </trkpt>
      <trkpt lat="48.95788" lon="1.39075">
        <ele>57.9</ele>
        <time>2015-09-27T08:13:46Z</time>
      </trkpt>
      <trkpt lat="48.95803" lon="1.39066">
        <ele>57.6</ele>
        <time>2015-09-27T08:13:48Z</time>
      </trkpt>
      <trkpt lat="48.95818" lon="1.39064">
        <ele>57.3</ele>
        <time>2015-09-27T08:13:50Z</time>
      </trkpt>
      <trkpt lat="48.95832" lon="1.39065">
        <ele>57</ele>
        <time>2015-09-27T08:13:52Z</time>
      </trkpt>
      <trkpt lat="48.95841" lon="1.39078">
        <ele>56.8</ele>
        <time>2015-09-27T08:13:54Z</time>
      </trkpt>
      <trkpt lat="48.95853" lon="1.39087">
        <ele>56.6</ele>
        <time>2015-09-27T08:13:56Z</time>
      </trkpt>
      <trkpt lat="48.95862" lon="1.39095">
        <ele>56.2</ele>
        <time>2015-09-27T08:13:58Z</time>
      </trkpt>
      <trkpt lat="48.95875" lon="1.39104">
        <ele>55.9</ele>
        <time>2015-09-27T08:14:00Z</time>
      </trkpt>
      <trkpt lat="48.95885" lon="1.39114">
        <ele>55.5</ele>
        <time>2015-09-27T08:14:02Z</time>
      </trkpt>
      <trkpt lat="48.95897" lon="1.39125">
        <ele>55.3</ele>
        <time>2015-09-27T08:14:04Z</time>
      </trkpt>
      <trkpt lat="48.95905" lon="1.39135">
        <ele>55</ele>
        <time>2015-09-27T08:14:06Z</time>
      </trkpt>
      <trkpt lat="48.95916" lon="1.39149">
        <ele>54.8</ele>
        <time>2015-09-27T08:14:08Z</time>
      </trkpt>
      <trkpt lat="48.95933" lon="1.39162">
        <ele>54.6</ele>
        <time>2015-09-27T08:14:10Z</time>
      </trkpt>
      <trkpt lat="48.95947" lon="1.39173">
        <ele>54.4</ele>
        <time>2015-09-27T08:14:12Z</time>
      </trkpt>
      <trkpt lat="48.9596" lon="1.39187">
        <ele>54.3</ele>
        <time>2015-09-27T08:14:14Z</time>
      </trkpt>
      <trkpt lat="48.95968" lon="1.39199">
        <ele>54.2</ele>
        <time>2015-09-27T08:14:16Z</time>
      </trkpt>
      <trkpt lat="48.95975" lon="1.39212">
        <ele>54</ele>
        <time>2015-09-27T08:14:18Z</time>
      </trkpt>
      <trkpt lat="48.95982" lon="1.39222">
        <ele>53.9</ele>
        <time>2015-09-27T08:14:20Z</time>
      </trkpt>
      <trkpt lat="48.95991" lon="1.39234">
        <ele>53.8</ele>
        <time>2015-09-27T08:14:22Z</time>
      </trkpt>
      <trkpt lat="48.95999" lon="1.39251">
        <ele>53.6</ele>
        <time>2015-09-27T08:14:24Z</time>
      </trkpt>
      <trkpt lat="48.96005" lon="1.39266">
        <ele>53.5</ele>
        <time>2015-09-27T08:14:26Z</time>
      </trkpt>
      <trkpt lat="48.96014" lon="1.39278">
        <ele>53.3</ele>
        <time>2015-09-27T08:14:28Z</time>
      </trkpt>
      <trkpt lat="48.96021" lon="1.3929">
        <ele>53.1</ele>
        <time>2015-09-27T08:14:30Z</time>
      </trkpt>
      <trkpt lat="48.96029" lon="1.39299">
        <ele>53</ele>
        <time>2015-09-27T08:14:31Z</time>
      </trkpt>
      <trkpt lat="48.96035" lon="1.39313">
        <ele>52.8</ele>
        <time>2015-09-27T08:14:33Z</time>
      </trkpt>
      <trkpt lat="48.96042" lon="1.39323">
        <ele>52.7</ele>
        <time>2015-09-27T08:14:35Z</time>
      </trkpt>
      <trkpt lat="48.96049" lon="1.39334">
        <ele>52.7</ele>
        <time>2015-09-27T08:14:37Z</time>
      </trkpt>
      <trkpt lat="48.96059" lon="1.39346">
        <ele>52.5</ele>
        <time>2015-09-27T08:14:39Z</time>
      </trkpt>
      <trkpt lat="48.96067" lon="1.39354">
        <ele>52.4</ele>
        <time>2015-09-27T08:14:41Z</time>
      </trkpt>
      <trkpt lat="48.96079" lon="1.39363">
        <ele>52.2</ele>
        <time>2015-09-27T08:14:44Z</time>
      </trkpt>
      <trkpt lat="48.96094" lon="1.39371">
        <ele>52.2</ele>
        <time>2015-09-27T08:14:46Z</time>
      </trkpt>
      <trkpt lat="48.96107" lon="1.39375">
        <ele>52.1</ele>
        <time>2015-09-27T08:14:47Z</time>
      </trkpt>
      <trkpt lat="48.96126" lon="1.39381">
        <ele>52</ele>
        <time>2015-09-27T08:14:49Z</time>
      </trkpt>
      <trkpt lat="48.96139" lon="1.39383">
        <ele>52</ele>
        <time>2015-09-27T08:14:51Z</time>
      </trkpt>
      <trkpt lat="48.96149" lon="1.39384">
        <ele>52</ele>
        <time>2015-09-27T08:14:52Z</time>
      </trkpt>
      <trkpt lat="48.96164" lon="1.39383">
        <ele>52</ele>
        <time>2015-09-27T08:14:54Z</time>
      </trkpt>
      <trkpt lat="48.96179" lon="1.39379">
        <ele>52</ele>
        <time>2015-09-27T08:14:56Z</time>
      </trkpt>
      <trkpt lat="48.96195" lon="1.39371">
        <ele>52</ele>
        <time>2015-09-27T08:14:58Z</time>
      </trkpt>
      <trkpt lat="48.96211" lon="1.39362">
        <ele>52</ele>
        <time>2015-09-27T08:15:00Z</time>
      </trkpt>
      <trkpt lat="48.96227" lon="1.39354">
        <ele>51.9</ele>
        <time>2015-09-27T08:15:02Z</time>
      </trkpt>
      <trkpt lat="48.96241" lon="1.39341">
        <ele>51.8</ele>
        <time>2015-09-27T08:15:04Z</time>
      </trkpt>
      <trkpt lat="48.96256" lon="1.39331">
        <ele>51.7</ele>
        <time>2015-09-27T08:15:06Z</time>
      </trkpt>
      <trkpt lat="48.96269" lon="1.39319">
        <ele>51.6</ele>
        <time>2015-09-27T08:15:08Z</time>
      </trkpt>
      <trkpt lat="48.9628" lon="1.39306">
        <ele>51.5</ele>
        <time>2015-09-27T08:15:10Z</time>
      </trkpt>
      <trkpt lat="48.96292" lon="1.39294">
        <ele>51.4</ele>
        <time>2015-09-27T08:15:12Z</time>
      </trkpt>
      <trkpt lat="48.96303" lon="1.39285">
        <ele>51.3</ele>
        <time>2015-09-27T08:15:14Z</time>
      </trkpt>
      <trkpt lat="48.96315" lon="1.39276">
        <ele>51.2</ele>
        <time>2015-09-27T08:15:16Z</time>
      </trkpt>
      <trkpt lat="48.96326" lon="1.39267">
        <ele>51.1</ele>
        <time>2015-09-27T08:15:18Z</time>
      </trkpt>
      <trkpt lat="48.96338" lon="1.39259">
        <ele>51</ele>
        <time>2015-09-27T08:15:20Z</time>
      </trkpt>
      <trkpt lat="48.9635" lon="1.39251">
        <ele>50.9</ele>
        <time>2015-09-27T08:15:22Z</time>
      </trkpt>
      <trkpt lat="48.96361" lon="1.39243">
        <ele>50.7</ele>
        <time>2015-09-27T08:15:24Z</time>
      </trkpt>
      <trkpt lat="48.96373" lon="1.39236">
        <ele>50.6</ele>
        <time>2015-09-27T08:15:26Z</time>
      </trkpt>
      <trkpt lat="48.96384" lon="1.39229">
        <ele>50.4</ele>
        <time>2015-09-27T08:15:28Z</time>
      </trkpt>
      <trkpt lat="48.96394" lon="1.39223">
        <ele>50.4</ele>
        <time>2015-09-27T08:15:30Z</time>
      </trkpt>
      <trkpt lat="48.96405" lon="1.39218">
        <ele>50.3</ele>
        <time>2015-09-27T08:15:32Z</time>
      </trkpt>
      <trkpt lat="48.96414" lon="1.39212">
        <ele>50.2</ele>
        <time>2015-09-27T08:15:34Z</time>
      </trkpt>
      <trkpt lat="48.96424" lon="1.39209">
        <ele>50.2</ele>
        <time>2015-09-27T08:15:36Z</time>
      </trkpt>
      <trkpt lat="48.96436" lon="1.39207">
        <ele>50.1</ele>
        <time>2015-09-27T08:15:39Z</time>
      </trkpt>
      <trkpt lat="48.96445" lon="1.39207">
        <ele>50</ele>
        <time>2015-09-27T08:15:42Z</time>
      </trkpt>
      <trkpt lat="48.96454" lon="1.3921">
        <ele>48.2</ele>
        <time>2015-09-27T08:17:09Z</time>
      </trkpt>
      <trkpt lat="48.96463" lon="1.39215">
        <ele>47.8</ele>
        <time>2015-09-27T08:18:01Z</time>
      </trkpt>
      <trkpt lat="48.96453" lon="1.39215">
        <ele>47.9</ele>
        <time>2015-09-27T08:20:44Z</time>
      </trkpt>
      <trkpt lat="48.96463" lon="1.39207">
        <ele>47.9</ele>
        <time>2015-09-27T08:21:01Z</time>
      </trkpt>
      <trkpt lat="48.96466" lon="1.39193">
        <ele>47.9</ele>
        <time>2015-09-27T08:21:04Z</time>
      </trkpt>
      <trkpt lat="48.96468" lon="1.39173">
        <ele>47.8</ele>
        <time>2015-09-27T08:21:07Z</time>
      </trkpt>
      <trkpt lat="48.96464" lon="1.39158">
        <ele>47.5</ele>
        <time>2015-09-27T08:21:10Z</time>
      </trkpt>
      <trkpt lat="48.96455" lon="1.39154">
        <ele>47.2</ele>
        <time>2015-09-27T08:21:13Z</time>
      </trkpt>
      <trkpt lat="48.96445" lon="1.39153">
        <ele>46.9</ele>
        <time>2015-09-27T08:21:16Z</time>
      </trkpt>
      <trkpt lat="48.96433" lon="1.3915">
        <ele>46.7</ele>
        <time>2015-09-27T08:21:19Z</time>
      </trkpt>
      <trkpt lat="48.96422" lon="1.39146">
        <ele>46.5</ele>
        <time>2015-09-27T08:21:22Z</time>
      </trkpt>
      <trkpt lat="48.96413" lon="1.39138">
        <ele>46.3</ele>
        <time>2015-09-27T08:21:25Z</time>
      </trkpt>
      <trkpt lat="48.96403" lon="1.39131">
        <ele>46.2</ele>
        <time>2015-09-27T08:21:28Z</time>
      </trkpt>
      <trkpt lat="48.96394" lon="1.39125">
        <ele>46.1</ele>
        <time>2015-09-27T08:21:31Z</time>
      </trkpt>
      <trkpt lat="48.96384" lon="1.39119">
        <ele>46.2</ele>
        <time>2015-09-27T08:21:34Z</time>
      </trkpt>
      <trkpt lat="48.96374" lon="1.39115">
        <ele>46.4</ele>
        <time>2015-09-27T08:21:37Z</time>
      </trkpt>
      <trkpt lat="48.96364" lon="1.39111">
        <ele>46.7</ele>
        <time>2015-09-27T08:21:40Z</time>
      </trkpt>
      <trkpt lat="48.96355" lon="1.39108">
        <ele>47</ele>
        <time>2015-09-27T08:21:43Z</time>
      </trkpt>
      <trkpt lat="48.96345" lon="1.39105">
        <ele>47.3</ele>
        <time>2015-09-27T08:21:46Z</time>
      </trkpt>
      <trkpt lat="48.96335" lon="1.391">
        <ele>47.7</ele>
        <time>2015-09-27T08:21:49Z</time>
      </trkpt>
      <trkpt lat="48.96325" lon="1.39096">
        <ele>48.2</ele>
        <time>2015-09-27T08:21:52Z</time>
      </trkpt>
      <trkpt lat="48.96316" lon="1.3909">
        <ele>48.6</ele>
        <time>2015-09-27T08:21:55Z</time>
      </trkpt>
      <trkpt lat="48.96305" lon="1.39086">
        <ele>49.1</ele>
        <time>2015-09-27T08:21:58Z</time>
      </trkpt>
      <trkpt lat="48.96294" lon="1.3908">
        <ele>49.6</ele>
        <time>2015-09-27T08:22:02Z</time>
      </trkpt>
      <trkpt lat="48.96284" lon="1.39073">
        <ele>50</ele>
        <time>2015-09-27T08:22:05Z</time>
      </trkpt>
      <trkpt lat="48.96274" lon="1.39066">
        <ele>50.6</ele>
        <time>2015-09-27T08:22:09Z</time>
      </trkpt>
      <trkpt lat="48.96264" lon="1.3906">
        <ele>51.4</ele>
        <time>2015-09-27T08:22:13Z</time>
      </trkpt>
      <trkpt lat="48.96256" lon="1.39052">
        <ele>51.9</ele>
        <time>2015-09-27T08:22:16Z</time>
      </trkpt>
      <trkpt lat="48.96248" lon="1.39042">
        <ele>52.7</ele>
        <time>2015-09-27T08:22:20Z</time>
      </trkpt>
      <trkpt lat="48.96241" lon="1.39031">
        <ele>53.2</ele>
        <time>2015-09-27T08:22:23Z</time>
      </trkpt>
      <trkpt lat="48.96236" lon="1.39019">
        <ele>53.6</ele>
        <time>2015-09-27T08:22:26Z</time>
      </trkpt>
      <trkpt lat="48.9623" lon="1.39002">
        <ele>54.2</ele>
        <time>2015-09-27T08:22:30Z</time>
      </trkpt>
      <trkpt lat="48.96226" lon="1.3899">
        <ele>54.6</ele>
        <time>2015-09-27T08:22:33Z</time>
      </trkpt>
      <trkpt lat="48.96223" lon="1.38974">
        <ele>55.4</ele>
        <time>2015-09-27T08:22:38Z</time>
      </trkpt>
      <trkpt lat="48.96218" lon="1.3896">
        <ele>56.1</ele>
        <time>2015-09-27T08:22:42Z</time>
      </trkpt>
      <trkpt lat="48.96216" lon="1.38945">
        <ele>56.6</ele>
        <time>2015-09-27T08:22:46Z</time>
      </trkpt>
      <trkpt lat="48.96212" lon="1.38933">
        <ele>57</ele>
        <time>2015-09-27T08:22:49Z</time>
      </trkpt>
      <trkpt lat="48.96206" lon="1.38919">
        <ele>57.7</ele>
        <time>2015-09-27T08:22:53Z</time>
      </trkpt>
      <trkpt lat="48.96203" lon="1.38903">
        <ele>58.4</ele>
        <time>2015-09-27T08:22:57Z</time>
      </trkpt>
      <trkpt lat="48.96197" lon="1.38886">
        <ele>59.2</ele>
        <time>2015-09-27T08:23:01Z</time>
      </trkpt>
      <trkpt lat="48.96188" lon="1.38872">
        <ele>59.9</ele>
        <time>2015-09-27T08:23:05Z</time>
      </trkpt>
      <trkpt lat="48.96182" lon="1.38859">
        <ele>61</ele>
        <time>2015-09-27T08:23:10Z</time>
      </trkpt>
      <trkpt lat="48.96178" lon="1.38846">
        <ele>62.1</ele>
        <time>2015-09-27T08:23:14Z</time>
      </trkpt>
      <trkpt lat="48.96173" lon="1.38834">
        <ele>63</ele>
        <time>2015-09-27T08:23:18Z</time>
      </trkpt>
      <trkpt lat="48.96167" lon="1.3882">
        <ele>64.3</ele>
        <time>2015-09-27T08:23:24Z</time>
      </trkpt>
      <trkpt lat="48.96163" lon="1.38806">
        <ele>65.4</ele>
        <time>2015-09-27T08:23:29Z</time>
      </trkpt>
      <trkpt lat="48.96161" lon="1.38792">
        <ele>66.3</ele>
        <time>2015-09-27T08:23:34Z</time>
      </trkpt>
      <trkpt lat="48.96156" lon="1.38779">
        <ele>67.2</ele>
        <time>2015-09-27T08:23:39Z</time>
      </trkpt>
      <trkpt lat="48.96153" lon="1.38765">
        <ele>67.8</ele>
        <time>2015-09-27T08:23:43Z</time>
      </trkpt>
      <trkpt lat="48.96154" lon="1.38751">
        <ele>68.5</ele>
        <time>2015-09-27T08:23:47Z</time>
      </trkpt>
      <trkpt lat="48.96155" lon="1.38734">
        <ele>69.3</ele>
        <time>2015-09-27T08:23:52Z</time>
      </trkpt>
      <trkpt lat="48.96155" lon="1.38719">
        <ele>70.2</ele>
        <time>2015-09-27T08:23:57Z</time>
      </trkpt>
      <trkpt lat="48.96151" lon="1.38703">
        <ele>70.8</ele>
        <time>2015-09-27T08:24:01Z</time>
      </trkpt>
      <trkpt lat="48.9615" lon="1.38684">
        <ele>71.2</ele>
        <time>2015-09-27T08:24:04Z</time>
      </trkpt>
      <trkpt lat="48.96147" lon="1.3867">
        <ele>71.7</ele>
        <time>2015-09-27T08:24:07Z</time>
      </trkpt>
      <trkpt lat="48.96144" lon="1.38655">
        <ele>72.3</ele>
        <time>2015-09-27T08:24:10Z</time>
      </trkpt>
      <trkpt lat="48.96144" lon="1.38638">
        <ele>73.2</ele>
        <time>2015-09-27T08:24:15Z</time>
      </trkpt>
      <trkpt lat="48.96148" lon="1.38624">
        <ele>74.2</ele>
        <time>2015-09-27T08:24:20Z</time>
      </trkpt>
      <trkpt lat="48.96149" lon="1.3861">
        <ele>75.1</ele>
        <time>2015-09-27T08:24:24Z</time>
      </trkpt>
      <trkpt lat="48.96152" lon="1.38596">
        <ele>75.9</ele>
        <time>2015-09-27T08:24:28Z</time>
      </trkpt>
      <trkpt lat="48.96153" lon="1.38581">
        <ele>76.7</ele>
        <time>2015-09-27T08:24:32Z</time>
      </trkpt>
      <trkpt lat="48.96153" lon="1.38566">
        <ele>77.7</ele>
        <time>2015-09-27T08:24:37Z</time>
      </trkpt>
      <trkpt lat="48.96155" lon="1.38549">
        <ele>78.5</ele>
        <time>2015-09-27T08:24:41Z</time>
      </trkpt>
      <trkpt lat="48.96157" lon="1.38535">
        <ele>79.3</ele>
        <time>2015-09-27T08:24:45Z</time>
      </trkpt>
      <trkpt lat="48.96156" lon="1.38521">
        <ele>79.9</ele>
        <time>2015-09-27T08:24:48Z</time>
      </trkpt>
      <trkpt lat="48.96158" lon="1.38505">
        <ele>80.7</ele>
        <time>2015-09-27T08:24:52Z</time>
      </trkpt>
      <trkpt lat="48.96161" lon="1.38492">
        <ele>81.7</ele>
        <time>2015-09-27T08:24:57Z</time>
      </trkpt>
      <trkpt lat="48.96166" lon="1.38478">
        <ele>83</ele>
        <time>2015-09-27T08:25:03Z</time>
      </trkpt>
      <trkpt lat="48.96169" lon="1.38462">
        <ele>84.1</ele>
        <time>2015-09-27T08:25:08Z</time>
      </trkpt>
      <trkpt lat="48.96167" lon="1.38448">
        <ele>85</ele>
        <time>2015-09-27T08:25:12Z</time>
      </trkpt>
      <trkpt lat="48.96161" lon="1.38433">
        <ele>87</ele>
        <time>2015-09-27T08:25:20Z</time>
      </trkpt>
      <trkpt lat="48.96158" lon="1.3842">
        <ele>88.2</ele>
        <time>2015-09-27T08:25:25Z</time>
      </trkpt>
      <trkpt lat="48.96156" lon="1.38405">
        <ele>89.6</ele>
        <time>2015-09-27T08:25:31Z</time>
      </trkpt>
      <trkpt lat="48.96156" lon="1.38389">
        <ele>90.8</ele>
        <time>2015-09-27T08:25:36Z</time>
      </trkpt>
      <trkpt lat="48.96155" lon="1.38374">
        <ele>91.8</ele>
        <time>2015-09-27T08:25:40Z</time>
      </trkpt>
      <trkpt lat="48.96154" lon="1.3836">
        <ele>93.2</ele>
        <time>2015-09-27T08:25:45Z</time>
      </trkpt>
      <trkpt lat="48.96156" lon="1.38346">
        <ele>94.4</ele>
        <time>2015-09-27T08:25:50Z</time>
      </trkpt>
      <trkpt lat="48.96158" lon="1.3833">
        <ele>95.4</ele>
        <time>2015-09-27T08:25:55Z</time>
      </trkpt>
      <trkpt lat="48.96157" lon="1.38316">
        <ele>96.2</ele>
        <time>2015-09-27T08:25:59Z</time>
      </trkpt>
      <trkpt lat="48.96154" lon="1.38302">
        <ele>96.9</ele>
        <time>2015-09-27T08:26:03Z</time>
      </trkpt>
      <trkpt lat="48.96151" lon="1.38289">
        <ele>97.4</ele>
        <time>2015-09-27T08:26:06Z</time>
      </trkpt>
      <trkpt lat="48.96145" lon="1.38273">
        <ele>98.4</ele>
        <time>2015-09-27T08:26:11Z</time>
      </trkpt>
      <trkpt lat="48.96142" lon="1.38257">
        <ele>99.1</ele>
        <time>2015-09-27T08:26:15Z</time>
      </trkpt>
      <trkpt lat="48.96141" lon="1.38243">
        <ele>100</ele>
        <time>2015-09-27T08:26:20Z</time>
      </trkpt>
      <trkpt lat="48.96142" lon="1.38229">
        <ele>100.7</ele>
        <time>2015-09-27T08:26:24Z</time>
      </trkpt>
      <trkpt lat="48.96142" lon="1.38214">
        <ele>101.3</ele>
        <time>2015-09-27T08:26:28Z</time>
      </trkpt>
      <trkpt lat="48.96143" lon="1.38197">
        <ele>101.8</ele>
        <time>2015-09-27T08:26:32Z</time>
      </trkpt>
      <trkpt lat="48.96141" lon="1.38183">
        <ele>102.3</ele>
        <time>2015-09-27T08:26:35Z</time>
      </trkpt>
      <trkpt lat="48.96138" lon="1.38165">
        <ele>103</ele>
        <time>2015-09-27T08:26:39Z</time>
      </trkpt>
      <trkpt lat="48.96135" lon="1.38148">
        <ele>103.5</ele>
        <time>2015-09-27T08:26:42Z</time>
      </trkpt>
      <trkpt lat="48.96132" lon="1.38134">
        <ele>104</ele>
        <time>2015-09-27T08:26:45Z</time>
      </trkpt>
      <trkpt lat="48.96131" lon="1.38119">
        <ele>104.7</ele>
        <time>2015-09-27T08:26:49Z</time>
      </trkpt>
      <trkpt lat="48.96133" lon="1.38104">
        <ele>105.4</ele>
        <time>2015-09-27T08:26:53Z</time>
      </trkpt>
      <trkpt lat="48.96136" lon="1.38088">
        <ele>106</ele>
        <time>2015-09-27T08:26:57Z</time>
      </trkpt>
      <trkpt lat="48.96136" lon="1.38073">
        <ele>106.6</ele>
        <time>2015-09-27T08:27:00Z</time>
      </trkpt>
      <trkpt lat="48.96138" lon="1.38057">
        <ele>107.2</ele>
        <time>2015-09-27T08:27:03Z</time>
      </trkpt>
      <trkpt lat="48.96139" lon="1.38038">
        <ele>107.7</ele>
        <time>2015-09-27T08:27:06Z</time>
      </trkpt>
      <trkpt lat="48.9614" lon="1.3802">
        <ele>108.2</ele>
        <time>2015-09-27T08:27:09Z</time>
      </trkpt>
      <trkpt lat="48.96141" lon="1.38002">
        <ele>108.6</ele>
        <time>2015-09-27T08:27:12Z</time>
      </trkpt>
      <trkpt lat="48.96143" lon="1.37987">
        <ele>109</ele>
        <time>2015-09-27T08:27:15Z</time>
      </trkpt>
      <trkpt lat="48.96147" lon="1.37971">
        <ele>109.4</ele>
        <time>2015-09-27T08:27:18Z</time>
      </trkpt>
      <trkpt lat="48.96155" lon="1.37959">
        <ele>109.9</ele>
        <time>2015-09-27T08:27:22Z</time>
      </trkpt>
      <trkpt lat="48.96165" lon="1.37947">
        <ele>110.3</ele>
        <time>2015-09-27T08:27:26Z</time>
      </trkpt>
      <trkpt lat="48.96173" lon="1.37935">
        <ele>110.5</ele>
        <time>2015-09-27T08:27:29Z</time>
      </trkpt>
      <trkpt lat="48.96181" lon="1.37924">
        <ele>110.7</ele>
        <time>2015-09-27T08:27:32Z</time>
      </trkpt>
      <trkpt lat="48.96189" lon="1.37914">
        <ele>110.8</ele>
        <time>2015-09-27T08:27:34Z</time>
      </trkpt>
      <trkpt lat="48.962" lon="1.379">
        <ele>111</ele>
        <time>2015-09-27T08:27:37Z</time>
      </trkpt>
      <trkpt lat="48.96208" lon="1.37888">
        <ele>111.1</ele>
        <time>2015-09-27T08:27:39Z</time>
      </trkpt>
      <trkpt lat="48.96214" lon="1.37875">
        <ele>111.2</ele>
        <time>2015-09-27T08:27:41Z</time>
      </trkpt>
      <trkpt lat="48.9622" lon="1.3786">
        <ele>111.4</ele>
        <time>2015-09-27T08:27:44Z</time>
      </trkpt>
      <trkpt lat="48.96226" lon="1.37844">
        <ele>111.5</ele>
        <time>2015-09-27T08:27:47Z</time>
      </trkpt>
      <trkpt lat="48.96231" lon="1.37828">
        <ele>111.6</ele>
        <time>2015-09-27T08:27:50Z</time>
      </trkpt>
      <trkpt lat="48.96235" lon="1.37814">
        <ele>111.8</ele>
        <time>2015-09-27T08:27:53Z</time>
      </trkpt>
      <trkpt lat="48.96238" lon="1.37798">
        <ele>111.9</ele>
        <time>2015-09-27T08:27:56Z</time>
      </trkpt>
      <trkpt lat="48.96238" lon="1.37784">
        <ele>112</ele>
        <time>2015-09-27T08:27:58Z</time>
      </trkpt>
      <trkpt lat="48.96238" lon="1.37764">
        <ele>112.2</ele>
        <time>2015-09-27T08:28:01Z</time>
      </trkpt>
      <trkpt lat="48.96238" lon="1.37747">
        <ele>112.4</ele>
        <time>2015-09-27T08:28:03Z</time>
      </trkpt>
      <trkpt lat="48.96239" lon="1.37727">
        <ele>112.7</ele>
        <time>2015-09-27T08:28:06Z</time>
      </trkpt>
      <trkpt lat="48.96238" lon="1.37713">
        <ele>112.9</ele>
        <time>2015-09-27T08:28:08Z</time>
      </trkpt>
      <trkpt lat="48.9624" lon="1.37697">
        <ele>113.2</ele>
        <time>2015-09-27T08:28:11Z</time>
      </trkpt>
      <trkpt lat="48.96239" lon="1.37679">
        <ele>113.4</ele>
        <time>2015-09-27T08:28:14Z</time>
      </trkpt>
      <trkpt lat="48.96237" lon="1.37664">
        <ele>113.6</ele>
        <time>2015-09-27T08:28:16Z</time>
      </trkpt>
      <trkpt lat="48.96234" lon="1.37648">
        <ele>113.7</ele>
        <time>2015-09-27T08:28:18Z</time>
      </trkpt>
      <trkpt lat="48.96231" lon="1.37635">
        <ele>113.9</ele>
        <time>2015-09-27T08:28:20Z</time>
      </trkpt>
      <trkpt lat="48.96228" lon="1.37619">
        <ele>114</ele>
        <time>2015-09-27T08:28:23Z</time>
      </trkpt>
      <trkpt lat="48.96223" lon="1.37606">
        <ele>114.1</ele>
        <time>2015-09-27T08:28:25Z</time>
      </trkpt>
      <trkpt lat="48.96218" lon="1.37593">
        <ele>114.2</ele>
        <time>2015-09-27T08:28:27Z</time>
      </trkpt>
      <trkpt lat="48.96215" lon="1.3758">
        <ele>114.3</ele>
        <time>2015-09-27T08:28:29Z</time>
      </trkpt>
      <trkpt lat="48.96214" lon="1.37565">
        <ele>114.5</ele>
        <time>2015-09-27T08:28:31Z</time>
      </trkpt>
      <trkpt lat="48.96212" lon="1.37552">
        <ele>114.6</ele>
        <time>2015-09-27T08:28:33Z</time>
      </trkpt>
      <trkpt lat="48.96211" lon="1.37538">
        <ele>114.7</ele>
        <time>2015-09-27T08:28:35Z</time>
      </trkpt>
      <trkpt lat="48.9621" lon="1.37524">
        <ele>114.7</ele>
        <time>2015-09-27T08:28:37Z</time>
      </trkpt>
      <trkpt lat="48.9621" lon="1.37509">
        <ele>114.8</ele>
        <time>2015-09-27T08:28:39Z</time>
      </trkpt>
      <trkpt lat="48.96209" lon="1.3749">
        <ele>114.9</ele>
        <time>2015-09-27T08:28:42Z</time>
      </trkpt>
      <trkpt lat="48.96206" lon="1.37476">
        <ele>115</ele>
        <time>2015-09-27T08:28:44Z</time>
      </trkpt>
      <trkpt lat="48.96208" lon="1.37462">
        <ele>115.1</ele>
        <time>2015-09-27T08:28:46Z</time>
      </trkpt>
      <trkpt lat="48.96209" lon="1.37443">
        <ele>115.3</ele>
        <time>2015-09-27T08:28:49Z</time>
      </trkpt>
      <trkpt lat="48.96211" lon="1.37424">
        <ele>115.5</ele>
        <time>2015-09-27T08:28:52Z</time>
      </trkpt>
      <trkpt lat="48.96209" lon="1.37409">
        <ele>115.7</ele>
        <time>2015-09-27T08:28:54Z</time>
      </trkpt>
      <trkpt lat="48.96208" lon="1.37392">
        <ele>115.8</ele>
        <time>2015-09-27T08:28:56Z</time>
      </trkpt>
      <trkpt lat="48.96206" lon="1.37376">
        <ele>115.9</ele>
        <time>2015-09-27T08:28:58Z</time>
      </trkpt>
      <trkpt lat="48.96202" lon="1.37361">
        <ele>116.1</ele>
        <time>2015-09-27T08:29:00Z</time>
      </trkpt>
      <trkpt lat="48.96197" lon="1.37349">
        <ele>116.2</ele>
        <time>2015-09-27T08:29:02Z</time>
      </trkpt>
      <trkpt lat="48.96191" lon="1.37332">
        <ele>116.3</ele>
        <time>2015-09-27T08:29:05Z</time>
      </trkpt>
      <trkpt lat="48.96189" lon="1.37315">
        <ele>116.5</ele>
        <time>2015-09-27T08:29:08Z</time>
      </trkpt>
      <trkpt lat="48.96185" lon="1.37296">
        <ele>116.6</ele>
        <time>2015-09-27T08:29:11Z</time>
      </trkpt>
      <trkpt lat="48.96184" lon="1.37279">
        <ele>116.8</ele>
        <time>2015-09-27T08:29:14Z</time>
      </trkpt>
      <trkpt lat="48.96182" lon="1.37263">
        <ele>117.1</ele>
        <time>2015-09-27T08:29:17Z</time>
      </trkpt>
      <trkpt lat="48.9618" lon="1.37244">
        <ele>117.3</ele>
        <time>2015-09-27T08:29:20Z</time>
      </trkpt>
      <trkpt lat="48.96176" lon="1.37228">
        <ele>117.4</ele>
        <time>2015-09-27T08:29:22Z</time>
      </trkpt>
      <trkpt lat="48.96175" lon="1.37213">
        <ele>117.5</ele>
        <time>2015-09-27T08:29:24Z</time>
      </trkpt>
      <trkpt lat="48.96175" lon="1.37198">
        <ele>117.6</ele>
        <time>2015-09-27T08:29:26Z</time>
      </trkpt>
      <trkpt lat="48.96177" lon="1.37182">
        <ele>117.7</ele>
        <time>2015-09-27T08:29:28Z</time>
      </trkpt>
      <trkpt lat="48.96179" lon="1.37167">
        <ele>117.8</ele>
        <time>2015-09-27T08:29:30Z</time>
      </trkpt>
      <trkpt lat="48.96182" lon="1.37149">
        <ele>117.9</ele>
        <time>2015-09-27T08:29:33Z</time>
      </trkpt>
      <trkpt lat="48.96186" lon="1.37131">
        <ele>118</ele>
        <time>2015-09-27T08:29:36Z</time>
      </trkpt>
      <trkpt lat="48.9619" lon="1.37112">
        <ele>118.1</ele>
        <time>2015-09-27T08:29:39Z</time>
      </trkpt>
      <trkpt lat="48.96192" lon="1.37098">
        <ele>118.2</ele>
        <time>2015-09-27T08:29:41Z</time>
      </trkpt>
      <trkpt lat="48.96191" lon="1.37084">
        <ele>118.2</ele>
        <time>2015-09-27T08:29:43Z</time>
      </trkpt>
      <trkpt lat="48.96187" lon="1.37067">
        <ele>118.3</ele>
        <time>2015-09-27T08:29:45Z</time>
      </trkpt>
      <trkpt lat="48.96182" lon="1.3705">
        <ele>118.3</ele>
        <time>2015-09-27T08:29:48Z</time>
      </trkpt>
      <trkpt lat="48.96176" lon="1.37038">
        <ele>118.3</ele>
        <time>2015-09-27T08:29:50Z</time>
      </trkpt>
      <trkpt lat="48.96169" lon="1.37022">
        <ele>118.4</ele>
        <time>2015-09-27T08:29:53Z</time>
      </trkpt>
      <trkpt lat="48.96163" lon="1.37009">
        <ele>118.5</ele>
        <time>2015-09-27T08:29:55Z</time>
      </trkpt>
      <trkpt lat="48.96157" lon="1.36997">
        <ele>118.6</ele>
        <time>2015-09-27T08:29:57Z</time>
      </trkpt>
      <trkpt lat="48.96152" lon="1.36983">
        <ele>118.7</ele>
        <time>2015-09-27T08:29:59Z</time>
      </trkpt>
      <trkpt lat="48.96148" lon="1.3697">
        <ele>118.8</ele>
        <time>2015-09-27T08:30:01Z</time>
      </trkpt>
      <trkpt lat="48.96146" lon="1.36955">
        <ele>118.8</ele>
        <time>2015-09-27T08:30:03Z</time>
      </trkpt>
      <trkpt lat="48.96145" lon="1.3694">
        <ele>118.9</ele>
        <time>2015-09-27T08:30:05Z</time>
      </trkpt>
      <trkpt lat="48.96143" lon="1.36925">
        <ele>118.9</ele>
        <time>2015-09-27T08:30:07Z</time>
      </trkpt>
      <trkpt lat="48.96141" lon="1.36911">
        <ele>119</ele>
        <time>2015-09-27T08:30:09Z</time>
      </trkpt>
      <trkpt lat="48.96136" lon="1.36896">
        <ele>119</ele>
        <time>2015-09-27T08:30:11Z</time>
      </trkpt>
      <trkpt lat="48.96131" lon="1.36885">
        <ele>119.1</ele>
        <time>2015-09-27T08:30:13Z</time>
      </trkpt>
      <trkpt lat="48.96125" lon="1.36873">
        <ele>119.1</ele>
        <time>2015-09-27T08:30:15Z</time>
      </trkpt>
      <trkpt lat="48.96118" lon="1.36858">
        <ele>119.1</ele>
        <time>2015-09-27T08:30:17Z</time>
      </trkpt>
      <trkpt lat="48.96112" lon="1.36842">
        <ele>119.1</ele>
        <time>2015-09-27T08:30:19Z</time>
      </trkpt>
      <trkpt lat="48.96106" lon="1.36823">
        <ele>119.1</ele>
        <time>2015-09-27T08:30:21Z</time>
      </trkpt>
      <trkpt lat="48.96102" lon="1.36806">
        <ele>119</ele>
        <time>2015-09-27T08:30:23Z</time>
      </trkpt>
      <trkpt lat="48.96101" lon="1.36787">
        <ele>118.9</ele>
        <time>2015-09-27T08:30:25Z</time>
      </trkpt>
      <trkpt lat="48.96103" lon="1.36772">
        <ele>118.9</ele>
        <time>2015-09-27T08:30:27Z</time>
      </trkpt>
      <trkpt lat="48.96106" lon="1.36752">
        <ele>118.8</ele>
        <time>2015-09-27T08:30:30Z</time>
      </trkpt>
      <trkpt lat="48.96111" lon="1.36735">
        <ele>118.7</ele>
        <time>2015-09-27T08:30:32Z</time>
      </trkpt>
      <trkpt lat="48.96115" lon="1.36719">
        <ele>118.6</ele>
        <time>2015-09-27T08:30:34Z</time>
      </trkpt>
      <trkpt lat="48.96119" lon="1.36703">
        <ele>118.5</ele>
        <time>2015-09-27T08:30:36Z</time>
      </trkpt>
      <trkpt lat="48.96124" lon="1.36688">
        <ele>118.4</ele>
        <time>2015-09-27T08:30:38Z</time>
      </trkpt>
      <trkpt lat="48.96126" lon="1.3667">
        <ele>118.3</ele>
        <time>2015-09-27T08:30:40Z</time>
      </trkpt>
      <trkpt lat="48.96125" lon="1.36653">
        <ele>118.2</ele>
        <time>2015-09-27T08:30:42Z</time>
      </trkpt>
      <trkpt lat="48.96123" lon="1.36635">
        <ele>118.1</ele>
        <time>2015-09-27T08:30:44Z</time>
      </trkpt>
      <trkpt lat="48.96122" lon="1.36618">
        <ele>118.1</ele>
        <time>2015-09-27T08:30:46Z</time>
      </trkpt>
      <trkpt lat="48.96122" lon="1.36597">
        <ele>118</ele>
        <time>2015-09-27T08:30:49Z</time>
      </trkpt>
      <trkpt lat="48.96123" lon="1.36581">
        <ele>117.9</ele>
        <time>2015-09-27T08:30:51Z</time>
      </trkpt>
      <trkpt lat="48.96122" lon="1.36567">
        <ele>117.9</ele>
        <time>2015-09-27T08:30:53Z</time>
      </trkpt>
      <trkpt lat="48.96123" lon="1.36551">
        <ele>117.9</ele>
        <time>2015-09-27T08:30:55Z</time>
      </trkpt>
      <trkpt lat="48.96124" lon="1.3653">
        <ele>117.9</ele>
        <time>2015-09-27T08:30:58Z</time>
      </trkpt>
      <trkpt lat="48.96126" lon="1.3651">
        <ele>117.9</ele>
        <time>2015-09-27T08:31:01Z</time>
      </trkpt>
      <trkpt lat="48.96125" lon="1.36495">
        <ele>118</ele>
        <time>2015-09-27T08:31:03Z</time>
      </trkpt>
      <trkpt lat="48.96127" lon="1.36474">
        <ele>118.1</ele>
        <time>2015-09-27T08:31:06Z</time>
      </trkpt>
      <trkpt lat="48.96129" lon="1.36456">
        <ele>118.1</ele>
        <time>2015-09-27T08:31:09Z</time>
      </trkpt>
      <trkpt lat="48.96129" lon="1.36436">
        <ele>118.2</ele>
        <time>2015-09-27T08:31:12Z</time>
      </trkpt>
      <trkpt lat="48.96127" lon="1.3642">
        <ele>118.2</ele>
        <time>2015-09-27T08:31:14Z</time>
      </trkpt>
      <trkpt lat="48.96126" lon="1.36404">
        <ele>118.3</ele>
        <time>2015-09-27T08:31:16Z</time>
      </trkpt>
      <trkpt lat="48.96129" lon="1.36388">
        <ele>118.5</ele>
        <time>2015-09-27T08:31:19Z</time>
      </trkpt>
      <trkpt lat="48.96133" lon="1.36371">
        <ele>118.6</ele>
        <time>2015-09-27T08:31:22Z</time>
      </trkpt>
      <trkpt lat="48.96136" lon="1.36352">
        <ele>118.8</ele>
        <time>2015-09-27T08:31:25Z</time>
      </trkpt>
      <trkpt lat="48.96139" lon="1.36333">
        <ele>118.9</ele>
        <time>2015-09-27T08:31:28Z</time>
      </trkpt>
      <trkpt lat="48.96143" lon="1.3632">
        <ele>118.9</ele>
        <time>2015-09-27T08:31:30Z</time>
      </trkpt>
      <trkpt lat="48.96146" lon="1.36306">
        <ele>119.1</ele>
        <time>2015-09-27T08:31:32Z</time>
      </trkpt>
      <trkpt lat="48.96147" lon="1.36291">
        <ele>119.1</ele>
        <time>2015-09-27T08:31:34Z</time>
      </trkpt>
      <trkpt lat="48.96149" lon="1.36274">
        <ele>119.2</ele>
        <time>2015-09-27T08:31:36Z</time>
      </trkpt>
      <trkpt lat="48.9615" lon="1.36255">
        <ele>119.3</ele>
        <time>2015-09-27T08:31:38Z</time>
      </trkpt>
      <trkpt lat="48.96152" lon="1.36239">
        <ele>119.4</ele>
        <time>2015-09-27T08:31:40Z</time>
      </trkpt>
      <trkpt lat="48.96154" lon="1.36224">
        <ele>119.4</ele>
        <time>2015-09-27T08:31:42Z</time>
      </trkpt>
      <trkpt lat="48.96157" lon="1.3621">
        <ele>119.5</ele>
        <time>2015-09-27T08:31:44Z</time>
      </trkpt>
      <trkpt lat="48.96158" lon="1.36195">
        <ele>119.5</ele>
        <time>2015-09-27T08:31:46Z</time>
      </trkpt>
      <trkpt lat="48.96164" lon="1.36178">
        <ele>119.6</ele>
        <time>2015-09-27T08:31:48Z</time>
      </trkpt>
      <trkpt lat="48.96169" lon="1.36161">
        <ele>119.6</ele>
        <time>2015-09-27T08:31:50Z</time>
      </trkpt>
      <trkpt lat="48.96176" lon="1.36146">
        <ele>119.7</ele>
        <time>2015-09-27T08:31:52Z</time>
      </trkpt>
      <trkpt lat="48.96184" lon="1.36128">
        <ele>119.7</ele>
        <time>2015-09-27T08:31:54Z</time>
      </trkpt>
      <trkpt lat="48.9619" lon="1.36112">
        <ele>119.6</ele>
        <time>2015-09-27T08:31:56Z</time>
      </trkpt>
      <trkpt lat="48.96195" lon="1.36093">
        <ele>119.6</ele>
        <time>2015-09-27T08:31:58Z</time>
      </trkpt>
      <trkpt lat="48.96201" lon="1.36076">
        <ele>119.5</ele>
        <time>2015-09-27T08:32:00Z</time>
      </trkpt>
      <trkpt lat="48.96208" lon="1.36057">
        <ele>119.4</ele>
        <time>2015-09-27T08:32:02Z</time>
      </trkpt>
      <trkpt lat="48.96213" lon="1.3604">
        <ele>119.4</ele>
        <time>2015-09-27T08:32:04Z</time>
      </trkpt>
      <trkpt lat="48.96221" lon="1.36024">
        <ele>119.3</ele>
        <time>2015-09-27T08:32:06Z</time>
      </trkpt>
      <trkpt lat="48.96228" lon="1.36011">
        <ele>119.2</ele>
        <time>2015-09-27T08:32:08Z</time>
      </trkpt>
      <trkpt lat="48.96233" lon="1.35996">
        <ele>119.2</ele>
        <time>2015-09-27T08:32:10Z</time>
      </trkpt>
      <trkpt lat="48.96237" lon="1.35981">
        <ele>119.1</ele>
        <time>2015-09-27T08:32:12Z</time>
      </trkpt>
      <trkpt lat="48.96241" lon="1.35967">
        <ele>119.1</ele>
        <time>2015-09-27T08:32:14Z</time>
      </trkpt>
      <trkpt lat="48.96244" lon="1.35953">
        <ele>119</ele>
        <time>2015-09-27T08:32:16Z</time>
      </trkpt>
      <trkpt lat="48.96249" lon="1.35935">
        <ele>119</ele>
        <time>2015-09-27T08:32:18Z</time>
      </trkpt>
      <trkpt lat="48.96249" lon="1.35915">
        <ele>119</ele>
        <time>2015-09-27T08:32:20Z</time>
      </trkpt>
      <trkpt lat="48.96248" lon="1.35898">
        <ele>118.9</ele>
        <time>2015-09-27T08:32:22Z</time>
      </trkpt>
      <trkpt lat="48.9625" lon="1.35884">
        <ele>118.9</ele>
        <time>2015-09-27T08:32:24Z</time>
      </trkpt>
      <trkpt lat="48.96248" lon="1.35866">
        <ele>118.9</ele>
        <time>2015-09-27T08:32:26Z</time>
      </trkpt>
      <trkpt lat="48.96246" lon="1.35847">
        <ele>119</ele>
        <time>2015-09-27T08:32:28Z</time>
      </trkpt>
      <trkpt lat="48.96243" lon="1.35827">
        <ele>119.1</ele>
        <time>2015-09-27T08:32:30Z</time>
      </trkpt>
      <trkpt lat="48.96241" lon="1.35809">
        <ele>119.1</ele>
        <time>2015-09-27T08:32:32Z</time>
      </trkpt>
      <trkpt lat="48.96239" lon="1.35791">
        <ele>119.2</ele>
        <time>2015-09-27T08:32:34Z</time>
      </trkpt>
      <trkpt lat="48.96238" lon="1.35774">
        <ele>119.3</ele>
        <time>2015-09-27T08:32:36Z</time>
      </trkpt>
      <trkpt lat="48.96236" lon="1.35758">
        <ele>119.4</ele>
        <time>2015-09-27T08:32:38Z</time>
      </trkpt>
      <trkpt lat="48.96235" lon="1.35743">
        <ele>119.6</ele>
        <time>2015-09-27T08:32:40Z</time>
      </trkpt>
      <trkpt lat="48.96235" lon="1.35728">
        <ele>119.7</ele>
        <time>2015-09-27T08:32:42Z</time>
      </trkpt>
      <trkpt lat="48.96234" lon="1.35712">
        <ele>119.9</ele>
        <time>2015-09-27T08:32:44Z</time>
      </trkpt>
      <trkpt lat="48.96234" lon="1.35696">
        <ele>120</ele>
        <time>2015-09-27T08:32:46Z</time>
      </trkpt>
      <trkpt lat="48.96233" lon="1.3568">
        <ele>120.1</ele>
        <time>2015-09-27T08:32:48Z</time>
      </trkpt>
      <trkpt lat="48.96233" lon="1.35664">
        <ele>120.2</ele>
        <time>2015-09-27T08:32:50Z</time>
      </trkpt>
      <trkpt lat="48.96232" lon="1.35649">
        <ele>120.4</ele>
        <time>2015-09-27T08:32:52Z</time>
      </trkpt>
      <trkpt lat="48.96232" lon="1.35635">
        <ele>120.6</ele>
        <time>2015-09-27T08:32:54Z</time>
      </trkpt>
      <trkpt lat="48.96231" lon="1.35621">
        <ele>120.8</ele>
        <time>2015-09-27T08:32:56Z</time>
      </trkpt>
      <trkpt lat="48.9623" lon="1.35601">
        <ele>121</ele>
        <time>2015-09-27T08:32:59Z</time>
      </trkpt>
      <trkpt lat="48.9623" lon="1.35583">
        <ele>121.4</ele>
        <time>2015-09-27T08:33:02Z</time>
      </trkpt>
      <trkpt lat="48.96228" lon="1.35563">
        <ele>121.9</ele>
        <time>2015-09-27T08:33:05Z</time>
      </trkpt>
      <trkpt lat="48.96226" lon="1.35549">
        <ele>122.1</ele>
        <time>2015-09-27T08:33:07Z</time>
      </trkpt>
      <trkpt lat="48.96224" lon="1.3553">
        <ele>122.6</ele>
        <time>2015-09-27T08:33:10Z</time>
      </trkpt>
      <trkpt lat="48.96222" lon="1.3551">
        <ele>123</ele>
        <time>2015-09-27T08:33:13Z</time>
      </trkpt>
      <trkpt lat="48.9622" lon="1.35495">
        <ele>123.2</ele>
        <time>2015-09-27T08:33:15Z</time>
      </trkpt>
      <trkpt lat="48.96218" lon="1.35481">
        <ele>123.4</ele>
        <time>2015-09-27T08:33:17Z</time>
      </trkpt>
      <trkpt lat="48.96216" lon="1.35467">
        <ele>123.6</ele>
        <time>2015-09-27T08:33:19Z</time>
      </trkpt>
      <trkpt lat="48.96214" lon="1.35453">
        <ele>123.8</ele>
        <time>2015-09-27T08:33:21Z</time>
      </trkpt>
      <trkpt lat="48.96212" lon="1.35438">
        <ele>123.9</ele>
        <time>2015-09-27T08:33:23Z</time>
      </trkpt>
      <trkpt lat="48.9621" lon="1.35423">
        <ele>124</ele>
        <time>2015-09-27T08:33:25Z</time>
      </trkpt>
      <trkpt lat="48.96208" lon="1.35409">
        <ele>124.2</ele>
        <time>2015-09-27T08:33:27Z</time>
      </trkpt>
      <trkpt lat="48.96207" lon="1.35395">
        <ele>124.3</ele>
        <time>2015-09-27T08:33:29Z</time>
      </trkpt>
      <trkpt lat="48.96206" lon="1.3538">
        <ele>124.5</ele>
        <time>2015-09-27T08:33:31Z</time>
      </trkpt>
      <trkpt lat="48.96205" lon="1.35365">
        <ele>124.7</ele>
        <time>2015-09-27T08:33:33Z</time>
      </trkpt>
      <trkpt lat="48.96203" lon="1.3535">
        <ele>124.9</ele>
        <time>2015-09-27T08:33:35Z</time>
      </trkpt>
      <trkpt lat="48.96201" lon="1.35334">
        <ele>125.1</ele>
        <time>2015-09-27T08:33:37Z</time>
      </trkpt>
      <trkpt lat="48.962" lon="1.35319">
        <ele>125.3</ele>
        <time>2015-09-27T08:33:39Z</time>
      </trkpt>
      <trkpt lat="48.96197" lon="1.35303">
        <ele>125.5</ele>
        <time>2015-09-27T08:33:41Z</time>
      </trkpt>
      <trkpt lat="48.96194" lon="1.35286">
        <ele>125.7</ele>
        <time>2015-09-27T08:33:43Z</time>
      </trkpt>
      <trkpt lat="48.96191" lon="1.3527">
        <ele>125.9</ele>
        <time>2015-09-27T08:33:45Z</time>
      </trkpt>
      <trkpt lat="48.96187" lon="1.35255">
        <ele>126</ele>
        <time>2015-09-27T08:33:47Z</time>
      </trkpt>
      <trkpt lat="48.96183" lon="1.35239">
        <ele>126.2</ele>
        <time>2015-09-27T08:33:49Z</time>
      </trkpt>
      <trkpt lat="48.96181" lon="1.35223">
        <ele>126.3</ele>
        <time>2015-09-27T08:33:51Z</time>
      </trkpt>
      <trkpt lat="48.96179" lon="1.35206">
        <ele>126.5</ele>
        <time>2015-09-27T08:33:53Z</time>
      </trkpt>
      <trkpt lat="48.96178" lon="1.3519">
        <ele>126.6</ele>
        <time>2015-09-27T08:33:55Z</time>
      </trkpt>
      <trkpt lat="48.96177" lon="1.35173">
        <ele>126.8</ele>
        <time>2015-09-27T08:33:57Z</time>
      </trkpt>
      <trkpt lat="48.96175" lon="1.35156">
        <ele>127</ele>
        <time>2015-09-27T08:33:59Z</time>
      </trkpt>
      <trkpt lat="48.96173" lon="1.35139">
        <ele>127.1</ele>
        <time>2015-09-27T08:34:01Z</time>
      </trkpt>
      <trkpt lat="48.96169" lon="1.35122">
        <ele>127.2</ele>
        <time>2015-09-27T08:34:03Z</time>
      </trkpt>
      <trkpt lat="48.96164" lon="1.35106">
        <ele>127.3</ele>
        <time>2015-09-27T08:34:05Z</time>
      </trkpt>
      <trkpt lat="48.96159" lon="1.35089">
        <ele>127.3</ele>
        <time>2015-09-27T08:34:07Z</time>
      </trkpt>
      <trkpt lat="48.96153" lon="1.35073">
        <ele>127.3</ele>
        <time>2015-09-27T08:34:09Z</time>
      </trkpt>
      <trkpt lat="48.96147" lon="1.35057">
        <ele>127.3</ele>
        <time>2015-09-27T08:34:11Z</time>
      </trkpt>
      <trkpt lat="48.96142" lon="1.35041">
        <ele>127.4</ele>
        <time>2015-09-27T08:34:13Z</time>
      </trkpt>
      <trkpt lat="48.96136" lon="1.35025">
        <ele>127.4</ele>
        <time>2015-09-27T08:34:15Z</time>
      </trkpt>
      <trkpt lat="48.96131" lon="1.35008">
        <ele>127.4</ele>
        <time>2015-09-27T08:34:17Z</time>
      </trkpt>
      <trkpt lat="48.96125" lon="1.34991">
        <ele>127.3</ele>
        <time>2015-09-27T08:34:19Z</time>
      </trkpt>
      <trkpt lat="48.9612" lon="1.34976">
        <ele>127.2</ele>
        <time>2015-09-27T08:34:21Z</time>
      </trkpt>
      <trkpt lat="48.96115" lon="1.34961">
        <ele>127.1</ele>
        <time>2015-09-27T08:34:23Z</time>
      </trkpt>
      <trkpt lat="48.96115" lon="1.34946">
        <ele>127</ele>
        <time>2015-09-27T08:34:25Z</time>
      </trkpt>
      <trkpt lat="48.96119" lon="1.34931">
        <ele>126.9</ele>
        <time>2015-09-27T08:34:27Z</time>
      </trkpt>
      <trkpt lat="48.96124" lon="1.34915">
        <ele>126.8</ele>
        <time>2015-09-27T08:34:29Z</time>
      </trkpt>
      <trkpt lat="48.96129" lon="1.349">
        <ele>126.6</ele>
        <time>2015-09-27T08:34:31Z</time>
      </trkpt>
      <trkpt lat="48.96135" lon="1.34883">
        <ele>126.4</ele>
        <time>2015-09-27T08:34:33Z</time>
      </trkpt>
      <trkpt lat="48.9614" lon="1.34867">
        <ele>126.3</ele>
        <time>2015-09-27T08:34:35Z</time>
      </trkpt>
      <trkpt lat="48.96146" lon="1.34851">
        <ele>126.2</ele>
        <time>2015-09-27T08:34:37Z</time>
      </trkpt>
      <trkpt lat="48.96152" lon="1.34835">
        <ele>126.1</ele>
        <time>2015-09-27T08:34:39Z</time>
      </trkpt>
      <trkpt lat="48.96157" lon="1.3482">
        <ele>126</ele>
        <time>2015-09-27T08:34:41Z</time>
      </trkpt>
      <trkpt lat="48.96162" lon="1.34805">
        <ele>125.9</ele>
        <time>2015-09-27T08:34:43Z</time>
      </trkpt>
      <trkpt lat="48.96167" lon="1.34791">
        <ele>125.8</ele>
        <time>2015-09-27T08:34:45Z</time>
      </trkpt>
      <trkpt lat="48.96173" lon="1.34777">
        <ele>125.8</ele>
        <time>2015-09-27T08:34:47Z</time>
      </trkpt>
      <trkpt lat="48.96177" lon="1.34763">
        <ele>125.8</ele>
        <time>2015-09-27T08:34:49Z</time>
      </trkpt>
      <trkpt lat="48.96182" lon="1.34749">
        <ele>125.8</ele>
        <time>2015-09-27T08:34:51Z</time>
      </trkpt>
      <trkpt lat="48.96187" lon="1.34735">
        <ele>125.7</ele>
        <time>2015-09-27T08:34:53Z</time>
      </trkpt>
      <trkpt lat="48.96192" lon="1.34721">
        <ele>125.7</ele>
        <time>2015-09-27T08:34:55Z</time>
      </trkpt>
      <trkpt lat="48.96197" lon="1.34708">
        <ele>125.8</ele>
        <time>2015-09-27T08:34:57Z</time>
      </trkpt>
      <trkpt lat="48.96202" lon="1.34694">
        <ele>125.9</ele>
        <time>2015-09-27T08:34:59Z</time>
      </trkpt>
      <trkpt lat="48.96207" lon="1.34681">
        <ele>126</ele>
        <time>2015-09-27T08:35:01Z</time>
      </trkpt>
      <trkpt lat="48.96212" lon="1.34668">
        <ele>126.1</ele>
        <time>2015-09-27T08:35:03Z</time>
      </trkpt>
      <trkpt lat="48.96216" lon="1.34654">
        <ele>126.2</ele>
        <time>2015-09-27T08:35:05Z</time>
      </trkpt>
      <trkpt lat="48.96221" lon="1.34641">
        <ele>126.4</ele>
        <time>2015-09-27T08:35:07Z</time>
      </trkpt>
      <trkpt lat="48.96226" lon="1.34627">
        <ele>126.5</ele>
        <time>2015-09-27T08:35:09Z</time>
      </trkpt>
      <trkpt lat="48.96231" lon="1.34614">
        <ele>126.8</ele>
        <time>2015-09-27T08:35:11Z</time>
      </trkpt>
      <trkpt lat="48.96235" lon="1.34601">
        <ele>127.1</ele>
        <time>2015-09-27T08:35:13Z</time>
      </trkpt>
      <trkpt lat="48.9624" lon="1.34587">
        <ele>127.3</ele>
        <time>2015-09-27T08:35:15Z</time>
      </trkpt>
      <trkpt lat="48.96245" lon="1.34575">
        <ele>127.5</ele>
        <time>2015-09-27T08:35:17Z</time>
      </trkpt>
      <trkpt lat="48.9625" lon="1.34562">
        <ele>127.7</ele>
        <time>2015-09-27T08:35:19Z</time>
      </trkpt>
      <trkpt lat="48.96256" lon="1.3455">
        <ele>127.9</ele>
        <time>2015-09-27T08:35:21Z</time>
      </trkpt>
      <trkpt lat="48.96265" lon="1.34537">
        <ele>128.2</ele>
        <time>2015-09-27T08:35:24Z</time>
      </trkpt>
      <trkpt lat="48.96275" lon="1.34542">
        <ele>128.5</ele>
        <time>2015-09-27T08:35:27Z</time>
      </trkpt>
      <trkpt lat="48.96283" lon="1.34557">
        <ele>128.8</ele>
        <time>2015-09-27T08:35:30Z</time>
      </trkpt>
      <trkpt lat="48.96288" lon="1.34568">
        <ele>129</ele>
        <time>2015-09-27T08:35:32Z</time>
      </trkpt>
      <trkpt lat="48.96294" lon="1.3458">
        <ele>129.1</ele>
        <time>2015-09-27T08:35:34Z</time>
      </trkpt>
      <trkpt lat="48.96301" lon="1.34592">
        <ele>129.2</ele>
        <time>2015-09-27T08:35:36Z</time>
      </trkpt>
      <trkpt lat="48.96307" lon="1.34604">
        <ele>129.3</ele>
        <time>2015-09-27T08:35:38Z</time>
      </trkpt>
      <trkpt lat="48.96314" lon="1.34616">
        <ele>129.4</ele>
        <time>2015-09-27T08:35:40Z</time>
      </trkpt>
      <trkpt lat="48.9632" lon="1.3463">
        <ele>129.4</ele>
        <time>2015-09-27T08:35:42Z</time>
      </trkpt>
      <trkpt lat="48.96327" lon="1.34643">
        <ele>129.4</ele>
        <time>2015-09-27T08:35:44Z</time>
      </trkpt>
      <trkpt lat="48.96334" lon="1.34656">
        <ele>129.2</ele>
        <time>2015-09-27T08:35:46Z</time>
      </trkpt>
      <trkpt lat="48.96342" lon="1.3467">
        <ele>129.1</ele>
        <time>2015-09-27T08:35:48Z</time>
      </trkpt>
      <trkpt lat="48.96349" lon="1.34684">
        <ele>129</ele>
        <time>2015-09-27T08:35:50Z</time>
      </trkpt>
      <trkpt lat="48.96356" lon="1.34698">
        <ele>128.8</ele>
        <time>2015-09-27T08:35:52Z</time>
      </trkpt>
      <trkpt lat="48.96363" lon="1.34714">
        <ele>128.5</ele>
        <time>2015-09-27T08:35:54Z</time>
      </trkpt>
      <trkpt lat="48.96371" lon="1.34729">
        <ele>128.1</ele>
        <time>2015-09-27T08:35:56Z</time>
      </trkpt>
      <trkpt lat="48.96378" lon="1.34745">
        <ele>127.9</ele>
        <time>2015-09-27T08:35:58Z</time>
      </trkpt>
      <trkpt lat="48.96386" lon="1.34761">
        <ele>127.6</ele>
        <time>2015-09-27T08:36:00Z</time>
      </trkpt>
      <trkpt lat="48.96394" lon="1.34778">
        <ele>127.4</ele>
        <time>2015-09-27T08:36:02Z</time>
      </trkpt>
      <trkpt lat="48.96402" lon="1.34794">
        <ele>127.1</ele>
        <time>2015-09-27T08:36:04Z</time>
      </trkpt>
      <trkpt lat="48.96411" lon="1.34809">
        <ele>126.7</ele>
        <time>2015-09-27T08:36:06Z</time>
      </trkpt>
      <trkpt lat="48.9642" lon="1.34824">
        <ele>126.4</ele>
        <time>2015-09-27T08:36:08Z</time>
      </trkpt>
      <trkpt lat="48.9643" lon="1.3484">
        <ele>126</ele>
        <time>2015-09-27T08:36:10Z</time>
      </trkpt>
      <trkpt lat="48.9644" lon="1.34857">
        <ele>125.7</ele>
        <time>2015-09-27T08:36:12Z</time>
      </trkpt>
      <trkpt lat="48.9645" lon="1.34873">
        <ele>125.2</ele>
        <time>2015-09-27T08:36:14Z</time>
      </trkpt>
      <trkpt lat="48.96459" lon="1.34891">
        <ele>124.8</ele>
        <time>2015-09-27T08:36:16Z</time>
      </trkpt>
      <trkpt lat="48.96468" lon="1.34909">
        <ele>124.4</ele>
        <time>2015-09-27T08:36:18Z</time>
      </trkpt>
      <trkpt lat="48.96476" lon="1.34927">
        <ele>124</ele>
        <time>2015-09-27T08:36:20Z</time>
      </trkpt>
      <trkpt lat="48.96484" lon="1.34945">
        <ele>123.6</ele>
        <time>2015-09-27T08:36:22Z</time>
      </trkpt>
      <trkpt lat="48.96493" lon="1.34962">
        <ele>123.2</ele>
        <time>2015-09-27T08:36:24Z</time>
      </trkpt>
      <trkpt lat="48.965" lon="1.34979">
        <ele>122.8</ele>
        <time>2015-09-27T08:36:26Z</time>
      </trkpt>
      <trkpt lat="48.96509" lon="1.34995">
        <ele>122.5</ele>
        <time>2015-09-27T08:36:28Z</time>
      </trkpt>
      <trkpt lat="48.96516" lon="1.35012">
        <ele>122.2</ele>
        <time>2015-09-27T08:36:30Z</time>
      </trkpt>
      <trkpt lat="48.96523" lon="1.35028">
        <ele>121.9</ele>
        <time>2015-09-27T08:36:32Z</time>
      </trkpt>
      <trkpt lat="48.9653" lon="1.35044">
        <ele>121.5</ele>
        <time>2015-09-27T08:36:34Z</time>
      </trkpt>
      <trkpt lat="48.96537" lon="1.35058">
        <ele>121.2</ele>
        <time>2015-09-27T08:36:36Z</time>
      </trkpt>
      <trkpt lat="48.96546" lon="1.3506">
        <ele>121</ele>
        <time>2015-09-27T08:36:38Z</time>
      </trkpt>
      <trkpt lat="48.96559" lon="1.35051">
        <ele>120.5</ele>
        <time>2015-09-27T08:36:41Z</time>
      </trkpt>
      <trkpt lat="48.96568" lon="1.35045">
        <ele>120.2</ele>
        <time>2015-09-27T08:36:43Z</time>
      </trkpt>
      <trkpt lat="48.96578" lon="1.35037">
        <ele>120</ele>
        <time>2015-09-27T08:36:45Z</time>
      </trkpt>
      <trkpt lat="48.96589" lon="1.3503">
        <ele>119.8</ele>
        <time>2015-09-27T08:36:47Z</time>
      </trkpt>
      <trkpt lat="48.96601" lon="1.35023">
        <ele>119.6</ele>
        <time>2015-09-27T08:36:49Z</time>
      </trkpt>
      <trkpt lat="48.96612" lon="1.35015">
        <ele>119.2</ele>
        <time>2015-09-27T08:36:51Z</time>
      </trkpt>
      <trkpt lat="48.96623" lon="1.35009">
        <ele>118.9</ele>
        <time>2015-09-27T08:36:53Z</time>
      </trkpt>
      <trkpt lat="48.96635" lon="1.35001">
        <ele>118.7</ele>
        <time>2015-09-27T08:36:55Z</time>
      </trkpt>
      <trkpt lat="48.96646" lon="1.34993">
        <ele>118.4</ele>
        <time>2015-09-27T08:36:57Z</time>
      </trkpt>
      <trkpt lat="48.96657" lon="1.34982">
        <ele>118.1</ele>
        <time>2015-09-27T08:36:59Z</time>
      </trkpt>
      <trkpt lat="48.96666" lon="1.34967">
        <ele>117.8</ele>
        <time>2015-09-27T08:37:01Z</time>
      </trkpt>
      <trkpt lat="48.96674" lon="1.34951">
        <ele>117.4</ele>
        <time>2015-09-27T08:37:03Z</time>
      </trkpt>
      <trkpt lat="48.9668" lon="1.34933">
        <ele>117.1</ele>
        <time>2015-09-27T08:37:05Z</time>
      </trkpt>
      <trkpt lat="48.96689" lon="1.34916">
        <ele>116.8</ele>
        <time>2015-09-27T08:37:07Z</time>
      </trkpt>
      <trkpt lat="48.96698" lon="1.34899">
        <ele>116.4</ele>
        <time>2015-09-27T08:37:09Z</time>
      </trkpt>
      <trkpt lat="48.96705" lon="1.34879">
        <ele>115.9</ele>
        <time>2015-09-27T08:37:11Z</time>
      </trkpt>
      <trkpt lat="48.96712" lon="1.3486">
        <ele>115.5</ele>
        <time>2015-09-27T08:37:13Z</time>
      </trkpt>
      <trkpt lat="48.96719" lon="1.34842">
        <ele>115.2</ele>
        <time>2015-09-27T08:37:15Z</time>
      </trkpt>
      <trkpt lat="48.96727" lon="1.34825">
        <ele>114.9</ele>
        <time>2015-09-27T08:37:17Z</time>
      </trkpt>
      <trkpt lat="48.96735" lon="1.34808">
        <ele>114.6</ele>
        <time>2015-09-27T08:37:19Z</time>
      </trkpt>
      <trkpt lat="48.96744" lon="1.34795">
        <ele>114.4</ele>
        <time>2015-09-27T08:37:21Z</time>
      </trkpt>
      <trkpt lat="48.96753" lon="1.34781">
        <ele>114.2</ele>
        <time>2015-09-27T08:37:23Z</time>
      </trkpt>
      <trkpt lat="48.96761" lon="1.34769">
        <ele>114.2</ele>
        <time>2015-09-27T08:37:25Z</time>
      </trkpt>
      <trkpt lat="48.96769" lon="1.34758">
        <ele>114.2</ele>
        <time>2015-09-27T08:37:27Z</time>
      </trkpt>
      <trkpt lat="48.96777" lon="1.34747">
        <ele>114.2</ele>
        <time>2015-09-27T08:37:29Z</time>
      </trkpt>
      <trkpt lat="48.96784" lon="1.34737">
        <ele>114.3</ele>
        <time>2015-09-27T08:37:31Z</time>
      </trkpt>
      <trkpt lat="48.96791" lon="1.34727">
        <ele>114.3</ele>
        <time>2015-09-27T08:37:33Z</time>
      </trkpt>
      <trkpt lat="48.968" lon="1.34711">
        <ele>114.5</ele>
        <time>2015-09-27T08:37:36Z</time>
      </trkpt>
      <trkpt lat="48.96808" lon="1.34695">
        <ele>114.8</ele>
        <time>2015-09-27T08:37:39Z</time>
      </trkpt>
      <trkpt lat="48.96814" lon="1.34683">
        <ele>114.9</ele>
        <time>2015-09-27T08:37:41Z</time>
      </trkpt>
      <trkpt lat="48.9682" lon="1.34672">
        <ele>115.2</ele>
        <time>2015-09-27T08:37:43Z</time>
      </trkpt>
      <trkpt lat="48.96826" lon="1.34659">
        <ele>115.4</ele>
        <time>2015-09-27T08:37:45Z</time>
      </trkpt>
      <trkpt lat="48.96832" lon="1.34647">
        <ele>115.6</ele>
        <time>2015-09-27T08:37:47Z</time>
      </trkpt>
      <trkpt lat="48.96837" lon="1.34633">
        <ele>115.8</ele>
        <time>2015-09-27T08:37:49Z</time>
      </trkpt>
      <trkpt lat="48.96842" lon="1.34618">
        <ele>116</ele>
        <time>2015-09-27T08:37:51Z</time>
      </trkpt>
      <trkpt lat="48.96846" lon="1.34601">
        <ele>116.2</ele>
        <time>2015-09-27T08:37:53Z</time>
      </trkpt>
      <trkpt lat="48.96849" lon="1.34586">
        <ele>116.4</ele>
        <time>2015-09-27T08:37:55Z</time>
      </trkpt>
      <trkpt lat="48.96853" lon="1.3457">
        <ele>116.5</ele>
        <time>2015-09-27T08:37:57Z</time>
      </trkpt>
      <trkpt lat="48.96858" lon="1.34555">
        <ele>116.6</ele>
        <time>2015-09-27T08:37:59Z</time>
      </trkpt>
      <trkpt lat="48.96863" lon="1.34538">
        <ele>116.8</ele>
        <time>2015-09-27T08:38:01Z</time>
      </trkpt>
      <trkpt lat="48.96867" lon="1.34522">
        <ele>116.9</ele>
        <time>2015-09-27T08:38:03Z</time>
      </trkpt>
      <trkpt lat="48.96872" lon="1.34508">
        <ele>117</ele>
        <time>2015-09-27T08:38:05Z</time>
      </trkpt>
      <trkpt lat="48.96877" lon="1.34494">
        <ele>117</ele>
        <time>2015-09-27T08:38:07Z</time>
      </trkpt>
      <trkpt lat="48.9688" lon="1.34478">
        <ele>117.1</ele>
        <time>2015-09-27T08:38:09Z</time>
      </trkpt>
      <trkpt lat="48.96884" lon="1.34463">
        <ele>117.1</ele>
        <time>2015-09-27T08:38:11Z</time>
      </trkpt>
      <trkpt lat="48.96886" lon="1.34448">
        <ele>117.2</ele>
        <time>2015-09-27T08:38:13Z</time>
      </trkpt>
      <trkpt lat="48.96887" lon="1.34433">
        <ele>117.2</ele>
        <time>2015-09-27T08:38:15Z</time>
      </trkpt>
      <trkpt lat="48.96887" lon="1.34417">
        <ele>117.2</ele>
        <time>2015-09-27T08:38:17Z</time>
      </trkpt>
      <trkpt lat="48.96888" lon="1.34398">
        <ele>117.3</ele>
        <time>2015-09-27T08:38:19Z</time>
      </trkpt>
      <trkpt lat="48.96889" lon="1.34379">
        <ele>117.3</ele>
        <time>2015-09-27T08:38:21Z</time>
      </trkpt>
      <trkpt lat="48.96888" lon="1.34362">
        <ele>117.3</ele>
        <time>2015-09-27T08:38:23Z</time>
      </trkpt>
      <trkpt lat="48.96889" lon="1.3434">
        <ele>117.3</ele>
        <time>2015-09-27T08:38:25Z</time>
      </trkpt>
      <trkpt lat="48.96891" lon="1.3432">
        <ele>117.3</ele>
        <time>2015-09-27T08:38:27Z</time>
      </trkpt>
      <trkpt lat="48.96892" lon="1.343">
        <ele>117.2</ele>
        <time>2015-09-27T08:38:29Z</time>
      </trkpt>
      <trkpt lat="48.96891" lon="1.34277">
        <ele>117</ele>
        <time>2015-09-27T08:38:31Z</time>
      </trkpt>
      <trkpt lat="48.9689" lon="1.34258">
        <ele>116.8</ele>
        <time>2015-09-27T08:38:33Z</time>
      </trkpt>
      <trkpt lat="48.96892" lon="1.34238">
        <ele>116.6</ele>
        <time>2015-09-27T08:38:35Z</time>
      </trkpt>
      <trkpt lat="48.96893" lon="1.34217">
        <ele>116.3</ele>
        <time>2015-09-27T08:38:37Z</time>
      </trkpt>
      <trkpt lat="48.96896" lon="1.34194">
        <ele>115.8</ele>
        <time>2015-09-27T08:38:39Z</time>
      </trkpt>
      <trkpt lat="48.96899" lon="1.34172">
        <ele>115.2</ele>
        <time>2015-09-27T08:38:41Z</time>
      </trkpt>
      <trkpt lat="48.96902" lon="1.3415">
        <ele>114.6</ele>
        <time>2015-09-27T08:38:43Z</time>
      </trkpt>
      <trkpt lat="48.96903" lon="1.34127">
        <ele>113.9</ele>
        <time>2015-09-27T08:38:45Z</time>
      </trkpt>
      <trkpt lat="48.96904" lon="1.34106">
        <ele>113</ele>
        <time>2015-09-27T08:38:47Z</time>
      </trkpt>
      <trkpt lat="48.96901" lon="1.34087">
        <ele>112.1</ele>
        <time>2015-09-27T08:38:49Z</time>
      </trkpt>
      <trkpt lat="48.96899" lon="1.3407">
        <ele>111.3</ele>
        <time>2015-09-27T08:38:51Z</time>
      </trkpt>
      <trkpt lat="48.96892" lon="1.34052">
        <ele>110.4</ele>
        <time>2015-09-27T08:38:53Z</time>
      </trkpt>
      <trkpt lat="48.96888" lon="1.34038">
        <ele>109.4</ele>
        <time>2015-09-27T08:38:55Z</time>
      </trkpt>
      <trkpt lat="48.96879" lon="1.3402">
        <ele>108.3</ele>
        <time>2015-09-27T08:38:57Z</time>
      </trkpt>
      <trkpt lat="48.96873" lon="1.34">
        <ele>107.3</ele>
        <time>2015-09-27T08:38:59Z</time>
      </trkpt>
      <trkpt lat="48.96866" lon="1.33978">
        <ele>106.2</ele>
        <time>2015-09-27T08:39:01Z</time>
      </trkpt>
      <trkpt lat="48.9686" lon="1.33962">
        <ele>105.2</ele>
        <time>2015-09-27T08:39:03Z</time>
      </trkpt>
      <trkpt lat="48.96856" lon="1.33944">
        <ele>103.9</ele>
        <time>2015-09-27T08:39:05Z</time>
      </trkpt>
      <trkpt lat="48.96851" lon="1.33922">
        <ele>102.7</ele>
        <time>2015-09-27T08:39:07Z</time>
      </trkpt>
      <trkpt lat="48.96848" lon="1.33901">
        <ele>101.4</ele>
        <time>2015-09-27T08:39:09Z</time>
      </trkpt>
      <trkpt lat="48.9685" lon="1.33877">
        <ele>100.1</ele>
        <time>2015-09-27T08:39:11Z</time>
      </trkpt>
      <trkpt lat="48.96855" lon="1.3386">
        <ele>98.7</ele>
        <time>2015-09-27T08:39:13Z</time>
      </trkpt>
      <trkpt lat="48.96858" lon="1.3384">
        <ele>97.4</ele>
        <time>2015-09-27T08:39:15Z</time>
      </trkpt>
      <trkpt lat="48.96857" lon="1.33819">
        <ele>96.1</ele>
        <time>2015-09-27T08:39:17Z</time>
      </trkpt>
      <trkpt lat="48.96854" lon="1.33796">
        <ele>94.8</ele>
        <time>2015-09-27T08:39:19Z</time>
      </trkpt>
      <trkpt lat="48.96851" lon="1.33775">
        <ele>93.8</ele>
        <time>2015-09-27T08:39:21Z</time>
      </trkpt>
      <trkpt lat="48.96848" lon="1.33755">
        <ele>92.9</ele>
        <time>2015-09-27T08:39:23Z</time>
      </trkpt>
      <trkpt lat="48.96847" lon="1.33737">
        <ele>92.1</ele>
        <time>2015-09-27T08:39:25Z</time>
      </trkpt>
      <trkpt lat="48.96845" lon="1.33715">
        <ele>91.5</ele>
        <time>2015-09-27T08:39:27Z</time>
      </trkpt>
      <trkpt lat="48.9684" lon="1.33699">
        <ele>91.3</ele>
        <time>2015-09-27T08:39:28Z</time>
      </trkpt>
      <trkpt lat="48.96838" lon="1.33684">
        <ele>90.9</ele>
        <time>2015-09-27T08:39:30Z</time>
      </trkpt>
      <trkpt lat="48.96836" lon="1.33666">
        <ele>90.6</ele>
        <time>2015-09-27T08:39:33Z</time>
      </trkpt>
      <trkpt lat="48.96833" lon="1.33653">
        <ele>90.6</ele>
        <time>2015-09-27T08:39:35Z</time>
      </trkpt>
      <trkpt lat="48.9683" lon="1.33639">
        <ele>90.6</ele>
        <time>2015-09-27T08:39:37Z</time>
      </trkpt>
      <trkpt lat="48.96828" lon="1.33626">
        <ele>90.8</ele>
        <time>2015-09-27T08:39:40Z</time>
      </trkpt>
      <trkpt lat="48.96825" lon="1.33612">
        <ele>91.1</ele>
        <time>2015-09-27T08:39:43Z</time>
      </trkpt>
      <trkpt lat="48.96824" lon="1.33598">
        <ele>91.7</ele>
        <time>2015-09-27T08:39:48Z</time>
      </trkpt>
      <trkpt lat="48.96825" lon="1.33583">
        <ele>92.7</ele>
        <time>2015-09-27T08:39:54Z</time>
      </trkpt>
      <trkpt lat="48.96825" lon="1.33568">
        <ele>93.5</ele>
        <time>2015-09-27T08:39:59Z</time>
      </trkpt>
      <trkpt lat="48.96825" lon="1.33554">
        <ele>94.5</ele>
        <time>2015-09-27T08:40:04Z</time>
      </trkpt>
      <trkpt lat="48.96826" lon="1.3354">
        <ele>95.9</ele>
        <time>2015-09-27T08:40:10Z</time>
      </trkpt>
      <trkpt lat="48.96827" lon="1.33525">
        <ele>97.7</ele>
        <time>2015-09-27T08:40:17Z</time>
      </trkpt>
      <trkpt lat="48.96827" lon="1.33511">
        <ele>99.7</ele>
        <time>2015-09-27T08:40:24Z</time>
      </trkpt>
      <trkpt lat="48.96828" lon="1.33496">
        <ele>101.8</ele>
        <time>2015-09-27T08:40:31Z</time>
      </trkpt>
      <trkpt lat="48.96829" lon="1.33483">
        <ele>103.7</ele>
        <time>2015-09-27T08:40:38Z</time>
      </trkpt>
      <trkpt lat="48.96832" lon="1.33469">
        <ele>105.4</ele>
        <time>2015-09-27T08:40:44Z</time>
      </trkpt>
      <trkpt lat="48.96833" lon="1.33454">
        <ele>107</ele>
        <time>2015-09-27T08:40:50Z</time>
      </trkpt>
      <trkpt lat="48.96835" lon="1.33439">
        <ele>108.7</ele>
        <time>2015-09-27T08:40:56Z</time>
      </trkpt>
      <trkpt lat="48.96838" lon="1.33425">
        <ele>110</ele>
        <time>2015-09-27T08:41:01Z</time>
      </trkpt>
      <trkpt lat="48.9684" lon="1.33412">
        <ele>111.3</ele>
        <time>2015-09-27T08:41:06Z</time>
      </trkpt>
      <trkpt lat="48.96845" lon="1.33398">
        <ele>112.2</ele>
        <time>2015-09-27T08:41:10Z</time>
      </trkpt>
      <trkpt lat="48.96848" lon="1.3338">
        <ele>112.9</ele>
        <time>2015-09-27T08:41:14Z</time>
      </trkpt>
      <trkpt lat="48.96851" lon="1.33366">
        <ele>113.5</ele>
        <time>2015-09-27T08:41:17Z</time>
      </trkpt>
      <trkpt lat="48.96856" lon="1.33351">
        <ele>114</ele>
        <time>2015-09-27T08:41:20Z</time>
      </trkpt>
      <trkpt lat="48.9686" lon="1.33336">
        <ele>114.4</ele>
        <time>2015-09-27T08:41:23Z</time>
      </trkpt>
      <trkpt lat="48.96863" lon="1.33322">
        <ele>114.7</ele>
        <time>2015-09-27T08:41:26Z</time>
      </trkpt>
      <trkpt lat="48.96866" lon="1.33307">
        <ele>115.1</ele>
        <time>2015-09-27T08:41:29Z</time>
      </trkpt>
      <trkpt lat="48.96867" lon="1.3329">
        <ele>115.4</ele>
        <time>2015-09-27T08:41:32Z</time>
      </trkpt>
      <trkpt lat="48.96869" lon="1.33274">
        <ele>115.8</ele>
        <time>2015-09-27T08:41:35Z</time>
      </trkpt>
      <trkpt lat="48.96875" lon="1.33261">
        <ele>116.1</ele>
        <time>2015-09-27T08:41:38Z</time>
      </trkpt>
      <trkpt lat="48.96882" lon="1.33248">
        <ele>116.5</ele>
        <time>2015-09-27T08:41:41Z</time>
      </trkpt>
      <trkpt lat="48.96891" lon="1.33236">
        <ele>116.8</ele>
        <time>2015-09-27T08:41:44Z</time>
      </trkpt>
      <trkpt lat="48.969" lon="1.33222">
        <ele>117.1</ele>
        <time>2015-09-27T08:41:47Z</time>
      </trkpt>
      <trkpt lat="48.96907" lon="1.33207">
        <ele>117.3</ele>
        <time>2015-09-27T08:41:50Z</time>
      </trkpt>
      <trkpt lat="48.96913" lon="1.3319">
        <ele>117.5</ele>
        <time>2015-09-27T08:41:53Z</time>
      </trkpt>
      <trkpt lat="48.96917" lon="1.33173">
        <ele>117.6</ele>
        <time>2015-09-27T08:41:56Z</time>
      </trkpt>
      <trkpt lat="48.96919" lon="1.33156">
        <ele>117.8</ele>
        <time>2015-09-27T08:41:59Z</time>
      </trkpt>
      <trkpt lat="48.9692" lon="1.33138">
        <ele>118</ele>
        <time>2015-09-27T08:42:02Z</time>
      </trkpt>
      <trkpt lat="48.96922" lon="1.33118">
        <ele>118.2</ele>
        <time>2015-09-27T08:42:05Z</time>
      </trkpt>
      <trkpt lat="48.96924" lon="1.33098">
        <ele>118.4</ele>
        <time>2015-09-27T08:42:08Z</time>
      </trkpt>
      <trkpt lat="48.96928" lon="1.33079">
        <ele>118.6</ele>
        <time>2015-09-27T08:42:11Z</time>
      </trkpt>
      <trkpt lat="48.9693" lon="1.33065">
        <ele>118.7</ele>
        <time>2015-09-27T08:42:13Z</time>
      </trkpt>
      <trkpt lat="48.96932" lon="1.33045">
        <ele>118.9</ele>
        <time>2015-09-27T08:42:16Z</time>
      </trkpt>
      <trkpt lat="48.96934" lon="1.33027">
        <ele>119.1</ele>
        <time>2015-09-27T08:42:19Z</time>
      </trkpt>
      <trkpt lat="48.96934" lon="1.33006">
        <ele>119.3</ele>
        <time>2015-09-27T08:42:22Z</time>
      </trkpt>
      <trkpt lat="48.96934" lon="1.32986">
        <ele>119.5</ele>
        <time>2015-09-27T08:42:25Z</time>
      </trkpt>
      <trkpt lat="48.96938" lon="1.32971">
        <ele>119.7</ele>
        <time>2015-09-27T08:42:28Z</time>
      </trkpt>
      <trkpt lat="48.9695" lon="1.32966">
        <ele>119.9</ele>
        <time>2015-09-27T08:42:31Z</time>
      </trkpt>
      <trkpt lat="48.96963" lon="1.32963">
        <ele>120.1</ele>
        <time>2015-09-27T08:42:34Z</time>
      </trkpt>
      <trkpt lat="48.96972" lon="1.32959">
        <ele>120.2</ele>
        <time>2015-09-27T08:42:36Z</time>
      </trkpt>
      <trkpt lat="48.96982" lon="1.32954">
        <ele>120.3</ele>
        <time>2015-09-27T08:42:38Z</time>
      </trkpt>
      <trkpt lat="48.9699" lon="1.3295">
        <ele>120.4</ele>
        <time>2015-09-27T08:42:40Z</time>
      </trkpt>
      <trkpt lat="48.97003" lon="1.32941">
        <ele>120.5</ele>
        <time>2015-09-27T08:42:43Z</time>
      </trkpt>
      <trkpt lat="48.97012" lon="1.32935">
        <ele>120.5</ele>
        <time>2015-09-27T08:42:45Z</time>
      </trkpt>
      <trkpt lat="48.97022" lon="1.3293">
        <ele>120.6</ele>
        <time>2015-09-27T08:42:47Z</time>
      </trkpt>
      <trkpt lat="48.97033" lon="1.32926">
        <ele>120.6</ele>
        <time>2015-09-27T08:42:49Z</time>
      </trkpt>
      <trkpt lat="48.97044" lon="1.32921">
        <ele>120.7</ele>
        <time>2015-09-27T08:42:51Z</time>
      </trkpt>
      <trkpt lat="48.97055" lon="1.32916">
        <ele>120.7</ele>
        <time>2015-09-27T08:42:53Z</time>
      </trkpt>
      <trkpt lat="48.97067" lon="1.32912">
        <ele>120.7</ele>
        <time>2015-09-27T08:42:55Z</time>
      </trkpt>
      <trkpt lat="48.97078" lon="1.32907">
        <ele>120.8</ele>
        <time>2015-09-27T08:42:57Z</time>
      </trkpt>
      <trkpt lat="48.97089" lon="1.329">
        <ele>120.7</ele>
        <time>2015-09-27T08:42:59Z</time>
      </trkpt>
      <trkpt lat="48.97101" lon="1.32899">
        <ele>120.6</ele>
        <time>2015-09-27T08:43:01Z</time>
      </trkpt>
      <trkpt lat="48.97112" lon="1.32904">
        <ele>120.4</ele>
        <time>2015-09-27T08:43:03Z</time>
      </trkpt>
      <trkpt lat="48.97123" lon="1.32911">
        <ele>120.3</ele>
        <time>2015-09-27T08:43:05Z</time>
      </trkpt>
      <trkpt lat="48.97134" lon="1.32917">
        <ele>120.1</ele>
        <time>2015-09-27T08:43:07Z</time>
      </trkpt>
      <trkpt lat="48.97146" lon="1.32924">
        <ele>119.9</ele>
        <time>2015-09-27T08:43:09Z</time>
      </trkpt>
      <trkpt lat="48.97156" lon="1.32936">
        <ele>119.8</ele>
        <time>2015-09-27T08:43:11Z</time>
      </trkpt>
      <trkpt lat="48.97163" lon="1.32952">
        <ele>119.6</ele>
        <time>2015-09-27T08:43:13Z</time>
      </trkpt>
      <trkpt lat="48.97169" lon="1.32969">
        <ele>119.4</ele>
        <time>2015-09-27T08:43:15Z</time>
      </trkpt>
      <trkpt lat="48.97174" lon="1.32986">
        <ele>119.2</ele>
        <time>2015-09-27T08:43:17Z</time>
      </trkpt>
      <trkpt lat="48.9718" lon="1.33003">
        <ele>119</ele>
        <time>2015-09-27T08:43:19Z</time>
      </trkpt>
      <trkpt lat="48.97185" lon="1.33019">
        <ele>118.9</ele>
        <time>2015-09-27T08:43:21Z</time>
      </trkpt>
      <trkpt lat="48.9719" lon="1.33035">
        <ele>118.8</ele>
        <time>2015-09-27T08:43:23Z</time>
      </trkpt>
      <trkpt lat="48.97195" lon="1.33052">
        <ele>118.6</ele>
        <time>2015-09-27T08:43:25Z</time>
      </trkpt>
      <trkpt lat="48.972" lon="1.33068">
        <ele>118.5</ele>
        <time>2015-09-27T08:43:27Z</time>
      </trkpt>
      <trkpt lat="48.97209" lon="1.33078">
        <ele>118.5</ele>
        <time>2015-09-27T08:43:29Z</time>
      </trkpt>
      <trkpt lat="48.9722" lon="1.33076">
        <ele>118.4</ele>
        <time>2015-09-27T08:43:31Z</time>
      </trkpt>
      <trkpt lat="48.9723" lon="1.33067">
        <ele>118.3</ele>
        <time>2015-09-27T08:43:33Z</time>
      </trkpt>
      <trkpt lat="48.97241" lon="1.33059">
        <ele>118.2</ele>
        <time>2015-09-27T08:43:35Z</time>
      </trkpt>
      <trkpt lat="48.97253" lon="1.3305">
        <ele>118.1</ele>
        <time>2015-09-27T08:43:37Z</time>
      </trkpt>
      <trkpt lat="48.97264" lon="1.33042">
        <ele>118</ele>
        <time>2015-09-27T08:43:39Z</time>
      </trkpt>
      <trkpt lat="48.97276" lon="1.33035">
        <ele>117.9</ele>
        <time>2015-09-27T08:43:41Z</time>
      </trkpt>
      <trkpt lat="48.97288" lon="1.33028">
        <ele>117.7</ele>
        <time>2015-09-27T08:43:43Z</time>
      </trkpt>
      <trkpt lat="48.973" lon="1.33021">
        <ele>117.6</ele>
        <time>2015-09-27T08:43:45Z</time>
      </trkpt>
      <trkpt lat="48.97312" lon="1.33012">
        <ele>117.3</ele>
        <time>2015-09-27T08:43:47Z</time>
      </trkpt>
      <trkpt lat="48.97323" lon="1.33001">
        <ele>116.9</ele>
        <time>2015-09-27T08:43:49Z</time>
      </trkpt>
      <trkpt lat="48.97334" lon="1.32989">
        <ele>116.6</ele>
        <time>2015-09-27T08:43:51Z</time>
      </trkpt>
      <trkpt lat="48.97344" lon="1.32976">
        <ele>116.3</ele>
        <time>2015-09-27T08:43:53Z</time>
      </trkpt>
      <trkpt lat="48.97356" lon="1.32965">
        <ele>115.9</ele>
        <time>2015-09-27T08:43:55Z</time>
      </trkpt>
      <trkpt lat="48.97367" lon="1.32954">
        <ele>115.4</ele>
        <time>2015-09-27T08:43:57Z</time>
      </trkpt>
      <trkpt lat="48.9738" lon="1.32947">
        <ele>115</ele>
        <time>2015-09-27T08:43:59Z</time>
      </trkpt>
      <trkpt lat="48.97392" lon="1.32943">
        <ele>114.5</ele>
        <time>2015-09-27T08:44:01Z</time>
      </trkpt>
      <trkpt lat="48.97406" lon="1.32941">
        <ele>114</ele>
        <time>2015-09-27T08:44:03Z</time>
      </trkpt>
      <trkpt lat="48.9742" lon="1.3294">
        <ele>113.6</ele>
        <time>2015-09-27T08:44:05Z</time>
      </trkpt>
      <trkpt lat="48.97433" lon="1.32941">
        <ele>113.2</ele>
        <time>2015-09-27T08:44:07Z</time>
      </trkpt>
      <trkpt lat="48.97446" lon="1.32943">
        <ele>112.8</ele>
        <time>2015-09-27T08:44:09Z</time>
      </trkpt>
      <trkpt lat="48.9746" lon="1.32945">
        <ele>112.4</ele>
        <time>2015-09-27T08:44:11Z</time>
      </trkpt>
      <trkpt lat="48.97473" lon="1.32946">
        <ele>112</ele>
        <time>2015-09-27T08:44:13Z</time>
      </trkpt>
      <trkpt lat="48.97486" lon="1.32948">
        <ele>111.7</ele>
        <time>2015-09-27T08:44:15Z</time>
      </trkpt>
      <trkpt lat="48.975" lon="1.3295">
        <ele>111.3</ele>
        <time>2015-09-27T08:44:17Z</time>
      </trkpt>
      <trkpt lat="48.97513" lon="1.32953">
        <ele>110.9</ele>
        <time>2015-09-27T08:44:19Z</time>
      </trkpt>
      <trkpt lat="48.97526" lon="1.32957">
        <ele>110.5</ele>
        <time>2015-09-27T08:44:21Z</time>
      </trkpt>
      <trkpt lat="48.97538" lon="1.32962">
        <ele>110.2</ele>
        <time>2015-09-27T08:44:23Z</time>
      </trkpt>
      <trkpt lat="48.9755" lon="1.32969">
        <ele>109.8</ele>
        <time>2015-09-27T08:44:25Z</time>
      </trkpt>
      <trkpt lat="48.97562" lon="1.32976">
        <ele>109.3</ele>
        <time>2015-09-27T08:44:27Z</time>
      </trkpt>
      <trkpt lat="48.97574" lon="1.32984">
        <ele>108.7</ele>
        <time>2015-09-27T08:44:29Z</time>
      </trkpt>
      <trkpt lat="48.97585" lon="1.32994">
        <ele>108.2</ele>
        <time>2015-09-27T08:44:31Z</time>
      </trkpt>
      <trkpt lat="48.97596" lon="1.33006">
        <ele>107.6</ele>
        <time>2015-09-27T08:44:33Z</time>
      </trkpt>
      <trkpt lat="48.97608" lon="1.33019">
        <ele>106.8</ele>
        <time>2015-09-27T08:44:35Z</time>
      </trkpt>
      <trkpt lat="48.9762" lon="1.33034">
        <ele>106</ele>
        <time>2015-09-27T08:44:37Z</time>
      </trkpt>
      <trkpt lat="48.97633" lon="1.33051">
        <ele>105.2</ele>
        <time>2015-09-27T08:44:39Z</time>
      </trkpt>
      <trkpt lat="48.97645" lon="1.33066">
        <ele>104.1</ele>
        <time>2015-09-27T08:44:41Z</time>
      </trkpt>
      <trkpt lat="48.97658" lon="1.33082">
        <ele>103.1</ele>
        <time>2015-09-27T08:44:43Z</time>
      </trkpt>
      <trkpt lat="48.9767" lon="1.33097">
        <ele>101.9</ele>
        <time>2015-09-27T08:44:45Z</time>
      </trkpt>
      <trkpt lat="48.97683" lon="1.33113">
        <ele>100.7</ele>
        <time>2015-09-27T08:44:47Z</time>
      </trkpt>
      <trkpt lat="48.97695" lon="1.33128">
        <ele>99.4</ele>
        <time>2015-09-27T08:44:49Z</time>
      </trkpt>
      <trkpt lat="48.97707" lon="1.33144">
        <ele>98.2</ele>
        <time>2015-09-27T08:44:51Z</time>
      </trkpt>
      <trkpt lat="48.97719" lon="1.3316">
        <ele>96.9</ele>
        <time>2015-09-27T08:44:53Z</time>
      </trkpt>
      <trkpt lat="48.97731" lon="1.33178">
        <ele>95.4</ele>
        <time>2015-09-27T08:44:55Z</time>
      </trkpt>
      <trkpt lat="48.97744" lon="1.33195">
        <ele>94</ele>
        <time>2015-09-27T08:44:57Z</time>
      </trkpt>
      <trkpt lat="48.97756" lon="1.33213">
        <ele>92.6</ele>
        <time>2015-09-27T08:44:59Z</time>
      </trkpt>
      <trkpt lat="48.97768" lon="1.3323">
        <ele>91.3</ele>
        <time>2015-09-27T08:45:01Z</time>
      </trkpt>
      <trkpt lat="48.9778" lon="1.33248">
        <ele>89.8</ele>
        <time>2015-09-27T08:45:03Z</time>
      </trkpt>
      <trkpt lat="48.97792" lon="1.33263">
        <ele>88.5</ele>
        <time>2015-09-27T08:45:05Z</time>
      </trkpt>
      <trkpt lat="48.97802" lon="1.33276">
        <ele>87.2</ele>
        <time>2015-09-27T08:45:07Z</time>
      </trkpt>
      <trkpt lat="48.97812" lon="1.33281">
        <ele>85.5</ele>
        <time>2015-09-27T08:45:10Z</time>
      </trkpt>
      <trkpt lat="48.97818" lon="1.3327">
        <ele>83.9</ele>
        <time>2015-09-27T08:45:13Z</time>
      </trkpt>
      <trkpt lat="48.97823" lon="1.33256">
        <ele>82.6</ele>
        <time>2015-09-27T08:45:16Z</time>
      </trkpt>
      <trkpt lat="48.97828" lon="1.33242">
        <ele>81.6</ele>
        <time>2015-09-27T08:45:19Z</time>
      </trkpt>
      <trkpt lat="48.97834" lon="1.33228">
        <ele>80.9</ele>
        <time>2015-09-27T08:45:22Z</time>
      </trkpt>
      <trkpt lat="48.97843" lon="1.33217">
        <ele>80.3</ele>
        <time>2015-09-27T08:45:26Z</time>
      </trkpt>
      <trkpt lat="48.97853" lon="1.33213">
        <ele>80</ele>
        <time>2015-09-27T08:45:29Z</time>
      </trkpt>
      <trkpt lat="48.97862" lon="1.33209">
        <ele>79.9</ele>
        <time>2015-09-27T08:45:31Z</time>
      </trkpt>
      <trkpt lat="48.97871" lon="1.33204">
        <ele>79.7</ele>
        <time>2015-09-27T08:45:33Z</time>
      </trkpt>
      <trkpt lat="48.9788" lon="1.33198">
        <ele>79.6</ele>
        <time>2015-09-27T08:45:35Z</time>
      </trkpt>
      <trkpt lat="48.9789" lon="1.33192">
        <ele>79.5</ele>
        <time>2015-09-27T08:45:37Z</time>
      </trkpt>
      <trkpt lat="48.979" lon="1.33183">
        <ele>79.4</ele>
        <time>2015-09-27T08:45:39Z</time>
      </trkpt>
      <trkpt lat="48.9791" lon="1.33171">
        <ele>79.3</ele>
        <time>2015-09-27T08:45:41Z</time>
      </trkpt>
      <trkpt lat="48.97919" lon="1.33155">
        <ele>79.1</ele>
        <time>2015-09-27T08:45:43Z</time>
      </trkpt>
      <trkpt lat="48.97925" lon="1.33136">
        <ele>78.9</ele>
        <time>2015-09-27T08:45:45Z</time>
      </trkpt>
      <trkpt lat="48.9793" lon="1.33115">
        <ele>78.6</ele>
        <time>2015-09-27T08:45:47Z</time>
      </trkpt>
      <trkpt lat="48.97935" lon="1.33093">
        <ele>78.3</ele>
        <time>2015-09-27T08:45:49Z</time>
      </trkpt>
      <trkpt lat="48.9794" lon="1.33072">
        <ele>77.9</ele>
        <time>2015-09-27T08:45:51Z</time>
      </trkpt>
      <trkpt lat="48.97945" lon="1.33049">
        <ele>77.4</ele>
        <time>2015-09-27T08:45:53Z</time>
      </trkpt>
      <trkpt lat="48.97949" lon="1.33026">
        <ele>77</ele>
        <time>2015-09-27T08:45:55Z</time>
      </trkpt>
      <trkpt lat="48.97955" lon="1.33004">
        <ele>76.6</ele>
        <time>2015-09-27T08:45:57Z</time>
      </trkpt>
      <trkpt lat="48.9796" lon="1.3298">
        <ele>76.2</ele>
        <time>2015-09-27T08:45:59Z</time>
      </trkpt>
      <trkpt lat="48.97965" lon="1.32957">
        <ele>75.7</ele>
        <time>2015-09-27T08:46:01Z</time>
      </trkpt>
      <trkpt lat="48.9797" lon="1.32933">
        <ele>75.2</ele>
        <time>2015-09-27T08:46:03Z</time>
      </trkpt>
      <trkpt lat="48.97975" lon="1.32909">
        <ele>74.7</ele>
        <time>2015-09-27T08:46:05Z</time>
      </trkpt>
      <trkpt lat="48.9798" lon="1.32887">
        <ele>74.3</ele>
        <time>2015-09-27T08:46:07Z</time>
      </trkpt>
      <trkpt lat="48.97985" lon="1.32864">
        <ele>73.9</ele>
        <time>2015-09-27T08:46:09Z</time>
      </trkpt>
      <trkpt lat="48.97992" lon="1.32842">
        <ele>73.4</ele>
        <time>2015-09-27T08:46:11Z</time>
      </trkpt>
      <trkpt lat="48.97999" lon="1.3282">
        <ele>72.9</ele>
        <time>2015-09-27T08:46:13Z</time>
      </trkpt>
      <trkpt lat="48.98008" lon="1.32801">
        <ele>72.4</ele>
        <time>2015-09-27T08:46:15Z</time>
      </trkpt>
      <trkpt lat="48.98017" lon="1.32782">
        <ele>72</ele>
        <time>2015-09-27T08:46:17Z</time>
      </trkpt>
      <trkpt lat="48.98028" lon="1.32765">
        <ele>71.6</ele>
        <time>2015-09-27T08:46:19Z</time>
      </trkpt>
      <trkpt lat="48.98039" lon="1.3275">
        <ele>71.2</ele>
        <time>2015-09-27T08:46:21Z</time>
      </trkpt>
      <trkpt lat="48.98052" lon="1.32739">
        <ele>70.9</ele>
        <time>2015-09-27T08:46:23Z</time>
      </trkpt>
      <trkpt lat="48.98065" lon="1.3273">
        <ele>70.6</ele>
        <time>2015-09-27T08:46:25Z</time>
      </trkpt>
      <trkpt lat="48.98076" lon="1.32723">
        <ele>70.3</ele>
        <time>2015-09-27T08:46:27Z</time>
      </trkpt>
      <trkpt lat="48.98087" lon="1.32714">
        <ele>70</ele>
        <time>2015-09-27T08:46:29Z</time>
      </trkpt>
      <trkpt lat="48.98095" lon="1.32699">
        <ele>69.7</ele>
        <time>2015-09-27T08:46:31Z</time>
      </trkpt>
      <trkpt lat="48.98104" lon="1.32681">
        <ele>69.3</ele>
        <time>2015-09-27T08:46:33Z</time>
      </trkpt>
      <trkpt lat="48.98113" lon="1.32661">
        <ele>68.9</ele>
        <time>2015-09-27T08:46:35Z</time>
      </trkpt>
      <trkpt lat="48.98122" lon="1.32642">
        <ele>68.6</ele>
        <time>2015-09-27T08:46:37Z</time>
      </trkpt>
      <trkpt lat="48.9813" lon="1.32625">
        <ele>68.1</ele>
        <time>2015-09-27T08:46:39Z</time>
      </trkpt>
      <trkpt lat="48.98138" lon="1.32607">
        <ele>67.7</ele>
        <time>2015-09-27T08:46:41Z</time>
      </trkpt>
      <trkpt lat="48.98144" lon="1.3259">
        <ele>67.3</ele>
        <time>2015-09-27T08:46:43Z</time>
      </trkpt>
      <trkpt lat="48.98149" lon="1.32571">
        <ele>67</ele>
        <time>2015-09-27T08:46:45Z</time>
      </trkpt>
      <trkpt lat="48.98152" lon="1.32553">
        <ele>66.8</ele>
        <time>2015-09-27T08:46:47Z</time>
      </trkpt>
      <trkpt lat="48.98153" lon="1.32534">
        <ele>66.5</ele>
        <time>2015-09-27T08:46:49Z</time>
      </trkpt>
      <trkpt lat="48.9815" lon="1.32517">
        <ele>66.3</ele>
        <time>2015-09-27T08:46:51Z</time>
      </trkpt>
      <trkpt lat="48.98146" lon="1.325">
        <ele>66.1</ele>
        <time>2015-09-27T08:46:53Z</time>
      </trkpt>
      <trkpt lat="48.98144" lon="1.32484">
        <ele>66</ele>
        <time>2015-09-27T08:46:55Z</time>
      </trkpt>
      <trkpt lat="48.98144" lon="1.32467">
        <ele>65.8</ele>
        <time>2015-09-27T08:46:57Z</time>
      </trkpt>
      <trkpt lat="48.98146" lon="1.32451">
        <ele>65.7</ele>
        <time>2015-09-27T08:46:59Z</time>
      </trkpt>
      <trkpt lat="48.9815" lon="1.32434">
        <ele>65.6</ele>
        <time>2015-09-27T08:47:01Z</time>
      </trkpt>
      <trkpt lat="48.98155" lon="1.32418">
        <ele>65.5</ele>
        <time>2015-09-27T08:47:03Z</time>
      </trkpt>
      <trkpt lat="48.98161" lon="1.32401">
        <ele>65.4</ele>
        <time>2015-09-27T08:47:05Z</time>
      </trkpt>
      <trkpt lat="48.98166" lon="1.32385">
        <ele>65.4</ele>
        <time>2015-09-27T08:47:07Z</time>
      </trkpt>
      <trkpt lat="48.98172" lon="1.32368">
        <ele>65.3</ele>
        <time>2015-09-27T08:47:09Z</time>
      </trkpt>
      <trkpt lat="48.98179" lon="1.32353">
        <ele>65.1</ele>
        <time>2015-09-27T08:47:11Z</time>
      </trkpt>
      <trkpt lat="48.98186" lon="1.32339">
        <ele>65.2</ele>
        <time>2015-09-27T08:47:13Z</time>
      </trkpt>
      <trkpt lat="48.98193" lon="1.32325">
        <ele>65.2</ele>
        <time>2015-09-27T08:47:15Z</time>
      </trkpt>
      <trkpt lat="48.98199" lon="1.32312">
        <ele>65.2</ele>
        <time>2015-09-27T08:47:17Z</time>
      </trkpt>
      <trkpt lat="48.98207" lon="1.32302">
        <ele>65.2</ele>
        <time>2015-09-27T08:47:19Z</time>
      </trkpt>
      <trkpt lat="48.98215" lon="1.32293">
        <ele>65.2</ele>
        <time>2015-09-27T08:47:21Z</time>
      </trkpt>
      <trkpt lat="48.98223" lon="1.32285">
        <ele>65.1</ele>
        <time>2015-09-27T08:47:23Z</time>
      </trkpt>
      <trkpt lat="48.98233" lon="1.32279">
        <ele>65.1</ele>
        <time>2015-09-27T08:47:25Z</time>
      </trkpt>
      <trkpt lat="48.98242" lon="1.32273">
        <ele>65</ele>
        <time>2015-09-27T08:47:27Z</time>
      </trkpt>
      <trkpt lat="48.98252" lon="1.32269">
        <ele>65</ele>
        <time>2015-09-27T08:47:29Z</time>
      </trkpt>
      <trkpt lat="48.98262" lon="1.32267">
        <ele>65.1</ele>
        <time>2015-09-27T08:47:31Z</time>
      </trkpt>
      <trkpt lat="48.98272" lon="1.32267">
        <ele>65.1</ele>
        <time>2015-09-27T08:47:33Z</time>
      </trkpt>
      <trkpt lat="48.98282" lon="1.32269">
        <ele>65.2</ele>
        <time>2015-09-27T08:47:35Z</time>
      </trkpt>
      <trkpt lat="48.98292" lon="1.32272">
        <ele>65.2</ele>
        <time>2015-09-27T08:47:37Z</time>
      </trkpt>
      <trkpt lat="48.98302" lon="1.32276">
        <ele>65.3</ele>
        <time>2015-09-27T08:47:39Z</time>
      </trkpt>
      <trkpt lat="48.98311" lon="1.32283">
        <ele>65.3</ele>
        <time>2015-09-27T08:47:41Z</time>
      </trkpt>
      <trkpt lat="48.98318" lon="1.32291">
        <ele>65.3</ele>
        <time>2015-09-27T08:47:43Z</time>
      </trkpt>
      <trkpt lat="48.9833" lon="1.32296">
        <ele>65.4</ele>
        <time>2015-09-27T08:47:46Z</time>
      </trkpt>
      <trkpt lat="48.9834" lon="1.32285">
        <ele>65.5</ele>
        <time>2015-09-27T08:47:49Z</time>
      </trkpt>
      <trkpt lat="48.98347" lon="1.32274">
        <ele>65.6</ele>
        <time>2015-09-27T08:47:51Z</time>
      </trkpt>
      <trkpt lat="48.98354" lon="1.32263">
        <ele>65.6</ele>
        <time>2015-09-27T08:47:53Z</time>
      </trkpt>
      <trkpt lat="48.98361" lon="1.32253">
        <ele>65.6</ele>
        <time>2015-09-27T08:47:55Z</time>
      </trkpt>
      <trkpt lat="48.9837" lon="1.32238">
        <ele>65.7</ele>
        <time>2015-09-27T08:47:58Z</time>
      </trkpt>
      <trkpt lat="48.98379" lon="1.32224">
        <ele>65.8</ele>
        <time>2015-09-27T08:48:01Z</time>
      </trkpt>
      <trkpt lat="48.98388" lon="1.3221">
        <ele>66.1</ele>
        <time>2015-09-27T08:48:04Z</time>
      </trkpt>
      <trkpt lat="48.98396" lon="1.32197">
        <ele>66.3</ele>
        <time>2015-09-27T08:48:07Z</time>
      </trkpt>
      <trkpt lat="48.98405" lon="1.32183">
        <ele>66.5</ele>
        <time>2015-09-27T08:48:10Z</time>
      </trkpt>
      <trkpt lat="48.98414" lon="1.3217">
        <ele>66.8</ele>
        <time>2015-09-27T08:48:13Z</time>
      </trkpt>
      <trkpt lat="48.98424" lon="1.32157">
        <ele>67</ele>
        <time>2015-09-27T08:48:16Z</time>
      </trkpt>
      <trkpt lat="48.9843" lon="1.32147">
        <ele>67.2</ele>
        <time>2015-09-27T08:48:18Z</time>
      </trkpt>
      <trkpt lat="48.98437" lon="1.32138">
        <ele>67.4</ele>
        <time>2015-09-27T08:48:20Z</time>
      </trkpt>
      <trkpt lat="48.98445" lon="1.32129">
        <ele>67.6</ele>
        <time>2015-09-27T08:48:22Z</time>
      </trkpt>
      <trkpt lat="48.98451" lon="1.32119">
        <ele>67.9</ele>
        <time>2015-09-27T08:48:24Z</time>
      </trkpt>
      <trkpt lat="48.98458" lon="1.3211">
        <ele>68.2</ele>
        <time>2015-09-27T08:48:26Z</time>
      </trkpt>
      <trkpt lat="48.98468" lon="1.32097">
        <ele>68.6</ele>
        <time>2015-09-27T08:48:29Z</time>
      </trkpt>
      <trkpt lat="48.98475" lon="1.32088">
        <ele>68.8</ele>
        <time>2015-09-27T08:48:31Z</time>
      </trkpt>
      <trkpt lat="48.98485" lon="1.32075">
        <ele>69.2</ele>
        <time>2015-09-27T08:48:34Z</time>
      </trkpt>
      <trkpt lat="48.98493" lon="1.32066">
        <ele>69.4</ele>
        <time>2015-09-27T08:48:36Z</time>
      </trkpt>
      <trkpt lat="48.985" lon="1.32056">
        <ele>69.7</ele>
        <time>2015-09-27T08:48:38Z</time>
      </trkpt>
      <trkpt lat="48.98508" lon="1.32047">
        <ele>69.9</ele>
        <time>2015-09-27T08:48:40Z</time>
      </trkpt>
      <trkpt lat="48.98516" lon="1.32039">
        <ele>70.2</ele>
        <time>2015-09-27T08:48:42Z</time>
      </trkpt>
      <trkpt lat="48.98523" lon="1.3203">
        <ele>70.5</ele>
        <time>2015-09-27T08:48:44Z</time>
      </trkpt>
      <trkpt lat="48.98531" lon="1.32021">
        <ele>70.8</ele>
        <time>2015-09-27T08:48:46Z</time>
      </trkpt>
      <trkpt lat="48.98539" lon="1.32012">
        <ele>71.1</ele>
        <time>2015-09-27T08:48:48Z</time>
      </trkpt>
      <trkpt lat="48.98547" lon="1.32003">
        <ele>71.4</ele>
        <time>2015-09-27T08:48:50Z</time>
      </trkpt>
      <trkpt lat="48.98556" lon="1.31995">
        <ele>71.7</ele>
        <time>2015-09-27T08:48:52Z</time>
      </trkpt>
      <trkpt lat="48.98563" lon="1.31986">
        <ele>72</ele>
        <time>2015-09-27T08:48:54Z</time>
      </trkpt>
      <trkpt lat="48.98571" lon="1.31977">
        <ele>72.2</ele>
        <time>2015-09-27T08:48:56Z</time>
      </trkpt>
      <trkpt lat="48.98579" lon="1.31968">
        <ele>72.5</ele>
        <time>2015-09-27T08:48:58Z</time>
      </trkpt>
      <trkpt lat="48.98587" lon="1.31957">
        <ele>72.7</ele>
        <time>2015-09-27T08:49:00Z</time>
      </trkpt>
      <trkpt lat="48.98594" lon="1.31949">
        <ele>72.9</ele>
        <time>2015-09-27T08:49:02Z</time>
      </trkpt>
      <trkpt lat="48.98603" lon="1.31938">
        <ele>73.1</ele>
        <time>2015-09-27T08:49:05Z</time>
      </trkpt>
      <trkpt lat="48.98615" lon="1.31926">
        <ele>73.3</ele>
        <time>2015-09-27T08:49:08Z</time>
      </trkpt>
      <trkpt lat="48.98623" lon="1.31918">
        <ele>73.5</ele>
        <time>2015-09-27T08:49:10Z</time>
      </trkpt>
      <trkpt lat="48.98631" lon="1.31909">
        <ele>73.7</ele>
        <time>2015-09-27T08:49:12Z</time>
      </trkpt>
      <trkpt lat="48.9864" lon="1.31899">
        <ele>73.9</ele>
        <time>2015-09-27T08:49:14Z</time>
      </trkpt>
      <trkpt lat="48.98648" lon="1.31888">
        <ele>74</ele>
        <time>2015-09-27T08:49:16Z</time>
      </trkpt>
      <trkpt lat="48.98657" lon="1.31877">
        <ele>74.1</ele>
        <time>2015-09-27T08:49:18Z</time>
      </trkpt>
      <trkpt lat="48.98667" lon="1.31866">
        <ele>74.2</ele>
        <time>2015-09-27T08:49:20Z</time>
      </trkpt>
      <trkpt lat="48.98677" lon="1.31855">
        <ele>74.1</ele>
        <time>2015-09-27T08:49:22Z</time>
      </trkpt>
      <trkpt lat="48.98689" lon="1.31843">
        <ele>73.9</ele>
        <time>2015-09-27T08:49:24Z</time>
      </trkpt>
      <trkpt lat="48.987" lon="1.31832">
        <ele>73.7</ele>
        <time>2015-09-27T08:49:26Z</time>
      </trkpt>
      <trkpt lat="48.98713" lon="1.3182">
        <ele>73.5</ele>
        <time>2015-09-27T08:49:28Z</time>
      </trkpt>
      <trkpt lat="48.98725" lon="1.31808">
        <ele>73.2</ele>
        <time>2015-09-27T08:49:30Z</time>
      </trkpt>
      <trkpt lat="48.98737" lon="1.31795">
        <ele>72.9</ele>
        <time>2015-09-27T08:49:32Z</time>
      </trkpt>
      <trkpt lat="48.98749" lon="1.31783">
        <ele>72.6</ele>
        <time>2015-09-27T08:49:34Z</time>
      </trkpt>
      <trkpt lat="48.9876" lon="1.31772">
        <ele>72.4</ele>
        <time>2015-09-27T08:49:36Z</time>
      </trkpt>
      <trkpt lat="48.98771" lon="1.31761">
        <ele>72.1</ele>
        <time>2015-09-27T08:49:38Z</time>
      </trkpt>
      <trkpt lat="48.9878" lon="1.31748">
        <ele>71.8</ele>
        <time>2015-09-27T08:49:40Z</time>
      </trkpt>
      <trkpt lat="48.98784" lon="1.31734">
        <ele>71.5</ele>
        <time>2015-09-27T08:49:42Z</time>
      </trkpt>
      <trkpt lat="48.98779" lon="1.3172">
        <ele>71.3</ele>
        <time>2015-09-27T08:49:44Z</time>
      </trkpt>
      <trkpt lat="48.98772" lon="1.31705">
        <ele>70.9</ele>
        <time>2015-09-27T08:49:47Z</time>
      </trkpt>
      <trkpt lat="48.98758" lon="1.317">
        <ele>70.6</ele>
        <time>2015-09-27T08:49:50Z</time>
      </trkpt>
      <trkpt lat="48.98749" lon="1.31701">
        <ele>70.4</ele>
        <time>2015-09-27T08:49:52Z</time>
      </trkpt>
      <trkpt lat="48.98737" lon="1.31708">
        <ele>70.2</ele>
        <time>2015-09-27T08:49:55Z</time>
      </trkpt>
      <trkpt lat="48.98726" lon="1.31718">
        <ele>70.2</ele>
        <time>2015-09-27T08:49:58Z</time>
      </trkpt>
      <trkpt lat="48.98716" lon="1.31728">
        <ele>70.2</ele>
        <time>2015-09-27T08:50:01Z</time>
      </trkpt>
      <trkpt lat="48.98705" lon="1.31737">
        <ele>70.2</ele>
        <time>2015-09-27T08:50:04Z</time>
      </trkpt>
      <trkpt lat="48.98693" lon="1.31742">
        <ele>70.4</ele>
        <time>2015-09-27T08:50:07Z</time>
      </trkpt>
      <trkpt lat="48.98682" lon="1.31746">
        <ele>70.6</ele>
        <time>2015-09-27T08:50:10Z</time>
      </trkpt>
      <trkpt lat="48.9867" lon="1.31747">
        <ele>70.8</ele>
        <time>2015-09-27T08:50:13Z</time>
      </trkpt>
      <trkpt lat="48.9866" lon="1.31738">
        <ele>71</ele>
        <time>2015-09-27T08:50:16Z</time>
      </trkpt>
      <trkpt lat="48.98654" lon="1.31723">
        <ele>71.4</ele>
        <time>2015-09-27T08:50:19Z</time>
      </trkpt>
      <trkpt lat="48.98649" lon="1.31709">
        <ele>71.8</ele>
        <time>2015-09-27T08:50:22Z</time>
      </trkpt>
      <trkpt lat="48.98643" lon="1.31695">
        <ele>72.3</ele>
        <time>2015-09-27T08:50:25Z</time>
      </trkpt>
      <trkpt lat="48.98638" lon="1.31681">
        <ele>72.8</ele>
        <time>2015-09-27T08:50:28Z</time>
      </trkpt>
      <trkpt lat="48.98634" lon="1.31669">
        <ele>73.4</ele>
        <time>2015-09-27T08:50:31Z</time>
      </trkpt>
      <trkpt lat="48.98627" lon="1.31653">
        <ele>74.1</ele>
        <time>2015-09-27T08:50:35Z</time>
      </trkpt>
      <trkpt lat="48.98623" lon="1.31638">
        <ele>75</ele>
        <time>2015-09-27T08:50:39Z</time>
      </trkpt>
      <trkpt lat="48.9862" lon="1.31623">
        <ele>76.1</ele>
        <time>2015-09-27T08:50:44Z</time>
      </trkpt>
      <trkpt lat="48.98615" lon="1.31609">
        <ele>77.2</ele>
        <time>2015-09-27T08:50:49Z</time>
      </trkpt>
      <trkpt lat="48.98608" lon="1.3159">
        <ele>78.4</ele>
        <time>2015-09-27T08:50:54Z</time>
      </trkpt>
      <trkpt lat="48.98603" lon="1.31576">
        <ele>79.5</ele>
        <time>2015-09-27T08:50:59Z</time>
      </trkpt>
      <trkpt lat="48.98596" lon="1.31563">
        <ele>80.5</ele>
        <time>2015-09-27T08:51:03Z</time>
      </trkpt>
      <trkpt lat="48.98592" lon="1.31546">
        <ele>81.5</ele>
        <time>2015-09-27T08:51:08Z</time>
      </trkpt>
      <trkpt lat="48.98588" lon="1.31531">
        <ele>82.4</ele>
        <time>2015-09-27T08:51:12Z</time>
      </trkpt>
      <trkpt lat="48.98585" lon="1.31518">
        <ele>83.5</ele>
        <time>2015-09-27T08:51:16Z</time>
      </trkpt>
      <trkpt lat="48.98581" lon="1.31503">
        <ele>84.6</ele>
        <time>2015-09-27T08:51:20Z</time>
      </trkpt>
      <trkpt lat="48.98579" lon="1.31489">
        <ele>85.5</ele>
        <time>2015-09-27T08:51:24Z</time>
      </trkpt>
      <trkpt lat="48.98573" lon="1.31474">
        <ele>86.5</ele>
        <time>2015-09-27T08:51:28Z</time>
      </trkpt>
      <trkpt lat="48.98568" lon="1.3146">
        <ele>87.5</ele>
        <time>2015-09-27T08:51:32Z</time>
      </trkpt>
      <trkpt lat="48.9856" lon="1.31444">
        <ele>88.5</ele>
        <time>2015-09-27T08:51:37Z</time>
      </trkpt>
      <trkpt lat="48.98553" lon="1.31431">
        <ele>89.3</ele>
        <time>2015-09-27T08:51:41Z</time>
      </trkpt>
      <trkpt lat="48.98546" lon="1.3142">
        <ele>89.9</ele>
        <time>2015-09-27T08:51:44Z</time>
      </trkpt>
      <trkpt lat="48.98541" lon="1.31408">
        <ele>90.9</ele>
        <time>2015-09-27T08:51:48Z</time>
      </trkpt>
      <trkpt lat="48.98534" lon="1.31396">
        <ele>91.9</ele>
        <time>2015-09-27T08:51:52Z</time>
      </trkpt>
      <trkpt lat="48.98526" lon="1.31385">
        <ele>92.8</ele>
        <time>2015-09-27T08:51:56Z</time>
      </trkpt>
      <trkpt lat="48.98519" lon="1.31375">
        <ele>93.6</ele>
        <time>2015-09-27T08:52:00Z</time>
      </trkpt>
      <trkpt lat="48.98512" lon="1.31365">
        <ele>94.6</ele>
        <time>2015-09-27T08:52:04Z</time>
      </trkpt>
      <trkpt lat="48.98504" lon="1.31355">
        <ele>95.4</ele>
        <time>2015-09-27T08:52:08Z</time>
      </trkpt>
      <trkpt lat="48.98496" lon="1.31345">
        <ele>96</ele>
        <time>2015-09-27T08:52:11Z</time>
      </trkpt>
      <trkpt lat="48.98487" lon="1.31334">
        <ele>96.7</ele>
        <time>2015-09-27T08:52:15Z</time>
      </trkpt>
      <trkpt lat="48.98478" lon="1.31323">
        <ele>97.3</ele>
        <time>2015-09-27T08:52:19Z</time>
      </trkpt>
      <trkpt lat="48.9847" lon="1.31314">
        <ele>97.8</ele>
        <time>2015-09-27T08:52:22Z</time>
      </trkpt>
      <trkpt lat="48.98463" lon="1.31305">
        <ele>98.2</ele>
        <time>2015-09-27T08:52:25Z</time>
      </trkpt>
      <trkpt lat="48.98454" lon="1.31295">
        <ele>98.7</ele>
        <time>2015-09-27T08:52:29Z</time>
      </trkpt>
      <trkpt lat="48.98445" lon="1.31282">
        <ele>99.2</ele>
        <time>2015-09-27T08:52:33Z</time>
      </trkpt>
      <trkpt lat="48.98438" lon="1.31269">
        <ele>99.8</ele>
        <time>2015-09-27T08:52:37Z</time>
      </trkpt>
      <trkpt lat="48.98432" lon="1.31257">
        <ele>100.4</ele>
        <time>2015-09-27T08:52:41Z</time>
      </trkpt>
      <trkpt lat="48.98426" lon="1.31248">
        <ele>101.1</ele>
        <time>2015-09-27T08:52:45Z</time>
      </trkpt>
      <trkpt lat="48.98417" lon="1.31242">
        <ele>101.6</ele>
        <time>2015-09-27T08:52:48Z</time>
      </trkpt>
      <trkpt lat="48.98408" lon="1.31237">
        <ele>101.9</ele>
        <time>2015-09-27T08:52:51Z</time>
      </trkpt>
      <trkpt lat="48.98398" lon="1.3123">
        <ele>102.3</ele>
        <time>2015-09-27T08:52:54Z</time>
      </trkpt>
      <trkpt lat="48.98389" lon="1.31221">
        <ele>102.6</ele>
        <time>2015-09-27T08:52:57Z</time>
      </trkpt>
      <trkpt lat="48.98381" lon="1.31212">
        <ele>102.9</ele>
        <time>2015-09-27T08:53:00Z</time>
      </trkpt>
      <trkpt lat="48.98373" lon="1.31204">
        <ele>103.2</ele>
        <time>2015-09-27T08:53:03Z</time>
      </trkpt>
      <trkpt lat="48.98366" lon="1.31195">
        <ele>103.6</ele>
        <time>2015-09-27T08:53:06Z</time>
      </trkpt>
      <trkpt lat="48.98358" lon="1.31183">
        <ele>104.3</ele>
        <time>2015-09-27T08:53:10Z</time>
      </trkpt>
      <trkpt lat="48.9835" lon="1.31172">
        <ele>104.8</ele>
        <time>2015-09-27T08:53:13Z</time>
      </trkpt>
      <trkpt lat="48.98342" lon="1.31162">
        <ele>105.2</ele>
        <time>2015-09-27T08:53:16Z</time>
      </trkpt>
      <trkpt lat="48.98334" lon="1.31151">
        <ele>105.6</ele>
        <time>2015-09-27T08:53:19Z</time>
      </trkpt>
      <trkpt lat="48.98325" lon="1.31139">
        <ele>106</ele>
        <time>2015-09-27T08:53:22Z</time>
      </trkpt>
      <trkpt lat="48.98315" lon="1.3113">
        <ele>106.4</ele>
        <time>2015-09-27T08:53:25Z</time>
      </trkpt>
      <trkpt lat="48.98306" lon="1.31119">
        <ele>106.6</ele>
        <time>2015-09-27T08:53:28Z</time>
      </trkpt>
      <trkpt lat="48.98295" lon="1.31112">
        <ele>107</ele>
        <time>2015-09-27T08:53:31Z</time>
      </trkpt>
      <trkpt lat="48.98285" lon="1.3111">
        <ele>107.1</ele>
        <time>2015-09-27T08:53:33Z</time>
      </trkpt>
      <trkpt lat="48.98272" lon="1.31106">
        <ele>107.1</ele>
        <time>2015-09-27T08:53:35Z</time>
      </trkpt>
      <trkpt lat="48.98257" lon="1.31102">
        <ele>106.8</ele>
        <time>2015-09-27T08:53:37Z</time>
      </trkpt>
      <trkpt lat="48.98243" lon="1.31097">
        <ele>106.6</ele>
        <time>2015-09-27T08:53:39Z</time>
      </trkpt>
      <trkpt lat="48.9823" lon="1.31092">
        <ele>106.4</ele>
        <time>2015-09-27T08:53:41Z</time>
      </trkpt>
      <trkpt lat="48.98218" lon="1.31087">
        <ele>106.1</ele>
        <time>2015-09-27T08:53:43Z</time>
      </trkpt>
      <trkpt lat="48.98209" lon="1.31083">
        <ele>106</ele>
        <time>2015-09-27T08:53:45Z</time>
      </trkpt>
      <trkpt lat="48.98198" lon="1.31078">
        <ele>106</ele>
        <time>2015-09-27T08:53:48Z</time>
      </trkpt>
      <trkpt lat="48.98189" lon="1.31074">
        <ele>106.2</ele>
        <time>2015-09-27T08:53:51Z</time>
      </trkpt>
      <trkpt lat="48.9818" lon="1.31069">
        <ele>106.6</ele>
        <time>2015-09-27T08:53:54Z</time>
      </trkpt>
      <trkpt lat="48.9817" lon="1.31063">
        <ele>107.1</ele>
        <time>2015-09-27T08:53:57Z</time>
      </trkpt>
      <trkpt lat="48.98161" lon="1.31057">
        <ele>107.5</ele>
        <time>2015-09-27T08:54:00Z</time>
      </trkpt>
      <trkpt lat="48.98152" lon="1.3105">
        <ele>108.1</ele>
        <time>2015-09-27T08:54:03Z</time>
      </trkpt>
      <trkpt lat="48.98144" lon="1.31043">
        <ele>108.7</ele>
        <time>2015-09-27T08:54:06Z</time>
      </trkpt>
      <trkpt lat="48.98136" lon="1.31035">
        <ele>109.3</ele>
        <time>2015-09-27T08:54:09Z</time>
      </trkpt>
      <trkpt lat="48.98127" lon="1.31026">
        <ele>109.9</ele>
        <time>2015-09-27T08:54:12Z</time>
      </trkpt>
      <trkpt lat="48.98119" lon="1.31017">
        <ele>110.4</ele>
        <time>2015-09-27T08:54:15Z</time>
      </trkpt>
      <trkpt lat="48.98109" lon="1.31007">
        <ele>110.8</ele>
        <time>2015-09-27T08:54:18Z</time>
      </trkpt>
      <trkpt lat="48.981" lon="1.30997">
        <ele>111.2</ele>
        <time>2015-09-27T08:54:21Z</time>
      </trkpt>
      <trkpt lat="48.98091" lon="1.30988">
        <ele>111.6</ele>
        <time>2015-09-27T08:54:24Z</time>
      </trkpt>
      <trkpt lat="48.98082" lon="1.30978">
        <ele>112.1</ele>
        <time>2015-09-27T08:54:27Z</time>
      </trkpt>
      <trkpt lat="48.98072" lon="1.30967">
        <ele>112.6</ele>
        <time>2015-09-27T08:54:30Z</time>
      </trkpt>
      <trkpt lat="48.98062" lon="1.30956">
        <ele>113</ele>
        <time>2015-09-27T08:54:33Z</time>
      </trkpt>
      <trkpt lat="48.98053" lon="1.30945">
        <ele>113.4</ele>
        <time>2015-09-27T08:54:36Z</time>
      </trkpt>
      <trkpt lat="48.98043" lon="1.30935">
        <ele>113.8</ele>
        <time>2015-09-27T08:54:39Z</time>
      </trkpt>
      <trkpt lat="48.98035" lon="1.30925">
        <ele>114.2</ele>
        <time>2015-09-27T08:54:42Z</time>
      </trkpt>
      <trkpt lat="48.98026" lon="1.30915">
        <ele>114.6</ele>
        <time>2015-09-27T08:54:45Z</time>
      </trkpt>
      <trkpt lat="48.98017" lon="1.30903">
        <ele>115.2</ele>
        <time>2015-09-27T08:54:48Z</time>
      </trkpt>
      <trkpt lat="48.98008" lon="1.30892">
        <ele>115.8</ele>
        <time>2015-09-27T08:54:51Z</time>
      </trkpt>
      <trkpt lat="48.97998" lon="1.3088">
        <ele>116.2</ele>
        <time>2015-09-27T08:54:54Z</time>
      </trkpt>
      <trkpt lat="48.97989" lon="1.30869">
        <ele>116.5</ele>
        <time>2015-09-27T08:54:57Z</time>
      </trkpt>
      <trkpt lat="48.9798" lon="1.30857">
        <ele>116.9</ele>
        <time>2015-09-27T08:55:00Z</time>
      </trkpt>
      <trkpt lat="48.97971" lon="1.30846">
        <ele>117.3</ele>
        <time>2015-09-27T08:55:03Z</time>
      </trkpt>
      <trkpt lat="48.97962" lon="1.30833">
        <ele>117.6</ele>
        <time>2015-09-27T08:55:06Z</time>
      </trkpt>
      <trkpt lat="48.97952" lon="1.3082">
        <ele>118</ele>
        <time>2015-09-27T08:55:09Z</time>
      </trkpt>
      <trkpt lat="48.97943" lon="1.30807">
        <ele>118.3</ele>
        <time>2015-09-27T08:55:12Z</time>
      </trkpt>
      <trkpt lat="48.97933" lon="1.30794">
        <ele>118.6</ele>
        <time>2015-09-27T08:55:15Z</time>
      </trkpt>
      <trkpt lat="48.97923" lon="1.3078">
        <ele>118.9</ele>
        <time>2015-09-27T08:55:18Z</time>
      </trkpt>
      <trkpt lat="48.97916" lon="1.30771">
        <ele>119.2</ele>
        <time>2015-09-27T08:55:20Z</time>
      </trkpt>
      <trkpt lat="48.97906" lon="1.30757">
        <ele>119.6</ele>
        <time>2015-09-27T08:55:23Z</time>
      </trkpt>
      <trkpt lat="48.97897" lon="1.30744">
        <ele>120</ele>
        <time>2015-09-27T08:55:26Z</time>
      </trkpt>
      <trkpt lat="48.97887" lon="1.30732">
        <ele>120.3</ele>
        <time>2015-09-27T08:55:29Z</time>
      </trkpt>
      <trkpt lat="48.97878" lon="1.3072">
        <ele>120.6</ele>
        <time>2015-09-27T08:55:32Z</time>
      </trkpt>
      <trkpt lat="48.97869" lon="1.30707">
        <ele>121</ele>
        <time>2015-09-27T08:55:35Z</time>
      </trkpt>
      <trkpt lat="48.97859" lon="1.30694">
        <ele>121.4</ele>
        <time>2015-09-27T08:55:38Z</time>
      </trkpt>
      <trkpt lat="48.97849" lon="1.3068">
        <ele>121.8</ele>
        <time>2015-09-27T08:55:41Z</time>
      </trkpt>
      <trkpt lat="48.9784" lon="1.30665">
        <ele>122</ele>
        <time>2015-09-27T08:55:44Z</time>
      </trkpt>
      <trkpt lat="48.97834" lon="1.30654">
        <ele>122.2</ele>
        <time>2015-09-27T08:55:46Z</time>
      </trkpt>
      <trkpt lat="48.97828" lon="1.30644">
        <ele>122.4</ele>
        <time>2015-09-27T08:55:48Z</time>
      </trkpt>
      <trkpt lat="48.97823" lon="1.30632">
        <ele>122.5</ele>
        <time>2015-09-27T08:55:50Z</time>
      </trkpt>
      <trkpt lat="48.97816" lon="1.30615">
        <ele>122.7</ele>
        <time>2015-09-27T08:55:53Z</time>
      </trkpt>
      <trkpt lat="48.9781" lon="1.30598">
        <ele>122.9</ele>
        <time>2015-09-27T08:55:56Z</time>
      </trkpt>
      <trkpt lat="48.97805" lon="1.30586">
        <ele>123.1</ele>
        <time>2015-09-27T08:55:58Z</time>
      </trkpt>
      <trkpt lat="48.97801" lon="1.30573">
        <ele>123.2</ele>
        <time>2015-09-27T08:56:00Z</time>
      </trkpt>
      <trkpt lat="48.97795" lon="1.30558">
        <ele>123.3</ele>
        <time>2015-09-27T08:56:03Z</time>
      </trkpt>
      <trkpt lat="48.97793" lon="1.30541">
        <ele>123.6</ele>
        <time>2015-09-27T08:56:07Z</time>
      </trkpt>
      <trkpt lat="48.978" lon="1.30524">
        <ele>123.7</ele>
        <time>2015-09-27T08:56:10Z</time>
      </trkpt>
      <trkpt lat="48.97804" lon="1.3051">
        <ele>123.8</ele>
        <time>2015-09-27T08:56:12Z</time>
      </trkpt>
      <trkpt lat="48.97809" lon="1.30496">
        <ele>123.9</ele>
        <time>2015-09-27T08:56:14Z</time>
      </trkpt>
      <trkpt lat="48.97814" lon="1.30482">
        <ele>123.9</ele>
        <time>2015-09-27T08:56:16Z</time>
      </trkpt>
      <trkpt lat="48.97818" lon="1.30467">
        <ele>124</ele>
        <time>2015-09-27T08:56:18Z</time>
      </trkpt>
      <trkpt lat="48.97823" lon="1.30452">
        <ele>124</ele>
        <time>2015-09-27T08:56:20Z</time>
      </trkpt>
      <trkpt lat="48.97828" lon="1.30437">
        <ele>124</ele>
        <time>2015-09-27T08:56:22Z</time>
      </trkpt>
      <trkpt lat="48.97833" lon="1.30421">
        <ele>124</ele>
        <time>2015-09-27T08:56:24Z</time>
      </trkpt>
      <trkpt lat="48.97837" lon="1.30405">
        <ele>124</ele>
        <time>2015-09-27T08:56:26Z</time>
      </trkpt>
      <trkpt lat="48.97841" lon="1.30388">
        <ele>124</ele>
        <time>2015-09-27T08:56:28Z</time>
      </trkpt>
      <trkpt lat="48.97844" lon="1.3037">
        <ele>124</ele>
        <time>2015-09-27T08:56:30Z</time>
      </trkpt>
      <trkpt lat="48.97847" lon="1.30353">
        <ele>124</ele>
        <time>2015-09-27T08:56:32Z</time>
      </trkpt>
      <trkpt lat="48.9785" lon="1.30335">
        <ele>124</ele>
        <time>2015-09-27T08:56:34Z</time>
      </trkpt>
      <trkpt lat="48.97852" lon="1.30317">
        <ele>124</ele>
        <time>2015-09-27T08:56:36Z</time>
      </trkpt>
      <trkpt lat="48.97853" lon="1.30299">
        <ele>124</ele>
        <time>2015-09-27T08:56:38Z</time>
      </trkpt>
      <trkpt lat="48.97853" lon="1.3028">
        <ele>124</ele>
        <time>2015-09-27T08:56:40Z</time>
      </trkpt>
      <trkpt lat="48.97853" lon="1.30262">
        <ele>124</ele>
        <time>2015-09-27T08:56:42Z</time>
      </trkpt>
      <trkpt lat="48.97853" lon="1.30243">
        <ele>124</ele>
        <time>2015-09-27T08:56:44Z</time>
      </trkpt>
      <trkpt lat="48.97854" lon="1.30225">
        <ele>124</ele>
        <time>2015-09-27T08:56:46Z</time>
      </trkpt>
      <trkpt lat="48.97853" lon="1.30206">
        <ele>124</ele>
        <time>2015-09-27T08:56:48Z</time>
      </trkpt>
      <trkpt lat="48.97854" lon="1.30187">
        <ele>124.1</ele>
        <time>2015-09-27T08:56:50Z</time>
      </trkpt>
      <trkpt lat="48.97854" lon="1.3017">
        <ele>124.1</ele>
        <time>2015-09-27T08:56:52Z</time>
      </trkpt>
      <trkpt lat="48.97854" lon="1.30152">
        <ele>124.1</ele>
        <time>2015-09-27T08:56:54Z</time>
      </trkpt>
      <trkpt lat="48.97855" lon="1.30134">
        <ele>124.1</ele>
        <time>2015-09-27T08:56:56Z</time>
      </trkpt>
      <trkpt lat="48.97856" lon="1.30116">
        <ele>124.1</ele>
        <time>2015-09-27T08:56:58Z</time>
      </trkpt>
      <trkpt lat="48.97857" lon="1.30098">
        <ele>124.1</ele>
        <time>2015-09-27T08:57:00Z</time>
      </trkpt>
      <trkpt lat="48.97858" lon="1.30079">
        <ele>124</ele>
        <time>2015-09-27T08:57:02Z</time>
      </trkpt>
      <trkpt lat="48.9786" lon="1.30062">
        <ele>124</ele>
        <time>2015-09-27T08:57:04Z</time>
      </trkpt>
      <trkpt lat="48.97862" lon="1.30043">
        <ele>124</ele>
        <time>2015-09-27T08:57:06Z</time>
      </trkpt>
      <trkpt lat="48.97864" lon="1.30026">
        <ele>124</ele>
        <time>2015-09-27T08:57:08Z</time>
      </trkpt>
      <trkpt lat="48.97867" lon="1.30008">
        <ele>124</ele>
        <time>2015-09-27T08:57:10Z</time>
      </trkpt>
      <trkpt lat="48.9787" lon="1.2999">
        <ele>124</ele>
        <time>2015-09-27T08:57:12Z</time>
      </trkpt>
      <trkpt lat="48.97874" lon="1.29972">
        <ele>124</ele>
        <time>2015-09-27T08:57:14Z</time>
      </trkpt>
      <trkpt lat="48.97878" lon="1.29955">
        <ele>124</ele>
        <time>2015-09-27T08:57:16Z</time>
      </trkpt>
      <trkpt lat="48.97881" lon="1.29937">
        <ele>123.9</ele>
        <time>2015-09-27T08:57:18Z</time>
      </trkpt>
      <trkpt lat="48.97884" lon="1.2992">
        <ele>123.9</ele>
        <time>2015-09-27T08:57:20Z</time>
      </trkpt>
      <trkpt lat="48.97888" lon="1.29903">
        <ele>123.9</ele>
        <time>2015-09-27T08:57:22Z</time>
      </trkpt>
      <trkpt lat="48.9789" lon="1.29886">
        <ele>123.9</ele>
        <time>2015-09-27T08:57:24Z</time>
      </trkpt>
      <trkpt lat="48.97894" lon="1.29869">
        <ele>123.9</ele>
        <time>2015-09-27T08:57:26Z</time>
      </trkpt>
      <trkpt lat="48.97897" lon="1.29853">
        <ele>123.9</ele>
        <time>2015-09-27T08:57:28Z</time>
      </trkpt>
      <trkpt lat="48.979" lon="1.29837">
        <ele>123.9</ele>
        <time>2015-09-27T08:57:30Z</time>
      </trkpt>
      <trkpt lat="48.97903" lon="1.29821">
        <ele>123.9</ele>
        <time>2015-09-27T08:57:32Z</time>
      </trkpt>
      <trkpt lat="48.97906" lon="1.29804">
        <ele>123.9</ele>
        <time>2015-09-27T08:57:34Z</time>
      </trkpt>
      <trkpt lat="48.97911" lon="1.29789">
        <ele>124</ele>
        <time>2015-09-27T08:57:36Z</time>
      </trkpt>
      <trkpt lat="48.97917" lon="1.29776">
        <ele>124.1</ele>
        <time>2015-09-27T08:57:38Z</time>
      </trkpt>
      <trkpt lat="48.97926" lon="1.29766">
        <ele>124.2</ele>
        <time>2015-09-27T08:57:40Z</time>
      </trkpt>
      <trkpt lat="48.97934" lon="1.29757">
        <ele>124.3</ele>
        <time>2015-09-27T08:57:42Z</time>
      </trkpt>
      <trkpt lat="48.97943" lon="1.29747">
        <ele>124.4</ele>
        <time>2015-09-27T08:57:44Z</time>
      </trkpt>
      <trkpt lat="48.97951" lon="1.29738">
        <ele>124.4</ele>
        <time>2015-09-27T08:57:46Z</time>
      </trkpt>
      <trkpt lat="48.9796" lon="1.29729">
        <ele>124.5</ele>
        <time>2015-09-27T08:57:48Z</time>
      </trkpt>
      <trkpt lat="48.97969" lon="1.2972">
        <ele>124.6</ele>
        <time>2015-09-27T08:57:50Z</time>
      </trkpt>
      <trkpt lat="48.97977" lon="1.2971">
        <ele>124.7</ele>
        <time>2015-09-27T08:57:52Z</time>
      </trkpt>
      <trkpt lat="48.97986" lon="1.297">
        <ele>124.9</ele>
        <time>2015-09-27T08:57:54Z</time>
      </trkpt>
      <trkpt lat="48.97994" lon="1.2969">
        <ele>125</ele>
        <time>2015-09-27T08:57:56Z</time>
      </trkpt>
      <trkpt lat="48.98001" lon="1.2968">
        <ele>125.2</ele>
        <time>2015-09-27T08:57:58Z</time>
      </trkpt>
      <trkpt lat="48.98008" lon="1.29669">
        <ele>125.3</ele>
        <time>2015-09-27T08:58:00Z</time>
      </trkpt>
      <trkpt lat="48.98015" lon="1.29657">
        <ele>125.4</ele>
        <time>2015-09-27T08:58:02Z</time>
      </trkpt>
      <trkpt lat="48.98022" lon="1.29644">
        <ele>125.5</ele>
        <time>2015-09-27T08:58:04Z</time>
      </trkpt>
      <trkpt lat="48.98028" lon="1.2963">
        <ele>125.6</ele>
        <time>2015-09-27T08:58:06Z</time>
      </trkpt>
      <trkpt lat="48.98033" lon="1.29616">
        <ele>125.6</ele>
        <time>2015-09-27T08:58:08Z</time>
      </trkpt>
      <trkpt lat="48.98039" lon="1.29601">
        <ele>125.7</ele>
        <time>2015-09-27T08:58:10Z</time>
      </trkpt>
      <trkpt lat="48.98044" lon="1.29586">
        <ele>125.7</ele>
        <time>2015-09-27T08:58:12Z</time>
      </trkpt>
      <trkpt lat="48.98049" lon="1.29571">
        <ele>125.7</ele>
        <time>2015-09-27T08:58:14Z</time>
      </trkpt>
      <trkpt lat="48.98053" lon="1.29556">
        <ele>125.7</ele>
        <time>2015-09-27T08:58:16Z</time>
      </trkpt>
      <trkpt lat="48.98058" lon="1.2954">
        <ele>125.6</ele>
        <time>2015-09-27T08:58:18Z</time>
      </trkpt>
      <trkpt lat="48.98062" lon="1.29524">
        <ele>125.6</ele>
        <time>2015-09-27T08:58:20Z</time>
      </trkpt>
      <trkpt lat="48.98066" lon="1.29508">
        <ele>125.6</ele>
        <time>2015-09-27T08:58:22Z</time>
      </trkpt>
      <trkpt lat="48.9807" lon="1.29493">
        <ele>125.7</ele>
        <time>2015-09-27T08:58:24Z</time>
      </trkpt>
      <trkpt lat="48.98075" lon="1.29478">
        <ele>125.7</ele>
        <time>2015-09-27T08:58:26Z</time>
      </trkpt>
      <trkpt lat="48.98079" lon="1.29463">
        <ele>125.8</ele>
        <time>2015-09-27T08:58:28Z</time>
      </trkpt>
      <trkpt lat="48.98083" lon="1.29448">
        <ele>125.8</ele>
        <time>2015-09-27T08:58:30Z</time>
      </trkpt>
      <trkpt lat="48.98088" lon="1.29433">
        <ele>125.9</ele>
        <time>2015-09-27T08:58:32Z</time>
      </trkpt>
      <trkpt lat="48.98092" lon="1.29418">
        <ele>125.9</ele>
        <time>2015-09-27T08:58:34Z</time>
      </trkpt>
      <trkpt lat="48.98097" lon="1.29403">
        <ele>125.9</ele>
        <time>2015-09-27T08:58:36Z</time>
      </trkpt>
      <trkpt lat="48.98102" lon="1.29388">
        <ele>126</ele>
        <time>2015-09-27T08:58:38Z</time>
      </trkpt>
      <trkpt lat="48.98107" lon="1.29374">
        <ele>126.1</ele>
        <time>2015-09-27T08:58:40Z</time>
      </trkpt>
      <trkpt lat="48.98112" lon="1.29359">
        <ele>126.1</ele>
        <time>2015-09-27T08:58:42Z</time>
      </trkpt>
      <trkpt lat="48.98118" lon="1.29344">
        <ele>126.2</ele>
        <time>2015-09-27T08:58:44Z</time>
      </trkpt>
      <trkpt lat="48.98122" lon="1.29329">
        <ele>126.2</ele>
        <time>2015-09-27T08:58:46Z</time>
      </trkpt>
      <trkpt lat="48.98127" lon="1.29312">
        <ele>126.2</ele>
        <time>2015-09-27T08:58:48Z</time>
      </trkpt>
      <trkpt lat="48.98132" lon="1.29296">
        <ele>126.3</ele>
        <time>2015-09-27T08:58:50Z</time>
      </trkpt>
      <trkpt lat="48.98137" lon="1.2928">
        <ele>126.3</ele>
        <time>2015-09-27T08:58:52Z</time>
      </trkpt>
      <trkpt lat="48.98142" lon="1.29264">
        <ele>126.3</ele>
        <time>2015-09-27T08:58:54Z</time>
      </trkpt>
      <trkpt lat="48.98147" lon="1.29247">
        <ele>126.4</ele>
        <time>2015-09-27T08:58:56Z</time>
      </trkpt>
      <trkpt lat="48.98152" lon="1.29231">
        <ele>126.4</ele>
        <time>2015-09-27T08:58:58Z</time>
      </trkpt>
      <trkpt lat="48.98157" lon="1.29215">
        <ele>126.4</ele>
        <time>2015-09-27T08:59:00Z</time>
      </trkpt>
      <trkpt lat="48.98162" lon="1.29199">
        <ele>126.4</ele>
        <time>2015-09-27T08:59:02Z</time>
      </trkpt>
      <trkpt lat="48.98167" lon="1.29183">
        <ele>126.4</ele>
        <time>2015-09-27T08:59:04Z</time>
      </trkpt>
      <trkpt lat="48.98172" lon="1.29168">
        <ele>126.4</ele>
        <time>2015-09-27T08:59:06Z</time>
      </trkpt>
      <trkpt lat="48.98177" lon="1.29152">
        <ele>126.4</ele>
        <time>2015-09-27T08:59:08Z</time>
      </trkpt>
      <trkpt lat="48.98182" lon="1.29137">
        <ele>126.5</ele>
        <time>2015-09-27T08:59:10Z</time>
      </trkpt>
      <trkpt lat="48.98187" lon="1.29122">
        <ele>126.5</ele>
        <time>2015-09-27T08:59:12Z</time>
      </trkpt>
      <trkpt lat="48.98192" lon="1.29106">
        <ele>126.5</ele>
        <time>2015-09-27T08:59:14Z</time>
      </trkpt>
      <trkpt lat="48.98196" lon="1.29092">
        <ele>126.6</ele>
        <time>2015-09-27T08:59:16Z</time>
      </trkpt>
      <trkpt lat="48.98201" lon="1.29077">
        <ele>126.7</ele>
        <time>2015-09-27T08:59:18Z</time>
      </trkpt>
      <trkpt lat="48.98205" lon="1.29061">
        <ele>126.7</ele>
        <time>2015-09-27T08:59:20Z</time>
      </trkpt>
      <trkpt lat="48.98209" lon="1.29045">
        <ele>126.8</ele>
        <time>2015-09-27T08:59:22Z</time>
      </trkpt>
      <trkpt lat="48.98212" lon="1.29029">
        <ele>126.9</ele>
        <time>2015-09-27T08:59:24Z</time>
      </trkpt>
      <trkpt lat="48.98216" lon="1.29011">
        <ele>126.9</ele>
        <time>2015-09-27T08:59:26Z</time>
      </trkpt>
      <trkpt lat="48.98219" lon="1.28992">
        <ele>127</ele>
        <time>2015-09-27T08:59:28Z</time>
      </trkpt>
      <trkpt lat="48.9822" lon="1.28973">
        <ele>126.9</ele>
        <time>2015-09-27T08:59:30Z</time>
      </trkpt>
      <trkpt lat="48.98222" lon="1.28953">
        <ele>126.9</ele>
        <time>2015-09-27T08:59:32Z</time>
      </trkpt>
      <trkpt lat="48.98221" lon="1.28933">
        <ele>126.8</ele>
        <time>2015-09-27T08:59:34Z</time>
      </trkpt>
      <trkpt lat="48.98221" lon="1.28912">
        <ele>126.7</ele>
        <time>2015-09-27T08:59:36Z</time>
      </trkpt>
      <trkpt lat="48.9822" lon="1.28892">
        <ele>126.5</ele>
        <time>2015-09-27T08:59:38Z</time>
      </trkpt>
      <trkpt lat="48.98221" lon="1.28872">
        <ele>126.4</ele>
        <time>2015-09-27T08:59:40Z</time>
      </trkpt>
      <trkpt lat="48.98226" lon="1.28853">
        <ele>126.3</ele>
        <time>2015-09-27T08:59:42Z</time>
      </trkpt>
      <trkpt lat="48.98234" lon="1.28837">
        <ele>126.2</ele>
        <time>2015-09-27T08:59:44Z</time>
      </trkpt>
      <trkpt lat="48.98243" lon="1.2882">
        <ele>126.1</ele>
        <time>2015-09-27T08:59:46Z</time>
      </trkpt>
      <trkpt lat="48.98252" lon="1.28803">
        <ele>126.1</ele>
        <time>2015-09-27T08:59:48Z</time>
      </trkpt>
      <trkpt lat="48.98261" lon="1.28787">
        <ele>126</ele>
        <time>2015-09-27T08:59:50Z</time>
      </trkpt>
      <trkpt lat="48.98269" lon="1.2877">
        <ele>125.9</ele>
        <time>2015-09-27T08:59:52Z</time>
      </trkpt>
      <trkpt lat="48.98277" lon="1.28753">
        <ele>125.7</ele>
        <time>2015-09-27T08:59:54Z</time>
      </trkpt>
      <trkpt lat="48.98284" lon="1.28735">
        <ele>125.6</ele>
        <time>2015-09-27T08:59:56Z</time>
      </trkpt>
      <trkpt lat="48.9829" lon="1.28717">
        <ele>125.5</ele>
        <time>2015-09-27T08:59:58Z</time>
      </trkpt>
      <trkpt lat="48.98294" lon="1.28703">
        <ele>125.5</ele>
        <time>2015-09-27T09:00:00Z</time>
      </trkpt>
      <trkpt lat="48.98304" lon="1.28712">
        <ele>125.1</ele>
        <time>2015-09-27T09:00:07Z</time>
      </trkpt>
      <trkpt lat="48.98316" lon="1.28721">
        <ele>124.8</ele>
        <time>2015-09-27T09:00:10Z</time>
      </trkpt>
      <trkpt lat="48.98325" lon="1.28727">
        <ele>124.7</ele>
        <time>2015-09-27T09:00:12Z</time>
      </trkpt>
      <trkpt lat="48.98334" lon="1.28734">
        <ele>124.6</ele>
        <time>2015-09-27T09:00:14Z</time>
      </trkpt>
      <trkpt lat="48.98344" lon="1.28741">
        <ele>124.5</ele>
        <time>2015-09-27T09:00:16Z</time>
      </trkpt>
      <trkpt lat="48.98353" lon="1.28748">
        <ele>124.4</ele>
        <time>2015-09-27T09:00:18Z</time>
      </trkpt>
      <trkpt lat="48.98363" lon="1.28756">
        <ele>124.3</ele>
        <time>2015-09-27T09:00:20Z</time>
      </trkpt>
      <trkpt lat="48.98373" lon="1.28763">
        <ele>124.3</ele>
        <time>2015-09-27T09:00:22Z</time>
      </trkpt>
      <trkpt lat="48.98383" lon="1.28771">
        <ele>124.2</ele>
        <time>2015-09-27T09:00:24Z</time>
      </trkpt>
      <trkpt lat="48.98392" lon="1.28778">
        <ele>124.2</ele>
        <time>2015-09-27T09:00:26Z</time>
      </trkpt>
      <trkpt lat="48.98402" lon="1.28785">
        <ele>124.2</ele>
        <time>2015-09-27T09:00:28Z</time>
      </trkpt>
      <trkpt lat="48.98411" lon="1.28792">
        <ele>124.1</ele>
        <time>2015-09-27T09:00:30Z</time>
      </trkpt>
      <trkpt lat="48.98421" lon="1.288">
        <ele>124.1</ele>
        <time>2015-09-27T09:00:32Z</time>
      </trkpt>
      <trkpt lat="48.98431" lon="1.28806">
        <ele>124.1</ele>
        <time>2015-09-27T09:00:34Z</time>
      </trkpt>
      <trkpt lat="48.9844" lon="1.28813">
        <ele>124</ele>
        <time>2015-09-27T09:00:36Z</time>
      </trkpt>
      <trkpt lat="48.98449" lon="1.2882">
        <ele>124</ele>
        <time>2015-09-27T09:00:38Z</time>
      </trkpt>
      <trkpt lat="48.98458" lon="1.28827">
        <ele>123.9</ele>
        <time>2015-09-27T09:00:40Z</time>
      </trkpt>
      <trkpt lat="48.98467" lon="1.28834">
        <ele>123.8</ele>
        <time>2015-09-27T09:00:42Z</time>
      </trkpt>
      <trkpt lat="48.98477" lon="1.28841">
        <ele>123.8</ele>
        <time>2015-09-27T09:00:44Z</time>
      </trkpt>
      <trkpt lat="48.98487" lon="1.28849">
        <ele>123.7</ele>
        <time>2015-09-27T09:00:46Z</time>
      </trkpt>
      <trkpt lat="48.98496" lon="1.28856">
        <ele>123.6</ele>
        <time>2015-09-27T09:00:48Z</time>
      </trkpt>
      <trkpt lat="48.98505" lon="1.28863">
        <ele>123.6</ele>
        <time>2015-09-27T09:00:50Z</time>
      </trkpt>
      <trkpt lat="48.98514" lon="1.2887">
        <ele>123.5</ele>
        <time>2015-09-27T09:00:52Z</time>
      </trkpt>
      <trkpt lat="48.98523" lon="1.28877">
        <ele>123.4</ele>
        <time>2015-09-27T09:00:54Z</time>
      </trkpt>
      <trkpt lat="48.98533" lon="1.28884">
        <ele>123.3</ele>
        <time>2015-09-27T09:00:56Z</time>
      </trkpt>
      <trkpt lat="48.98542" lon="1.28891">
        <ele>123.1</ele>
        <time>2015-09-27T09:00:58Z</time>
      </trkpt>
      <trkpt lat="48.98552" lon="1.28898">
        <ele>123</ele>
        <time>2015-09-27T09:01:00Z</time>
      </trkpt>
      <trkpt lat="48.98561" lon="1.28905">
        <ele>122.9</ele>
        <time>2015-09-27T09:01:02Z</time>
      </trkpt>
      <trkpt lat="48.9857" lon="1.28912">
        <ele>122.7</ele>
        <time>2015-09-27T09:01:04Z</time>
      </trkpt>
      <trkpt lat="48.9858" lon="1.2892">
        <ele>122.6</ele>
        <time>2015-09-27T09:01:06Z</time>
      </trkpt>
      <trkpt lat="48.98589" lon="1.28927">
        <ele>122.4</ele>
        <time>2015-09-27T09:01:08Z</time>
      </trkpt>
      <trkpt lat="48.98599" lon="1.28934">
        <ele>122.2</ele>
        <time>2015-09-27T09:01:10Z</time>
      </trkpt>
      <trkpt lat="48.98608" lon="1.28941">
        <ele>122.1</ele>
        <time>2015-09-27T09:01:12Z</time>
      </trkpt>
      <trkpt lat="48.98617" lon="1.28948">
        <ele>121.9</ele>
        <time>2015-09-27T09:01:14Z</time>
      </trkpt>
      <trkpt lat="48.98627" lon="1.28955">
        <ele>121.8</ele>
        <time>2015-09-27T09:01:16Z</time>
      </trkpt>
      <trkpt lat="48.98636" lon="1.28962">
        <ele>121.6</ele>
        <time>2015-09-27T09:01:18Z</time>
      </trkpt>
      <trkpt lat="48.98646" lon="1.28969">
        <ele>121.5</ele>
        <time>2015-09-27T09:01:20Z</time>
      </trkpt>
      <trkpt lat="48.98655" lon="1.28977">
        <ele>121.4</ele>
        <time>2015-09-27T09:01:22Z</time>
      </trkpt>
      <trkpt lat="48.98665" lon="1.28983">
        <ele>121.2</ele>
        <time>2015-09-27T09:01:24Z</time>
      </trkpt>
      <trkpt lat="48.98674" lon="1.2899">
        <ele>121</ele>
        <time>2015-09-27T09:01:26Z</time>
      </trkpt>
      <trkpt lat="48.98684" lon="1.28997">
        <ele>120.9</ele>
        <time>2015-09-27T09:01:28Z</time>
      </trkpt>
      <trkpt lat="48.98693" lon="1.29004">
        <ele>120.8</ele>
        <time>2015-09-27T09:01:30Z</time>
      </trkpt>
      <trkpt lat="48.98703" lon="1.29011">
        <ele>120.6</ele>
        <time>2015-09-27T09:01:32Z</time>
      </trkpt>
      <trkpt lat="48.98712" lon="1.29018">
        <ele>120.5</ele>
        <time>2015-09-27T09:01:34Z</time>
      </trkpt>
      <trkpt lat="48.98722" lon="1.29025">
        <ele>120.4</ele>
        <time>2015-09-27T09:01:36Z</time>
      </trkpt>
      <trkpt lat="48.98731" lon="1.29032">
        <ele>120.2</ele>
        <time>2015-09-27T09:01:38Z</time>
      </trkpt>
      <trkpt lat="48.98741" lon="1.29039">
        <ele>120.1</ele>
        <time>2015-09-27T09:01:40Z</time>
      </trkpt>
      <trkpt lat="48.9875" lon="1.29046">
        <ele>120</ele>
        <time>2015-09-27T09:01:42Z</time>
      </trkpt>
      <trkpt lat="48.9876" lon="1.29053">
        <ele>119.7</ele>
        <time>2015-09-27T09:01:44Z</time>
      </trkpt>
      <trkpt lat="48.9877" lon="1.29059">
        <ele>119.5</ele>
        <time>2015-09-27T09:01:46Z</time>
      </trkpt>
      <trkpt lat="48.98779" lon="1.29066">
        <ele>119.3</ele>
        <time>2015-09-27T09:01:48Z</time>
      </trkpt>
      <trkpt lat="48.98789" lon="1.29074">
        <ele>119.1</ele>
        <time>2015-09-27T09:01:50Z</time>
      </trkpt>
      <trkpt lat="48.98799" lon="1.29081">
        <ele>118.9</ele>
        <time>2015-09-27T09:01:52Z</time>
      </trkpt>
      <trkpt lat="48.98809" lon="1.29088">
        <ele>118.8</ele>
        <time>2015-09-27T09:01:54Z</time>
      </trkpt>
      <trkpt lat="48.98819" lon="1.29095">
        <ele>118.6</ele>
        <time>2015-09-27T09:01:56Z</time>
      </trkpt>
      <trkpt lat="48.98827" lon="1.29105">
        <ele>118.5</ele>
        <time>2015-09-27T09:01:58Z</time>
      </trkpt>
      <trkpt lat="48.98833" lon="1.29118">
        <ele>118.4</ele>
        <time>2015-09-27T09:02:00Z</time>
      </trkpt>
      <trkpt lat="48.98836" lon="1.29133">
        <ele>118.3</ele>
        <time>2015-09-27T09:02:02Z</time>
      </trkpt>
      <trkpt lat="48.98837" lon="1.29149">
        <ele>118.2</ele>
        <time>2015-09-27T09:02:04Z</time>
      </trkpt>
      <trkpt lat="48.98839" lon="1.29164">
        <ele>118.1</ele>
        <time>2015-09-27T09:02:06Z</time>
      </trkpt>
      <trkpt lat="48.98841" lon="1.2918">
        <ele>118</ele>
        <time>2015-09-27T09:02:08Z</time>
      </trkpt>
      <trkpt lat="48.98844" lon="1.29196">
        <ele>117.9</ele>
        <time>2015-09-27T09:02:10Z</time>
      </trkpt>
      <trkpt lat="48.98848" lon="1.29212">
        <ele>117.8</ele>
        <time>2015-09-27T09:02:12Z</time>
      </trkpt>
      <trkpt lat="48.98852" lon="1.29227">
        <ele>117.7</ele>
        <time>2015-09-27T09:02:14Z</time>
      </trkpt>
      <trkpt lat="48.98858" lon="1.29241">
        <ele>117.6</ele>
        <time>2015-09-27T09:02:16Z</time>
      </trkpt>
      <trkpt lat="48.98864" lon="1.29253">
        <ele>117.5</ele>
        <time>2015-09-27T09:02:18Z</time>
      </trkpt>
      <trkpt lat="48.98871" lon="1.29265">
        <ele>117.4</ele>
        <time>2015-09-27T09:02:20Z</time>
      </trkpt>
      <trkpt lat="48.98879" lon="1.29276">
        <ele>117.4</ele>
        <time>2015-09-27T09:02:22Z</time>
      </trkpt>
      <trkpt lat="48.98886" lon="1.29289">
        <ele>117.3</ele>
        <time>2015-09-27T09:02:24Z</time>
      </trkpt>
      <trkpt lat="48.98893" lon="1.29302">
        <ele>117.2</ele>
        <time>2015-09-27T09:02:26Z</time>
      </trkpt>
      <trkpt lat="48.98901" lon="1.29314">
        <ele>117.2</ele>
        <time>2015-09-27T09:02:28Z</time>
      </trkpt>
      <trkpt lat="48.98908" lon="1.29326">
        <ele>117.1</ele>
        <time>2015-09-27T09:02:30Z</time>
      </trkpt>
      <trkpt lat="48.98917" lon="1.29339">
        <ele>117</ele>
        <time>2015-09-27T09:02:32Z</time>
      </trkpt>
      <trkpt lat="48.98925" lon="1.29353">
        <ele>116.9</ele>
        <time>2015-09-27T09:02:34Z</time>
      </trkpt>
      <trkpt lat="48.98933" lon="1.29367">
        <ele>116.9</ele>
        <time>2015-09-27T09:02:36Z</time>
      </trkpt>
      <trkpt lat="48.98941" lon="1.29382">
        <ele>116.8</ele>
        <time>2015-09-27T09:02:38Z</time>
      </trkpt>
      <trkpt lat="48.98949" lon="1.29398">
        <ele>116.6</ele>
        <time>2015-09-27T09:02:40Z</time>
      </trkpt>
      <trkpt lat="48.98956" lon="1.29413">
        <ele>116.5</ele>
        <time>2015-09-27T09:02:42Z</time>
      </trkpt>
      <trkpt lat="48.98963" lon="1.29428">
        <ele>116.4</ele>
        <time>2015-09-27T09:02:44Z</time>
      </trkpt>
      <trkpt lat="48.98971" lon="1.29444">
        <ele>116.3</ele>
        <time>2015-09-27T09:02:46Z</time>
      </trkpt>
      <trkpt lat="48.98979" lon="1.2946">
        <ele>116.2</ele>
        <time>2015-09-27T09:02:48Z</time>
      </trkpt>
      <trkpt lat="48.98986" lon="1.29477">
        <ele>116.1</ele>
        <time>2015-09-27T09:02:50Z</time>
      </trkpt>
      <trkpt lat="48.98994" lon="1.29494">
        <ele>116.1</ele>
        <time>2015-09-27T09:02:52Z</time>
      </trkpt>
      <trkpt lat="48.99001" lon="1.29511">
        <ele>115.9</ele>
        <time>2015-09-27T09:02:54Z</time>
      </trkpt>
      <trkpt lat="48.99007" lon="1.29528">
        <ele>115.8</ele>
        <time>2015-09-27T09:02:56Z</time>
      </trkpt>
      <trkpt lat="48.99014" lon="1.29545">
        <ele>115.6</ele>
        <time>2015-09-27T09:02:58Z</time>
      </trkpt>
      <trkpt lat="48.99021" lon="1.29562">
        <ele>115.4</ele>
        <time>2015-09-27T09:03:00Z</time>
      </trkpt>
      <trkpt lat="48.99027" lon="1.29579">
        <ele>115.2</ele>
        <time>2015-09-27T09:03:02Z</time>
      </trkpt>
      <trkpt lat="48.99034" lon="1.29596">
        <ele>115</ele>
        <time>2015-09-27T09:03:04Z</time>
      </trkpt>
      <trkpt lat="48.9904" lon="1.29613">
        <ele>114.7</ele>
        <time>2015-09-27T09:03:06Z</time>
      </trkpt>
      <trkpt lat="48.99047" lon="1.29629">
        <ele>114.5</ele>
        <time>2015-09-27T09:03:08Z</time>
      </trkpt>
      <trkpt lat="48.99054" lon="1.29646">
        <ele>114.3</ele>
        <time>2015-09-27T09:03:10Z</time>
      </trkpt>
      <trkpt lat="48.99061" lon="1.29661">
        <ele>114.2</ele>
        <time>2015-09-27T09:03:12Z</time>
      </trkpt>
      <trkpt lat="48.99068" lon="1.29676">
        <ele>114</ele>
        <time>2015-09-27T09:03:14Z</time>
      </trkpt>
      <trkpt lat="48.99075" lon="1.2969">
        <ele>113.9</ele>
        <time>2015-09-27T09:03:16Z</time>
      </trkpt>
      <trkpt lat="48.99081" lon="1.29704">
        <ele>113.7</ele>
        <time>2015-09-27T09:03:18Z</time>
      </trkpt>
      <trkpt lat="48.99084" lon="1.2972">
        <ele>113.6</ele>
        <time>2015-09-27T09:03:20Z</time>
      </trkpt>
      <trkpt lat="48.99088" lon="1.29733">
        <ele>113.6</ele>
        <time>2015-09-27T09:03:22Z</time>
      </trkpt>
      <trkpt lat="48.99093" lon="1.29746">
        <ele>113.6</ele>
        <time>2015-09-27T09:03:24Z</time>
      </trkpt>
      <trkpt lat="48.99097" lon="1.2976">
        <ele>113.6</ele>
        <time>2015-09-27T09:03:26Z</time>
      </trkpt>
      <trkpt lat="48.99099" lon="1.29775">
        <ele>113.6</ele>
        <time>2015-09-27T09:03:28Z</time>
      </trkpt>
      <trkpt lat="48.99101" lon="1.29791">
        <ele>113.7</ele>
        <time>2015-09-27T09:03:30Z</time>
      </trkpt>
      <trkpt lat="48.99103" lon="1.29807">
        <ele>113.8</ele>
        <time>2015-09-27T09:03:32Z</time>
      </trkpt>
      <trkpt lat="48.99105" lon="1.29824">
        <ele>114</ele>
        <time>2015-09-27T09:03:34Z</time>
      </trkpt>
      <trkpt lat="48.99107" lon="1.2984">
        <ele>114.1</ele>
        <time>2015-09-27T09:03:36Z</time>
      </trkpt>
      <trkpt lat="48.99108" lon="1.29857">
        <ele>114.2</ele>
        <time>2015-09-27T09:03:38Z</time>
      </trkpt>
      <trkpt lat="48.99109" lon="1.29873">
        <ele>114.4</ele>
        <time>2015-09-27T09:03:40Z</time>
      </trkpt>
      <trkpt lat="48.9911" lon="1.2989">
        <ele>114.5</ele>
        <time>2015-09-27T09:03:42Z</time>
      </trkpt>
      <trkpt lat="48.99111" lon="1.29908">
        <ele>114.6</ele>
        <time>2015-09-27T09:03:44Z</time>
      </trkpt>
      <trkpt lat="48.99112" lon="1.29927">
        <ele>114.7</ele>
        <time>2015-09-27T09:03:46Z</time>
      </trkpt>
      <trkpt lat="48.99112" lon="1.29946">
        <ele>114.8</ele>
        <time>2015-09-27T09:03:48Z</time>
      </trkpt>
      <trkpt lat="48.99112" lon="1.29965">
        <ele>114.9</ele>
        <time>2015-09-27T09:03:50Z</time>
      </trkpt>
      <trkpt lat="48.99113" lon="1.29985">
        <ele>114.9</ele>
        <time>2015-09-27T09:03:52Z</time>
      </trkpt>
      <trkpt lat="48.99112" lon="1.30004">
        <ele>115</ele>
        <time>2015-09-27T09:03:54Z</time>
      </trkpt>
      <trkpt lat="48.99111" lon="1.30023">
        <ele>115</ele>
        <time>2015-09-27T09:03:56Z</time>
      </trkpt>
      <trkpt lat="48.9911" lon="1.30043">
        <ele>115.1</ele>
        <time>2015-09-27T09:03:58Z</time>
      </trkpt>
      <trkpt lat="48.99108" lon="1.30062">
        <ele>115.1</ele>
        <time>2015-09-27T09:04:00Z</time>
      </trkpt>
      <trkpt lat="48.99106" lon="1.30082">
        <ele>115.1</ele>
        <time>2015-09-27T09:04:02Z</time>
      </trkpt>
      <trkpt lat="48.99104" lon="1.30101">
        <ele>115.1</ele>
        <time>2015-09-27T09:04:04Z</time>
      </trkpt>
      <trkpt lat="48.99102" lon="1.30121">
        <ele>115.1</ele>
        <time>2015-09-27T09:04:06Z</time>
      </trkpt>
      <trkpt lat="48.99101" lon="1.3014">
        <ele>114.9</ele>
        <time>2015-09-27T09:04:08Z</time>
      </trkpt>
      <trkpt lat="48.99099" lon="1.3016">
        <ele>114.8</ele>
        <time>2015-09-27T09:04:10Z</time>
      </trkpt>
      <trkpt lat="48.99097" lon="1.30179">
        <ele>114.7</ele>
        <time>2015-09-27T09:04:12Z</time>
      </trkpt>
      <trkpt lat="48.99095" lon="1.30199">
        <ele>114.6</ele>
        <time>2015-09-27T09:04:14Z</time>
      </trkpt>
      <trkpt lat="48.99094" lon="1.30219">
        <ele>114.4</ele>
        <time>2015-09-27T09:04:16Z</time>
      </trkpt>
      <trkpt lat="48.99092" lon="1.30239">
        <ele>114.3</ele>
        <time>2015-09-27T09:04:18Z</time>
      </trkpt>
      <trkpt lat="48.99091" lon="1.3026">
        <ele>114</ele>
        <time>2015-09-27T09:04:20Z</time>
      </trkpt>
      <trkpt lat="48.9909" lon="1.3028">
        <ele>113.7</ele>
        <time>2015-09-27T09:04:22Z</time>
      </trkpt>
      <trkpt lat="48.99089" lon="1.303">
        <ele>113.5</ele>
        <time>2015-09-27T09:04:24Z</time>
      </trkpt>
      <trkpt lat="48.99087" lon="1.30319">
        <ele>113.3</ele>
        <time>2015-09-27T09:04:26Z</time>
      </trkpt>
      <trkpt lat="48.99086" lon="1.30338">
        <ele>112.9</ele>
        <time>2015-09-27T09:04:28Z</time>
      </trkpt>
      <trkpt lat="48.99085" lon="1.30357">
        <ele>112.5</ele>
        <time>2015-09-27T09:04:30Z</time>
      </trkpt>
      <trkpt lat="48.99085" lon="1.30376">
        <ele>112.2</ele>
        <time>2015-09-27T09:04:32Z</time>
      </trkpt>
      <trkpt lat="48.99084" lon="1.30395">
        <ele>111.8</ele>
        <time>2015-09-27T09:04:34Z</time>
      </trkpt>
      <trkpt lat="48.99084" lon="1.30412">
        <ele>111.4</ele>
        <time>2015-09-27T09:04:36Z</time>
      </trkpt>
      <trkpt lat="48.99084" lon="1.30431">
        <ele>110.7</ele>
        <time>2015-09-27T09:04:39Z</time>
      </trkpt>
      <trkpt lat="48.99086" lon="1.30446">
        <ele>110.2</ele>
        <time>2015-09-27T09:04:41Z</time>
      </trkpt>
      <trkpt lat="48.99089" lon="1.30463">
        <ele>109.8</ele>
        <time>2015-09-27T09:04:43Z</time>
      </trkpt>
      <trkpt lat="48.99092" lon="1.3048">
        <ele>109.4</ele>
        <time>2015-09-27T09:04:45Z</time>
      </trkpt>
      <trkpt lat="48.99096" lon="1.30495">
        <ele>108.9</ele>
        <time>2015-09-27T09:04:47Z</time>
      </trkpt>
      <trkpt lat="48.99098" lon="1.30508">
        <ele>104.6</ele>
        <time>2015-09-27T09:05:33Z</time>
      </trkpt>
      <trkpt lat="48.99102" lon="1.30521">
        <ele>104.5</ele>
        <time>2015-09-27T09:05:40Z</time>
      </trkpt>
      <trkpt lat="48.99108" lon="1.30536">
        <ele>104.5</ele>
        <time>2015-09-27T09:05:43Z</time>
      </trkpt>
      <trkpt lat="48.99113" lon="1.30548">
        <ele>104.4</ele>
        <time>2015-09-27T09:05:45Z</time>
      </trkpt>
      <trkpt lat="48.99119" lon="1.3056">
        <ele>104.3</ele>
        <time>2015-09-27T09:05:47Z</time>
      </trkpt>
      <trkpt lat="48.99126" lon="1.30574">
        <ele>104</ele>
        <time>2015-09-27T09:05:49Z</time>
      </trkpt>
      <trkpt lat="48.99134" lon="1.30589">
        <ele>103.7</ele>
        <time>2015-09-27T09:05:51Z</time>
      </trkpt>
      <trkpt lat="48.99142" lon="1.30606">
        <ele>103.4</ele>
        <time>2015-09-27T09:05:53Z</time>
      </trkpt>
      <trkpt lat="48.99151" lon="1.30624">
        <ele>103</ele>
        <time>2015-09-27T09:05:55Z</time>
      </trkpt>
      <trkpt lat="48.99159" lon="1.30643">
        <ele>102.6</ele>
        <time>2015-09-27T09:05:57Z</time>
      </trkpt>
      <trkpt lat="48.99167" lon="1.30662">
        <ele>102</ele>
        <time>2015-09-27T09:05:59Z</time>
      </trkpt>
      <trkpt lat="48.99176" lon="1.30681">
        <ele>101.5</ele>
        <time>2015-09-27T09:06:01Z</time>
      </trkpt>
      <trkpt lat="48.99185" lon="1.30701">
        <ele>101</ele>
        <time>2015-09-27T09:06:03Z</time>
      </trkpt>
      <trkpt lat="48.99194" lon="1.30721">
        <ele>100.2</ele>
        <time>2015-09-27T09:06:05Z</time>
      </trkpt>
      <trkpt lat="48.99202" lon="1.30743">
        <ele>99.4</ele>
        <time>2015-09-27T09:06:07Z</time>
      </trkpt>
      <trkpt lat="48.9921" lon="1.30764">
        <ele>98.6</ele>
        <time>2015-09-27T09:06:09Z</time>
      </trkpt>
      <trkpt lat="48.99217" lon="1.30784">
        <ele>97.7</ele>
        <time>2015-09-27T09:06:11Z</time>
      </trkpt>
      <trkpt lat="48.99226" lon="1.30798">
        <ele>96.9</ele>
        <time>2015-09-27T09:06:13Z</time>
      </trkpt>
      <trkpt lat="48.99237" lon="1.3081">
        <ele>96.1</ele>
        <time>2015-09-27T09:06:15Z</time>
      </trkpt>
      <trkpt lat="48.99247" lon="1.30823">
        <ele>95.1</ele>
        <time>2015-09-27T09:06:17Z</time>
      </trkpt>
      <trkpt lat="48.99257" lon="1.30838">
        <ele>94</ele>
        <time>2015-09-27T09:06:19Z</time>
      </trkpt>
      <trkpt lat="48.99267" lon="1.30856">
        <ele>92.9</ele>
        <time>2015-09-27T09:06:21Z</time>
      </trkpt>
      <trkpt lat="48.99276" lon="1.30874">
        <ele>91.5</ele>
        <time>2015-09-27T09:06:23Z</time>
      </trkpt>
      <trkpt lat="48.99282" lon="1.30887">
        <ele>90.1</ele>
        <time>2015-09-27T09:06:25Z</time>
      </trkpt>
      <trkpt lat="48.99293" lon="1.30889">
        <ele>87.9</ele>
        <time>2015-09-27T09:06:28Z</time>
      </trkpt>
      <trkpt lat="48.993" lon="1.30875">
        <ele>86.6</ele>
        <time>2015-09-27T09:06:30Z</time>
      </trkpt>
      <trkpt lat="48.99303" lon="1.30856">
        <ele>85.2</ele>
        <time>2015-09-27T09:06:32Z</time>
      </trkpt>
      <trkpt lat="48.99308" lon="1.30839">
        <ele>83.9</ele>
        <time>2015-09-27T09:06:34Z</time>
      </trkpt>
      <trkpt lat="48.99315" lon="1.30823">
        <ele>82.8</ele>
        <time>2015-09-27T09:06:36Z</time>
      </trkpt>
      <trkpt lat="48.99322" lon="1.30808">
        <ele>81.8</ele>
        <time>2015-09-27T09:06:38Z</time>
      </trkpt>
      <trkpt lat="48.99327" lon="1.30792">
        <ele>80.9</ele>
        <time>2015-09-27T09:06:40Z</time>
      </trkpt>
      <trkpt lat="48.99335" lon="1.30783">
        <ele>80.1</ele>
        <time>2015-09-27T09:06:42Z</time>
      </trkpt>
      <trkpt lat="48.99344" lon="1.30785">
        <ele>79.4</ele>
        <time>2015-09-27T09:06:44Z</time>
      </trkpt>
      <trkpt lat="48.99353" lon="1.30791">
        <ele>78.7</ele>
        <time>2015-09-27T09:06:46Z</time>
      </trkpt>
      <trkpt lat="48.99359" lon="1.30807">
        <ele>77.8</ele>
        <time>2015-09-27T09:06:49Z</time>
      </trkpt>
      <trkpt lat="48.9936" lon="1.30822">
        <ele>77.2</ele>
        <time>2015-09-27T09:06:51Z</time>
      </trkpt>
      <trkpt lat="48.99365" lon="1.30836">
        <ele>76.7</ele>
        <time>2015-09-27T09:06:53Z</time>
      </trkpt>
      <trkpt lat="48.99372" lon="1.30849">
        <ele>76.2</ele>
        <time>2015-09-27T09:06:55Z</time>
      </trkpt>
      <trkpt lat="48.99378" lon="1.3086">
        <ele>75.8</ele>
        <time>2015-09-27T09:06:57Z</time>
      </trkpt>
      <trkpt lat="48.99385" lon="1.30872">
        <ele>75.5</ele>
        <time>2015-09-27T09:06:59Z</time>
      </trkpt>
      <trkpt lat="48.99392" lon="1.30884">
        <ele>75.1</ele>
        <time>2015-09-27T09:07:01Z</time>
      </trkpt>
      <trkpt lat="48.994" lon="1.30896">
        <ele>74.9</ele>
        <time>2015-09-27T09:07:03Z</time>
      </trkpt>
      <trkpt lat="48.99407" lon="1.30908">
        <ele>74.6</ele>
        <time>2015-09-27T09:07:05Z</time>
      </trkpt>
      <trkpt lat="48.99414" lon="1.30921">
        <ele>74.4</ele>
        <time>2015-09-27T09:07:07Z</time>
      </trkpt>
      <trkpt lat="48.99421" lon="1.30933">
        <ele>74.3</ele>
        <time>2015-09-27T09:07:09Z</time>
      </trkpt>
      <trkpt lat="48.99428" lon="1.30945">
        <ele>74.3</ele>
        <time>2015-09-27T09:07:11Z</time>
      </trkpt>
      <trkpt lat="48.99433" lon="1.30957">
        <ele>74.2</ele>
        <time>2015-09-27T09:07:13Z</time>
      </trkpt>
      <trkpt lat="48.9944" lon="1.30974">
        <ele>74.2</ele>
        <time>2015-09-27T09:07:16Z</time>
      </trkpt>
      <trkpt lat="48.99446" lon="1.30989">
        <ele>74.2</ele>
        <time>2015-09-27T09:07:19Z</time>
      </trkpt>
      <trkpt lat="48.99453" lon="1.31003">
        <ele>74.3</ele>
        <time>2015-09-27T09:07:22Z</time>
      </trkpt>
      <trkpt lat="48.99458" lon="1.31015">
        <ele>74.6</ele>
        <time>2015-09-27T09:07:25Z</time>
      </trkpt>
      <trkpt lat="48.99464" lon="1.3103">
        <ele>75.1</ele>
        <time>2015-09-27T09:07:29Z</time>
      </trkpt>
      <trkpt lat="48.99469" lon="1.31044">
        <ele>75.7</ele>
        <time>2015-09-27T09:07:33Z</time>
      </trkpt>
      <trkpt lat="48.99474" lon="1.31059">
        <ele>76.6</ele>
        <time>2015-09-27T09:07:38Z</time>
      </trkpt>
      <trkpt lat="48.9948" lon="1.31071">
        <ele>77.5</ele>
        <time>2015-09-27T09:07:42Z</time>
      </trkpt>
      <trkpt lat="48.99486" lon="1.31083">
        <ele>78.5</ele>
        <time>2015-09-27T09:07:46Z</time>
      </trkpt>
      <trkpt lat="48.99491" lon="1.31094">
        <ele>79.5</ele>
        <time>2015-09-27T09:07:50Z</time>
      </trkpt>
      <trkpt lat="48.99497" lon="1.31107">
        <ele>80.7</ele>
        <time>2015-09-27T09:07:55Z</time>
      </trkpt>
      <trkpt lat="48.99503" lon="1.31118">
        <ele>81.9</ele>
        <time>2015-09-27T09:08:00Z</time>
      </trkpt>
      <trkpt lat="48.99511" lon="1.3113">
        <ele>83.3</ele>
        <time>2015-09-27T09:08:06Z</time>
      </trkpt>
      <trkpt lat="48.9952" lon="1.31139">
        <ele>84.9</ele>
        <time>2015-09-27T09:08:12Z</time>
      </trkpt>
      <trkpt lat="48.99527" lon="1.31146">
        <ele>86.6</ele>
        <time>2015-09-27T09:08:18Z</time>
      </trkpt>
      <trkpt lat="48.99535" lon="1.31154">
        <ele>88.2</ele>
        <time>2015-09-27T09:08:24Z</time>
      </trkpt>
      <trkpt lat="48.99543" lon="1.31163">
        <ele>89.8</ele>
        <time>2015-09-27T09:08:30Z</time>
      </trkpt>
      <trkpt lat="48.9955" lon="1.31174">
        <ele>91.5</ele>
        <time>2015-09-27T09:08:36Z</time>
      </trkpt>
      <trkpt lat="48.99556" lon="1.31185">
        <ele>93</ele>
        <time>2015-09-27T09:08:42Z</time>
      </trkpt>
      <trkpt lat="48.99562" lon="1.31197">
        <ele>94.4</ele>
        <time>2015-09-27T09:08:48Z</time>
      </trkpt>
      <trkpt lat="48.99566" lon="1.31211">
        <ele>96</ele>
        <time>2015-09-27T09:08:54Z</time>
      </trkpt>
      <trkpt lat="48.9957" lon="1.31226">
        <ele>97.6</ele>
        <time>2015-09-27T09:09:00Z</time>
      </trkpt>
      <trkpt lat="48.99574" lon="1.31239">
        <ele>98.8</ele>
        <time>2015-09-27T09:09:05Z</time>
      </trkpt>
      <trkpt lat="48.99578" lon="1.31253">
        <ele>100.6</ele>
        <time>2015-09-27T09:09:12Z</time>
      </trkpt>
      <trkpt lat="48.99583" lon="1.31267">
        <ele>102</ele>
        <time>2015-09-27T09:09:18Z</time>
      </trkpt>
      <trkpt lat="48.99587" lon="1.3128">
        <ele>103.7</ele>
        <time>2015-09-27T09:09:25Z</time>
      </trkpt>
      <trkpt lat="48.99594" lon="1.31294">
        <ele>105.2</ele>
        <time>2015-09-27T09:09:31Z</time>
      </trkpt>
      <trkpt lat="48.996" lon="1.31304">
        <ele>106.5</ele>
        <time>2015-09-27T09:09:36Z</time>
      </trkpt>
      <trkpt lat="48.99607" lon="1.31313">
        <ele>107.8</ele>
        <time>2015-09-27T09:09:41Z</time>
      </trkpt>
      <trkpt lat="48.99614" lon="1.31323">
        <ele>108.9</ele>
        <time>2015-09-27T09:09:46Z</time>
      </trkpt>
      <trkpt lat="48.99622" lon="1.31335">
        <ele>109.8</ele>
        <time>2015-09-27T09:09:51Z</time>
      </trkpt>
      <trkpt lat="48.99628" lon="1.31346">
        <ele>110.5</ele>
        <time>2015-09-27T09:09:55Z</time>
      </trkpt>
      <trkpt lat="48.99635" lon="1.31357">
        <ele>111</ele>
        <time>2015-09-27T09:09:59Z</time>
      </trkpt>
      <trkpt lat="48.99638" lon="1.31369">
        <ele>111.4</ele>
        <time>2015-09-27T09:10:02Z</time>
      </trkpt>
      <trkpt lat="48.99642" lon="1.31383">
        <ele>111.9</ele>
        <time>2015-09-27T09:10:05Z</time>
      </trkpt>
      <trkpt lat="48.99644" lon="1.31399">
        <ele>112.2</ele>
        <time>2015-09-27T09:10:08Z</time>
      </trkpt>
      <trkpt lat="48.99647" lon="1.31416">
        <ele>112.5</ele>
        <time>2015-09-27T09:10:11Z</time>
      </trkpt>
      <trkpt lat="48.9965" lon="1.31433">
        <ele>112.8</ele>
        <time>2015-09-27T09:10:14Z</time>
      </trkpt>
      <trkpt lat="48.99656" lon="1.3145">
        <ele>113</ele>
        <time>2015-09-27T09:10:17Z</time>
      </trkpt>
      <trkpt lat="48.99664" lon="1.31466">
        <ele>113.2</ele>
        <time>2015-09-27T09:10:20Z</time>
      </trkpt>
      <trkpt lat="48.9967" lon="1.31477">
        <ele>113.4</ele>
        <time>2015-09-27T09:10:22Z</time>
      </trkpt>
      <trkpt lat="48.99677" lon="1.31488">
        <ele>113.5</ele>
        <time>2015-09-27T09:10:24Z</time>
      </trkpt>
      <trkpt lat="48.99684" lon="1.31499">
        <ele>113.6</ele>
        <time>2015-09-27T09:10:26Z</time>
      </trkpt>
      <trkpt lat="48.99691" lon="1.31509">
        <ele>113.7</ele>
        <time>2015-09-27T09:10:28Z</time>
      </trkpt>
      <trkpt lat="48.99698" lon="1.31519">
        <ele>113.8</ele>
        <time>2015-09-27T09:10:30Z</time>
      </trkpt>
      <trkpt lat="48.99705" lon="1.3153">
        <ele>113.9</ele>
        <time>2015-09-27T09:10:32Z</time>
      </trkpt>
      <trkpt lat="48.99713" lon="1.31541">
        <ele>113.9</ele>
        <time>2015-09-27T09:10:34Z</time>
      </trkpt>
      <trkpt lat="48.9972" lon="1.31551">
        <ele>114</ele>
        <time>2015-09-27T09:10:36Z</time>
      </trkpt>
      <trkpt lat="48.99728" lon="1.31563">
        <ele>114</ele>
        <time>2015-09-27T09:10:38Z</time>
      </trkpt>
      <trkpt lat="48.99737" lon="1.31575">
        <ele>114.1</ele>
        <time>2015-09-27T09:10:40Z</time>
      </trkpt>
      <trkpt lat="48.99745" lon="1.31587">
        <ele>114.1</ele>
        <time>2015-09-27T09:10:42Z</time>
      </trkpt>
      <trkpt lat="48.99753" lon="1.31599">
        <ele>114.2</ele>
        <time>2015-09-27T09:10:44Z</time>
      </trkpt>
      <trkpt lat="48.99761" lon="1.31611">
        <ele>114.2</ele>
        <time>2015-09-27T09:10:46Z</time>
      </trkpt>
      <trkpt lat="48.99766" lon="1.31629">
        <ele>114.1</ele>
        <time>2015-09-27T09:10:48Z</time>
      </trkpt>
      <trkpt lat="48.99766" lon="1.31648">
        <ele>114</ele>
        <time>2015-09-27T09:10:50Z</time>
      </trkpt>
      <trkpt lat="48.99761" lon="1.31664">
        <ele>113.8</ele>
        <time>2015-09-27T09:10:52Z</time>
      </trkpt>
      <trkpt lat="48.99762" lon="1.31683">
        <ele>113.6</ele>
        <time>2015-09-27T09:10:54Z</time>
      </trkpt>
      <trkpt lat="48.9977" lon="1.31697">
        <ele>113.4</ele>
        <time>2015-09-27T09:10:56Z</time>
      </trkpt>
      <trkpt lat="48.9978" lon="1.31708">
        <ele>113.3</ele>
        <time>2015-09-27T09:10:58Z</time>
      </trkpt>
      <trkpt lat="48.9979" lon="1.31721">
        <ele>113.2</ele>
        <time>2015-09-27T09:11:00Z</time>
      </trkpt>
      <trkpt lat="48.99798" lon="1.31735">
        <ele>113.1</ele>
        <time>2015-09-27T09:11:02Z</time>
      </trkpt>
      <trkpt lat="48.99806" lon="1.31748">
        <ele>112.9</ele>
        <time>2015-09-27T09:11:04Z</time>
      </trkpt>
      <trkpt lat="48.99813" lon="1.31762">
        <ele>112.7</ele>
        <time>2015-09-27T09:11:06Z</time>
      </trkpt>
      <trkpt lat="48.99821" lon="1.31776">
        <ele>112.5</ele>
        <time>2015-09-27T09:11:08Z</time>
      </trkpt>
      <trkpt lat="48.99829" lon="1.3179">
        <ele>112.3</ele>
        <time>2015-09-27T09:11:10Z</time>
      </trkpt>
      <trkpt lat="48.99838" lon="1.31804">
        <ele>112.2</ele>
        <time>2015-09-27T09:11:12Z</time>
      </trkpt>
      <trkpt lat="48.99845" lon="1.31817">
        <ele>112.1</ele>
        <time>2015-09-27T09:11:14Z</time>
      </trkpt>
      <trkpt lat="48.99853" lon="1.31831">
        <ele>112</ele>
        <time>2015-09-27T09:11:16Z</time>
      </trkpt>
      <trkpt lat="48.99859" lon="1.31845">
        <ele>111.9</ele>
        <time>2015-09-27T09:11:18Z</time>
      </trkpt>
      <trkpt lat="48.99866" lon="1.31859">
        <ele>111.8</ele>
        <time>2015-09-27T09:11:20Z</time>
      </trkpt>
      <trkpt lat="48.99871" lon="1.31873">
        <ele>111.7</ele>
        <time>2015-09-27T09:11:22Z</time>
      </trkpt>
      <trkpt lat="48.99876" lon="1.31889">
        <ele>111.6</ele>
        <time>2015-09-27T09:11:24Z</time>
      </trkpt>
      <trkpt lat="48.9988" lon="1.31907">
        <ele>111.5</ele>
        <time>2015-09-27T09:11:26Z</time>
      </trkpt>
      <trkpt lat="48.99886" lon="1.31925">
        <ele>111.4</ele>
        <time>2015-09-27T09:11:28Z</time>
      </trkpt>
      <trkpt lat="48.9989" lon="1.31944">
        <ele>111.3</ele>
        <time>2015-09-27T09:11:30Z</time>
      </trkpt>
      <trkpt lat="48.99894" lon="1.31961">
        <ele>111.2</ele>
        <time>2015-09-27T09:11:32Z</time>
      </trkpt>
      <trkpt lat="48.99898" lon="1.31978">
        <ele>111.1</ele>
        <time>2015-09-27T09:11:34Z</time>
      </trkpt>
      <trkpt lat="48.99903" lon="1.31995">
        <ele>111.1</ele>
        <time>2015-09-27T09:11:36Z</time>
      </trkpt>
      <trkpt lat="48.99907" lon="1.32013">
        <ele>111</ele>
        <time>2015-09-27T09:11:38Z</time>
      </trkpt>
      <trkpt lat="48.9991" lon="1.32029">
        <ele>111</ele>
        <time>2015-09-27T09:11:40Z</time>
      </trkpt>
      <trkpt lat="48.99911" lon="1.32046">
        <ele>110.9</ele>
        <time>2015-09-27T09:11:42Z</time>
      </trkpt>
      <trkpt lat="48.99911" lon="1.32063">
        <ele>110.9</ele>
        <time>2015-09-27T09:11:44Z</time>
      </trkpt>
      <trkpt lat="48.9991" lon="1.3208">
        <ele>110.9</ele>
        <time>2015-09-27T09:11:46Z</time>
      </trkpt>
      <trkpt lat="48.99909" lon="1.32097">
        <ele>110.8</ele>
        <time>2015-09-27T09:11:48Z</time>
      </trkpt>
      <trkpt lat="48.99909" lon="1.32113">
        <ele>110.8</ele>
        <time>2015-09-27T09:11:50Z</time>
      </trkpt>
      <trkpt lat="48.99909" lon="1.3213">
        <ele>110.8</ele>
        <time>2015-09-27T09:11:52Z</time>
      </trkpt>
      <trkpt lat="48.9991" lon="1.32146">
        <ele>110.9</ele>
        <time>2015-09-27T09:11:54Z</time>
      </trkpt>
      <trkpt lat="48.99913" lon="1.32162">
        <ele>110.9</ele>
        <time>2015-09-27T09:11:56Z</time>
      </trkpt>
      <trkpt lat="48.99916" lon="1.32177">
        <ele>111</ele>
        <time>2015-09-27T09:11:58Z</time>
      </trkpt>
      <trkpt lat="48.9992" lon="1.32192">
        <ele>111.1</ele>
        <time>2015-09-27T09:12:00Z</time>
      </trkpt>
      <trkpt lat="48.99926" lon="1.32205">
        <ele>111.2</ele>
        <time>2015-09-27T09:12:02Z</time>
      </trkpt>
      <trkpt lat="48.9993" lon="1.32218">
        <ele>111.3</ele>
        <time>2015-09-27T09:12:04Z</time>
      </trkpt>
      <trkpt lat="48.99936" lon="1.3223">
        <ele>111.4</ele>
        <time>2015-09-27T09:12:06Z</time>
      </trkpt>
      <trkpt lat="48.99941" lon="1.32243">
        <ele>111.6</ele>
        <time>2015-09-27T09:12:08Z</time>
      </trkpt>
      <trkpt lat="48.99945" lon="1.32256">
        <ele>111.8</ele>
        <time>2015-09-27T09:12:10Z</time>
      </trkpt>
      <trkpt lat="48.9995" lon="1.3227">
        <ele>112.1</ele>
        <time>2015-09-27T09:12:12Z</time>
      </trkpt>
      <trkpt lat="48.99955" lon="1.32284">
        <ele>112.2</ele>
        <time>2015-09-27T09:12:14Z</time>
      </trkpt>
      <trkpt lat="48.9996" lon="1.32297">
        <ele>112.4</ele>
        <time>2015-09-27T09:12:16Z</time>
      </trkpt>
      <trkpt lat="48.99965" lon="1.3231">
        <ele>112.6</ele>
        <time>2015-09-27T09:12:18Z</time>
      </trkpt>
      <trkpt lat="48.99969" lon="1.32323">
        <ele>112.8</ele>
        <time>2015-09-27T09:12:20Z</time>
      </trkpt>
      <trkpt lat="48.99974" lon="1.32337">
        <ele>113</ele>
        <time>2015-09-27T09:12:22Z</time>
      </trkpt>
      <trkpt lat="48.99978" lon="1.3235">
        <ele>113.2</ele>
        <time>2015-09-27T09:12:24Z</time>
      </trkpt>
      <trkpt lat="48.99982" lon="1.32363">
        <ele>113.4</ele>
        <time>2015-09-27T09:12:26Z</time>
      </trkpt>
      <trkpt lat="48.99988" lon="1.32381">
        <ele>113.6</ele>
        <time>2015-09-27T09:12:29Z</time>
      </trkpt>
      <trkpt lat="48.99994" lon="1.32398">
        <ele>113.9</ele>
        <time>2015-09-27T09:12:32Z</time>
      </trkpt>
      <trkpt lat="49" lon="1.32414">
        <ele>114.1</ele>
        <time>2015-09-27T09:12:35Z</time>
      </trkpt>
      <trkpt lat="49.00005" lon="1.32431">
        <ele>114.3</ele>
        <time>2015-09-27T09:12:38Z</time>
      </trkpt>
      <trkpt lat="49.00011" lon="1.32447">
        <ele>114.6</ele>
        <time>2015-09-27T09:12:41Z</time>
      </trkpt>
      <trkpt lat="49.00017" lon="1.32463">
        <ele>114.9</ele>
        <time>2015-09-27T09:12:44Z</time>
      </trkpt>
      <trkpt lat="49.00023" lon="1.32479">
        <ele>115.2</ele>
        <time>2015-09-27T09:12:47Z</time>
      </trkpt>
      <trkpt lat="49.00028" lon="1.32496">
        <ele>115.5</ele>
        <time>2015-09-27T09:12:50Z</time>
      </trkpt>
      <trkpt lat="49.00034" lon="1.32513">
        <ele>115.8</ele>
        <time>2015-09-27T09:12:53Z</time>
      </trkpt>
      <trkpt lat="49.00041" lon="1.3253">
        <ele>116.1</ele>
        <time>2015-09-27T09:12:56Z</time>
      </trkpt>
      <trkpt lat="49.00047" lon="1.32546">
        <ele>116.4</ele>
        <time>2015-09-27T09:12:59Z</time>
      </trkpt>
      <trkpt lat="49.00053" lon="1.32562">
        <ele>116.7</ele>
        <time>2015-09-27T09:13:02Z</time>
      </trkpt>
      <trkpt lat="49.0006" lon="1.3258">
        <ele>116.9</ele>
        <time>2015-09-27T09:13:05Z</time>
      </trkpt>
      <trkpt lat="49.00067" lon="1.32597">
        <ele>117</ele>
        <time>2015-09-27T09:13:08Z</time>
      </trkpt>
      <trkpt lat="49.00074" lon="1.32614">
        <ele>117.2</ele>
        <time>2015-09-27T09:13:11Z</time>
      </trkpt>
      <trkpt lat="49.00081" lon="1.3263">
        <ele>117.5</ele>
        <time>2015-09-27T09:13:14Z</time>
      </trkpt>
      <trkpt lat="49.00089" lon="1.32646">
        <ele>117.7</ele>
        <time>2015-09-27T09:13:17Z</time>
      </trkpt>
      <trkpt lat="49.00096" lon="1.32662">
        <ele>118</ele>
        <time>2015-09-27T09:13:20Z</time>
      </trkpt>
      <trkpt lat="49.00104" lon="1.32678">
        <ele>118.3</ele>
        <time>2015-09-27T09:13:23Z</time>
      </trkpt>
      <trkpt lat="49.00112" lon="1.32693">
        <ele>118.6</ele>
        <time>2015-09-27T09:13:26Z</time>
      </trkpt>
      <trkpt lat="49.00121" lon="1.32708">
        <ele>118.9</ele>
        <time>2015-09-27T09:13:29Z</time>
      </trkpt>
      <trkpt lat="49.00127" lon="1.32718">
        <ele>119</ele>
        <time>2015-09-27T09:13:31Z</time>
      </trkpt>
      <trkpt lat="49.00133" lon="1.32729">
        <ele>119.1</ele>
        <time>2015-09-27T09:13:33Z</time>
      </trkpt>
      <trkpt lat="49.00139" lon="1.32739">
        <ele>119.2</ele>
        <time>2015-09-27T09:13:35Z</time>
      </trkpt>
      <trkpt lat="49.00145" lon="1.3275">
        <ele>119.3</ele>
        <time>2015-09-27T09:13:37Z</time>
      </trkpt>
      <trkpt lat="49.00155" lon="1.32764">
        <ele>119.4</ele>
        <time>2015-09-27T09:13:40Z</time>
      </trkpt>
      <trkpt lat="49.00164" lon="1.32777">
        <ele>119.5</ele>
        <time>2015-09-27T09:13:43Z</time>
      </trkpt>
      <trkpt lat="49.00173" lon="1.32791">
        <ele>119.6</ele>
        <time>2015-09-27T09:13:46Z</time>
      </trkpt>
      <trkpt lat="49.00182" lon="1.32804">
        <ele>119.7</ele>
        <time>2015-09-27T09:13:49Z</time>
      </trkpt>
      <trkpt lat="49.00191" lon="1.32818">
        <ele>119.7</ele>
        <time>2015-09-27T09:13:52Z</time>
      </trkpt>
      <trkpt lat="49.00201" lon="1.3283">
        <ele>119.8</ele>
        <time>2015-09-27T09:13:55Z</time>
      </trkpt>
      <trkpt lat="49.00204" lon="1.32845">
        <ele>119.8</ele>
        <time>2015-09-27T09:13:58Z</time>
      </trkpt>
      <trkpt lat="49.002" lon="1.32863">
        <ele>119.7</ele>
        <time>2015-09-27T09:14:01Z</time>
      </trkpt>
      <trkpt lat="49.00195" lon="1.3288">
        <ele>119.8</ele>
        <time>2015-09-27T09:14:04Z</time>
      </trkpt>
      <trkpt lat="49.0019" lon="1.32896">
        <ele>119.9</ele>
        <time>2015-09-27T09:14:07Z</time>
      </trkpt>
      <trkpt lat="49.00185" lon="1.32913">
        <ele>120.1</ele>
        <time>2015-09-27T09:14:10Z</time>
      </trkpt>
      <trkpt lat="49.00181" lon="1.3293">
        <ele>120.4</ele>
        <time>2015-09-27T09:14:13Z</time>
      </trkpt>
      <trkpt lat="49.00177" lon="1.32947">
        <ele>120.7</ele>
        <time>2015-09-27T09:14:16Z</time>
      </trkpt>
      <trkpt lat="49.00172" lon="1.32965">
        <ele>121</ele>
        <time>2015-09-27T09:14:19Z</time>
      </trkpt>
      <trkpt lat="49.00167" lon="1.32983">
        <ele>121.3</ele>
        <time>2015-09-27T09:14:22Z</time>
      </trkpt>
      <trkpt lat="49.00162" lon="1.33001">
        <ele>121.6</ele>
        <time>2015-09-27T09:14:25Z</time>
      </trkpt>
      <trkpt lat="49.00158" lon="1.33019">
        <ele>121.8</ele>
        <time>2015-09-27T09:14:28Z</time>
      </trkpt>
      <trkpt lat="49.00154" lon="1.33037">
        <ele>122.1</ele>
        <time>2015-09-27T09:14:31Z</time>
      </trkpt>
      <trkpt lat="49.00148" lon="1.33054">
        <ele>122.4</ele>
        <time>2015-09-27T09:14:34Z</time>
      </trkpt>
      <trkpt lat="49.00143" lon="1.33073">
        <ele>122.7</ele>
        <time>2015-09-27T09:14:37Z</time>
      </trkpt>
      <trkpt lat="49.0014" lon="1.33087">
        <ele>122.8</ele>
        <time>2015-09-27T09:14:39Z</time>
      </trkpt>
      <trkpt lat="49.00135" lon="1.33105">
        <ele>123.1</ele>
        <time>2015-09-27T09:14:42Z</time>
      </trkpt>
      <trkpt lat="49.00132" lon="1.33118">
        <ele>123.4</ele>
        <time>2015-09-27T09:14:44Z</time>
      </trkpt>
      <trkpt lat="49.00128" lon="1.33131">
        <ele>123.6</ele>
        <time>2015-09-27T09:14:46Z</time>
      </trkpt>
      <trkpt lat="49.00123" lon="1.3315">
        <ele>124</ele>
        <time>2015-09-27T09:14:49Z</time>
      </trkpt>
      <trkpt lat="49.0012" lon="1.33163">
        <ele>124.2</ele>
        <time>2015-09-27T09:14:51Z</time>
      </trkpt>
      <trkpt lat="49.00116" lon="1.33176">
        <ele>124.4</ele>
        <time>2015-09-27T09:14:53Z</time>
      </trkpt>
      <trkpt lat="49.00113" lon="1.33189">
        <ele>124.5</ele>
        <time>2015-09-27T09:14:55Z</time>
      </trkpt>
      <trkpt lat="49.00109" lon="1.33201">
        <ele>124.7</ele>
        <time>2015-09-27T09:14:57Z</time>
      </trkpt>
      <trkpt lat="49.00106" lon="1.33214">
        <ele>124.8</ele>
        <time>2015-09-27T09:14:59Z</time>
      </trkpt>
      <trkpt lat="49.00102" lon="1.33227">
        <ele>124.9</ele>
        <time>2015-09-27T09:15:01Z</time>
      </trkpt>
      <trkpt lat="49.00098" lon="1.33241">
        <ele>125</ele>
        <time>2015-09-27T09:15:03Z</time>
      </trkpt>
      <trkpt lat="49.00094" lon="1.33255">
        <ele>125.1</ele>
        <time>2015-09-27T09:15:05Z</time>
      </trkpt>
      <trkpt lat="49.0009" lon="1.3327">
        <ele>125.2</ele>
        <time>2015-09-27T09:15:07Z</time>
      </trkpt>
      <trkpt lat="49.00086" lon="1.33284">
        <ele>125.3</ele>
        <time>2015-09-27T09:15:09Z</time>
      </trkpt>
      <trkpt lat="49.00083" lon="1.33298">
        <ele>125.4</ele>
        <time>2015-09-27T09:15:11Z</time>
      </trkpt>
      <trkpt lat="49.00079" lon="1.33312">
        <ele>125.4</ele>
        <time>2015-09-27T09:15:13Z</time>
      </trkpt>
      <trkpt lat="49.00075" lon="1.33327">
        <ele>125.5</ele>
        <time>2015-09-27T09:15:15Z</time>
      </trkpt>
      <trkpt lat="49.00071" lon="1.33343">
        <ele>125.5</ele>
        <time>2015-09-27T09:15:17Z</time>
      </trkpt>
      <trkpt lat="49.00066" lon="1.33359">
        <ele>125.6</ele>
        <time>2015-09-27T09:15:19Z</time>
      </trkpt>
      <trkpt lat="49.00062" lon="1.33374">
        <ele>125.6</ele>
        <time>2015-09-27T09:15:21Z</time>
      </trkpt>
      <trkpt lat="49.00058" lon="1.33389">
        <ele>125.7</ele>
        <time>2015-09-27T09:15:23Z</time>
      </trkpt>
      <trkpt lat="49.00054" lon="1.33404">
        <ele>125.7</ele>
        <time>2015-09-27T09:15:25Z</time>
      </trkpt>
      <trkpt lat="49.0005" lon="1.33419">
        <ele>125.7</ele>
        <time>2015-09-27T09:15:27Z</time>
      </trkpt>
      <trkpt lat="49.00046" lon="1.33434">
        <ele>125.8</ele>
        <time>2015-09-27T09:15:29Z</time>
      </trkpt>
      <trkpt lat="49.00041" lon="1.3345">
        <ele>125.8</ele>
        <time>2015-09-27T09:15:31Z</time>
      </trkpt>
      <trkpt lat="49.00037" lon="1.33466">
        <ele>125.8</ele>
        <time>2015-09-27T09:15:33Z</time>
      </trkpt>
      <trkpt lat="49.00033" lon="1.3348">
        <ele>125.8</ele>
        <time>2015-09-27T09:15:35Z</time>
      </trkpt>
      <trkpt lat="49.00029" lon="1.33496">
        <ele>125.8</ele>
        <time>2015-09-27T09:15:37Z</time>
      </trkpt>
      <trkpt lat="49.00025" lon="1.33511">
        <ele>125.8</ele>
        <time>2015-09-27T09:15:39Z</time>
      </trkpt>
      <trkpt lat="49.00021" lon="1.33525">
        <ele>125.9</ele>
        <time>2015-09-27T09:15:41Z</time>
      </trkpt>
      <trkpt lat="49.00017" lon="1.33539">
        <ele>125.9</ele>
        <time>2015-09-27T09:15:43Z</time>
      </trkpt>
      <trkpt lat="49.00014" lon="1.33552">
        <ele>125.9</ele>
        <time>2015-09-27T09:15:45Z</time>
      </trkpt>
      <trkpt lat="49.0001" lon="1.33567">
        <ele>125.9</ele>
        <time>2015-09-27T09:15:47Z</time>
      </trkpt>
      <trkpt lat="49.00006" lon="1.33581">
        <ele>125.9</ele>
        <time>2015-09-27T09:15:49Z</time>
      </trkpt>
      <trkpt lat="49.00002" lon="1.33597">
        <ele>125.9</ele>
        <time>2015-09-27T09:15:51Z</time>
      </trkpt>
      <trkpt lat="48.99997" lon="1.33611">
        <ele>125.9</ele>
        <time>2015-09-27T09:15:53Z</time>
      </trkpt>
      <trkpt lat="48.99993" lon="1.33626">
        <ele>125.9</ele>
        <time>2015-09-27T09:15:55Z</time>
      </trkpt>
      <trkpt lat="48.99989" lon="1.3364">
        <ele>125.9</ele>
        <time>2015-09-27T09:15:57Z</time>
      </trkpt>
      <trkpt lat="48.99985" lon="1.33655">
        <ele>125.8</ele>
        <time>2015-09-27T09:15:59Z</time>
      </trkpt>
      <trkpt lat="48.99981" lon="1.33671">
        <ele>125.7</ele>
        <time>2015-09-27T09:16:01Z</time>
      </trkpt>
      <trkpt lat="48.99977" lon="1.33685">
        <ele>125.5</ele>
        <time>2015-09-27T09:16:03Z</time>
      </trkpt>
      <trkpt lat="48.99973" lon="1.33701">
        <ele>125.4</ele>
        <time>2015-09-27T09:16:05Z</time>
      </trkpt>
      <trkpt lat="48.99969" lon="1.33716">
        <ele>125.3</ele>
        <time>2015-09-27T09:16:07Z</time>
      </trkpt>
      <trkpt lat="48.99964" lon="1.33732">
        <ele>125.2</ele>
        <time>2015-09-27T09:16:09Z</time>
      </trkpt>
      <trkpt lat="48.9996" lon="1.33748">
        <ele>125</ele>
        <time>2015-09-27T09:16:11Z</time>
      </trkpt>
      <trkpt lat="48.99956" lon="1.33764">
        <ele>124.8</ele>
        <time>2015-09-27T09:16:13Z</time>
      </trkpt>
      <trkpt lat="48.99952" lon="1.33779">
        <ele>124.6</ele>
        <time>2015-09-27T09:16:15Z</time>
      </trkpt>
      <trkpt lat="48.99947" lon="1.33794">
        <ele>124.4</ele>
        <time>2015-09-27T09:16:17Z</time>
      </trkpt>
      <trkpt lat="48.99943" lon="1.33809">
        <ele>124.2</ele>
        <time>2015-09-27T09:16:19Z</time>
      </trkpt>
      <trkpt lat="48.99939" lon="1.33825">
        <ele>124</ele>
        <time>2015-09-27T09:16:21Z</time>
      </trkpt>
      <trkpt lat="48.99935" lon="1.3384">
        <ele>123.8</ele>
        <time>2015-09-27T09:16:23Z</time>
      </trkpt>
      <trkpt lat="48.99931" lon="1.33855">
        <ele>123.6</ele>
        <time>2015-09-27T09:16:25Z</time>
      </trkpt>
      <trkpt lat="48.99927" lon="1.3387">
        <ele>123.5</ele>
        <time>2015-09-27T09:16:27Z</time>
      </trkpt>
      <trkpt lat="48.99923" lon="1.33884">
        <ele>123.3</ele>
        <time>2015-09-27T09:16:29Z</time>
      </trkpt>
      <trkpt lat="48.99919" lon="1.339">
        <ele>123.1</ele>
        <time>2015-09-27T09:16:31Z</time>
      </trkpt>
      <trkpt lat="48.99914" lon="1.33916">
        <ele>123</ele>
        <time>2015-09-27T09:16:33Z</time>
      </trkpt>
      <trkpt lat="48.9991" lon="1.33932">
        <ele>122.8</ele>
        <time>2015-09-27T09:16:35Z</time>
      </trkpt>
      <trkpt lat="48.99905" lon="1.33947">
        <ele>122.7</ele>
        <time>2015-09-27T09:16:37Z</time>
      </trkpt>
      <trkpt lat="48.99901" lon="1.33962">
        <ele>122.6</ele>
        <time>2015-09-27T09:16:39Z</time>
      </trkpt>
      <trkpt lat="48.99897" lon="1.33977">
        <ele>122.4</ele>
        <time>2015-09-27T09:16:41Z</time>
      </trkpt>
      <trkpt lat="48.99893" lon="1.33992">
        <ele>122.3</ele>
        <time>2015-09-27T09:16:43Z</time>
      </trkpt>
      <trkpt lat="48.9989" lon="1.34007">
        <ele>122.2</ele>
        <time>2015-09-27T09:16:45Z</time>
      </trkpt>
      <trkpt lat="48.99885" lon="1.34022">
        <ele>122</ele>
        <time>2015-09-27T09:16:47Z</time>
      </trkpt>
      <trkpt lat="48.99881" lon="1.34036">
        <ele>121.7</ele>
        <time>2015-09-27T09:16:49Z</time>
      </trkpt>
      <trkpt lat="48.99877" lon="1.34051">
        <ele>121.4</ele>
        <time>2015-09-27T09:16:51Z</time>
      </trkpt>
      <trkpt lat="48.99873" lon="1.34065">
        <ele>121.2</ele>
        <time>2015-09-27T09:16:53Z</time>
      </trkpt>
      <trkpt lat="48.99869" lon="1.3408">
        <ele>121.1</ele>
        <time>2015-09-27T09:16:55Z</time>
      </trkpt>
      <trkpt lat="48.99864" lon="1.34094">
        <ele>120.9</ele>
        <time>2015-09-27T09:16:57Z</time>
      </trkpt>
      <trkpt lat="48.9986" lon="1.34108">
        <ele>120.8</ele>
        <time>2015-09-27T09:16:59Z</time>
      </trkpt>
      <trkpt lat="48.99856" lon="1.34122">
        <ele>120.7</ele>
        <time>2015-09-27T09:17:01Z</time>
      </trkpt>
      <trkpt lat="48.99852" lon="1.34137">
        <ele>120.6</ele>
        <time>2015-09-27T09:17:03Z</time>
      </trkpt>
      <trkpt lat="48.99848" lon="1.34152">
        <ele>120.5</ele>
        <time>2015-09-27T09:17:05Z</time>
      </trkpt>
      <trkpt lat="48.99844" lon="1.34167">
        <ele>120.4</ele>
        <time>2015-09-27T09:17:07Z</time>
      </trkpt>
      <trkpt lat="48.9984" lon="1.34182">
        <ele>120.3</ele>
        <time>2015-09-27T09:17:09Z</time>
      </trkpt>
      <trkpt lat="48.99836" lon="1.34197">
        <ele>120.3</ele>
        <time>2015-09-27T09:17:11Z</time>
      </trkpt>
      <trkpt lat="48.99832" lon="1.34212">
        <ele>120.2</ele>
        <time>2015-09-27T09:17:13Z</time>
      </trkpt>
      <trkpt lat="48.99828" lon="1.34227">
        <ele>120.2</ele>
        <time>2015-09-27T09:17:15Z</time>
      </trkpt>
      <trkpt lat="48.99823" lon="1.34242">
        <ele>120.1</ele>
        <time>2015-09-27T09:17:17Z</time>
      </trkpt>
      <trkpt lat="48.99819" lon="1.34257">
        <ele>120.1</ele>
        <time>2015-09-27T09:17:19Z</time>
      </trkpt>
      <trkpt lat="48.99815" lon="1.34272">
        <ele>120</ele>
        <time>2015-09-27T09:17:21Z</time>
      </trkpt>
      <trkpt lat="48.99811" lon="1.34287">
        <ele>120</ele>
        <time>2015-09-27T09:17:23Z</time>
      </trkpt>
      <trkpt lat="48.99806" lon="1.34302">
        <ele>120</ele>
        <time>2015-09-27T09:17:25Z</time>
      </trkpt>
      <trkpt lat="48.99802" lon="1.34317">
        <ele>120</ele>
        <time>2015-09-27T09:17:27Z</time>
      </trkpt>
      <trkpt lat="48.99798" lon="1.34333">
        <ele>119.9</ele>
        <time>2015-09-27T09:17:29Z</time>
      </trkpt>
      <trkpt lat="48.99793" lon="1.34349">
        <ele>119.9</ele>
        <time>2015-09-27T09:17:31Z</time>
      </trkpt>
      <trkpt lat="48.99789" lon="1.34365">
        <ele>119.9</ele>
        <time>2015-09-27T09:17:33Z</time>
      </trkpt>
      <trkpt lat="48.99785" lon="1.3438">
        <ele>119.8</ele>
        <time>2015-09-27T09:17:35Z</time>
      </trkpt>
      <trkpt lat="48.9978" lon="1.34395">
        <ele>119.8</ele>
        <time>2015-09-27T09:17:37Z</time>
      </trkpt>
      <trkpt lat="48.99776" lon="1.34409">
        <ele>119.7</ele>
        <time>2015-09-27T09:17:39Z</time>
      </trkpt>
      <trkpt lat="48.99771" lon="1.34424">
        <ele>119.5</ele>
        <time>2015-09-27T09:17:41Z</time>
      </trkpt>
      <trkpt lat="48.99767" lon="1.34439">
        <ele>119.4</ele>
        <time>2015-09-27T09:17:43Z</time>
      </trkpt>
      <trkpt lat="48.99763" lon="1.34453">
        <ele>119.2</ele>
        <time>2015-09-27T09:17:45Z</time>
      </trkpt>
      <trkpt lat="48.99759" lon="1.34468">
        <ele>119.1</ele>
        <time>2015-09-27T09:17:47Z</time>
      </trkpt>
      <trkpt lat="48.99755" lon="1.34482">
        <ele>118.9</ele>
        <time>2015-09-27T09:17:49Z</time>
      </trkpt>
      <trkpt lat="48.99751" lon="1.34496">
        <ele>118.8</ele>
        <time>2015-09-27T09:17:51Z</time>
      </trkpt>
      <trkpt lat="48.99747" lon="1.3451">
        <ele>118.6</ele>
        <time>2015-09-27T09:17:53Z</time>
      </trkpt>
      <trkpt lat="48.99743" lon="1.34523">
        <ele>118.5</ele>
        <time>2015-09-27T09:17:55Z</time>
      </trkpt>
      <trkpt lat="48.9974" lon="1.34536">
        <ele>118.4</ele>
        <time>2015-09-27T09:17:57Z</time>
      </trkpt>
      <trkpt lat="48.99735" lon="1.34556">
        <ele>118.2</ele>
        <time>2015-09-27T09:18:00Z</time>
      </trkpt>
      <trkpt lat="48.99731" lon="1.34569">
        <ele>118</ele>
        <time>2015-09-27T09:18:02Z</time>
      </trkpt>
      <trkpt lat="48.99727" lon="1.34583">
        <ele>117.8</ele>
        <time>2015-09-27T09:18:04Z</time>
      </trkpt>
      <trkpt lat="48.99722" lon="1.34597">
        <ele>117.7</ele>
        <time>2015-09-27T09:18:06Z</time>
      </trkpt>
      <trkpt lat="48.99718" lon="1.34611">
        <ele>117.5</ele>
        <time>2015-09-27T09:18:08Z</time>
      </trkpt>
      <trkpt lat="48.99714" lon="1.34626">
        <ele>117.4</ele>
        <time>2015-09-27T09:18:10Z</time>
      </trkpt>
      <trkpt lat="48.99709" lon="1.3464">
        <ele>117.3</ele>
        <time>2015-09-27T09:18:12Z</time>
      </trkpt>
      <trkpt lat="48.99705" lon="1.34655">
        <ele>117.2</ele>
        <time>2015-09-27T09:18:14Z</time>
      </trkpt>
      <trkpt lat="48.99701" lon="1.3467">
        <ele>117.1</ele>
        <time>2015-09-27T09:18:16Z</time>
      </trkpt>
      <trkpt lat="48.99697" lon="1.34685">
        <ele>117.1</ele>
        <time>2015-09-27T09:18:18Z</time>
      </trkpt>
      <trkpt lat="48.99693" lon="1.34699">
        <ele>117</ele>
        <time>2015-09-27T09:18:20Z</time>
      </trkpt>
      <trkpt lat="48.99689" lon="1.34714">
        <ele>117</ele>
        <time>2015-09-27T09:18:22Z</time>
      </trkpt>
      <trkpt lat="48.99685" lon="1.34729">
        <ele>116.9</ele>
        <time>2015-09-27T09:18:24Z</time>
      </trkpt>
      <trkpt lat="48.9968" lon="1.34745">
        <ele>116.9</ele>
        <time>2015-09-27T09:18:26Z</time>
      </trkpt>
      <trkpt lat="48.99676" lon="1.34761">
        <ele>116.8</ele>
        <time>2015-09-27T09:18:28Z</time>
      </trkpt>
      <trkpt lat="48.99672" lon="1.34777">
        <ele>116.8</ele>
        <time>2015-09-27T09:18:30Z</time>
      </trkpt>
      <trkpt lat="48.99667" lon="1.34792">
        <ele>116.8</ele>
        <time>2015-09-27T09:18:32Z</time>
      </trkpt>
      <trkpt lat="48.99663" lon="1.34808">
        <ele>116.8</ele>
        <time>2015-09-27T09:18:34Z</time>
      </trkpt>
      <trkpt lat="48.99659" lon="1.34823">
        <ele>116.7</ele>
        <time>2015-09-27T09:18:36Z</time>
      </trkpt>
      <trkpt lat="48.99656" lon="1.34838">
        <ele>116.7</ele>
        <time>2015-09-27T09:18:38Z</time>
      </trkpt>
      <trkpt lat="48.99651" lon="1.34853">
        <ele>116.7</ele>
        <time>2015-09-27T09:18:40Z</time>
      </trkpt>
      <trkpt lat="48.99647" lon="1.34868">
        <ele>116.8</ele>
        <time>2015-09-27T09:18:42Z</time>
      </trkpt>
      <trkpt lat="48.99643" lon="1.34883">
        <ele>116.9</ele>
        <time>2015-09-27T09:18:44Z</time>
      </trkpt>
      <trkpt lat="48.99639" lon="1.34898">
        <ele>117</ele>
        <time>2015-09-27T09:18:46Z</time>
      </trkpt>
      <trkpt lat="48.99635" lon="1.34913">
        <ele>117.1</ele>
        <time>2015-09-27T09:18:48Z</time>
      </trkpt>
      <trkpt lat="48.9963" lon="1.34928">
        <ele>117.1</ele>
        <time>2015-09-27T09:18:50Z</time>
      </trkpt>
      <trkpt lat="48.99626" lon="1.34943">
        <ele>117.2</ele>
        <time>2015-09-27T09:18:52Z</time>
      </trkpt>
      <trkpt lat="48.99622" lon="1.34958">
        <ele>117.3</ele>
        <time>2015-09-27T09:18:54Z</time>
      </trkpt>
      <trkpt lat="48.99618" lon="1.34972">
        <ele>117.4</ele>
        <time>2015-09-27T09:18:56Z</time>
      </trkpt>
      <trkpt lat="48.99614" lon="1.34986">
        <ele>117.5</ele>
        <time>2015-09-27T09:18:58Z</time>
      </trkpt>
      <trkpt lat="48.9961" lon="1.35">
        <ele>117.6</ele>
        <time>2015-09-27T09:19:00Z</time>
      </trkpt>
      <trkpt lat="48.99607" lon="1.35013">
        <ele>117.8</ele>
        <time>2015-09-27T09:19:02Z</time>
      </trkpt>
      <trkpt lat="48.99603" lon="1.35027">
        <ele>117.9</ele>
        <time>2015-09-27T09:19:04Z</time>
      </trkpt>
      <trkpt lat="48.99599" lon="1.35041">
        <ele>118</ele>
        <time>2015-09-27T09:19:06Z</time>
      </trkpt>
      <trkpt lat="48.99595" lon="1.35055">
        <ele>118.1</ele>
        <time>2015-09-27T09:19:08Z</time>
      </trkpt>
      <trkpt lat="48.99592" lon="1.35069">
        <ele>118.2</ele>
        <time>2015-09-27T09:19:10Z</time>
      </trkpt>
      <trkpt lat="48.99588" lon="1.35083">
        <ele>118.4</ele>
        <time>2015-09-27T09:19:12Z</time>
      </trkpt>
      <trkpt lat="48.99584" lon="1.35096">
        <ele>118.6</ele>
        <time>2015-09-27T09:19:14Z</time>
      </trkpt>
      <trkpt lat="48.99581" lon="1.3511">
        <ele>118.8</ele>
        <time>2015-09-27T09:19:16Z</time>
      </trkpt>
      <trkpt lat="48.99576" lon="1.35124">
        <ele>119</ele>
        <time>2015-09-27T09:19:18Z</time>
      </trkpt>
      <trkpt lat="48.99572" lon="1.35138">
        <ele>119.2</ele>
        <time>2015-09-27T09:19:20Z</time>
      </trkpt>
      <trkpt lat="48.99568" lon="1.35153">
        <ele>119.4</ele>
        <time>2015-09-27T09:19:22Z</time>
      </trkpt>
      <trkpt lat="48.99565" lon="1.35167">
        <ele>119.5</ele>
        <time>2015-09-27T09:19:24Z</time>
      </trkpt>
      <trkpt lat="48.99561" lon="1.35181">
        <ele>119.6</ele>
        <time>2015-09-27T09:19:26Z</time>
      </trkpt>
      <trkpt lat="48.99557" lon="1.35196">
        <ele>119.8</ele>
        <time>2015-09-27T09:19:28Z</time>
      </trkpt>
      <trkpt lat="48.99553" lon="1.3521">
        <ele>119.9</ele>
        <time>2015-09-27T09:19:30Z</time>
      </trkpt>
      <trkpt lat="48.99548" lon="1.35225">
        <ele>120.1</ele>
        <time>2015-09-27T09:19:32Z</time>
      </trkpt>
      <trkpt lat="48.99544" lon="1.3524">
        <ele>120.2</ele>
        <time>2015-09-27T09:19:34Z</time>
      </trkpt>
      <trkpt lat="48.9954" lon="1.35256">
        <ele>120.3</ele>
        <time>2015-09-27T09:19:36Z</time>
      </trkpt>
      <trkpt lat="48.99535" lon="1.35271">
        <ele>120.4</ele>
        <time>2015-09-27T09:19:38Z</time>
      </trkpt>
      <trkpt lat="48.99531" lon="1.35286">
        <ele>120.5</ele>
        <time>2015-09-27T09:19:40Z</time>
      </trkpt>
      <trkpt lat="48.99526" lon="1.35301">
        <ele>120.6</ele>
        <time>2015-09-27T09:19:42Z</time>
      </trkpt>
      <trkpt lat="48.99522" lon="1.35316">
        <ele>120.7</ele>
        <time>2015-09-27T09:19:44Z</time>
      </trkpt>
      <trkpt lat="48.99517" lon="1.35331">
        <ele>120.9</ele>
        <time>2015-09-27T09:19:46Z</time>
      </trkpt>
      <trkpt lat="48.99513" lon="1.35346">
        <ele>121</ele>
        <time>2015-09-27T09:19:48Z</time>
      </trkpt>
      <trkpt lat="48.99509" lon="1.35361">
        <ele>121.1</ele>
        <time>2015-09-27T09:19:50Z</time>
      </trkpt>
      <trkpt lat="48.99504" lon="1.35376">
        <ele>121.2</ele>
        <time>2015-09-27T09:19:52Z</time>
      </trkpt>
      <trkpt lat="48.995" lon="1.35391">
        <ele>121.4</ele>
        <time>2015-09-27T09:19:54Z</time>
      </trkpt>
      <trkpt lat="48.99496" lon="1.35407">
        <ele>121.4</ele>
        <time>2015-09-27T09:19:56Z</time>
      </trkpt>
      <trkpt lat="48.99493" lon="1.35423">
        <ele>121.5</ele>
        <time>2015-09-27T09:19:58Z</time>
      </trkpt>
      <trkpt lat="48.99489" lon="1.35438">
        <ele>121.6</ele>
        <time>2015-09-27T09:20:00Z</time>
      </trkpt>
      <trkpt lat="48.99485" lon="1.35453">
        <ele>121.7</ele>
        <time>2015-09-27T09:20:02Z</time>
      </trkpt>
      <trkpt lat="48.9948" lon="1.35469">
        <ele>121.8</ele>
        <time>2015-09-27T09:20:04Z</time>
      </trkpt>
      <trkpt lat="48.99476" lon="1.35485">
        <ele>121.9</ele>
        <time>2015-09-27T09:20:06Z</time>
      </trkpt>
      <trkpt lat="48.99471" lon="1.35501">
        <ele>122</ele>
        <time>2015-09-27T09:20:08Z</time>
      </trkpt>
      <trkpt lat="48.99467" lon="1.35517">
        <ele>122.1</ele>
        <time>2015-09-27T09:20:10Z</time>
      </trkpt>
      <trkpt lat="48.99462" lon="1.35534">
        <ele>122.2</ele>
        <time>2015-09-27T09:20:12Z</time>
      </trkpt>
      <trkpt lat="48.99458" lon="1.3555">
        <ele>122.2</ele>
        <time>2015-09-27T09:20:14Z</time>
      </trkpt>
      <trkpt lat="48.99453" lon="1.35566">
        <ele>122.3</ele>
        <time>2015-09-27T09:20:16Z</time>
      </trkpt>
      <trkpt lat="48.99448" lon="1.35582">
        <ele>122.3</ele>
        <time>2015-09-27T09:20:18Z</time>
      </trkpt>
      <trkpt lat="48.99444" lon="1.35599">
        <ele>122.3</ele>
        <time>2015-09-27T09:20:20Z</time>
      </trkpt>
      <trkpt lat="48.99439" lon="1.35616">
        <ele>122.4</ele>
        <time>2015-09-27T09:20:22Z</time>
      </trkpt>
      <trkpt lat="48.99434" lon="1.35633">
        <ele>122.4</ele>
        <time>2015-09-27T09:20:24Z</time>
      </trkpt>
      <trkpt lat="48.9943" lon="1.35649">
        <ele>122.4</ele>
        <time>2015-09-27T09:20:26Z</time>
      </trkpt>
      <trkpt lat="48.99425" lon="1.35666">
        <ele>122.4</ele>
        <time>2015-09-27T09:20:28Z</time>
      </trkpt>
      <trkpt lat="48.9942" lon="1.35683">
        <ele>122.4</ele>
        <time>2015-09-27T09:20:30Z</time>
      </trkpt>
      <trkpt lat="48.99416" lon="1.35699">
        <ele>122.4</ele>
        <time>2015-09-27T09:20:32Z</time>
      </trkpt>
      <trkpt lat="48.99411" lon="1.35716">
        <ele>122.3</ele>
        <time>2015-09-27T09:20:34Z</time>
      </trkpt>
      <trkpt lat="48.99406" lon="1.35732">
        <ele>122.3</ele>
        <time>2015-09-27T09:20:36Z</time>
      </trkpt>
      <trkpt lat="48.99401" lon="1.35748">
        <ele>122.3</ele>
        <time>2015-09-27T09:20:38Z</time>
      </trkpt>
      <trkpt lat="48.99397" lon="1.35764">
        <ele>122.3</ele>
        <time>2015-09-27T09:20:40Z</time>
      </trkpt>
      <trkpt lat="48.99392" lon="1.35779">
        <ele>122.3</ele>
        <time>2015-09-27T09:20:42Z</time>
      </trkpt>
      <trkpt lat="48.99388" lon="1.35794">
        <ele>122.2</ele>
        <time>2015-09-27T09:20:44Z</time>
      </trkpt>
      <trkpt lat="48.99383" lon="1.35809">
        <ele>122.2</ele>
        <time>2015-09-27T09:20:46Z</time>
      </trkpt>
      <trkpt lat="48.99379" lon="1.35824">
        <ele>122.1</ele>
        <time>2015-09-27T09:20:48Z</time>
      </trkpt>
      <trkpt lat="48.99374" lon="1.35839">
        <ele>122.1</ele>
        <time>2015-09-27T09:20:50Z</time>
      </trkpt>
      <trkpt lat="48.99369" lon="1.35855">
        <ele>122</ele>
        <time>2015-09-27T09:20:52Z</time>
      </trkpt>
      <trkpt lat="48.99365" lon="1.3587">
        <ele>121.9</ele>
        <time>2015-09-27T09:20:54Z</time>
      </trkpt>
      <trkpt lat="48.9936" lon="1.35886">
        <ele>121.8</ele>
        <time>2015-09-27T09:20:56Z</time>
      </trkpt>
      <trkpt lat="48.99355" lon="1.35901">
        <ele>121.7</ele>
        <time>2015-09-27T09:20:58Z</time>
      </trkpt>
      <trkpt lat="48.99351" lon="1.35916">
        <ele>121.6</ele>
        <time>2015-09-27T09:21:00Z</time>
      </trkpt>
      <trkpt lat="48.99347" lon="1.3593">
        <ele>121.5</ele>
        <time>2015-09-27T09:21:02Z</time>
      </trkpt>
      <trkpt lat="48.99342" lon="1.35944">
        <ele>121.4</ele>
        <time>2015-09-27T09:21:04Z</time>
      </trkpt>
      <trkpt lat="48.99339" lon="1.35958">
        <ele>121.3</ele>
        <time>2015-09-27T09:21:06Z</time>
      </trkpt>
      <trkpt lat="48.99335" lon="1.35971">
        <ele>121.3</ele>
        <time>2015-09-27T09:21:08Z</time>
      </trkpt>
      <trkpt lat="48.99331" lon="1.35985">
        <ele>121.3</ele>
        <time>2015-09-27T09:21:10Z</time>
      </trkpt>
      <trkpt lat="48.99327" lon="1.35998">
        <ele>121.3</ele>
        <time>2015-09-27T09:21:12Z</time>
      </trkpt>
      <trkpt lat="48.99323" lon="1.36012">
        <ele>121.3</ele>
        <time>2015-09-27T09:21:14Z</time>
      </trkpt>
      <trkpt lat="48.99319" lon="1.36025">
        <ele>121.4</ele>
        <time>2015-09-27T09:21:16Z</time>
      </trkpt>
      <trkpt lat="48.99316" lon="1.36039">
        <ele>121.4</ele>
        <time>2015-09-27T09:21:18Z</time>
      </trkpt>
      <trkpt lat="48.99312" lon="1.36053">
        <ele>121.4</ele>
        <time>2015-09-27T09:21:20Z</time>
      </trkpt>
      <trkpt lat="48.99308" lon="1.36068">
        <ele>121.4</ele>
        <time>2015-09-27T09:21:22Z</time>
      </trkpt>
      <trkpt lat="48.99303" lon="1.36082">
        <ele>121.4</ele>
        <time>2015-09-27T09:21:24Z</time>
      </trkpt>
      <trkpt lat="48.99299" lon="1.36096">
        <ele>121.5</ele>
        <time>2015-09-27T09:21:26Z</time>
      </trkpt>
      <trkpt lat="48.99295" lon="1.3611">
        <ele>121.5</ele>
        <time>2015-09-27T09:21:28Z</time>
      </trkpt>
      <trkpt lat="48.99291" lon="1.36124">
        <ele>121.6</ele>
        <time>2015-09-27T09:21:30Z</time>
      </trkpt>
      <trkpt lat="48.99287" lon="1.36139">
        <ele>121.8</ele>
        <time>2015-09-27T09:21:32Z</time>
      </trkpt>
      <trkpt lat="48.99283" lon="1.36153">
        <ele>122</ele>
        <time>2015-09-27T09:21:34Z</time>
      </trkpt>
      <trkpt lat="48.99279" lon="1.36166">
        <ele>122.1</ele>
        <time>2015-09-27T09:21:36Z</time>
      </trkpt>
      <trkpt lat="48.99275" lon="1.3618">
        <ele>122.3</ele>
        <time>2015-09-27T09:21:38Z</time>
      </trkpt>
      <trkpt lat="48.99271" lon="1.36194">
        <ele>122.5</ele>
        <time>2015-09-27T09:21:40Z</time>
      </trkpt>
      <trkpt lat="48.99267" lon="1.36208">
        <ele>122.7</ele>
        <time>2015-09-27T09:21:42Z</time>
      </trkpt>
      <trkpt lat="48.99263" lon="1.36222">
        <ele>122.8</ele>
        <time>2015-09-27T09:21:44Z</time>
      </trkpt>
      <trkpt lat="48.99258" lon="1.36237">
        <ele>122.9</ele>
        <time>2015-09-27T09:21:46Z</time>
      </trkpt>
      <trkpt lat="48.99254" lon="1.36252">
        <ele>123</ele>
        <time>2015-09-27T09:21:48Z</time>
      </trkpt>
      <trkpt lat="48.9925" lon="1.36267">
        <ele>123</ele>
        <time>2015-09-27T09:21:50Z</time>
      </trkpt>
      <trkpt lat="48.99246" lon="1.36281">
        <ele>123.1</ele>
        <time>2015-09-27T09:21:52Z</time>
      </trkpt>
      <trkpt lat="48.99241" lon="1.36297">
        <ele>123.2</ele>
        <time>2015-09-27T09:21:54Z</time>
      </trkpt>
      <trkpt lat="48.99237" lon="1.36312">
        <ele>123.2</ele>
        <time>2015-09-27T09:21:56Z</time>
      </trkpt>
      <trkpt lat="48.99232" lon="1.36327">
        <ele>123.2</ele>
        <time>2015-09-27T09:21:58Z</time>
      </trkpt>
      <trkpt lat="48.99228" lon="1.36343">
        <ele>123.1</ele>
        <time>2015-09-27T09:22:00Z</time>
      </trkpt>
      <trkpt lat="48.99223" lon="1.36358">
        <ele>123</ele>
        <time>2015-09-27T09:22:02Z</time>
      </trkpt>
      <trkpt lat="48.99219" lon="1.36374">
        <ele>123</ele>
        <time>2015-09-27T09:22:04Z</time>
      </trkpt>
      <trkpt lat="48.99214" lon="1.36389">
        <ele>122.9</ele>
        <time>2015-09-27T09:22:06Z</time>
      </trkpt>
      <trkpt lat="48.99209" lon="1.36405">
        <ele>122.8</ele>
        <time>2015-09-27T09:22:08Z</time>
      </trkpt>
      <trkpt lat="48.99204" lon="1.36422">
        <ele>122.8</ele>
        <time>2015-09-27T09:22:10Z</time>
      </trkpt>
      <trkpt lat="48.99199" lon="1.36438">
        <ele>122.7</ele>
        <time>2015-09-27T09:22:12Z</time>
      </trkpt>
      <trkpt lat="48.99194" lon="1.36455">
        <ele>122.6</ele>
        <time>2015-09-27T09:22:14Z</time>
      </trkpt>
      <trkpt lat="48.99188" lon="1.36472">
        <ele>122.6</ele>
        <time>2015-09-27T09:22:16Z</time>
      </trkpt>
      <trkpt lat="48.99182" lon="1.36489">
        <ele>122.5</ele>
        <time>2015-09-27T09:22:18Z</time>
      </trkpt>
      <trkpt lat="48.99177" lon="1.36507">
        <ele>122.5</ele>
        <time>2015-09-27T09:22:20Z</time>
      </trkpt>
      <trkpt lat="48.99171" lon="1.36526">
        <ele>122.3</ele>
        <time>2015-09-27T09:22:22Z</time>
      </trkpt>
      <trkpt lat="48.99166" lon="1.36545">
        <ele>122.1</ele>
        <time>2015-09-27T09:22:24Z</time>
      </trkpt>
      <trkpt lat="48.99161" lon="1.36563">
        <ele>121.9</ele>
        <time>2015-09-27T09:22:26Z</time>
      </trkpt>
      <trkpt lat="48.99157" lon="1.36582">
        <ele>121.6</ele>
        <time>2015-09-27T09:22:28Z</time>
      </trkpt>
      <trkpt lat="48.99154" lon="1.36602">
        <ele>121.4</ele>
        <time>2015-09-27T09:22:30Z</time>
      </trkpt>
      <trkpt lat="48.99148" lon="1.3662">
        <ele>121.1</ele>
        <time>2015-09-27T09:22:32Z</time>
      </trkpt>
      <trkpt lat="48.99139" lon="1.36636">
        <ele>120.9</ele>
        <time>2015-09-27T09:22:34Z</time>
      </trkpt>
      <trkpt lat="48.99131" lon="1.36654">
        <ele>120.4</ele>
        <time>2015-09-27T09:22:36Z</time>
      </trkpt>
      <trkpt lat="48.99123" lon="1.36673">
        <ele>119.9</ele>
        <time>2015-09-27T09:22:38Z</time>
      </trkpt>
      <trkpt lat="48.99116" lon="1.36692">
        <ele>119.5</ele>
        <time>2015-09-27T09:22:40Z</time>
      </trkpt>
      <trkpt lat="48.9911" lon="1.36712">
        <ele>119</ele>
        <time>2015-09-27T09:22:42Z</time>
      </trkpt>
      <trkpt lat="48.99103" lon="1.36733">
        <ele>118.5</ele>
        <time>2015-09-27T09:22:44Z</time>
      </trkpt>
      <trkpt lat="48.99097" lon="1.36754">
        <ele>118.1</ele>
        <time>2015-09-27T09:22:46Z</time>
      </trkpt>
      <trkpt lat="48.99091" lon="1.36775">
        <ele>117.6</ele>
        <time>2015-09-27T09:22:48Z</time>
      </trkpt>
      <trkpt lat="48.99085" lon="1.36796">
        <ele>117.1</ele>
        <time>2015-09-27T09:22:50Z</time>
      </trkpt>
      <trkpt lat="48.99078" lon="1.36818">
        <ele>116.5</ele>
        <time>2015-09-27T09:22:52Z</time>
      </trkpt>
      <trkpt lat="48.99072" lon="1.36839">
        <ele>116</ele>
        <time>2015-09-27T09:22:54Z</time>
      </trkpt>
      <trkpt lat="48.99066" lon="1.3686">
        <ele>115.6</ele>
        <time>2015-09-27T09:22:56Z</time>
      </trkpt>
      <trkpt lat="48.9906" lon="1.3688">
        <ele>115.1</ele>
        <time>2015-09-27T09:22:58Z</time>
      </trkpt>
      <trkpt lat="48.99055" lon="1.369">
        <ele>114.6</ele>
        <time>2015-09-27T09:23:00Z</time>
      </trkpt>
      <trkpt lat="48.99054" lon="1.36921">
        <ele>114.2</ele>
        <time>2015-09-27T09:23:02Z</time>
      </trkpt>
      <trkpt lat="48.99056" lon="1.36942">
        <ele>113.7</ele>
        <time>2015-09-27T09:23:04Z</time>
      </trkpt>
      <trkpt lat="48.99062" lon="1.36962">
        <ele>113.1</ele>
        <time>2015-09-27T09:23:06Z</time>
      </trkpt>
      <trkpt lat="48.99072" lon="1.36977">
        <ele>112.5</ele>
        <time>2015-09-27T09:23:08Z</time>
      </trkpt>
      <trkpt lat="48.99083" lon="1.36992">
        <ele>111.7</ele>
        <time>2015-09-27T09:23:10Z</time>
      </trkpt>
      <trkpt lat="48.99094" lon="1.37008">
        <ele>111</ele>
        <time>2015-09-27T09:23:12Z</time>
      </trkpt>
      <trkpt lat="48.99105" lon="1.37024">
        <ele>110.3</ele>
        <time>2015-09-27T09:23:14Z</time>
      </trkpt>
      <trkpt lat="48.99119" lon="1.37042">
        <ele>109.5</ele>
        <time>2015-09-27T09:23:16Z</time>
      </trkpt>
      <trkpt lat="48.99126" lon="1.3705">
        <ele>109</ele>
        <time>2015-09-27T09:23:17Z</time>
      </trkpt>
      <trkpt lat="48.99133" lon="1.37059">
        <ele>108.5</ele>
        <time>2015-09-27T09:23:18Z</time>
      </trkpt>
      <trkpt lat="48.99142" lon="1.37068">
        <ele>108</ele>
        <time>2015-09-27T09:23:19Z</time>
      </trkpt>
      <trkpt lat="48.9915" lon="1.37077">
        <ele>107.5</ele>
        <time>2015-09-27T09:23:20Z</time>
      </trkpt>
      <trkpt lat="48.99159" lon="1.37085">
        <ele>106.9</ele>
        <time>2015-09-27T09:23:21Z</time>
      </trkpt>
      <trkpt lat="48.99167" lon="1.37094">
        <ele>106.3</ele>
        <time>2015-09-27T09:23:22Z</time>
      </trkpt>
      <trkpt lat="48.99177" lon="1.37103">
        <ele>105.6</ele>
        <time>2015-09-27T09:23:23Z</time>
      </trkpt>
      <trkpt lat="48.99187" lon="1.3711">
        <ele>105</ele>
        <time>2015-09-27T09:23:24Z</time>
      </trkpt>
      <trkpt lat="48.99197" lon="1.37116">
        <ele>104.3</ele>
        <time>2015-09-27T09:23:25Z</time>
      </trkpt>
      <trkpt lat="48.99208" lon="1.37123">
        <ele>103.5</ele>
        <time>2015-09-27T09:23:26Z</time>
      </trkpt>
      <trkpt lat="48.99219" lon="1.37128">
        <ele>102.7</ele>
        <time>2015-09-27T09:23:27Z</time>
      </trkpt>
      <trkpt lat="48.99229" lon="1.37134">
        <ele>101.9</ele>
        <time>2015-09-27T09:23:28Z</time>
      </trkpt>
      <trkpt lat="48.9924" lon="1.37138">
        <ele>101.1</ele>
        <time>2015-09-27T09:23:29Z</time>
      </trkpt>
      <trkpt lat="48.99252" lon="1.37144">
        <ele>100.3</ele>
        <time>2015-09-27T09:23:30Z</time>
      </trkpt>
      <trkpt lat="48.99263" lon="1.37149">
        <ele>99.3</ele>
        <time>2015-09-27T09:23:31Z</time>
      </trkpt>
      <trkpt lat="48.99274" lon="1.37156">
        <ele>98.4</ele>
        <time>2015-09-27T09:23:32Z</time>
      </trkpt>
      <trkpt lat="48.99285" lon="1.37163">
        <ele>97.6</ele>
        <time>2015-09-27T09:23:33Z</time>
      </trkpt>
      <trkpt lat="48.99296" lon="1.3717">
        <ele>96.6</ele>
        <time>2015-09-27T09:23:34Z</time>
      </trkpt>
      <trkpt lat="48.99306" lon="1.37179">
        <ele>95.7</ele>
        <time>2015-09-27T09:23:35Z</time>
      </trkpt>
      <trkpt lat="48.99315" lon="1.37187">
        <ele>94.8</ele>
        <time>2015-09-27T09:23:36Z</time>
      </trkpt>
      <trkpt lat="48.99324" lon="1.37197">
        <ele>93.9</ele>
        <time>2015-09-27T09:23:37Z</time>
      </trkpt>
      <trkpt lat="48.99333" lon="1.37205">
        <ele>93</ele>
        <time>2015-09-27T09:23:38Z</time>
      </trkpt>
      <trkpt lat="48.99341" lon="1.37215">
        <ele>92.1</ele>
        <time>2015-09-27T09:23:39Z</time>
      </trkpt>
      <trkpt lat="48.9935" lon="1.37223">
        <ele>91.2</ele>
        <time>2015-09-27T09:23:40Z</time>
      </trkpt>
      <trkpt lat="48.99358" lon="1.37232">
        <ele>90.4</ele>
        <time>2015-09-27T09:23:41Z</time>
      </trkpt>
      <trkpt lat="48.99366" lon="1.37241">
        <ele>89.5</ele>
        <time>2015-09-27T09:23:42Z</time>
      </trkpt>
      <trkpt lat="48.99374" lon="1.37248">
        <ele>88.7</ele>
        <time>2015-09-27T09:23:43Z</time>
      </trkpt>
      <trkpt lat="48.99383" lon="1.37255">
        <ele>87.9</ele>
        <time>2015-09-27T09:23:44Z</time>
      </trkpt>
      <trkpt lat="48.99391" lon="1.37262">
        <ele>87.1</ele>
        <time>2015-09-27T09:23:45Z</time>
      </trkpt>
      <trkpt lat="48.99399" lon="1.37268">
        <ele>86.2</ele>
        <time>2015-09-27T09:23:46Z</time>
      </trkpt>
      <trkpt lat="48.99415" lon="1.37279">
        <ele>84.7</ele>
        <time>2015-09-27T09:23:48Z</time>
      </trkpt>
      <trkpt lat="48.99431" lon="1.37288">
        <ele>83.2</ele>
        <time>2015-09-27T09:23:50Z</time>
      </trkpt>
      <trkpt lat="48.99447" lon="1.37297">
        <ele>81.6</ele>
        <time>2015-09-27T09:23:52Z</time>
      </trkpt>
      <trkpt lat="48.99463" lon="1.37305">
        <ele>80.2</ele>
        <time>2015-09-27T09:23:54Z</time>
      </trkpt>
      <trkpt lat="48.99478" lon="1.37313">
        <ele>78.9</ele>
        <time>2015-09-27T09:23:56Z</time>
      </trkpt>
      <trkpt lat="48.99494" lon="1.37321">
        <ele>77.5</ele>
        <time>2015-09-27T09:23:58Z</time>
      </trkpt>
      <trkpt lat="48.9951" lon="1.37329">
        <ele>76.1</ele>
        <time>2015-09-27T09:24:00Z</time>
      </trkpt>
      <trkpt lat="48.99526" lon="1.37337">
        <ele>74.9</ele>
        <time>2015-09-27T09:24:02Z</time>
      </trkpt>
      <trkpt lat="48.99542" lon="1.37345">
        <ele>73.6</ele>
        <time>2015-09-27T09:24:04Z</time>
      </trkpt>
      <trkpt lat="48.99559" lon="1.37354">
        <ele>72.4</ele>
        <time>2015-09-27T09:24:06Z</time>
      </trkpt>
      <trkpt lat="48.99576" lon="1.37362">
        <ele>71.1</ele>
        <time>2015-09-27T09:24:08Z</time>
      </trkpt>
      <trkpt lat="48.99593" lon="1.3737">
        <ele>69.8</ele>
        <time>2015-09-27T09:24:10Z</time>
      </trkpt>
      <trkpt lat="48.99609" lon="1.37379">
        <ele>68.4</ele>
        <time>2015-09-27T09:24:12Z</time>
      </trkpt>
      <trkpt lat="48.99622" lon="1.37387">
        <ele>66.8</ele>
        <time>2015-09-27T09:24:14Z</time>
      </trkpt>
      <trkpt lat="48.99629" lon="1.37396">
        <ele>65.2</ele>
        <time>2015-09-27T09:24:16Z</time>
      </trkpt>
      <trkpt lat="48.99629" lon="1.37413">
        <ele>62.8</ele>
        <time>2015-09-27T09:24:19Z</time>
      </trkpt>
      <trkpt lat="48.99623" lon="1.37428">
        <ele>61.4</ele>
        <time>2015-09-27T09:24:21Z</time>
      </trkpt>
      <trkpt lat="48.99615" lon="1.37443">
        <ele>60.1</ele>
        <time>2015-09-27T09:24:23Z</time>
      </trkpt>
      <trkpt lat="48.99607" lon="1.37459">
        <ele>58.8</ele>
        <time>2015-09-27T09:24:25Z</time>
      </trkpt>
      <trkpt lat="48.99598" lon="1.37477">
        <ele>57.7</ele>
        <time>2015-09-27T09:24:27Z</time>
      </trkpt>
      <trkpt lat="48.99591" lon="1.37492">
        <ele>56.6</ele>
        <time>2015-09-27T09:24:29Z</time>
      </trkpt>
      <trkpt lat="48.99584" lon="1.37505">
        <ele>55.7</ele>
        <time>2015-09-27T09:24:31Z</time>
      </trkpt>
      <trkpt lat="48.99577" lon="1.3752">
        <ele>54.9</ele>
        <time>2015-09-27T09:24:33Z</time>
      </trkpt>
      <trkpt lat="48.99568" lon="1.37537">
        <ele>54.2</ele>
        <time>2015-09-27T09:24:35Z</time>
      </trkpt>
      <trkpt lat="48.99559" lon="1.37556">
        <ele>53.4</ele>
        <time>2015-09-27T09:24:37Z</time>
      </trkpt>
      <trkpt lat="48.99552" lon="1.37577">
        <ele>52.4</ele>
        <time>2015-09-27T09:24:39Z</time>
      </trkpt>
      <trkpt lat="48.99545" lon="1.37599">
        <ele>51.6</ele>
        <time>2015-09-27T09:24:41Z</time>
      </trkpt>
      <trkpt lat="48.99539" lon="1.37622">
        <ele>50.7</ele>
        <time>2015-09-27T09:24:43Z</time>
      </trkpt>
      <trkpt lat="48.99533" lon="1.37644">
        <ele>49.9</ele>
        <time>2015-09-27T09:24:45Z</time>
      </trkpt>
      <trkpt lat="48.99526" lon="1.37665">
        <ele>49.1</ele>
        <time>2015-09-27T09:24:47Z</time>
      </trkpt>
      <trkpt lat="48.99521" lon="1.37687">
        <ele>48.3</ele>
        <time>2015-09-27T09:24:49Z</time>
      </trkpt>
      <trkpt lat="48.99519" lon="1.3771">
        <ele>47.5</ele>
        <time>2015-09-27T09:24:51Z</time>
      </trkpt>
      <trkpt lat="48.9952" lon="1.37732">
        <ele>46.9</ele>
        <time>2015-09-27T09:24:53Z</time>
      </trkpt>
      <trkpt lat="48.99523" lon="1.37754">
        <ele>46.1</ele>
        <time>2015-09-27T09:24:55Z</time>
      </trkpt>
      <trkpt lat="48.99526" lon="1.37777">
        <ele>45.5</ele>
        <time>2015-09-27T09:24:57Z</time>
      </trkpt>
      <trkpt lat="48.99529" lon="1.378">
        <ele>44.7</ele>
        <time>2015-09-27T09:24:59Z</time>
      </trkpt>
      <trkpt lat="48.99532" lon="1.37823">
        <ele>44</ele>
        <time>2015-09-27T09:25:01Z</time>
      </trkpt>
      <trkpt lat="48.99534" lon="1.37845">
        <ele>43.3</ele>
        <time>2015-09-27T09:25:03Z</time>
      </trkpt>
      <trkpt lat="48.99538" lon="1.37866">
        <ele>42.5</ele>
        <time>2015-09-27T09:25:05Z</time>
      </trkpt>
      <trkpt lat="48.9954" lon="1.37887">
        <ele>41.9</ele>
        <time>2015-09-27T09:25:07Z</time>
      </trkpt>
      <trkpt lat="48.99543" lon="1.37908">
        <ele>41.2</ele>
        <time>2015-09-27T09:25:09Z</time>
      </trkpt>
      <trkpt lat="48.99545" lon="1.37928">
        <ele>40.6</ele>
        <time>2015-09-27T09:25:11Z</time>
      </trkpt>
      <trkpt lat="48.99548" lon="1.37948">
        <ele>40</ele>
        <time>2015-09-27T09:25:13Z</time>
      </trkpt>
      <trkpt lat="48.9955" lon="1.37969">
        <ele>39.5</ele>
        <time>2015-09-27T09:25:15Z</time>
      </trkpt>
      <trkpt lat="48.99552" lon="1.37989">
        <ele>39</ele>
        <time>2015-09-27T09:25:17Z</time>
      </trkpt>
      <trkpt lat="48.99554" lon="1.38009">
        <ele>38.5</ele>
        <time>2015-09-27T09:25:19Z</time>
      </trkpt>
      <trkpt lat="48.99556" lon="1.38027">
        <ele>38.1</ele>
        <time>2015-09-27T09:25:21Z</time>
      </trkpt>
      <trkpt lat="48.99558" lon="1.38045">
        <ele>37.7</ele>
        <time>2015-09-27T09:25:23Z</time>
      </trkpt>
      <trkpt lat="48.9956" lon="1.38063">
        <ele>37.4</ele>
        <time>2015-09-27T09:25:25Z</time>
      </trkpt>
      <trkpt lat="48.99563" lon="1.38081">
        <ele>37.1</ele>
        <time>2015-09-27T09:25:27Z</time>
      </trkpt>
      <trkpt lat="48.99565" lon="1.38099">
        <ele>36.7</ele>
        <time>2015-09-27T09:25:29Z</time>
      </trkpt>
      <trkpt lat="48.99567" lon="1.38116">
        <ele>36.5</ele>
        <time>2015-09-27T09:25:31Z</time>
      </trkpt>
      <trkpt lat="48.9957" lon="1.38133">
        <ele>36.2</ele>
        <time>2015-09-27T09:25:33Z</time>
      </trkpt>
      <trkpt lat="48.99572" lon="1.3815">
        <ele>36</ele>
        <time>2015-09-27T09:25:35Z</time>
      </trkpt>
      <trkpt lat="48.99574" lon="1.38166">
        <ele>35.7</ele>
        <time>2015-09-27T09:25:37Z</time>
      </trkpt>
      <trkpt lat="48.99575" lon="1.38182">
        <ele>35.5</ele>
        <time>2015-09-27T09:25:39Z</time>
      </trkpt>
      <trkpt lat="48.99577" lon="1.38198">
        <ele>35.3</ele>
        <time>2015-09-27T09:25:41Z</time>
      </trkpt>
      <trkpt lat="48.99578" lon="1.38214">
        <ele>35.1</ele>
        <time>2015-09-27T09:25:43Z</time>
      </trkpt>
      <trkpt lat="48.99579" lon="1.38229">
        <ele>34.9</ele>
        <time>2015-09-27T09:25:45Z</time>
      </trkpt>
      <trkpt lat="48.9958" lon="1.38245">
        <ele>34.8</ele>
        <time>2015-09-27T09:25:47Z</time>
      </trkpt>
      <trkpt lat="48.99581" lon="1.38261">
        <ele>34.6</ele>
        <time>2015-09-27T09:25:49Z</time>
      </trkpt>
      <trkpt lat="48.9958" lon="1.38278">
        <ele>34.5</ele>
        <time>2015-09-27T09:25:51Z</time>
      </trkpt>
      <trkpt lat="48.99576" lon="1.38292">
        <ele>34.4</ele>
        <time>2015-09-27T09:25:53Z</time>
      </trkpt>
      <trkpt lat="48.99569" lon="1.38302">
        <ele>34.3</ele>
        <time>2015-09-27T09:25:55Z</time>
      </trkpt>
      <trkpt lat="48.99563" lon="1.38311">
        <ele>34.3</ele>
        <time>2015-09-27T09:25:57Z</time>
      </trkpt>
      <trkpt lat="48.99556" lon="1.38322">
        <ele>34.2</ele>
        <time>2015-09-27T09:25:59Z</time>
      </trkpt>
      <trkpt lat="48.99547" lon="1.38334">
        <ele>34.1</ele>
        <time>2015-09-27T09:26:02Z</time>
      </trkpt>
      <trkpt lat="48.99539" lon="1.38347">
        <ele>34</ele>
        <time>2015-09-27T09:26:05Z</time>
      </trkpt>
      <trkpt lat="48.99532" lon="1.38357">
        <ele>34</ele>
        <time>2015-09-27T09:26:08Z</time>
      </trkpt>
      <trkpt lat="48.99523" lon="1.38369">
        <ele>33.9</ele>
        <time>2015-09-27T09:26:12Z</time>
      </trkpt>
      <trkpt lat="48.99518" lon="1.3838">
        <ele>33.9</ele>
        <time>2015-09-27T09:26:16Z</time>
      </trkpt>
      <trkpt lat="48.99517" lon="1.38394">
        <ele>33.8</ele>
        <time>2015-09-27T09:26:21Z</time>
      </trkpt>
      <trkpt lat="48.99518" lon="1.38404">
        <ele>33.4</ele>
        <time>2015-09-27T09:26:37Z</time>
      </trkpt>
    </trkseg>
  </trk>
</gpx>